<?xml version="1.0" encoding="UTF-8"?>
<gpx xmlns="http://www.topografix.com/GPX/1/0"
  version="1.0" creator="iGO 2006"
  xmlns:xsi="http://www.w3.org/2001/XMLSchema-instance"
  xsi:schemaLocation="http://www.topografix.com/GPX/1/0 http://www.topografix.com/GPX/1/0/gpx.xsd">
  <trk>
    <trkseg>
      <trkpt lat="11.18613017" lon="-74.22570539">
<time>2014-05-18T20:58:22Z</time>
</trkpt>
      <trkpt lat="11.18612266" lon="-74.22571182">
<time>2014-05-18T20:58:24Z</time>
</trkpt>
      <trkpt lat="11.18611729" lon="-74.22571075">
<time>2014-05-18T20:58:26Z</time>
</trkpt>
      <trkpt lat="11.18611515" lon="-74.22571850">
<time>2014-05-18T20:58:28Z</time>
</trkpt>
      <trkpt lat="11.18612361" lon="-74.22573972">
<time>2014-05-18T20:58:30Z</time>
</trkpt>
      <trkpt lat="11.18611860" lon="-74.22573400">
<time>2014-05-18T20:58:32Z</time>
</trkpt>
      <trkpt lat="11.18607843" lon="-74.22569716">
<time>2014-05-18T20:58:34Z</time>
</trkpt>
      <trkpt lat="11.18603408" lon="-74.22565842">
<time>2014-05-18T20:58:36Z</time>
</trkpt>
      <trkpt lat="11.18596673" lon="-74.22561896">
<time>2014-05-18T20:58:38Z</time>
</trkpt>
      <trkpt lat="11.18588078" lon="-74.22555423">
<time>2014-05-18T20:58:40Z</time>
</trkpt>
      <trkpt lat="11.18578756" lon="-74.22551608">
<time>2014-05-18T20:58:42Z</time>
</trkpt>
      <trkpt lat="11.18561649" lon="-74.22547698">
<time>2014-05-18T20:58:44Z</time>
</trkpt>
      <trkpt lat="11.18538499" lon="-74.22545648">
<time>2014-05-18T20:58:46Z</time>
</trkpt>
      <trkpt lat="11.18512726" lon="-74.22542346">
<time>2014-05-18T20:58:48Z</time>
</trkpt>
      <trkpt lat="11.18482232" lon="-74.22542930">
<time>2014-05-18T20:58:50Z</time>
</trkpt>
      <trkpt lat="11.18447506" lon="-74.22546875">
<time>2014-05-18T20:58:52Z</time>
</trkpt>
      <trkpt lat="11.18410277" lon="-74.22552788">
<time>2014-05-18T20:58:54Z</time>
</trkpt>
      <trkpt lat="11.18371427" lon="-74.22560608">
<time>2014-05-18T20:58:56Z</time>
</trkpt>
      <trkpt lat="11.18334877" lon="-74.22570109">
<time>2014-05-18T20:58:58Z</time>
</trkpt>
      <trkpt lat="11.18301010" lon="-74.22581816">
<time>2014-05-18T20:59:00Z</time>
</trkpt>
      <trkpt lat="11.18268633" lon="-74.22596681">
<time>2014-05-18T20:59:02Z</time>
</trkpt>
      <trkpt lat="11.18235600" lon="-74.22614849">
<time>2014-05-18T20:59:04Z</time>
</trkpt>
      <trkpt lat="11.18202913" lon="-74.22636497">
<time>2014-05-18T20:59:06Z</time>
</trkpt>
      <trkpt lat="11.18169332" lon="-74.22660625">
<time>2014-05-18T20:59:08Z</time>
</trkpt>
      <trkpt lat="11.18134999" lon="-74.22683322">
<time>2014-05-18T20:59:10Z</time>
</trkpt>
      <trkpt lat="11.18098390" lon="-74.22707522">
<time>2014-05-18T20:59:12Z</time>
</trkpt>
      <trkpt lat="11.18061650" lon="-74.22733676">
<time>2014-05-18T20:59:14Z</time>
</trkpt>
      <trkpt lat="11.18025827" lon="-74.22759783">
<time>2014-05-18T20:59:16Z</time>
</trkpt>
      <trkpt lat="11.17992866" lon="-74.22789407">
<time>2014-05-18T20:59:18Z</time>
</trkpt>
      <trkpt lat="11.17963862" lon="-74.22821057">
<time>2014-05-18T20:59:20Z</time>
</trkpt>
      <trkpt lat="11.17938673" lon="-74.22854292">
<time>2014-05-18T20:59:22Z</time>
</trkpt>
      <trkpt lat="11.17914045" lon="-74.22887456">
<time>2014-05-18T20:59:24Z</time>
</trkpt>
      <trkpt lat="11.17888641" lon="-74.22919929">
<time>2014-05-18T20:59:26Z</time>
</trkpt>
      <trkpt lat="11.17858958" lon="-74.22950315">
<time>2014-05-18T20:59:28Z</time>
</trkpt>
      <trkpt lat="11.17824578" lon="-74.22979343">
<time>2014-05-18T20:59:30Z</time>
</trkpt>
      <trkpt lat="11.17787373" lon="-74.23007655">
<time>2014-05-18T20:59:32Z</time>
</trkpt>
      <trkpt lat="11.17747879" lon="-74.23036122">
<time>2014-05-18T20:59:34Z</time>
</trkpt>
      <trkpt lat="11.17708921" lon="-74.23062181">
<time>2014-05-18T20:59:36Z</time>
</trkpt>
      <trkpt lat="11.17671990" lon="-74.23083305">
<time>2014-05-18T20:59:38Z</time>
</trkpt>
      <trkpt lat="11.17635608" lon="-74.23097491">
<time>2014-05-18T20:59:40Z</time>
</trkpt>
      <trkpt lat="11.17596483" lon="-74.23104882">
<time>2014-05-18T20:59:42Z</time>
</trkpt>
      <trkpt lat="11.17554939" lon="-74.23105133">
<time>2014-05-18T20:59:44Z</time>
</trkpt>
      <trkpt lat="11.17511606" lon="-74.23099339">
<time>2014-05-18T20:59:46Z</time>
</trkpt>
      <trkpt lat="11.17466795" lon="-74.23090577">
<time>2014-05-18T20:59:48Z</time>
</trkpt>
      <trkpt lat="11.17421126" lon="-74.23080182">
<time>2014-05-18T20:59:50Z</time>
</trkpt>
      <trkpt lat="11.17374659" lon="-74.23068500">
<time>2014-05-18T20:59:52Z</time>
</trkpt>
      <trkpt lat="11.17326510" lon="-74.23058081">
<time>2014-05-18T20:59:54Z</time>
</trkpt>
      <trkpt lat="11.17278707" lon="-74.23047090">
<time>2014-05-18T20:59:56Z</time>
</trkpt>
      <trkpt lat="11.17229211" lon="-74.23035538">
<time>2014-05-18T20:59:58Z</time>
</trkpt>
      <trkpt lat="11.17179143" lon="-74.23023593">
<time>2014-05-18T21:00:00Z</time>
</trkpt>
      <trkpt lat="11.17128778" lon="-74.23011363">
<time>2014-05-18T21:00:02Z</time>
</trkpt>
      <trkpt lat="11.17079842" lon="-74.22999156">
<time>2014-05-18T21:00:04Z</time>
</trkpt>
      <trkpt lat="11.17033947" lon="-74.22986448">
<time>2014-05-18T21:00:06Z</time>
</trkpt>
      <trkpt lat="11.16988611" lon="-74.22972763">
<time>2014-05-18T21:00:08Z</time>
</trkpt>
      <trkpt lat="11.16943610" lon="-74.22956145">
<time>2014-05-18T21:00:10Z</time>
</trkpt>
      <trkpt lat="11.16897678" lon="-74.22938240">
<time>2014-05-18T21:00:12Z</time>
</trkpt>
      <trkpt lat="11.16851413" lon="-74.22920907">
<time>2014-05-18T21:00:14Z</time>
</trkpt>
      <trkpt lat="11.16804838" lon="-74.22902346">
<time>2014-05-18T21:00:16Z</time>
</trkpt>
      <trkpt lat="11.16756356" lon="-74.22882509">
<time>2014-05-18T21:00:18Z</time>
</trkpt>
      <trkpt lat="11.16706872" lon="-74.22863722">
<time>2014-05-18T21:00:20Z</time>
</trkpt>
      <trkpt lat="11.16659856" lon="-74.22846425">
<time>2014-05-18T21:00:22Z</time>
</trkpt>
      <trkpt lat="11.16615605" lon="-74.22829747">
<time>2014-05-18T21:00:24Z</time>
</trkpt>
      <trkpt lat="11.16572165" lon="-74.22813165">
<time>2014-05-18T21:00:26Z</time>
</trkpt>
      <trkpt lat="11.16528010" lon="-74.22796226">
<time>2014-05-18T21:00:28Z</time>
</trkpt>
      <trkpt lat="11.16485298" lon="-74.22779465">
<time>2014-05-18T21:00:30Z</time>
</trkpt>
      <trkpt lat="11.16443074" lon="-74.22763765">
<time>2014-05-18T21:00:32Z</time>
</trkpt>
      <trkpt lat="11.16400278" lon="-74.22746861">
<time>2014-05-18T21:00:34Z</time>
</trkpt>
      <trkpt lat="11.16357815" lon="-74.22729623">
<time>2014-05-18T21:00:36Z</time>
</trkpt>
      <trkpt lat="11.16320062" lon="-74.22710657">
<time>2014-05-18T21:00:38Z</time>
</trkpt>
      <trkpt lat="11.16286612" lon="-74.22686255">
<time>2014-05-18T21:00:40Z</time>
</trkpt>
      <trkpt lat="11.16254425" lon="-74.22655249">
<time>2014-05-18T21:00:42Z</time>
</trkpt>
      <trkpt lat="11.16222095" lon="-74.22621572">
<time>2014-05-18T21:00:44Z</time>
</trkpt>
      <trkpt lat="11.16189063" lon="-74.22585809">
<time>2014-05-18T21:00:46Z</time>
</trkpt>
      <trkpt lat="11.16156161" lon="-74.22548807">
<time>2014-05-18T21:00:48Z</time>
</trkpt>
      <trkpt lat="11.16124415" lon="-74.22512794">
<time>2014-05-18T21:00:50Z</time>
</trkpt>
      <trkpt lat="11.16094029" lon="-74.22480416">
<time>2014-05-18T21:00:52Z</time>
</trkpt>
      <trkpt lat="11.16062164" lon="-74.22453129">
<time>2014-05-18T21:00:54Z</time>
</trkpt>
      <trkpt lat="11.16026628" lon="-74.22432292">
<time>2014-05-18T21:00:56Z</time>
</trkpt>
      <trkpt lat="11.15986764" lon="-74.22417164">
<time>2014-05-18T21:00:58Z</time>
</trkpt>
      <trkpt lat="11.15943766" lon="-74.22405541">
<time>2014-05-18T21:01:00Z</time>
</trkpt>
      <trkpt lat="11.15897799" lon="-74.22394693">
<time>2014-05-18T21:01:02Z</time>
</trkpt>
      <trkpt lat="11.15851712" lon="-74.22383881">
<time>2014-05-18T21:01:04Z</time>
</trkpt>
      <trkpt lat="11.15805674" lon="-74.22373307">
<time>2014-05-18T21:01:06Z</time>
</trkpt>
      <trkpt lat="11.15758812" lon="-74.22362876">
<time>2014-05-18T21:01:08Z</time>
</trkpt>
      <trkpt lat="11.15711761" lon="-74.22351897">
<time>2014-05-18T21:01:10Z</time>
</trkpt>
      <trkpt lat="11.15664196" lon="-74.22341490">
<time>2014-05-18T21:01:12Z</time>
</trkpt>
      <trkpt lat="11.15617716" lon="-74.22330725">
<time>2014-05-18T21:01:14Z</time>
</trkpt>
      <trkpt lat="11.15571356" lon="-74.22319376">
<time>2014-05-18T21:01:16Z</time>
</trkpt>
      <trkpt lat="11.15524125" lon="-74.22307932">
<time>2014-05-18T21:01:18Z</time>
</trkpt>
      <trkpt lat="11.15474439" lon="-74.22297132">
<time>2014-05-18T21:01:20Z</time>
</trkpt>
      <trkpt lat="11.15424800" lon="-74.22285700">
<time>2014-05-18T21:01:22Z</time>
</trkpt>
      <trkpt lat="11.15374815" lon="-74.22273147">
<time>2014-05-18T21:01:24Z</time>
</trkpt>
      <trkpt lat="11.15324473" lon="-74.22260392">
<time>2014-05-18T21:01:26Z</time>
</trkpt>
      <trkpt lat="11.15273988" lon="-74.22247839">
<time>2014-05-18T21:01:28Z</time>
</trkpt>
      <trkpt lat="11.15224159" lon="-74.22236514">
<time>2014-05-18T21:01:30Z</time>
</trkpt>
      <trkpt lat="11.15173423" lon="-74.22225440">
<time>2014-05-18T21:01:32Z</time>
</trkpt>
      <trkpt lat="11.15124047" lon="-74.22215092">
<time>2014-05-18T21:01:34Z</time>
</trkpt>
      <trkpt lat="11.15074515" lon="-74.22204089">
<time>2014-05-18T21:01:36Z</time>
</trkpt>
      <trkpt lat="11.15025997" lon="-74.22192562">
<time>2014-05-18T21:01:38Z</time>
</trkpt>
      <trkpt lat="11.14979482" lon="-74.22180843">
<time>2014-05-18T21:01:40Z</time>
</trkpt>
      <trkpt lat="11.14936364" lon="-74.22170615">
<time>2014-05-18T21:01:42Z</time>
</trkpt>
      <trkpt lat="11.14896429" lon="-74.22161639">
<time>2014-05-18T21:01:44Z</time>
</trkpt>
      <trkpt lat="11.14857149" lon="-74.22153580">
<time>2014-05-18T21:01:46Z</time>
</trkpt>
      <trkpt lat="11.14817047" lon="-74.22148764">
<time>2014-05-18T21:01:48Z</time>
</trkpt>
      <trkpt lat="11.14777088" lon="-74.22150290">
<time>2014-05-18T21:01:50Z</time>
</trkpt>
      <trkpt lat="11.14736879" lon="-74.22154832">
<time>2014-05-18T21:01:52Z</time>
</trkpt>
      <trkpt lat="11.14698195" lon="-74.22165442">
<time>2014-05-18T21:01:54Z</time>
</trkpt>
      <trkpt lat="11.14659965" lon="-74.22180963">
<time>2014-05-18T21:01:56Z</time>
</trkpt>
      <trkpt lat="11.14621794" lon="-74.22202313">
<time>2014-05-18T21:01:58Z</time>
</trkpt>
      <trkpt lat="11.14583158" lon="-74.22227573">
<time>2014-05-18T21:02:00Z</time>
</trkpt>
      <trkpt lat="11.14544106" lon="-74.22252774">
<time>2014-05-18T21:02:02Z</time>
</trkpt>
      <trkpt lat="11.14506280" lon="-74.22278774">
<time>2014-05-18T21:02:04Z</time>
</trkpt>
      <trkpt lat="11.14470410" lon="-74.22304010">
<time>2014-05-18T21:02:06Z</time>
</trkpt>
      <trkpt lat="11.14436710" lon="-74.22325647">
<time>2014-05-18T21:02:08Z</time>
</trkpt>
      <trkpt lat="11.14405227" lon="-74.22345948">
<time>2014-05-18T21:02:10Z</time>
</trkpt>
      <trkpt lat="11.14375544" lon="-74.22364593">
<time>2014-05-18T21:02:12Z</time>
</trkpt>
      <trkpt lat="11.14345789" lon="-74.22381210">
<time>2014-05-18T21:02:14Z</time>
</trkpt>
      <trkpt lat="11.14314997" lon="-74.22396374">
<time>2014-05-18T21:02:16Z</time>
</trkpt>
      <trkpt lat="11.14285064" lon="-74.22408342">
<time>2014-05-18T21:02:18Z</time>
</trkpt>
      <trkpt lat="11.14253342" lon="-74.22418261">
<time>2014-05-18T21:02:20Z</time>
</trkpt>
      <trkpt lat="11.14218712" lon="-74.22427881">
<time>2014-05-18T21:02:22Z</time>
</trkpt>
      <trkpt lat="11.14181149" lon="-74.22437179">
<time>2014-05-18T21:02:24Z</time>
</trkpt>
      <trkpt lat="11.14140224" lon="-74.22445357">
<time>2014-05-18T21:02:26Z</time>
</trkpt>
      <trkpt lat="11.14097178" lon="-74.22451782">
<time>2014-05-18T21:02:28Z</time>
</trkpt>
      <trkpt lat="11.14051211" lon="-74.22457898">
<time>2014-05-18T21:02:30Z</time>
</trkpt>
      <trkpt lat="11.14003575" lon="-74.22464740">
<time>2014-05-18T21:02:32Z</time>
</trkpt>
      <trkpt lat="11.13954997" lon="-74.22471726">
<time>2014-05-18T21:02:34Z</time>
</trkpt>
      <trkpt lat="11.13906288" lon="-74.22479260">
<time>2014-05-18T21:02:36Z</time>
</trkpt>
      <trkpt lat="11.13857174" lon="-74.22486675">
<time>2014-05-18T21:02:38Z</time>
</trkpt>
      <trkpt lat="11.13809025" lon="-74.22494125">
<time>2014-05-18T21:02:40Z</time>
</trkpt>
      <trkpt lat="11.13760710" lon="-74.22501695">
<time>2014-05-18T21:02:42Z</time>
</trkpt>
      <trkpt lat="11.13712215" lon="-74.22509480">
<time>2014-05-18T21:02:44Z</time>
</trkpt>
      <trkpt lat="11.13662326" lon="-74.22517598">
<time>2014-05-18T21:02:46Z</time>
</trkpt>
      <trkpt lat="11.13609457" lon="-74.22527099">
<time>2014-05-18T21:02:48Z</time>
</trkpt>
      <trkpt lat="11.13555479" lon="-74.22538006">
<time>2014-05-18T21:02:50Z</time>
</trkpt>
      <trkpt lat="11.13500416" lon="-74.22548807">
<time>2014-05-18T21:02:52Z</time>
</trkpt>
      <trkpt lat="11.13443410" lon="-74.22559226">
<time>2014-05-18T21:02:54Z</time>
</trkpt>
      <trkpt lat="11.13385606" lon="-74.22569346">
<time>2014-05-18T21:02:56Z</time>
</trkpt>
      <trkpt lat="11.13328123" lon="-74.22577775">
<time>2014-05-18T21:02:58Z</time>
</trkpt>
      <trkpt lat="11.13271642" lon="-74.22584939">
<time>2014-05-18T21:03:00Z</time>
</trkpt>
      <trkpt lat="11.13215446" lon="-74.22591841">
<time>2014-05-18T21:03:02Z</time>
</trkpt>
      <trkpt lat="11.13160527" lon="-74.22598505">
<time>2014-05-18T21:03:04Z</time>
</trkpt>
      <trkpt lat="11.13106465" lon="-74.22606289">
<time>2014-05-18T21:03:06Z</time>
</trkpt>
      <trkpt lat="11.13052773" lon="-74.22613811">
<time>2014-05-18T21:03:08Z</time>
</trkpt>
      <trkpt lat="11.12999845" lon="-74.22621906">
<time>2014-05-18T21:03:10Z</time>
</trkpt>
      <trkpt lat="11.12946808" lon="-74.22627807">
<time>2014-05-18T21:03:12Z</time>
</trkpt>
      <trkpt lat="11.12893271" lon="-74.22631133">
<time>2014-05-18T21:03:14Z</time>
</trkpt>
      <trkpt lat="11.12839496" lon="-74.22631264">
<time>2014-05-18T21:03:16Z</time>
</trkpt>
      <trkpt lat="11.12787712" lon="-74.22627795">
<time>2014-05-18T21:03:18Z</time>
</trkpt>
      <trkpt lat="11.12736928" lon="-74.22622073">
<time>2014-05-18T21:03:20Z</time>
</trkpt>
      <trkpt lat="11.12686706" lon="-74.22613549">
<time>2014-05-18T21:03:22Z</time>
</trkpt>
      <trkpt lat="11.12634480" lon="-74.22604024">
<time>2014-05-18T21:03:24Z</time>
</trkpt>
      <trkpt lat="11.12579441" lon="-74.22594166">
<time>2014-05-18T21:03:26Z</time>
</trkpt>
      <trkpt lat="11.12523711" lon="-74.22584975">
<time>2014-05-18T21:03:28Z</time>
</trkpt>
      <trkpt lat="11.12468696" lon="-74.22576189">
<time>2014-05-18T21:03:30Z</time>
</trkpt>
      <trkpt lat="11.12414265" lon="-74.22567356">
<time>2014-05-18T21:03:32Z</time>
</trkpt>
      <trkpt lat="11.12362206" lon="-74.22558510">
<time>2014-05-18T21:03:34Z</time>
</trkpt>
      <trkpt lat="11.12311673" lon="-74.22549307">
<time>2014-05-18T21:03:36Z</time>
</trkpt>
      <trkpt lat="11.12261307" lon="-74.22540247">
<time>2014-05-18T21:03:38Z</time>
</trkpt>
      <trkpt lat="11.12209523" lon="-74.22530794">
<time>2014-05-18T21:03:40Z</time>
</trkpt>
      <trkpt lat="11.12158525" lon="-74.22521138">
<time>2014-05-18T21:03:42Z</time>
</trkpt>
      <trkpt lat="11.12106133" lon="-74.22511327">
<time>2014-05-18T21:03:44Z</time>
</trkpt>
      <trkpt lat="11.12050724" lon="-74.22501063">
<time>2014-05-18T21:03:46Z</time>
</trkpt>
      <trkpt lat="11.11994374" lon="-74.22490740">
<time>2014-05-18T21:03:48Z</time>
</trkpt>
      <trkpt lat="11.11937606" lon="-74.22480977">
<time>2014-05-18T21:03:50Z</time>
</trkpt>
      <trkpt lat="11.11881864" lon="-74.22471511">
<time>2014-05-18T21:03:52Z</time>
</trkpt>
      <trkpt lat="11.11825824" lon="-74.22461677">
<time>2014-05-18T21:03:54Z</time>
</trkpt>
      <trkpt lat="11.11770582" lon="-74.22451591">
<time>2014-05-18T21:03:56Z</time>
</trkpt>
      <trkpt lat="11.11715257" lon="-74.22441399">
<time>2014-05-18T21:03:58Z</time>
</trkpt>
      <trkpt lat="11.11659622" lon="-74.22431743">
<time>2014-05-18T21:04:00Z</time>
</trkpt>
      <trkpt lat="11.11604464" lon="-74.22421777">
<time>2014-05-18T21:04:02Z</time>
</trkpt>
      <trkpt lat="11.11550009" lon="-74.22412431">
<time>2014-05-18T21:04:04Z</time>
</trkpt>
      <trkpt lat="11.11495423" lon="-74.22402799">
<time>2014-05-18T21:04:06Z</time>
</trkpt>
      <trkpt lat="11.11441875" lon="-74.22392523">
<time>2014-05-18T21:04:08Z</time>
</trkpt>
      <trkpt lat="11.11387146" lon="-74.22382176">
<time>2014-05-18T21:04:10Z</time>
</trkpt>
      <trkpt lat="11.11332107" lon="-74.22372496">
<time>2014-05-18T21:04:12Z</time>
</trkpt>
      <trkpt lat="11.11276472" lon="-74.22363031">
<time>2014-05-18T21:04:14Z</time>
</trkpt>
      <trkpt lat="11.11219931" lon="-74.22353363">
<time>2014-05-18T21:04:16Z</time>
</trkpt>
      <trkpt lat="11.11162674" lon="-74.22342992">
<time>2014-05-18T21:04:18Z</time>
</trkpt>
      <trkpt lat="11.11105180" lon="-74.22332859">
<time>2014-05-18T21:04:20Z</time>
</trkpt>
      <trkpt lat="11.11047363" lon="-74.22321916">
<time>2014-05-18T21:04:22Z</time>
</trkpt>
      <trkpt lat="11.10990262" lon="-74.22307897">
<time>2014-05-18T21:04:24Z</time>
</trkpt>
      <trkpt lat="11.10933125" lon="-74.22291613">
<time>2014-05-18T21:04:26Z</time>
</trkpt>
      <trkpt lat="11.10876274" lon="-74.22272396">
<time>2014-05-18T21:04:28Z</time>
</trkpt>
      <trkpt lat="11.10819948" lon="-74.22251606">
<time>2014-05-18T21:04:30Z</time>
</trkpt>
      <trkpt lat="11.10765588" lon="-74.22229576">
<time>2014-05-18T21:04:32Z</time>
</trkpt>
      <trkpt lat="11.10714066" lon="-74.22205210">
<time>2014-05-18T21:04:34Z</time>
</trkpt>
      <trkpt lat="11.10663509" lon="-74.22179782">
<time>2014-05-18T21:04:36Z</time>
</trkpt>
      <trkpt lat="11.10613465" lon="-74.22151315">
<time>2014-05-18T21:04:38Z</time>
</trkpt>
      <trkpt lat="11.10563743" lon="-74.22119105">
<time>2014-05-18T21:04:40Z</time>
</trkpt>
      <trkpt lat="11.10514140" lon="-74.22086608">
<time>2014-05-18T21:04:42Z</time>
</trkpt>
      <trkpt lat="11.10464025" lon="-74.22053206">
<time>2014-05-18T21:04:44Z</time>
</trkpt>
      <trkpt lat="11.10413194" lon="-74.22019744">
<time>2014-05-18T21:04:46Z</time>
</trkpt>
      <trkpt lat="11.10363030" lon="-74.21985924">
<time>2014-05-18T21:04:48Z</time>
</trkpt>
      <trkpt lat="11.10312307" lon="-74.21952426">
<time>2014-05-18T21:04:50Z</time>
</trkpt>
      <trkpt lat="11.10262477" lon="-74.21919644">
<time>2014-05-18T21:04:52Z</time>
</trkpt>
      <trkpt lat="11.10212457" lon="-74.21887875">
<time>2014-05-18T21:04:54Z</time>
</trkpt>
      <trkpt lat="11.10162926" lon="-74.21860158">
<time>2014-05-18T21:04:56Z</time>
</trkpt>
      <trkpt lat="11.10114372" lon="-74.21837223">
<time>2014-05-18T21:04:58Z</time>
</trkpt>
      <trkpt lat="11.10066473" lon="-74.21817791">
<time>2014-05-18T21:05:00Z</time>
</trkpt>
      <trkpt lat="11.10018957" lon="-74.21801388">
<time>2014-05-18T21:05:02Z</time>
</trkpt>
      <trkpt lat="11.09971750" lon="-74.21787405">
<time>2014-05-18T21:05:04Z</time>
</trkpt>
      <trkpt lat="11.09924257" lon="-74.21773362">
<time>2014-05-18T21:05:06Z</time>
</trkpt>
      <trkpt lat="11.09874189" lon="-74.21758533">
<time>2014-05-18T21:05:08Z</time>
</trkpt>
      <trkpt lat="11.09822190" lon="-74.21744394">
<time>2014-05-18T21:05:10Z</time>
</trkpt>
      <trkpt lat="11.09768760" lon="-74.21730781">
<time>2014-05-18T21:05:12Z</time>
</trkpt>
      <trkpt lat="11.09713113" lon="-74.21717012">
<time>2014-05-18T21:05:14Z</time>
</trkpt>
      <trkpt lat="11.09655392" lon="-74.21704161">
<time>2014-05-18T21:05:16Z</time>
</trkpt>
      <trkpt lat="11.09597933" lon="-74.21689582">
<time>2014-05-18T21:05:18Z</time>
</trkpt>
      <trkpt lat="11.09540081" lon="-74.21674383">
<time>2014-05-18T21:05:20Z</time>
</trkpt>
      <trkpt lat="11.09482157" lon="-74.21659064">
<time>2014-05-18T21:05:22Z</time>
</trkpt>
      <trkpt lat="11.09426045" lon="-74.21643043">
<time>2014-05-18T21:05:24Z</time>
</trkpt>
      <trkpt lat="11.09370875" lon="-74.21627140">
<time>2014-05-18T21:05:26Z</time>
</trkpt>
      <trkpt lat="11.09316206" lon="-74.21612513">
<time>2014-05-18T21:05:28Z</time>
</trkpt>
      <trkpt lat="11.09262609" lon="-74.21597564">
<time>2014-05-18T21:05:30Z</time>
</trkpt>
      <trkpt lat="11.09208989" lon="-74.21582198">
<time>2014-05-18T21:05:32Z</time>
</trkpt>
      <trkpt lat="11.09154963" lon="-74.21567023">
<time>2014-05-18T21:05:34Z</time>
</trkpt>
      <trkpt lat="11.09100163" lon="-74.21552265">
<time>2014-05-18T21:05:36Z</time>
</trkpt>
      <trkpt lat="11.09044957" lon="-74.21538138">
<time>2014-05-18T21:05:38Z</time>
</trkpt>
      <trkpt lat="11.08990240" lon="-74.21523261">
<time>2014-05-18T21:05:40Z</time>
</trkpt>
      <trkpt lat="11.08938348" lon="-74.21509528">
<time>2014-05-18T21:05:42Z</time>
</trkpt>
      <trkpt lat="11.08891916" lon="-74.21497190">
<time>2014-05-18T21:05:44Z</time>
</trkpt>
      <trkpt lat="11.08849716" lon="-74.21485960">
<time>2014-05-18T21:05:46Z</time>
</trkpt>
      <trkpt lat="11.08809078" lon="-74.21474349">
<time>2014-05-18T21:05:48Z</time>
</trkpt>
      <trkpt lat="11.08768594" lon="-74.21462941">
<time>2014-05-18T21:05:50Z</time>
</trkpt>
      <trkpt lat="11.08728814" lon="-74.21452641">
<time>2014-05-18T21:05:52Z</time>
</trkpt>
      <trkpt lat="11.08688998" lon="-74.21443117">
<time>2014-05-18T21:05:54Z</time>
</trkpt>
      <trkpt lat="11.08648098" lon="-74.21435189">
<time>2014-05-18T21:05:56Z</time>
</trkpt>
      <trkpt lat="11.08604515" lon="-74.21428132">
<time>2014-05-18T21:05:58Z</time>
</trkpt>
      <trkpt lat="11.08559191" lon="-74.21422589">
<time>2014-05-18T21:06:00Z</time>
</trkpt>
      <trkpt lat="11.08512342" lon="-74.21418726">
<time>2014-05-18T21:06:02Z</time>
</trkpt>
      <trkpt lat="11.08463931" lon="-74.21417511">
<time>2014-05-18T21:06:04Z</time>
</trkpt>
      <trkpt lat="11.08413363" lon="-74.21416759">
<time>2014-05-18T21:06:06Z</time>
</trkpt>
      <trkpt lat="11.08361924" lon="-74.21415794">
<time>2014-05-18T21:06:08Z</time>
</trkpt>
      <trkpt lat="11.08308446" lon="-74.21414745">
<time>2014-05-18T21:06:10Z</time>
</trkpt>
      <trkpt lat="11.08253288" lon="-74.21413231">
<time>2014-05-18T21:06:12Z</time>
</trkpt>
      <trkpt lat="11.08197176" lon="-74.21411347">
<time>2014-05-18T21:06:14Z</time>
</trkpt>
      <trkpt lat="11.08140016" lon="-74.21410060">
<time>2014-05-18T21:06:16Z</time>
</trkpt>
      <trkpt lat="11.08081579" lon="-74.21408415">
<time>2014-05-18T21:06:18Z</time>
</trkpt>
      <trkpt lat="11.08020496" lon="-74.21407115">
<time>2014-05-18T21:06:20Z</time>
</trkpt>
      <trkpt lat="11.07956743" lon="-74.21406090">
<time>2014-05-18T21:06:22Z</time>
</trkpt>
      <trkpt lat="11.07892323" lon="-74.21404564">
<time>2014-05-18T21:06:24Z</time>
</trkpt>
      <trkpt lat="11.07828748" lon="-74.21403098">
<time>2014-05-18T21:06:26Z</time>
</trkpt>
      <trkpt lat="11.07767892" lon="-74.21400797">
<time>2014-05-18T21:06:28Z</time>
</trkpt>
      <trkpt lat="11.07706976" lon="-74.21399558">
<time>2014-05-18T21:06:30Z</time>
</trkpt>
      <trkpt lat="11.07646108" lon="-74.21397674">
<time>2014-05-18T21:06:32Z</time>
</trkpt>
      <trkpt lat="11.07587397" lon="-74.21394598">
<time>2014-05-18T21:06:34Z</time>
</trkpt>
      <trkpt lat="11.07530928" lon="-74.21391308">
<time>2014-05-18T21:06:36Z</time>
</trkpt>
      <trkpt lat="11.07474744" lon="-74.21384966">
<time>2014-05-18T21:06:38Z</time>
</trkpt>
      <trkpt lat="11.07416797" lon="-74.21372449">
<time>2014-05-18T21:06:40Z</time>
</trkpt>
      <trkpt lat="11.07359815" lon="-74.21356475">
<time>2014-05-18T21:06:42Z</time>
</trkpt>
      <trkpt lat="11.07308626" lon="-74.21338022">
<time>2014-05-18T21:06:44Z</time>
</trkpt>
      <trkpt lat="11.07260358" lon="-74.21320462">
<time>2014-05-18T21:06:46Z</time>
</trkpt>
      <trkpt lat="11.07212722" lon="-74.21303666">
<time>2014-05-18T21:06:48Z</time>
</trkpt>
      <trkpt lat="11.07164633" lon="-74.21285605">
<time>2014-05-18T21:06:50Z</time>
</trkpt>
      <trkpt lat="11.07114983" lon="-74.21265531">
<time>2014-05-18T21:06:52Z</time>
</trkpt>
      <trkpt lat="11.07062864" lon="-74.21246707">
<time>2014-05-18T21:06:54Z</time>
</trkpt>
      <trkpt lat="11.07010114" lon="-74.21227157">
<time>2014-05-18T21:06:56Z</time>
</trkpt>
      <trkpt lat="11.06957376" lon="-74.21205783">
<time>2014-05-18T21:06:58Z</time>
</trkpt>
      <trkpt lat="11.06905007" lon="-74.21180844">
<time>2014-05-18T21:07:00Z</time>
</trkpt>
      <trkpt lat="11.06852806" lon="-74.21153331">
<time>2014-05-18T21:07:02Z</time>
</trkpt>
      <trkpt lat="11.06801677" lon="-74.21123183">
<time>2014-05-18T21:07:04Z</time>
</trkpt>
      <trkpt lat="11.06750631" lon="-74.21092510">
<time>2014-05-18T21:07:06Z</time>
</trkpt>
      <trkpt lat="11.06699300" lon="-74.21060979">
<time>2014-05-18T21:07:08Z</time>
</trkpt>
      <trkpt lat="11.06646991" lon="-74.21030164">
<time>2014-05-18T21:07:10Z</time>
</trkpt>
      <trkpt lat="11.06595361" lon="-74.20998597">
<time>2014-05-18T21:07:12Z</time>
</trkpt>
      <trkpt lat="11.06542325" lon="-74.20966995">
<time>2014-05-18T21:07:14Z</time>
</trkpt>
      <trkpt lat="11.06490207" lon="-74.20935512">
<time>2014-05-18T21:07:16Z</time>
</trkpt>
      <trkpt lat="11.06438696" lon="-74.20905280">
<time>2014-05-18T21:07:18Z</time>
</trkpt>
      <trkpt lat="11.06387138" lon="-74.20875394">
<time>2014-05-18T21:07:20Z</time>
</trkpt>
      <trkpt lat="11.06335306" lon="-74.20845425">
<time>2014-05-18T21:07:22Z</time>
</trkpt>
      <trkpt lat="11.06282997" lon="-74.20814776">
<time>2014-05-18T21:07:24Z</time>
</trkpt>
      <trkpt lat="11.06229806" lon="-74.20783865">
<time>2014-05-18T21:07:26Z</time>
</trkpt>
      <trkpt lat="11.06175876" lon="-74.20754910">
<time>2014-05-18T21:07:28Z</time>
</trkpt>
      <trkpt lat="11.06123459" lon="-74.20731461">
<time>2014-05-18T21:07:30Z</time>
</trkpt>
      <trkpt lat="11.06077528" lon="-74.20713449">
<time>2014-05-18T21:07:32Z</time>
</trkpt>
      <trkpt lat="11.06035972" lon="-74.20700097">
<time>2014-05-18T21:07:34Z</time>
</trkpt>
      <trkpt lat="11.05996358" lon="-74.20689845">
<time>2014-05-18T21:07:36Z</time>
</trkpt>
      <trkpt lat="11.05958748" lon="-74.20681655">
<time>2014-05-18T21:07:38Z</time>
</trkpt>
      <trkpt lat="11.05929089" lon="-74.20675683">
<time>2014-05-18T21:07:40Z</time>
</trkpt>
      <trkpt lat="11.05907381" lon="-74.20669329">
<time>2014-05-18T21:07:42Z</time>
</trkpt>
      <trkpt lat="11.05888259" lon="-74.20665324">
<time>2014-05-18T21:07:44Z</time>
</trkpt>
      <trkpt lat="11.05863059" lon="-74.20660973">
<time>2014-05-18T21:07:46Z</time>
</trkpt>
      <trkpt lat="11.05829740" lon="-74.20655942">
<time>2014-05-18T21:07:48Z</time>
</trkpt>
      <trkpt lat="11.05790174" lon="-74.20650029">
<time>2014-05-18T21:07:50Z</time>
</trkpt>
      <trkpt lat="11.05745173" lon="-74.20642757">
<time>2014-05-18T21:07:52Z</time>
</trkpt>
      <trkpt lat="11.05695724" lon="-74.20634508">
<time>2014-05-18T21:07:54Z</time>
</trkpt>
      <trkpt lat="11.05642879" lon="-74.20624650">
<time>2014-05-18T21:07:56Z</time>
</trkpt>
      <trkpt lat="11.05587506" lon="-74.20613158">
<time>2014-05-18T21:07:58Z</time>
</trkpt>
      <trkpt lat="11.05529940" lon="-74.20601416">
<time>2014-05-18T21:08:00Z</time>
</trkpt>
      <trkpt lat="11.05472076" lon="-74.20589781">
<time>2014-05-18T21:08:02Z</time>
</trkpt>
      <trkpt lat="11.05413926" lon="-74.20577347">
<time>2014-05-18T21:08:04Z</time>
</trkpt>
      <trkpt lat="11.05355811" lon="-74.20565629">
<time>2014-05-18T21:08:06Z</time>
</trkpt>
      <trkpt lat="11.05298924" lon="-74.20553422">
<time>2014-05-18T21:08:08Z</time>
</trkpt>
      <trkpt lat="11.05244064" lon="-74.20541310">
<time>2014-05-18T21:08:10Z</time>
</trkpt>
      <trkpt lat="11.05188346" lon="-74.20529497">
<time>2014-05-18T21:08:12Z</time>
</trkpt>
      <trkpt lat="11.05132592" lon="-74.20519567">
<time>2014-05-18T21:08:14Z</time>
</trkpt>
      <trkpt lat="11.05079222" lon="-74.20510495">
<time>2014-05-18T21:08:16Z</time>
</trkpt>
      <trkpt lat="11.05025899" lon="-74.20502698">
<time>2014-05-18T21:08:18Z</time>
</trkpt>
      <trkpt lat="11.04971373" lon="-74.20499206">
<time>2014-05-18T21:08:20Z</time>
</trkpt>
      <trkpt lat="11.04915476" lon="-74.20501256">
<time>2014-05-18T21:08:22Z</time>
</trkpt>
      <trkpt lat="11.04861498" lon="-74.20502174">
<time>2014-05-18T21:08:24Z</time>
</trkpt>
      <trkpt lat="11.04811800" lon="-74.20496333">
<time>2014-05-18T21:08:26Z</time>
</trkpt>
      <trkpt lat="11.04765427" lon="-74.20482600">
<time>2014-05-18T21:08:28Z</time>
</trkpt>
      <trkpt lat="11.04717410" lon="-74.20460761">
<time>2014-05-18T21:08:30Z</time>
</trkpt>
      <trkpt lat="11.04664540" lon="-74.20437050">
<time>2014-05-18T21:08:32Z</time>
</trkpt>
      <trkpt lat="11.04605532" lon="-74.20417666">
<time>2014-05-18T21:08:34Z</time>
</trkpt>
      <trkpt lat="11.04542124" lon="-74.20403063">
<time>2014-05-18T21:08:36Z</time>
</trkpt>
      <trkpt lat="11.04476821" lon="-74.20389724">
<time>2014-05-18T21:08:38Z</time>
</trkpt>
      <trkpt lat="11.04412711" lon="-74.20376456">
<time>2014-05-18T21:08:40Z</time>
</trkpt>
      <trkpt lat="11.04349291" lon="-74.20362973">
<time>2014-05-18T21:08:42Z</time>
</trkpt>
      <trkpt lat="11.04286516" lon="-74.20350957">
<time>2014-05-18T21:08:44Z</time>
</trkpt>
      <trkpt lat="11.04225600" lon="-74.20338976">
<time>2014-05-18T21:08:46Z</time>
</trkpt>
      <trkpt lat="11.04165864" lon="-74.20326924">
<time>2014-05-18T21:08:48Z</time>
</trkpt>
      <trkpt lat="11.04109347" lon="-74.20317698">
<time>2014-05-18T21:08:50Z</time>
</trkpt>
      <trkpt lat="11.04055858" lon="-74.20314527">
<time>2014-05-18T21:08:52Z</time>
</trkpt>
      <trkpt lat="11.04003382" lon="-74.20317113">
<time>2014-05-18T21:08:54Z</time>
</trkpt>
      <trkpt lat="11.03950059" lon="-74.20324600">
<time>2014-05-18T21:08:56Z</time>
</trkpt>
      <trkpt lat="11.03895462" lon="-74.20333779">
<time>2014-05-18T21:08:58Z</time>
</trkpt>
      <trkpt lat="11.03839433" lon="-74.20343530">
<time>2014-05-18T21:09:00Z</time>
</trkpt>
      <trkpt lat="11.03782856" lon="-74.20351291">
<time>2014-05-18T21:09:02Z</time>
</trkpt>
      <trkpt lat="11.03725791" lon="-74.20360422">
<time>2014-05-18T21:09:04Z</time>
</trkpt>
      <trkpt lat="11.03668296" lon="-74.20370209">
<time>2014-05-18T21:09:06Z</time>
</trkpt>
      <trkpt lat="11.03611588" lon="-74.20380282">
<time>2014-05-18T21:09:08Z</time>
</trkpt>
      <trkpt lat="11.03554630" lon="-74.20388329">
<time>2014-05-18T21:09:10Z</time>
</trkpt>
      <trkpt lat="11.03499663" lon="-74.20396924">
<time>2014-05-18T21:09:12Z</time>
</trkpt>
      <trkpt lat="11.03448772" lon="-74.20404446">
<time>2014-05-18T21:09:14Z</time>
</trkpt>
      <trkpt lat="11.03398383" lon="-74.20412326">
<time>2014-05-18T21:09:16Z</time>
</trkpt>
      <trkpt lat="11.03345466" lon="-74.20420432">
<time>2014-05-18T21:09:18Z</time>
</trkpt>
      <trkpt lat="11.03292763" lon="-74.20429099">
<time>2014-05-18T21:09:20Z</time>
</trkpt>
      <trkpt lat="11.03239727" lon="-74.20437515">
<time>2014-05-18T21:09:22Z</time>
</trkpt>
      <trkpt lat="11.03185189" lon="-74.20446646">
<time>2014-05-18T21:09:24Z</time>
</trkpt>
      <trkpt lat="11.03128529" lon="-74.20456660">
<time>2014-05-18T21:09:26Z</time>
</trkpt>
      <trkpt lat="11.03070211" lon="-74.20467997">
<time>2014-05-18T21:09:28Z</time>
</trkpt>
      <trkpt lat="11.03010857" lon="-74.20482838">
<time>2014-05-18T21:09:30Z</time>
</trkpt>
      <trkpt lat="11.02953279" lon="-74.20499980">
<time>2014-05-18T21:09:32Z</time>
</trkpt>
      <trkpt lat="11.02896845" lon="-74.20516896">
<time>2014-05-18T21:09:34Z</time>
</trkpt>
      <trkpt lat="11.02842391" lon="-74.20533109">
<time>2014-05-18T21:09:36Z</time>
</trkpt>
      <trkpt lat="11.02791679" lon="-74.20548975">
<time>2014-05-18T21:09:38Z</time>
</trkpt>
      <trkpt lat="11.02746177" lon="-74.20563173">
<time>2014-05-18T21:09:40Z</time>
</trkpt>
      <trkpt lat="11.02702308" lon="-74.20580590">
<time>2014-05-18T21:09:42Z</time>
</trkpt>
      <trkpt lat="11.02657259" lon="-74.20602083">
<time>2014-05-18T21:09:44Z</time>
</trkpt>
      <trkpt lat="11.02611625" lon="-74.20626307">
<time>2014-05-18T21:09:46Z</time>
</trkpt>
      <trkpt lat="11.02565348" lon="-74.20654666">
<time>2014-05-18T21:09:48Z</time>
</trkpt>
      <trkpt lat="11.02522993" lon="-74.20682478">
<time>2014-05-18T21:09:50Z</time>
</trkpt>
      <trkpt lat="11.02486122" lon="-74.20709193">
<time>2014-05-18T21:09:52Z</time>
</trkpt>
      <trkpt lat="11.02452624" lon="-74.20732796">
<time>2014-05-18T21:09:54Z</time>
</trkpt>
      <trkpt lat="11.02418375" lon="-74.20753241">
<time>2014-05-18T21:09:56Z</time>
</trkpt>
      <trkpt lat="11.02384663" lon="-74.20775962">
<time>2014-05-18T21:09:58Z</time>
</trkpt>
      <trkpt lat="11.02350211" lon="-74.20803225">
<time>2014-05-18T21:10:00Z</time>
</trkpt>
      <trkpt lat="11.02315283" lon="-74.20832455">
<time>2014-05-18T21:10:02Z</time>
</trkpt>
      <trkpt lat="11.02278924" lon="-74.20863283">
<time>2014-05-18T21:10:04Z</time>
</trkpt>
      <trkpt lat="11.02240181" lon="-74.20894623">
<time>2014-05-18T21:10:06Z</time>
</trkpt>
      <trkpt lat="11.02199948" lon="-74.20926023">
<time>2014-05-18T21:10:08Z</time>
</trkpt>
      <trkpt lat="11.02158606" lon="-74.20957398">
<time>2014-05-18T21:10:10Z</time>
</trkpt>
      <trkpt lat="11.02115309" lon="-74.20989561">
<time>2014-05-18T21:10:12Z</time>
</trkpt>
      <trkpt lat="11.02071500" lon="-74.21021175">
<time>2014-05-18T21:10:14Z</time>
</trkpt>
      <trkpt lat="11.02030075" lon="-74.21052206">
<time>2014-05-18T21:10:16Z</time>
</trkpt>
      <trkpt lat="11.01992428" lon="-74.21083879">
<time>2014-05-18T21:10:18Z</time>
</trkpt>
      <trkpt lat="11.01957560" lon="-74.21122146">
<time>2014-05-18T21:10:20Z</time>
</trkpt>
      <trkpt lat="11.01925266" lon="-74.21166074">
<time>2014-05-18T21:10:22Z</time>
</trkpt>
      <trkpt lat="11.01894212" lon="-74.21212161">
<time>2014-05-18T21:10:24Z</time>
</trkpt>
      <trkpt lat="11.01862764" lon="-74.21255338">
<time>2014-05-18T21:10:26Z</time>
</trkpt>
      <trkpt lat="11.01827478" lon="-74.21294522">
<time>2014-05-18T21:10:28Z</time>
</trkpt>
      <trkpt lat="11.01786327" lon="-74.21331275">
<time>2014-05-18T21:10:30Z</time>
</trkpt>
      <trkpt lat="11.01742172" lon="-74.21368372">
<time>2014-05-18T21:10:32Z</time>
</trkpt>
      <trkpt lat="11.01699579" lon="-74.21403515">
<time>2014-05-18T21:10:34Z</time>
</trkpt>
      <trkpt lat="11.01658130" lon="-74.21434355">
<time>2014-05-18T21:10:36Z</time>
</trkpt>
      <trkpt lat="11.01616514" lon="-74.21458340">
<time>2014-05-18T21:10:38Z</time>
</trkpt>
      <trkpt lat="11.01574111" lon="-74.21475995">
<time>2014-05-18T21:10:40Z</time>
</trkpt>
      <trkpt lat="11.01530921" lon="-74.21487260">
<time>2014-05-18T21:10:42Z</time>
</trkpt>
      <trkpt lat="11.01485360" lon="-74.21495509">
<time>2014-05-18T21:10:44Z</time>
</trkpt>
      <trkpt lat="11.01438212" lon="-74.21502709">
<time>2014-05-18T21:10:46Z</time>
</trkpt>
      <trkpt lat="11.01390016" lon="-74.21508956">
<time>2014-05-18T21:10:48Z</time>
</trkpt>
      <trkpt lat="11.01344776" lon="-74.21514130">
<time>2014-05-18T21:10:50Z</time>
</trkpt>
      <trkpt lat="11.01303506" lon="-74.21520865">
<time>2014-05-18T21:10:52Z</time>
</trkpt>
      <trkpt lat="11.01265430" lon="-74.21527445">
<time>2014-05-18T21:10:54Z</time>
</trkpt>
      <trkpt lat="11.01228726" lon="-74.21539450">
<time>2014-05-18T21:10:56Z</time>
</trkpt>
      <trkpt lat="11.01192224" lon="-74.21559107">
<time>2014-05-18T21:10:58Z</time>
</trkpt>
      <trkpt lat="11.01157641" lon="-74.21583414">
<time>2014-05-18T21:11:00Z</time>
</trkpt>
      <trkpt lat="11.01124215" lon="-74.21605647">
<time>2014-05-18T21:11:02Z</time>
</trkpt>
      <trkpt lat="11.01086831" lon="-74.21622157">
<time>2014-05-18T21:11:04Z</time>
</trkpt>
      <trkpt lat="11.01045179" lon="-74.21633160">
<time>2014-05-18T21:11:06Z</time>
</trkpt>
      <trkpt lat="11.01001012" lon="-74.21636355">
<time>2014-05-18T21:11:08Z</time>
</trkpt>
      <trkpt lat="11.00954747" lon="-74.21633911">
<time>2014-05-18T21:11:10Z</time>
</trkpt>
      <trkpt lat="11.00908172" lon="-74.21630132">
<time>2014-05-18T21:11:12Z</time>
</trkpt>
      <trkpt lat="11.00863993" lon="-74.21632159">
<time>2014-05-18T21:11:14Z</time>
</trkpt>
      <trkpt lat="11.00819278" lon="-74.21640229">
<time>2014-05-18T21:11:16Z</time>
</trkpt>
      <trkpt lat="11.00773299" lon="-74.21652627">
<time>2014-05-18T21:11:18Z</time>
</trkpt>
      <trkpt lat="11.00725305" lon="-74.21666992">
<time>2014-05-18T21:11:20Z</time>
</trkpt>
      <trkpt lat="11.00675833" lon="-74.21682429">
<time>2014-05-18T21:11:22Z</time>
</trkpt>
      <trkpt lat="11.00623679" lon="-74.21700406">
<time>2014-05-18T21:11:24Z</time>
</trkpt>
      <trkpt lat="11.00572622" lon="-74.21717596">
<time>2014-05-18T21:11:26Z</time>
</trkpt>
      <trkpt lat="11.00525856" lon="-74.21734679">
<time>2014-05-18T21:11:28Z</time>
</trkpt>
      <trkpt lat="11.00486529" lon="-74.21749175">
<time>2014-05-18T21:11:30Z</time>
</trkpt>
      <trkpt lat="11.00455177" lon="-74.21763361">
<time>2014-05-18T21:11:32Z</time>
</trkpt>
      <trkpt lat="11.00431693" lon="-74.21782207">
<time>2014-05-18T21:11:34Z</time>
</trkpt>
      <trkpt lat="11.00415742" lon="-74.21807659">
<time>2014-05-18T21:11:36Z</time>
</trkpt>
      <trkpt lat="11.00407159" lon="-74.21834564">
<time>2014-05-18T21:11:38Z</time>
</trkpt>
      <trkpt lat="11.00403106" lon="-74.21859789">
<time>2014-05-18T21:11:40Z</time>
</trkpt>
      <trkpt lat="11.00397909" lon="-74.21888578">
<time>2014-05-18T21:11:42Z</time>
</trkpt>
      <trkpt lat="11.00393558" lon="-74.21918797">
<time>2014-05-18T21:11:44Z</time>
</trkpt>
      <trkpt lat="11.00390947" lon="-74.21950281">
<time>2014-05-18T21:11:46Z</time>
</trkpt>
      <trkpt lat="11.00388479" lon="-74.21983826">
<time>2014-05-18T21:11:48Z</time>
</trkpt>
      <trkpt lat="11.00386298" lon="-74.22014391">
<time>2014-05-18T21:11:50Z</time>
</trkpt>
      <trkpt lat="11.00384796" lon="-74.22042549">
<time>2014-05-18T21:11:52Z</time>
</trkpt>
      <trkpt lat="11.00383341" lon="-74.22076964">
<time>2014-05-18T21:11:54Z</time>
</trkpt>
      <trkpt lat="11.00381863" lon="-74.22115374">
<time>2014-05-18T21:11:56Z</time>
</trkpt>
      <trkpt lat="11.00379395" lon="-74.22156310">
<time>2014-05-18T21:11:58Z</time>
</trkpt>
      <trkpt lat="11.00377572" lon="-74.22199297">
<time>2014-05-18T21:12:00Z</time>
</trkpt>
      <trkpt lat="11.00375795" lon="-74.22240460">
<time>2014-05-18T21:12:02Z</time>
</trkpt>
      <trkpt lat="11.00373578" lon="-74.22281516">
<time>2014-05-18T21:12:04Z</time>
</trkpt>
      <trkpt lat="11.00371158" lon="-74.22323477">
<time>2014-05-18T21:12:06Z</time>
</trkpt>
      <trkpt lat="11.00368679" lon="-74.22364914">
<time>2014-05-18T21:12:08Z</time>
</trkpt>
      <trkpt lat="11.00366509" lon="-74.22401905">
<time>2014-05-18T21:12:10Z</time>
</trkpt>
      <trkpt lat="11.00365078" lon="-74.22435856">
<time>2014-05-18T21:12:12Z</time>
</trkpt>
      <trkpt lat="11.00363982" lon="-74.22468030">
<time>2014-05-18T21:12:14Z</time>
</trkpt>
      <trkpt lat="11.00362849" lon="-74.22498512">
<time>2014-05-18T21:12:16Z</time>
</trkpt>
      <trkpt lat="11.00363016" lon="-74.22527099">
<time>2014-05-18T21:12:18Z</time>
</trkpt>
      <trkpt lat="11.00365949" lon="-74.22556448">
<time>2014-05-18T21:12:20Z</time>
</trkpt>
      <trkpt lat="11.00371182" lon="-74.22586346">
<time>2014-05-18T21:12:22Z</time>
</trkpt>
      <trkpt lat="11.00375998" lon="-74.22616327">
<time>2014-05-18T21:12:24Z</time>
</trkpt>
      <trkpt lat="11.00381196" lon="-74.22650790">
<time>2014-05-18T21:12:26Z</time>
</trkpt>
      <trkpt lat="11.00388145" lon="-74.22689009">
<time>2014-05-18T21:12:28Z</time>
</trkpt>
      <trkpt lat="11.00395882" lon="-74.22727132">
<time>2014-05-18T21:12:30Z</time>
</trkpt>
      <trkpt lat="11.00402355" lon="-74.22762632">
<time>2014-05-18T21:12:32Z</time>
</trkpt>
      <trkpt lat="11.00407612" lon="-74.22795594">
<time>2014-05-18T21:12:34Z</time>
</trkpt>
      <trkpt lat="11.00412738" lon="-74.22824931">
<time>2014-05-18T21:12:36Z</time>
</trkpt>
      <trkpt lat="11.00417626" lon="-74.22845840">
<time>2014-05-18T21:12:38Z</time>
</trkpt>
      <trkpt lat="11.00420380" lon="-74.22857773">
<time>2014-05-18T21:12:40Z</time>
</trkpt>
      <trkpt lat="11.00423181" lon="-74.22867596">
<time>2014-05-18T21:12:42Z</time>
</trkpt>
      <trkpt lat="11.00425625" lon="-74.22880816">
<time>2014-05-18T21:12:44Z</time>
</trkpt>
      <trkpt lat="11.00428724" lon="-74.22900009">
<time>2014-05-18T21:12:46Z</time>
</trkpt>
      <trkpt lat="11.00432873" lon="-74.22923148">
<time>2014-05-18T21:12:48Z</time>
</trkpt>
      <trkpt lat="11.00437999" lon="-74.22950125">
<time>2014-05-18T21:12:50Z</time>
</trkpt>
      <trkpt lat="11.00443661" lon="-74.22979915">
<time>2014-05-18T21:12:52Z</time>
</trkpt>
      <trkpt lat="11.00450015" lon="-74.23013413">
<time>2014-05-18T21:12:54Z</time>
</trkpt>
      <trkpt lat="11.00456655" lon="-74.23048043">
<time>2014-05-18T21:12:56Z</time>
</trkpt>
      <trkpt lat="11.00462329" lon="-74.23083115">
<time>2014-05-18T21:12:58Z</time>
</trkpt>
      <trkpt lat="11.00465477" lon="-74.23121548">
<time>2014-05-18T21:13:00Z</time>
</trkpt>
      <trkpt lat="11.00468147" lon="-74.23158658">
<time>2014-05-18T21:13:02Z</time>
</trkpt>
      <trkpt lat="11.00470579" lon="-74.23194444">
<time>2014-05-18T21:13:04Z</time>
</trkpt>
      <trkpt lat="11.00472844" lon="-74.23231030">
<time>2014-05-18T21:13:06Z</time>
</trkpt>
      <trkpt lat="11.00475943" lon="-74.23269629">
<time>2014-05-18T21:13:08Z</time>
</trkpt>
      <trkpt lat="11.00478649" lon="-74.23306823">
<time>2014-05-18T21:13:10Z</time>
</trkpt>
      <trkpt lat="11.00481009" lon="-74.23342741">
<time>2014-05-18T21:13:12Z</time>
</trkpt>
      <trkpt lat="11.00483048" lon="-74.23375857">
<time>2014-05-18T21:13:14Z</time>
</trkpt>
      <trkpt lat="11.00485528" lon="-74.23405898">
<time>2014-05-18T21:13:16Z</time>
</trkpt>
      <trkpt lat="11.00487792" lon="-74.23435378">
<time>2014-05-18T21:13:18Z</time>
</trkpt>
      <trkpt lat="11.00490880" lon="-74.23465657">
<time>2014-05-18T21:13:20Z</time>
</trkpt>
      <trkpt lat="11.00494349" lon="-74.23494828">
<time>2014-05-18T21:13:22Z</time>
</trkpt>
      <trkpt lat="11.00497365" lon="-74.23519349">
<time>2014-05-18T21:13:24Z</time>
</trkpt>
      <trkpt lat="11.00500226" lon="-74.23541212">
<time>2014-05-18T21:13:26Z</time>
</trkpt>
      <trkpt lat="11.00502539" lon="-74.23561299">
<time>2014-05-18T21:13:28Z</time>
</trkpt>
      <trkpt lat="11.00504708" lon="-74.23578906">
<time>2014-05-18T21:13:30Z</time>
</trkpt>
      <trkpt lat="11.00506532" lon="-74.23593211">
<time>2014-05-18T21:13:32Z</time>
</trkpt>
      <trkpt lat="11.00508833" lon="-74.23606038">
<time>2014-05-18T21:13:34Z</time>
</trkpt>
      <trkpt lat="11.00510311" lon="-74.23617899">
<time>2014-05-18T21:13:36Z</time>
</trkpt>
      <trkpt lat="11.00511861" lon="-74.23628247">
<time>2014-05-18T21:13:38Z</time>
</trkpt>
      <trkpt lat="11.00512433" lon="-74.23636591">
<time>2014-05-18T21:13:40Z</time>
</trkpt>
      <trkpt lat="11.00513065" lon="-74.23643327">
<time>2014-05-18T21:13:42Z</time>
</trkpt>
      <trkpt lat="11.00514627" lon="-74.23650408">
<time>2014-05-18T21:13:44Z</time>
</trkpt>
      <trkpt lat="11.00516164" lon="-74.23659599">
<time>2014-05-18T21:13:46Z</time>
</trkpt>
      <trkpt lat="11.00516999" lon="-74.23668027">
<time>2014-05-18T21:13:48Z</time>
</trkpt>
      <trkpt lat="11.00518095" lon="-74.23676217">
<time>2014-05-18T21:13:50Z</time>
</trkpt>
      <trkpt lat="11.00519907" lon="-74.23689449">
<time>2014-05-18T21:13:52Z</time>
</trkpt>
      <trkpt lat="11.00523162" lon="-74.23707545">
<time>2014-05-18T21:13:54Z</time>
</trkpt>
      <trkpt lat="11.00525796" lon="-74.23726606">
<time>2014-05-18T21:13:56Z</time>
</trkpt>
      <trkpt lat="11.00528491" lon="-74.23747361">
<time>2014-05-18T21:13:58Z</time>
</trkpt>
      <trkpt lat="11.00531900" lon="-74.23771143">
<time>2014-05-18T21:14:00Z</time>
</trkpt>
      <trkpt lat="11.00534940" lon="-74.23793173">
<time>2014-05-18T21:14:02Z</time>
</trkpt>
      <trkpt lat="11.00537646" lon="-74.23812747">
<time>2014-05-18T21:14:04Z</time>
</trkpt>
      <trkpt lat="11.00540340" lon="-74.23830724">
<time>2014-05-18T21:14:06Z</time>
</trkpt>
      <trkpt lat="11.00542724" lon="-74.23849809">
<time>2014-05-18T21:14:08Z</time>
</trkpt>
      <trkpt lat="11.00545478" lon="-74.23869705">
<time>2014-05-18T21:14:10Z</time>
</trkpt>
      <trkpt lat="11.00547957" lon="-74.23889399">
<time>2014-05-18T21:14:12Z</time>
</trkpt>
      <trkpt lat="11.00551033" lon="-74.23912024">
<time>2014-05-18T21:14:14Z</time>
</trkpt>
      <trkpt lat="11.00554264" lon="-74.23937607">
<time>2014-05-18T21:14:16Z</time>
</trkpt>
      <trkpt lat="11.00556648" lon="-74.23962796">
<time>2014-05-18T21:14:18Z</time>
</trkpt>
      <trkpt lat="11.00557578" lon="-74.23983312">
<time>2014-05-18T21:14:20Z</time>
</trkpt>
      <trkpt lat="11.00557399" lon="-74.23998713">
<time>2014-05-18T21:14:22Z</time>
</trkpt>
      <trkpt lat="11.00557411" lon="-74.24014425">
<time>2014-05-18T21:14:24Z</time>
</trkpt>
      <trkpt lat="11.00557375" lon="-74.24030745">
<time>2014-05-18T21:14:26Z</time>
</trkpt>
      <trkpt lat="11.00557005" lon="-74.24044490">
<time>2014-05-18T21:14:28Z</time>
</trkpt>
      <trkpt lat="11.00556612" lon="-74.24057448">
<time>2014-05-18T21:14:30Z</time>
</trkpt>
      <trkpt lat="11.00556815" lon="-74.24077773">
<time>2014-05-18T21:14:32Z</time>
</trkpt>
      <trkpt lat="11.00557446" lon="-74.24101126">
<time>2014-05-18T21:14:34Z</time>
</trkpt>
      <trkpt lat="11.00557292" lon="-74.24121916">
<time>2014-05-18T21:14:36Z</time>
</trkpt>
      <trkpt lat="11.00556517" lon="-74.24139988">
<time>2014-05-18T21:14:38Z</time>
</trkpt>
      <trkpt lat="11.00555658" lon="-74.24151659">
<time>2014-05-18T21:14:40Z</time>
</trkpt>
      <trkpt lat="11.00555313" lon="-74.24156129">
<time>2014-05-18T21:14:42Z</time>
</trkpt>
      <trkpt lat="11.00555456" lon="-74.24156797">
<time>2014-05-18T21:14:44Z</time>
</trkpt>
      <trkpt lat="11.00555956" lon="-74.24157059">
<time>2014-05-18T21:14:46Z</time>
</trkpt>
      <trkpt lat="11.00555909" lon="-74.24158239">
<time>2014-05-18T21:14:48Z</time>
</trkpt>
      <trkpt lat="11.00555158" lon="-74.24167979">
<time>2014-05-18T21:14:50Z</time>
</trkpt>
      <trkpt lat="11.00554848" lon="-74.24182141">
<time>2014-05-18T21:14:52Z</time>
</trkpt>
      <trkpt lat="11.00554895" lon="-74.24193966">
<time>2014-05-18T21:14:54Z</time>
</trkpt>
      <trkpt lat="11.00554907" lon="-74.24203491">
<time>2014-05-18T21:14:56Z</time>
</trkpt>
      <trkpt lat="11.00554395" lon="-74.24213731">
<time>2014-05-18T21:14:58Z</time>
</trkpt>
      <trkpt lat="11.00554216" lon="-74.24224806">
<time>2014-05-18T21:15:00Z</time>
</trkpt>
      <trkpt lat="11.00554192" lon="-74.24236739">
<time>2014-05-18T21:15:02Z</time>
</trkpt>
      <trkpt lat="11.00554049" lon="-74.24249947">
<time>2014-05-18T21:15:04Z</time>
</trkpt>
      <trkpt lat="11.00553942" lon="-74.24263132">
<time>2014-05-18T21:15:06Z</time>
</trkpt>
      <trkpt lat="11.00554407" lon="-74.24277461">
<time>2014-05-18T21:15:08Z</time>
</trkpt>
      <trkpt lat="11.00554597" lon="-74.24292672">
<time>2014-05-18T21:15:10Z</time>
</trkpt>
      <trkpt lat="11.00554776" lon="-74.24310088">
<time>2014-05-18T21:15:12Z</time>
</trkpt>
      <trkpt lat="11.00554764" lon="-74.24327409">
<time>2014-05-18T21:15:14Z</time>
</trkpt>
      <trkpt lat="11.00554061" lon="-74.24345779">
<time>2014-05-18T21:15:16Z</time>
</trkpt>
      <trkpt lat="11.00553310" lon="-74.24363732">
<time>2014-05-18T21:15:18Z</time>
</trkpt>
      <trkpt lat="11.00553441" lon="-74.24380016">
<time>2014-05-18T21:15:20Z</time>
</trkpt>
      <trkpt lat="11.00552928" lon="-74.24396026">
<time>2014-05-18T21:15:22Z</time>
</trkpt>
      <trkpt lat="11.00552630" lon="-74.24412978">
<time>2014-05-18T21:15:24Z</time>
</trkpt>
      <trkpt lat="11.00552440" lon="-74.24431348">
<time>2014-05-18T21:15:26Z</time>
</trkpt>
      <trkpt lat="11.00552690" lon="-74.24452555">
<time>2014-05-18T21:15:28Z</time>
</trkpt>
      <trkpt lat="11.00551832" lon="-74.24476659">
<time>2014-05-18T21:15:30Z</time>
</trkpt>
      <trkpt lat="11.00551438" lon="-74.24502265">
<time>2014-05-18T21:15:32Z</time>
</trkpt>
      <trkpt lat="11.00551033" lon="-74.24528110">
<time>2014-05-18T21:15:34Z</time>
</trkpt>
      <trkpt lat="11.00550544" lon="-74.24551833">
<time>2014-05-18T21:15:36Z</time>
</trkpt>
      <trkpt lat="11.00550127" lon="-74.24576747">
<time>2014-05-18T21:15:38Z</time>
</trkpt>
      <trkpt lat="11.00549293" lon="-74.24602926">
<time>2014-05-18T21:15:40Z</time>
</trkpt>
      <trkpt lat="11.00548756" lon="-74.24627340">
<time>2014-05-18T21:15:42Z</time>
</trkpt>
      <trkpt lat="11.00547945" lon="-74.24646497">
<time>2014-05-18T21:15:44Z</time>
</trkpt>
      <trkpt lat="11.00547791" lon="-74.24657464">
<time>2014-05-18T21:15:46Z</time>
</trkpt>
      <trkpt lat="11.00548077" lon="-74.24665332">
<time>2014-05-18T21:15:48Z</time>
</trkpt>
      <trkpt lat="11.00547695" lon="-74.24671423">
<time>2014-05-18T21:15:50Z</time>
</trkpt>
      <trkpt lat="11.00547945" lon="-74.24676728">
<time>2014-05-18T21:15:52Z</time>
</trkpt>
      <trkpt lat="11.00547445" lon="-74.24685609">
<time>2014-05-18T21:15:54Z</time>
</trkpt>
      <trkpt lat="11.00546956" lon="-74.24699593">
<time>2014-05-18T21:15:56Z</time>
</trkpt>
      <trkpt lat="11.00546455" lon="-74.24718523">
<time>2014-05-18T21:15:58Z</time>
</trkpt>
      <trkpt lat="11.00546157" lon="-74.24739158">
<time>2014-05-18T21:16:00Z</time>
</trkpt>
      <trkpt lat="11.00544655" lon="-74.24765289">
<time>2014-05-18T21:16:02Z</time>
</trkpt>
      <trkpt lat="11.00543559" lon="-74.24796689">
<time>2014-05-18T21:16:04Z</time>
</trkpt>
      <trkpt lat="11.00543690" lon="-74.24827695">
<time>2014-05-18T21:16:06Z</time>
</trkpt>
      <trkpt lat="11.00543427" lon="-74.24854958">
<time>2014-05-18T21:16:08Z</time>
</trkpt>
      <trkpt lat="11.00543749" lon="-74.24879205">
<time>2014-05-18T21:16:10Z</time>
</trkpt>
      <trkpt lat="11.00543809" lon="-74.24895811">
<time>2014-05-18T21:16:12Z</time>
</trkpt>
      <trkpt lat="11.00544131" lon="-74.24905479">
<time>2014-05-18T21:16:14Z</time>
</trkpt>
      <trkpt lat="11.00543880" lon="-74.24914265">
<time>2014-05-18T21:16:16Z</time>
</trkpt>
      <trkpt lat="11.00543141" lon="-74.24924266">
<time>2014-05-18T21:16:18Z</time>
</trkpt>
      <trkpt lat="11.00542796" lon="-74.24933076">
<time>2014-05-18T21:16:20Z</time>
</trkpt>
      <trkpt lat="11.00542521" lon="-74.24940908">
<time>2014-05-18T21:16:22Z</time>
</trkpt>
      <trkpt lat="11.00542831" lon="-74.24949229">
<time>2014-05-18T21:16:24Z</time>
</trkpt>
      <trkpt lat="11.00543416" lon="-74.24957764">
<time>2014-05-18T21:16:26Z</time>
</trkpt>
      <trkpt lat="11.00545025" lon="-74.24966431">
<time>2014-05-18T21:16:28Z</time>
</trkpt>
      <trkpt lat="11.00546432" lon="-74.24973977">
<time>2014-05-18T21:16:30Z</time>
</trkpt>
      <trkpt lat="11.00549078" lon="-74.24982679">
<time>2014-05-18T21:16:32Z</time>
</trkpt>
      <trkpt lat="11.00551558" lon="-74.24990225">
<time>2014-05-18T21:16:34Z</time>
</trkpt>
      <trkpt lat="11.00555158" lon="-74.24997127">
<time>2014-05-18T21:16:36Z</time>
</trkpt>
      <trkpt lat="11.00559974" lon="-74.25004423">
<time>2014-05-18T21:16:38Z</time>
</trkpt>
      <trkpt lat="11.00564742" lon="-74.25011945">
<time>2014-05-18T21:16:40Z</time>
</trkpt>
      <trkpt lat="11.00569928" lon="-74.25020456">
<time>2014-05-18T21:16:42Z</time>
</trkpt>
      <trkpt lat="11.00574708" lon="-74.25028265">
<time>2014-05-18T21:16:44Z</time>
</trkpt>
      <trkpt lat="11.00580156" lon="-74.25036323">
<time>2014-05-18T21:16:46Z</time>
</trkpt>
      <trkpt lat="11.00585425" lon="-74.25044143">
<time>2014-05-18T21:16:48Z</time>
</trkpt>
      <trkpt lat="11.00591314" lon="-74.25053155">
<time>2014-05-18T21:16:50Z</time>
</trkpt>
      <trkpt lat="11.00597715" lon="-74.25062382">
<time>2014-05-18T21:16:52Z</time>
</trkpt>
      <trkpt lat="11.00603330" lon="-74.25071526">
<time>2014-05-18T21:16:54Z</time>
</trkpt>
      <trkpt lat="11.00609446" lon="-74.25080276">
<time>2014-05-18T21:16:56Z</time>
</trkpt>
      <trkpt lat="11.00614262" lon="-74.25088847">
<time>2014-05-18T21:16:58Z</time>
</trkpt>
      <trkpt lat="11.00617409" lon="-74.25094461">
<time>2014-05-18T21:17:00Z</time>
</trkpt>
      <trkpt lat="11.00620139" lon="-74.25099850">
<time>2014-05-18T21:17:02Z</time>
</trkpt>
      <trkpt lat="11.00622106" lon="-74.25105357">
<time>2014-05-18T21:17:04Z</time>
</trkpt>
      <trkpt lat="11.00626099" lon="-74.25111043">
<time>2014-05-18T21:17:06Z</time>
</trkpt>
      <trkpt lat="11.00630915" lon="-74.25118423">
<time>2014-05-18T21:17:08Z</time>
</trkpt>
      <trkpt lat="11.00636399" lon="-74.25125933">
<time>2014-05-18T21:17:10Z</time>
</trkpt>
      <trkpt lat="11.00642896" lon="-74.25134456">
<time>2014-05-18T21:17:12Z</time>
</trkpt>
      <trkpt lat="11.00647092" lon="-74.25141680">
<time>2014-05-18T21:17:14Z</time>
</trkpt>
      <trkpt lat="11.00650513" lon="-74.25148797">
<time>2014-05-18T21:17:16Z</time>
</trkpt>
      <trkpt lat="11.00653863" lon="-74.25158048">
<time>2014-05-18T21:17:18Z</time>
</trkpt>
      <trkpt lat="11.00656128" lon="-74.25167096">
<time>2014-05-18T21:17:20Z</time>
</trkpt>
      <trkpt lat="11.00658178" lon="-74.25178707">
<time>2014-05-18T21:17:22Z</time>
</trkpt>
      <trkpt lat="11.00660741" lon="-74.25197172">
<time>2014-05-18T21:17:24Z</time>
</trkpt>
      <trkpt lat="11.00664163" lon="-74.25220561">
<time>2014-05-18T21:17:26Z</time>
</trkpt>
      <trkpt lat="11.00665796" lon="-74.25245249">
<time>2014-05-18T21:17:28Z</time>
</trkpt>
      <trkpt lat="11.00665665" lon="-74.25271606">
<time>2014-05-18T21:17:30Z</time>
</trkpt>
      <trkpt lat="11.00665438" lon="-74.25298166">
<time>2014-05-18T21:17:32Z</time>
</trkpt>
      <trkpt lat="11.00665295" lon="-74.25326216">
<time>2014-05-18T21:17:34Z</time>
</trkpt>
      <trkpt lat="11.00664747" lon="-74.25353491">
<time>2014-05-18T21:17:36Z</time>
</trkpt>
      <trkpt lat="11.00663960" lon="-74.25380480">
<time>2014-05-18T21:17:38Z</time>
</trkpt>
      <trkpt lat="11.00663114" lon="-74.25407112">
<time>2014-05-18T21:17:40Z</time>
</trkpt>
      <trkpt lat="11.00661516" lon="-74.25432873">
<time>2014-05-18T21:17:42Z</time>
</trkpt>
      <trkpt lat="11.00660515" lon="-74.25458229">
<time>2014-05-18T21:17:44Z</time>
</trkpt>
      <trkpt lat="11.00660121" lon="-74.25478876">
<time>2014-05-18T21:17:46Z</time>
</trkpt>
      <trkpt lat="11.00660157" lon="-74.25497794">
<time>2014-05-18T21:17:48Z</time>
</trkpt>
      <trkpt lat="11.00660098" lon="-74.25512123">
<time>2014-05-18T21:17:50Z</time>
</trkpt>
      <trkpt lat="11.00660145" lon="-74.25521672">
<time>2014-05-18T21:17:52Z</time>
</trkpt>
      <trkpt lat="11.00659776" lon="-74.25533259">
<time>2014-05-18T21:17:54Z</time>
</trkpt>
      <trkpt lat="11.00660062" lon="-74.25551796">
<time>2014-05-18T21:17:56Z</time>
</trkpt>
      <trkpt lat="11.00659633" lon="-74.25574505">
<time>2014-05-18T21:17:58Z</time>
</trkpt>
      <trkpt lat="11.00658894" lon="-74.25600111">
<time>2014-05-18T21:18:00Z</time>
</trkpt>
      <trkpt lat="11.00658596" lon="-74.25628757">
<time>2014-05-18T21:18:02Z</time>
</trkpt>
      <trkpt lat="11.00658488" lon="-74.25658131">
<time>2014-05-18T21:18:04Z</time>
</trkpt>
      <trkpt lat="11.00657833" lon="-74.25689614">
<time>2014-05-18T21:18:06Z</time>
</trkpt>
      <trkpt lat="11.00656688" lon="-74.25720513">
<time>2014-05-18T21:18:08Z</time>
</trkpt>
      <trkpt lat="11.00656462" lon="-74.25754511">
<time>2014-05-18T21:18:10Z</time>
</trkpt>
      <trkpt lat="11.00656116" lon="-74.25784957">
<time>2014-05-18T21:18:12Z</time>
</trkpt>
      <trkpt lat="11.00655711" lon="-74.25811422">
<time>2014-05-18T21:18:14Z</time>
</trkpt>
      <trkpt lat="11.00655246" lon="-74.25831592">
<time>2014-05-18T21:18:16Z</time>
</trkpt>
      <trkpt lat="11.00655341" lon="-74.25844312">
<time>2014-05-18T21:18:18Z</time>
</trkpt>
      <trkpt lat="11.00655413" lon="-74.25851476">
<time>2014-05-18T21:18:20Z</time>
</trkpt>
      <trkpt lat="11.00655174" lon="-74.25861645">
<time>2014-05-18T21:18:22Z</time>
</trkpt>
      <trkpt lat="11.00655043" lon="-74.25878263">
<time>2014-05-18T21:18:24Z</time>
</trkpt>
      <trkpt lat="11.00655377" lon="-74.25899625">
<time>2014-05-18T21:18:26Z</time>
</trkpt>
      <trkpt lat="11.00657511" lon="-74.25922132">
<time>2014-05-18T21:18:28Z</time>
</trkpt>
      <trkpt lat="11.00658822" lon="-74.25945783">
<time>2014-05-18T21:18:30Z</time>
</trkpt>
      <trkpt lat="11.00659549" lon="-74.25972557">
<time>2014-05-18T21:18:32Z</time>
</trkpt>
      <trkpt lat="11.00658798" lon="-74.26001966">
<time>2014-05-18T21:18:34Z</time>
</trkpt>
      <trkpt lat="11.00655448" lon="-74.26032805">
<time>2014-05-18T21:18:36Z</time>
</trkpt>
      <trkpt lat="11.00648499" lon="-74.26064193">
<time>2014-05-18T21:18:38Z</time>
</trkpt>
      <trkpt lat="11.00639224" lon="-74.26094329">
<time>2014-05-18T21:18:40Z</time>
</trkpt>
      <trkpt lat="11.00624979" lon="-74.26126695">
<time>2014-05-18T21:18:42Z</time>
</trkpt>
      <trkpt lat="11.00605297" lon="-74.26160061">
<time>2014-05-18T21:18:44Z</time>
</trkpt>
      <trkpt lat="11.00581515" lon="-74.26192915">
<time>2014-05-18T21:18:46Z</time>
</trkpt>
      <trkpt lat="11.00555742" lon="-74.26225150">
<time>2014-05-18T21:18:48Z</time>
</trkpt>
      <trkpt lat="11.00529325" lon="-74.26258790">
<time>2014-05-18T21:18:50Z</time>
</trkpt>
      <trkpt lat="11.00502813" lon="-74.26292825">
<time>2014-05-18T21:18:52Z</time>
</trkpt>
      <trkpt lat="11.00476825" lon="-74.26328266">
<time>2014-05-18T21:18:54Z</time>
</trkpt>
      <trkpt lat="11.00449324" lon="-74.26363063">
<time>2014-05-18T21:18:56Z</time>
</trkpt>
      <trkpt lat="11.00421727" lon="-74.26398814">
<time>2014-05-18T21:18:58Z</time>
</trkpt>
      <trkpt lat="11.00394213" lon="-74.26434457">
<time>2014-05-18T21:19:00Z</time>
</trkpt>
      <trkpt lat="11.00366545" lon="-74.26470757">
<time>2014-05-18T21:19:02Z</time>
</trkpt>
      <trkpt lat="11.00339913" lon="-74.26505375">
<time>2014-05-18T21:19:04Z</time>
</trkpt>
      <trkpt lat="11.00314391" lon="-74.26539147">
<time>2014-05-18T21:19:06Z</time>
</trkpt>
      <trkpt lat="11.00288856" lon="-74.26572824">
<time>2014-05-18T21:19:08Z</time>
</trkpt>
      <trkpt lat="11.00264692" lon="-74.26607156">
<time>2014-05-18T21:19:10Z</time>
</trkpt>
      <trkpt lat="11.00242066" lon="-74.26638043">
<time>2014-05-18T21:19:12Z</time>
</trkpt>
      <trkpt lat="11.00220716" lon="-74.26665330">
<time>2014-05-18T21:19:14Z</time>
</trkpt>
      <trkpt lat="11.00201416" lon="-74.26690459">
<time>2014-05-18T21:19:16Z</time>
</trkpt>
      <trkpt lat="11.00183773" lon="-74.26713812">
<time>2014-05-18T21:19:18Z</time>
</trkpt>
      <trkpt lat="11.00167823" lon="-74.26735842">
<time>2014-05-18T21:19:20Z</time>
</trkpt>
      <trkpt lat="11.00155830" lon="-74.26752841">
<time>2014-05-18T21:19:22Z</time>
</trkpt>
      <trkpt lat="11.00148273" lon="-74.26762938">
<time>2014-05-18T21:19:24Z</time>
</trkpt>
      <trkpt lat="11.00143075" lon="-74.26769972">
<time>2014-05-18T21:19:26Z</time>
</trkpt>
      <trkpt lat="11.00138009" lon="-74.26776755">
<time>2014-05-18T21:19:28Z</time>
</trkpt>
      <trkpt lat="11.00134182" lon="-74.26782441">
<time>2014-05-18T21:19:30Z</time>
</trkpt>
      <trkpt lat="11.00129163" lon="-74.26788211">
<time>2014-05-18T21:19:32Z</time>
</trkpt>
      <trkpt lat="11.00121915" lon="-74.26797473">
<time>2014-05-18T21:19:34Z</time>
</trkpt>
      <trkpt lat="11.00112545" lon="-74.26809430">
<time>2014-05-18T21:19:36Z</time>
</trkpt>
      <trkpt lat="11.00099182" lon="-74.26824749">
<time>2014-05-18T21:19:38Z</time>
</trkpt>
      <trkpt lat="11.00083482" lon="-74.26845539">
<time>2014-05-18T21:19:40Z</time>
</trkpt>
      <trkpt lat="11.00067723" lon="-74.26866877">
<time>2014-05-18T21:19:42Z</time>
</trkpt>
      <trkpt lat="11.00052464" lon="-74.26888347">
<time>2014-05-18T21:19:44Z</time>
</trkpt>
      <trkpt lat="11.00037396" lon="-74.26909959">
<time>2014-05-18T21:19:46Z</time>
</trkpt>
      <trkpt lat="11.00023472" lon="-74.26930082">
<time>2014-05-18T21:19:48Z</time>
</trkpt>
      <trkpt lat="11.00011039" lon="-74.26946139">
<time>2014-05-18T21:19:50Z</time>
</trkpt>
      <trkpt lat="10.99999845" lon="-74.26960683">
<time>2014-05-18T21:19:52Z</time>
</trkpt>
      <trkpt lat="10.99988461" lon="-74.26975679">
<time>2014-05-18T21:19:54Z</time>
</trkpt>
      <trkpt lat="10.99974573" lon="-74.26994228">
<time>2014-05-18T21:19:56Z</time>
</trkpt>
      <trkpt lat="10.99956226" lon="-74.27016258">
<time>2014-05-18T21:19:58Z</time>
</trkpt>
      <trkpt lat="10.99936473" lon="-74.27043009">
<time>2014-05-18T21:20:00Z</time>
</trkpt>
      <trkpt lat="10.99916625" lon="-74.27071559">
<time>2014-05-18T21:20:02Z</time>
</trkpt>
      <trkpt lat="10.99896097" lon="-74.27099991">
<time>2014-05-18T21:20:04Z</time>
</trkpt>
      <trkpt lat="10.99874663" lon="-74.27127206">
<time>2014-05-18T21:20:06Z</time>
</trkpt>
      <trkpt lat="10.99853611" lon="-74.27154911">
<time>2014-05-18T21:20:08Z</time>
</trkpt>
      <trkpt lat="10.99833989" lon="-74.27182674">
<time>2014-05-18T21:20:10Z</time>
</trkpt>
      <trkpt lat="10.99814880" lon="-74.27209079">
<time>2014-05-18T21:20:12Z</time>
</trkpt>
      <trkpt lat="10.99796879" lon="-74.27236581">
<time>2014-05-18T21:20:14Z</time>
</trkpt>
      <trkpt lat="10.99779463" lon="-74.27266383">
<time>2014-05-18T21:20:16Z</time>
</trkpt>
      <trkpt lat="10.99763823" lon="-74.27295578">
<time>2014-05-18T21:20:18Z</time>
</trkpt>
      <trkpt lat="10.99749994" lon="-74.27326512">
<time>2014-05-18T21:20:20Z</time>
</trkpt>
      <trkpt lat="10.99738705" lon="-74.27360427">
<time>2014-05-18T21:20:22Z</time>
</trkpt>
      <trkpt lat="10.99727964" lon="-74.27395916">
<time>2014-05-18T21:20:24Z</time>
</trkpt>
      <trkpt lat="10.99717546" lon="-74.27429509">
<time>2014-05-18T21:20:26Z</time>
</trkpt>
      <trkpt lat="10.99706364" lon="-74.27462780">
<time>2014-05-18T21:20:28Z</time>
</trkpt>
      <trkpt lat="10.99692261" lon="-74.27501261">
<time>2014-05-18T21:20:30Z</time>
</trkpt>
      <trkpt lat="10.99677646" lon="-74.27545989">
<time>2014-05-18T21:20:32Z</time>
</trkpt>
      <trkpt lat="10.99662030" lon="-74.27593374">
<time>2014-05-18T21:20:34Z</time>
</trkpt>
      <trkpt lat="10.99646199" lon="-74.27643156">
<time>2014-05-18T21:20:36Z</time>
</trkpt>
      <trkpt lat="10.99630594" lon="-74.27695155">
<time>2014-05-18T21:20:38Z</time>
</trkpt>
      <trkpt lat="10.99615312" lon="-74.27747679">
<time>2014-05-18T21:20:40Z</time>
</trkpt>
      <trkpt lat="10.99599814" lon="-74.27799642">
<time>2014-05-18T21:20:42Z</time>
</trkpt>
      <trkpt lat="10.99584281" lon="-74.27849245">
<time>2014-05-18T21:20:44Z</time>
</trkpt>
      <trkpt lat="10.99568844" lon="-74.27898932">
<time>2014-05-18T21:20:46Z</time>
</trkpt>
      <trkpt lat="10.99552643" lon="-74.27946949">
<time>2014-05-18T21:20:48Z</time>
</trkpt>
      <trkpt lat="10.99534726" lon="-74.27991581">
<time>2014-05-18T21:20:50Z</time>
</trkpt>
      <trkpt lat="10.99513745" lon="-74.28033006">
<time>2014-05-18T21:20:52Z</time>
</trkpt>
      <trkpt lat="10.99490356" lon="-74.28070641">
<time>2014-05-18T21:20:54Z</time>
</trkpt>
      <trkpt lat="10.99466825" lon="-74.28103876">
<time>2014-05-18T21:20:56Z</time>
</trkpt>
      <trkpt lat="10.99444473" lon="-74.28132844">
<time>2014-05-18T21:20:58Z</time>
</trkpt>
      <trkpt lat="10.99426389" lon="-74.28157210">
<time>2014-05-18T21:21:00Z</time>
</trkpt>
      <trkpt lat="10.99412215" lon="-74.28175926">
<time>2014-05-18T21:21:02Z</time>
</trkpt>
      <trkpt lat="10.99399424" lon="-74.28193116">
<time>2014-05-18T21:21:04Z</time>
</trkpt>
      <trkpt lat="10.99389291" lon="-74.28206515">
<time>2014-05-18T21:21:06Z</time>
</trkpt>
      <trkpt lat="10.99381673" lon="-74.28216648">
<time>2014-05-18T21:21:08Z</time>
</trkpt>
      <trkpt lat="10.99374425" lon="-74.28225780">
<time>2014-05-18T21:21:10Z</time>
</trkpt>
      <trkpt lat="10.99366665" lon="-74.28233898">
<time>2014-05-18T21:21:12Z</time>
</trkpt>
      <trkpt lat="10.99358797" lon="-74.28241289">
<time>2014-05-18T21:21:14Z</time>
</trkpt>
      <trkpt lat="10.99352765" lon="-74.28247213">
<time>2014-05-18T21:21:16Z</time>
</trkpt>
      <trkpt lat="10.99346495" lon="-74.28254247">
<time>2014-05-18T21:21:18Z</time>
</trkpt>
      <trkpt lat="10.99337661" lon="-74.28263998">
<time>2014-05-18T21:21:20Z</time>
</trkpt>
      <trkpt lat="10.99325681" lon="-74.28279948">
<time>2014-05-18T21:21:22Z</time>
</trkpt>
      <trkpt lat="10.99310243" lon="-74.28302526">
<time>2014-05-18T21:21:24Z</time>
</trkpt>
      <trkpt lat="10.99291396" lon="-74.28328991">
<time>2014-05-18T21:21:26Z</time>
</trkpt>
      <trkpt lat="10.99270916" lon="-74.28358579">
<time>2014-05-18T21:21:28Z</time>
</trkpt>
      <trkpt lat="10.99249494" lon="-74.28389513">
<time>2014-05-18T21:21:30Z</time>
</trkpt>
      <trkpt lat="10.99230230" lon="-74.28417957">
<time>2014-05-18T21:21:32Z</time>
</trkpt>
      <trkpt lat="10.99215114" lon="-74.28439844">
<time>2014-05-18T21:21:34Z</time>
</trkpt>
      <trkpt lat="10.99205875" lon="-74.28453445">
<time>2014-05-18T21:21:36Z</time>
</trkpt>
      <trkpt lat="10.99201715" lon="-74.28462946">
<time>2014-05-18T21:21:38Z</time>
</trkpt>
      <trkpt lat="10.99195993" lon="-74.28469980">
<time>2014-05-18T21:21:40Z</time>
</trkpt>
      <trkpt lat="10.99188197" lon="-74.28480232">
<time>2014-05-18T21:21:42Z</time>
</trkpt>
      <trkpt lat="10.99176872" lon="-74.28494775">
<time>2014-05-18T21:21:44Z</time>
</trkpt>
      <trkpt lat="10.99163055" lon="-74.28513098">
<time>2014-05-18T21:21:46Z</time>
</trkpt>
      <trkpt lat="10.99147463" lon="-74.28533363">
<time>2014-05-18T21:21:48Z</time>
</trkpt>
      <trkpt lat="10.99134755" lon="-74.28551090">
<time>2014-05-18T21:21:50Z</time>
</trkpt>
      <trkpt lat="10.99125397" lon="-74.28565681">
<time>2014-05-18T21:21:52Z</time>
</trkpt>
      <trkpt lat="10.99116433" lon="-74.28579092">
<time>2014-05-18T21:21:54Z</time>
</trkpt>
      <trkpt lat="10.99106872" lon="-74.28591943">
<time>2014-05-18T21:21:56Z</time>
</trkpt>
      <trkpt lat="10.99097276" lon="-74.28603864">
<time>2014-05-18T21:21:58Z</time>
</trkpt>
      <trkpt lat="10.99086559" lon="-74.28616500">
<time>2014-05-18T21:22:00Z</time>
</trkpt>
      <trkpt lat="10.99076426" lon="-74.28630638">
<time>2014-05-18T21:22:02Z</time>
</trkpt>
      <trkpt lat="10.99067008" lon="-74.28644514">
<time>2014-05-18T21:22:04Z</time>
</trkpt>
      <trkpt lat="10.99056983" lon="-74.28658247">
<time>2014-05-18T21:22:06Z</time>
</trkpt>
      <trkpt lat="10.99044991" lon="-74.28675890">
<time>2014-05-18T21:22:08Z</time>
</trkpt>
      <trkpt lat="10.99030042" lon="-74.28697860">
<time>2014-05-18T21:22:10Z</time>
</trkpt>
      <trkpt lat="10.99014533" lon="-74.28726840">
<time>2014-05-18T21:22:12Z</time>
</trkpt>
      <trkpt lat="10.98999596" lon="-74.28757381">
<time>2014-05-18T21:22:14Z</time>
</trkpt>
      <trkpt lat="10.98986864" lon="-74.28792310">
<time>2014-05-18T21:22:16Z</time>
</trkpt>
      <trkpt lat="10.98975289" lon="-74.28830516">
<time>2014-05-18T21:22:18Z</time>
</trkpt>
      <trkpt lat="10.98963630" lon="-74.28869128">
<time>2014-05-18T21:22:20Z</time>
</trkpt>
      <trkpt lat="10.98951781" lon="-74.28908706">
<time>2014-05-18T21:22:22Z</time>
</trkpt>
      <trkpt lat="10.98939705" lon="-74.28947258">
<time>2014-05-18T21:22:24Z</time>
</trkpt>
      <trkpt lat="10.98928058" lon="-74.28987455">
<time>2014-05-18T21:22:26Z</time>
</trkpt>
      <trkpt lat="10.98916590" lon="-74.29028797">
<time>2014-05-18T21:22:28Z</time>
</trkpt>
      <trkpt lat="10.98904788" lon="-74.29071212">
<time>2014-05-18T21:22:30Z</time>
</trkpt>
      <trkpt lat="10.98892248" lon="-74.29114425">
<time>2014-05-18T21:22:32Z</time>
</trkpt>
      <trkpt lat="10.98879743" lon="-74.29158211">
<time>2014-05-18T21:22:34Z</time>
</trkpt>
      <trkpt lat="10.98867500" lon="-74.29201746">
<time>2014-05-18T21:22:36Z</time>
</trkpt>
      <trkpt lat="10.98855078" lon="-74.29243243">
<time>2014-05-18T21:22:38Z</time>
</trkpt>
      <trkpt lat="10.98843157" lon="-74.29283774">
<time>2014-05-18T21:22:40Z</time>
</trkpt>
      <trkpt lat="10.98830712" lon="-74.29322731">
<time>2014-05-18T21:22:42Z</time>
</trkpt>
      <trkpt lat="10.98818791" lon="-74.29360926">
<time>2014-05-18T21:22:44Z</time>
</trkpt>
      <trkpt lat="10.98807061" lon="-74.29398811">
<time>2014-05-18T21:22:46Z</time>
</trkpt>
      <trkpt lat="10.98796058" lon="-74.29435813">
<time>2014-05-18T21:22:48Z</time>
</trkpt>
      <trkpt lat="10.98786533" lon="-74.29468524">
<time>2014-05-18T21:22:50Z</time>
</trkpt>
      <trkpt lat="10.98778141" lon="-74.29497600">
<time>2014-05-18T21:22:52Z</time>
</trkpt>
      <trkpt lat="10.98769510" lon="-74.29526329">
<time>2014-05-18T21:22:54Z</time>
</trkpt>
      <trkpt lat="10.98759258" lon="-74.29558396">
<time>2014-05-18T21:22:56Z</time>
</trkpt>
      <trkpt lat="10.98748076" lon="-74.29593873">
<time>2014-05-18T21:22:58Z</time>
</trkpt>
      <trkpt lat="10.98737633" lon="-74.29630446">
<time>2014-05-18T21:23:00Z</time>
</trkpt>
      <trkpt lat="10.98726809" lon="-74.29666877">
<time>2014-05-18T21:23:02Z</time>
</trkpt>
      <trkpt lat="10.98716450" lon="-74.29701889">
<time>2014-05-18T21:23:04Z</time>
</trkpt>
      <trkpt lat="10.98706245" lon="-74.29736114">
<time>2014-05-18T21:23:06Z</time>
</trkpt>
      <trkpt lat="10.98696125" lon="-74.29772162">
<time>2014-05-18T21:23:08Z</time>
</trkpt>
      <trkpt lat="10.98685658" lon="-74.29806709">
<time>2014-05-18T21:23:10Z</time>
</trkpt>
      <trkpt lat="10.98675525" lon="-74.29841244">
<time>2014-05-18T21:23:12Z</time>
</trkpt>
      <trkpt lat="10.98663628" lon="-74.29878211">
<time>2014-05-18T21:23:14Z</time>
</trkpt>
      <trkpt lat="10.98651361" lon="-74.29916823">
<time>2014-05-18T21:23:16Z</time>
</trkpt>
      <trkpt lat="10.98637140" lon="-74.29954100">
<time>2014-05-18T21:23:18Z</time>
</trkpt>
      <trkpt lat="10.98620772" lon="-74.29988849">
<time>2014-05-18T21:23:20Z</time>
</trkpt>
      <trkpt lat="10.98601174" lon="-74.30023181">
<time>2014-05-18T21:23:22Z</time>
</trkpt>
      <trkpt lat="10.98580432" lon="-74.30061662">
<time>2014-05-18T21:23:24Z</time>
</trkpt>
      <trkpt lat="10.98560989" lon="-74.30106282">
<time>2014-05-18T21:23:26Z</time>
</trkpt>
      <trkpt lat="10.98540282" lon="-74.30152392">
<time>2014-05-18T21:23:28Z</time>
</trkpt>
      <trkpt lat="10.98517907" lon="-74.30198622">
<time>2014-05-18T21:23:30Z</time>
</trkpt>
      <trkpt lat="10.98495126" lon="-74.30245566">
<time>2014-05-18T21:23:32Z</time>
</trkpt>
      <trkpt lat="10.98471975" lon="-74.30292714">
<time>2014-05-18T21:23:34Z</time>
</trkpt>
      <trkpt lat="10.98449373" lon="-74.30339646">
<time>2014-05-18T21:23:36Z</time>
</trkpt>
      <trkpt lat="10.98425722" lon="-74.30386090">
<time>2014-05-18T21:23:38Z</time>
</trkpt>
      <trkpt lat="10.98401296" lon="-74.30431473">
<time>2014-05-18T21:23:40Z</time>
</trkpt>
      <trkpt lat="10.98376846" lon="-74.30478644">
<time>2014-05-18T21:23:42Z</time>
</trkpt>
      <trkpt lat="10.98351955" lon="-74.30527258">
<time>2014-05-18T21:23:44Z</time>
</trkpt>
      <trkpt lat="10.98327649" lon="-74.30577588">
<time>2014-05-18T21:23:46Z</time>
</trkpt>
      <trkpt lat="10.98303866" lon="-74.30627716">
<time>2014-05-18T21:23:48Z</time>
</trkpt>
      <trkpt lat="10.98281932" lon="-74.30679357">
<time>2014-05-18T21:23:50Z</time>
</trkpt>
      <trkpt lat="10.98263049" lon="-74.30731559">
<time>2014-05-18T21:23:52Z</time>
</trkpt>
      <trkpt lat="10.98245060" lon="-74.30785942">
<time>2014-05-18T21:23:54Z</time>
</trkpt>
      <trkpt lat="10.98227155" lon="-74.30843091">
<time>2014-05-18T21:23:56Z</time>
</trkpt>
      <trkpt lat="10.98208642" lon="-74.30900776">
<time>2014-05-18T21:23:58Z</time>
</trkpt>
      <trkpt lat="10.98189759" lon="-74.30959177">
<time>2014-05-18T21:24:00Z</time>
</trkpt>
      <trkpt lat="10.98171055" lon="-74.31018794">
<time>2014-05-18T21:24:02Z</time>
</trkpt>
      <trkpt lat="10.98152316" lon="-74.31077492">
<time>2014-05-18T21:24:04Z</time>
</trkpt>
      <trkpt lat="10.98134089" lon="-74.31134808">
<time>2014-05-18T21:24:06Z</time>
</trkpt>
      <trkpt lat="10.98115146" lon="-74.31193888">
<time>2014-05-18T21:24:08Z</time>
</trkpt>
      <trkpt lat="10.98096597" lon="-74.31255507">
<time>2014-05-18T21:24:10Z</time>
</trkpt>
      <trkpt lat="10.98077023" lon="-74.31318343">
<time>2014-05-18T21:24:12Z</time>
</trkpt>
      <trkpt lat="10.98056543" lon="-74.31380773">
<time>2014-05-18T21:24:14Z</time>
</trkpt>
      <trkpt lat="10.98036325" lon="-74.31443489">
<time>2014-05-18T21:24:16Z</time>
</trkpt>
      <trkpt lat="10.98014796" lon="-74.31505883">
<time>2014-05-18T21:24:18Z</time>
</trkpt>
      <trkpt lat="10.97995245" lon="-74.31567907">
<time>2014-05-18T21:24:20Z</time>
</trkpt>
      <trkpt lat="10.97976696" lon="-74.31627357">
<time>2014-05-18T21:24:22Z</time>
</trkpt>
      <trkpt lat="10.97962976" lon="-74.31685412">
<time>2014-05-18T21:24:24Z</time>
</trkpt>
      <trkpt lat="10.97953832" lon="-74.31743157">
<time>2014-05-18T21:24:26Z</time>
</trkpt>
      <trkpt lat="10.97946966" lon="-74.31800807">
<time>2014-05-18T21:24:28Z</time>
</trkpt>
      <trkpt lat="10.97940946" lon="-74.31857622">
<time>2014-05-18T21:24:30Z</time>
</trkpt>
      <trkpt lat="10.97935796" lon="-74.31914341">
<time>2014-05-18T21:24:32Z</time>
</trkpt>
      <trkpt lat="10.97928739" lon="-74.31970513">
<time>2014-05-18T21:24:34Z</time>
</trkpt>
      <trkpt lat="10.97921574" lon="-74.32026207">
<time>2014-05-18T21:24:36Z</time>
</trkpt>
      <trkpt lat="10.97914064" lon="-74.32082844">
<time>2014-05-18T21:24:38Z</time>
</trkpt>
      <trkpt lat="10.97907078" lon="-74.32140255">
<time>2014-05-18T21:24:40Z</time>
</trkpt>
      <trkpt lat="10.97900176" lon="-74.32199049">
<time>2014-05-18T21:24:42Z</time>
</trkpt>
      <trkpt lat="10.97893107" lon="-74.32258022">
<time>2014-05-18T21:24:44Z</time>
</trkpt>
      <trkpt lat="10.97885740" lon="-74.32317460">
<time>2014-05-18T21:24:46Z</time>
</trkpt>
      <trkpt lat="10.97878742" lon="-74.32378125">
<time>2014-05-18T21:24:48Z</time>
</trkpt>
      <trkpt lat="10.97871447" lon="-74.32438695">
<time>2014-05-18T21:24:50Z</time>
</trkpt>
      <trkpt lat="10.97864556" lon="-74.32496679">
<time>2014-05-18T21:24:52Z</time>
</trkpt>
      <trkpt lat="10.97858393" lon="-74.32548463">
<time>2014-05-18T21:24:54Z</time>
</trkpt>
      <trkpt lat="10.97852647" lon="-74.32596624">
<time>2014-05-18T21:24:56Z</time>
</trkpt>
      <trkpt lat="10.97846723" lon="-74.32644880">
<time>2014-05-18T21:24:58Z</time>
</trkpt>
      <trkpt lat="10.97840822" lon="-74.32696891">
<time>2014-05-18T21:25:00Z</time>
</trkpt>
      <trkpt lat="10.97834313" lon="-74.32750773">
<time>2014-05-18T21:25:02Z</time>
</trkpt>
      <trkpt lat="10.97827482" lon="-74.32804561">
<time>2014-05-18T21:25:04Z</time>
</trkpt>
      <trkpt lat="10.97821057" lon="-74.32854998">
<time>2014-05-18T21:25:06Z</time>
</trkpt>
      <trkpt lat="10.97815323" lon="-74.32903576">
<time>2014-05-18T21:25:08Z</time>
</trkpt>
      <trkpt lat="10.97809172" lon="-74.32954061">
<time>2014-05-18T21:25:10Z</time>
</trkpt>
      <trkpt lat="10.97802126" lon="-74.33006740">
<time>2014-05-18T21:25:12Z</time>
</trkpt>
      <trkpt lat="10.97795630" lon="-74.33059883">
<time>2014-05-18T21:25:14Z</time>
</trkpt>
      <trkpt lat="10.97789824" lon="-74.33108509">
<time>2014-05-18T21:25:16Z</time>
</trkpt>
      <trkpt lat="10.97784543" lon="-74.33155549">
<time>2014-05-18T21:25:18Z</time>
</trkpt>
      <trkpt lat="10.97778726" lon="-74.33201957">
<time>2014-05-18T21:25:20Z</time>
</trkpt>
      <trkpt lat="10.97772861" lon="-74.33246839">
<time>2014-05-18T21:25:22Z</time>
</trkpt>
      <trkpt lat="10.97766578" lon="-74.33292258">
<time>2014-05-18T21:25:24Z</time>
</trkpt>
      <trkpt lat="10.97761440" lon="-74.33336246">
<time>2014-05-18T21:25:26Z</time>
</trkpt>
      <trkpt lat="10.97756028" lon="-74.33380294">
<time>2014-05-18T21:25:28Z</time>
</trkpt>
      <trkpt lat="10.97751427" lon="-74.33421206">
<time>2014-05-18T21:25:30Z</time>
</trkpt>
      <trkpt lat="10.97747028" lon="-74.33457446">
<time>2014-05-18T21:25:32Z</time>
</trkpt>
      <trkpt lat="10.97742891" lon="-74.33486474">
<time>2014-05-18T21:25:34Z</time>
</trkpt>
      <trkpt lat="10.97740245" lon="-74.33506525">
<time>2014-05-18T21:25:36Z</time>
</trkpt>
      <trkpt lat="10.97738290" lon="-74.33519208">
<time>2014-05-18T21:25:38Z</time>
</trkpt>
      <trkpt lat="10.97737396" lon="-74.33527565">
<time>2014-05-18T21:25:40Z</time>
</trkpt>
      <trkpt lat="10.97736239" lon="-74.33535838">
<time>2014-05-18T21:25:42Z</time>
</trkpt>
      <trkpt lat="10.97734690" lon="-74.33547223">
<time>2014-05-18T21:25:44Z</time>
</trkpt>
      <trkpt lat="10.97733545" lon="-74.33560681">
<time>2014-05-18T21:25:46Z</time>
</trkpt>
      <trkpt lat="10.97732127" lon="-74.33572626">
<time>2014-05-18T21:25:48Z</time>
</trkpt>
      <trkpt lat="10.97731364" lon="-74.33580923">
<time>2014-05-18T21:25:50Z</time>
</trkpt>
      <trkpt lat="10.97729993" lon="-74.33590615">
<time>2014-05-18T21:25:52Z</time>
</trkpt>
      <trkpt lat="10.97728932" lon="-74.33603144">
<time>2014-05-18T21:25:54Z</time>
</trkpt>
      <trkpt lat="10.97729015" lon="-74.33617282">
<time>2014-05-18T21:25:56Z</time>
</trkpt>
      <trkpt lat="10.97729027" lon="-74.33631229">
<time>2014-05-18T21:25:58Z</time>
</trkpt>
      <trkpt lat="10.97728479" lon="-74.33643830">
<time>2014-05-18T21:26:00Z</time>
</trkpt>
      <trkpt lat="10.97728026" lon="-74.33652961">
<time>2014-05-18T21:26:02Z</time>
</trkpt>
      <trkpt lat="10.97727883" lon="-74.33659625">
<time>2014-05-18T21:26:04Z</time>
</trkpt>
      <trkpt lat="10.97727108" lon="-74.33666039">
<time>2014-05-18T21:26:06Z</time>
</trkpt>
      <trkpt lat="10.97726297" lon="-74.33672476">
<time>2014-05-18T21:26:08Z</time>
</trkpt>
      <trkpt lat="10.97726345" lon="-74.33674216">
<time>2014-05-18T21:26:10Z</time>
</trkpt>
      <trkpt lat="10.97726893" lon="-74.33675432">
<time>2014-05-18T21:26:12Z</time>
</trkpt>
      <trkpt lat="10.97727466" lon="-74.33676505">
<time>2014-05-18T21:26:14Z</time>
</trkpt>
      <trkpt lat="10.97728693" lon="-74.33678639">
<time>2014-05-18T21:26:16Z</time>
</trkpt>
      <trkpt lat="10.97728956" lon="-74.33685017">
<time>2014-05-18T21:26:18Z</time>
</trkpt>
      <trkpt lat="10.97726774" lon="-74.33693612">
<time>2014-05-18T21:26:20Z</time>
</trkpt>
      <trkpt lat="10.97725177" lon="-74.33703792">
<time>2014-05-18T21:26:22Z</time>
</trkpt>
      <trkpt lat="10.97722793" lon="-74.33712363">
<time>2014-05-18T21:26:24Z</time>
</trkpt>
      <trkpt lat="10.97720730" lon="-74.33720410">
<time>2014-05-18T21:26:26Z</time>
</trkpt>
      <trkpt lat="10.97718716" lon="-74.33732224">
<time>2014-05-18T21:26:28Z</time>
</trkpt>
      <trkpt lat="10.97716379" lon="-74.33745897">
<time>2014-05-18T21:26:30Z</time>
</trkpt>
      <trkpt lat="10.97713959" lon="-74.33758581">
<time>2014-05-18T21:26:32Z</time>
</trkpt>
      <trkpt lat="10.97712243" lon="-74.33769310">
<time>2014-05-18T21:26:34Z</time>
</trkpt>
      <trkpt lat="10.97709477" lon="-74.33782005">
<time>2014-05-18T21:26:36Z</time>
</trkpt>
      <trkpt lat="10.97706246" lon="-74.33799362">
<time>2014-05-18T21:26:38Z</time>
</trkpt>
      <trkpt lat="10.97703362" lon="-74.33818913">
<time>2014-05-18T21:26:40Z</time>
</trkpt>
      <trkpt lat="10.97700155" lon="-74.33834922">
<time>2014-05-18T21:26:42Z</time>
</trkpt>
      <trkpt lat="10.97698498" lon="-74.33846164">
<time>2014-05-18T21:26:44Z</time>
</trkpt>
      <trkpt lat="10.97696841" lon="-74.33852530">
<time>2014-05-18T21:26:46Z</time>
</trkpt>
      <trkpt lat="10.97695756" lon="-74.33857596">
<time>2014-05-18T21:26:48Z</time>
</trkpt>
      <trkpt lat="10.97695005" lon="-74.33862591">
<time>2014-05-18T21:26:50Z</time>
</trkpt>
      <trkpt lat="10.97694564" lon="-74.33867192">
<time>2014-05-18T21:26:52Z</time>
</trkpt>
      <trkpt lat="10.97693610" lon="-74.33877456">
<time>2014-05-18T21:26:54Z</time>
</trkpt>
      <trkpt lat="10.97691798" lon="-74.33894312">
<time>2014-05-18T21:26:56Z</time>
</trkpt>
      <trkpt lat="10.97688007" lon="-74.33916700">
<time>2014-05-18T21:26:58Z</time>
</trkpt>
      <trkpt lat="10.97683525" lon="-74.33940566">
<time>2014-05-18T21:27:00Z</time>
</trkpt>
      <trkpt lat="10.97678912" lon="-74.33963764">
<time>2014-05-18T21:27:02Z</time>
</trkpt>
      <trkpt lat="10.97671139" lon="-74.33989799">
<time>2014-05-18T21:27:04Z</time>
</trkpt>
      <trkpt lat="10.97660112" lon="-74.34025216">
<time>2014-05-18T21:27:06Z</time>
</trkpt>
      <trkpt lat="10.97647190" lon="-74.34070647">
<time>2014-05-18T21:27:08Z</time>
</trkpt>
      <trkpt lat="10.97633123" lon="-74.34121716">
<time>2014-05-18T21:27:10Z</time>
</trkpt>
      <trkpt lat="10.97617161" lon="-74.34179199">
<time>2014-05-18T21:27:12Z</time>
</trkpt>
      <trkpt lat="10.97599626" lon="-74.34240460">
<time>2014-05-18T21:27:14Z</time>
</trkpt>
      <trkpt lat="10.97581697" lon="-74.34301507">
<time>2014-05-18T21:27:16Z</time>
</trkpt>
      <trkpt lat="10.97562766" lon="-74.34364831">
<time>2014-05-18T21:27:18Z</time>
</trkpt>
      <trkpt lat="10.97542489" lon="-74.34429014">
<time>2014-05-18T21:27:20Z</time>
</trkpt>
      <trkpt lat="10.97525024" lon="-74.34491098">
<time>2014-05-18T21:27:22Z</time>
</trkpt>
      <trkpt lat="10.97509778" lon="-74.34547830">
<time>2014-05-18T21:27:24Z</time>
</trkpt>
      <trkpt lat="10.97496128" lon="-74.34595716">
<time>2014-05-18T21:27:26Z</time>
</trkpt>
      <trkpt lat="10.97485077" lon="-74.34634590">
<time>2014-05-18T21:27:28Z</time>
</trkpt>
      <trkpt lat="10.97476578" lon="-74.34667861">
<time>2014-05-18T21:27:30Z</time>
</trkpt>
      <trkpt lat="10.97468913" lon="-74.34698439">
<time>2014-05-18T21:27:32Z</time>
</trkpt>
      <trkpt lat="10.97461975" lon="-74.34729493">
<time>2014-05-18T21:27:34Z</time>
</trkpt>
      <trkpt lat="10.97456074" lon="-74.34763229">
<time>2014-05-18T21:27:36Z</time>
</trkpt>
      <trkpt lat="10.97448349" lon="-74.34800947">
<time>2014-05-18T21:27:38Z</time>
</trkpt>
      <trkpt lat="10.97439945" lon="-74.34844995">
<time>2014-05-18T21:27:40Z</time>
</trkpt>
      <trkpt lat="10.97431815" lon="-74.34894025">
<time>2014-05-18T21:27:42Z</time>
</trkpt>
      <trkpt lat="10.97424459" lon="-74.34946811">
<time>2014-05-18T21:27:44Z</time>
</trkpt>
      <trkpt lat="10.97416174" lon="-74.35002065">
<time>2014-05-18T21:27:46Z</time>
</trkpt>
      <trkpt lat="10.97407663" lon="-74.35059500">
<time>2014-05-18T21:27:48Z</time>
</trkpt>
      <trkpt lat="10.97398448" lon="-74.35119343">
<time>2014-05-18T21:27:50Z</time>
</trkpt>
      <trkpt lat="10.97388947" lon="-74.35180640">
<time>2014-05-18T21:27:52Z</time>
</trkpt>
      <trkpt lat="10.97379088" lon="-74.35242581">
<time>2014-05-18T21:27:54Z</time>
</trkpt>
      <trkpt lat="10.97368658" lon="-74.35304892">
<time>2014-05-18T21:27:56Z</time>
</trkpt>
      <trkpt lat="10.97358227" lon="-74.35369205">
<time>2014-05-18T21:27:58Z</time>
</trkpt>
      <trkpt lat="10.97347796" lon="-74.35433888">
<time>2014-05-18T21:28:00Z</time>
</trkpt>
      <trkpt lat="10.97335744" lon="-74.35499239">
<time>2014-05-18T21:28:02Z</time>
</trkpt>
      <trkpt lat="10.97322142" lon="-74.35564649">
<time>2014-05-18T21:28:04Z</time>
</trkpt>
      <trkpt lat="10.97308993" lon="-74.35628557">
<time>2014-05-18T21:28:06Z</time>
</trkpt>
      <trkpt lat="10.97295332" lon="-74.35692108">
<time>2014-05-18T21:28:08Z</time>
</trkpt>
      <trkpt lat="10.97281611" lon="-74.35756195">
<time>2014-05-18T21:28:10Z</time>
</trkpt>
      <trkpt lat="10.97268271" lon="-74.35820949">
<time>2014-05-18T21:28:12Z</time>
</trkpt>
      <trkpt lat="10.97254944" lon="-74.35885966">
<time>2014-05-18T21:28:14Z</time>
</trkpt>
      <trkpt lat="10.97242010" lon="-74.35951507">
<time>2014-05-18T21:28:16Z</time>
</trkpt>
      <trkpt lat="10.97228229" lon="-74.36017311">
<time>2014-05-18T21:28:18Z</time>
</trkpt>
      <trkpt lat="10.97214615" lon="-74.36082900">
<time>2014-05-18T21:28:20Z</time>
</trkpt>
      <trkpt lat="10.97200906" lon="-74.36148000">
<time>2014-05-18T21:28:22Z</time>
</trkpt>
      <trkpt lat="10.97187495" lon="-74.36212444">
<time>2014-05-18T21:28:24Z</time>
</trkpt>
      <trkpt lat="10.97174275" lon="-74.36276233">
<time>2014-05-18T21:28:26Z</time>
</trkpt>
      <trkpt lat="10.97160900" lon="-74.36336648">
<time>2014-05-18T21:28:28Z</time>
</trkpt>
      <trkpt lat="10.97149026" lon="-74.36391664">
<time>2014-05-18T21:28:30Z</time>
</trkpt>
      <trkpt lat="10.97139359" lon="-74.36442208">
<time>2014-05-18T21:28:32Z</time>
</trkpt>
      <trkpt lat="10.97129631" lon="-74.36487877">
<time>2014-05-18T21:28:34Z</time>
</trkpt>
      <trkpt lat="10.97120678" lon="-74.36529374">
<time>2014-05-18T21:28:36Z</time>
</trkpt>
      <trkpt lat="10.97112882" lon="-74.36567533">
<time>2014-05-18T21:28:38Z</time>
</trkpt>
      <trkpt lat="10.97105312" lon="-74.36603808">
<time>2014-05-18T21:28:40Z</time>
</trkpt>
      <trkpt lat="10.97096825" lon="-74.36642432">
<time>2014-05-18T21:28:42Z</time>
</trkpt>
      <trkpt lat="10.97085989" lon="-74.36687529">
<time>2014-05-18T21:28:44Z</time>
</trkpt>
      <trkpt lat="10.97076380" lon="-74.36738908">
<time>2014-05-18T21:28:46Z</time>
</trkpt>
      <trkpt lat="10.97066689" lon="-74.36795616">
<time>2014-05-18T21:28:48Z</time>
</trkpt>
      <trkpt lat="10.97055662" lon="-74.36856759">
<time>2014-05-18T21:28:50Z</time>
</trkpt>
      <trkpt lat="10.97045243" lon="-74.36921144">
<time>2014-05-18T21:28:52Z</time>
</trkpt>
      <trkpt lat="10.97035825" lon="-74.36985528">
<time>2014-05-18T21:28:54Z</time>
</trkpt>
      <trkpt lat="10.97026491" lon="-74.37048805">
<time>2014-05-18T21:28:56Z</time>
</trkpt>
      <trkpt lat="10.97016728" lon="-74.37110746">
<time>2014-05-18T21:28:58Z</time>
</trkpt>
      <trkpt lat="10.97007012" lon="-74.37170875">
<time>2014-05-18T21:29:00Z</time>
</trkpt>
      <trkpt lat="10.96996772" lon="-74.37228882">
<time>2014-05-18T21:29:02Z</time>
</trkpt>
      <trkpt lat="10.96987343" lon="-74.37286198">
<time>2014-05-18T21:29:04Z</time>
</trkpt>
      <trkpt lat="10.96981359" lon="-74.37342763">
<time>2014-05-18T21:29:06Z</time>
</trkpt>
      <trkpt lat="10.96981943" lon="-74.37396145">
<time>2014-05-18T21:29:08Z</time>
</trkpt>
      <trkpt lat="10.96988726" lon="-74.37448776">
<time>2014-05-18T21:29:10Z</time>
</trkpt>
      <trkpt lat="10.97000265" lon="-74.37501812">
<time>2014-05-18T21:29:12Z</time>
</trkpt>
      <trkpt lat="10.97014344" lon="-74.37556291">
<time>2014-05-18T21:29:14Z</time>
</trkpt>
      <trkpt lat="10.97028542" lon="-74.37612045">
<time>2014-05-18T21:29:16Z</time>
</trkpt>
      <trkpt lat="10.97043014" lon="-74.37668145">
<time>2014-05-18T21:29:18Z</time>
</trkpt>
      <trkpt lat="10.97058380" lon="-74.37725139">
<time>2014-05-18T21:29:20Z</time>
</trkpt>
      <trkpt lat="10.97074044" lon="-74.37783825">
<time>2014-05-18T21:29:22Z</time>
</trkpt>
      <trkpt lat="10.97089994" lon="-74.37843382">
<time>2014-05-18T21:29:24Z</time>
</trkpt>
      <trkpt lat="10.97105455" lon="-74.37904060">
<time>2014-05-18T21:29:26Z</time>
</trkpt>
      <trkpt lat="10.97120905" lon="-74.37965405">
<time>2014-05-18T21:29:28Z</time>
</trkpt>
      <trkpt lat="10.97136772" lon="-74.38027561">
<time>2014-05-18T21:29:30Z</time>
</trkpt>
      <trkpt lat="10.97153008" lon="-74.38090122">
<time>2014-05-18T21:29:32Z</time>
</trkpt>
      <trkpt lat="10.97169650" lon="-74.38153160">
<time>2014-05-18T21:29:34Z</time>
</trkpt>
      <trkpt lat="10.97185814" lon="-74.38215649">
<time>2014-05-18T21:29:36Z</time>
</trkpt>
      <trkpt lat="10.97201467" lon="-74.38276839">
<time>2014-05-18T21:29:38Z</time>
</trkpt>
      <trkpt lat="10.97214794" lon="-74.38334894">
<time>2014-05-18T21:29:40Z</time>
</trkpt>
      <trkpt lat="10.97224391" lon="-74.38389790">
<time>2014-05-18T21:29:42Z</time>
</trkpt>
      <trkpt lat="10.97229457" lon="-74.38444960">
<time>2014-05-18T21:29:44Z</time>
</trkpt>
      <trkpt lat="10.97232139" lon="-74.38501859">
<time>2014-05-18T21:29:46Z</time>
</trkpt>
      <trkpt lat="10.97234023" lon="-74.38558924">
<time>2014-05-18T21:29:48Z</time>
</trkpt>
      <trkpt lat="10.97235727" lon="-74.38614500">
<time>2014-05-18T21:29:50Z</time>
</trkpt>
      <trkpt lat="10.97237456" lon="-74.38666761">
<time>2014-05-18T21:29:52Z</time>
</trkpt>
      <trkpt lat="10.97239530" lon="-74.38719177">
<time>2014-05-18T21:29:54Z</time>
</trkpt>
      <trkpt lat="10.97240376" lon="-74.38775432">
<time>2014-05-18T21:29:56Z</time>
</trkpt>
      <trkpt lat="10.97241795" lon="-74.38834274">
<time>2014-05-18T21:29:58Z</time>
</trkpt>
      <trkpt lat="10.97245491" lon="-74.38896012">
<time>2014-05-18T21:30:00Z</time>
</trkpt>
      <trkpt lat="10.97249448" lon="-74.38958395">
<time>2014-05-18T21:30:02Z</time>
</trkpt>
      <trkpt lat="10.97251916" lon="-74.39020789">
<time>2014-05-18T21:30:04Z</time>
</trkpt>
      <trkpt lat="10.97252882" lon="-74.39083457">
<time>2014-05-18T21:30:06Z</time>
</trkpt>
      <trkpt lat="10.97252548" lon="-74.39146245">
<time>2014-05-18T21:30:08Z</time>
</trkpt>
      <trkpt lat="10.97250974" lon="-74.39209032">
<time>2014-05-18T21:30:10Z</time>
</trkpt>
      <trkpt lat="10.97249556" lon="-74.39271927">
<time>2014-05-18T21:30:12Z</time>
</trkpt>
      <trkpt lat="10.97248113" lon="-74.39334655">
<time>2014-05-18T21:30:14Z</time>
</trkpt>
      <trkpt lat="10.97246563" lon="-74.39397645">
<time>2014-05-18T21:30:16Z</time>
</trkpt>
      <trkpt lat="10.97245097" lon="-74.39460528">
<time>2014-05-18T21:30:18Z</time>
</trkpt>
      <trkpt lat="10.97244406" lon="-74.39523900">
<time>2014-05-18T21:30:20Z</time>
</trkpt>
      <trkpt lat="10.97242963" lon="-74.39587212">
<time>2014-05-18T21:30:22Z</time>
</trkpt>
      <trkpt lat="10.97241032" lon="-74.39650631">
<time>2014-05-18T21:30:24Z</time>
</trkpt>
      <trkpt lat="10.97239339" lon="-74.39714181">
<time>2014-05-18T21:30:26Z</time>
</trkpt>
      <trkpt lat="10.97238350" lon="-74.39777780">
<time>2014-05-18T21:30:28Z</time>
</trkpt>
      <trkpt lat="10.97237277" lon="-74.39841676">
<time>2014-05-18T21:30:30Z</time>
</trkpt>
      <trkpt lat="10.97235477" lon="-74.39906156">
<time>2014-05-18T21:30:32Z</time>
</trkpt>
      <trkpt lat="10.97233641" lon="-74.39970624">
<time>2014-05-18T21:30:34Z</time>
</trkpt>
      <trkpt lat="10.97231698" lon="-74.40035248">
<time>2014-05-18T21:30:36Z</time>
</trkpt>
      <trkpt lat="10.97230828" lon="-74.40100276">
<time>2014-05-18T21:30:38Z</time>
</trkpt>
      <trkpt lat="10.97230208" lon="-74.40164590">
<time>2014-05-18T21:30:40Z</time>
</trkpt>
      <trkpt lat="10.97229517" lon="-74.40226257">
<time>2014-05-18T21:30:42Z</time>
</trkpt>
      <trkpt lat="10.97228146" lon="-74.40284956">
<time>2014-05-18T21:30:44Z</time>
</trkpt>
      <trkpt lat="10.97225964" lon="-74.40345216">
<time>2014-05-18T21:30:46Z</time>
</trkpt>
      <trkpt lat="10.97223365" lon="-74.40407777">
<time>2014-05-18T21:30:48Z</time>
</trkpt>
      <trkpt lat="10.97220480" lon="-74.40472043">
<time>2014-05-18T21:30:50Z</time>
</trkpt>
      <trkpt lat="10.97218299" lon="-74.40536523">
<time>2014-05-18T21:30:52Z</time>
</trkpt>
      <trkpt lat="10.97216809" lon="-74.40600932">
<time>2014-05-18T21:30:54Z</time>
</trkpt>
      <trkpt lat="10.97215581" lon="-74.40663481">
<time>2014-05-18T21:30:56Z</time>
</trkpt>
      <trkpt lat="10.97214127" lon="-74.40724373">
<time>2014-05-18T21:30:58Z</time>
</trkpt>
      <trkpt lat="10.97213113" lon="-74.40780210">
<time>2014-05-18T21:31:00Z</time>
</trkpt>
      <trkpt lat="10.97212696" lon="-74.40834224">
<time>2014-05-18T21:31:02Z</time>
</trkpt>
      <trkpt lat="10.97213173" lon="-74.40889156">
<time>2014-05-18T21:31:04Z</time>
</trkpt>
      <trkpt lat="10.97215712" lon="-74.40946531">
<time>2014-05-18T21:31:06Z</time>
</trkpt>
      <trkpt lat="10.97219908" lon="-74.41007030">
<time>2014-05-18T21:31:08Z</time>
</trkpt>
      <trkpt lat="10.97225332" lon="-74.41070056">
<time>2014-05-18T21:31:10Z</time>
</trkpt>
      <trkpt lat="10.97231889" lon="-74.41135979">
<time>2014-05-18T21:31:12Z</time>
</trkpt>
      <trkpt lat="10.97238827" lon="-74.41202748">
<time>2014-05-18T21:31:14Z</time>
</trkpt>
      <trkpt lat="10.97245896" lon="-74.41270208">
<time>2014-05-18T21:31:16Z</time>
</trkpt>
      <trkpt lat="10.97253382" lon="-74.41336095">
<time>2014-05-18T21:31:18Z</time>
</trkpt>
      <trkpt lat="10.97260058" lon="-74.41400456">
<time>2014-05-18T21:31:20Z</time>
</trkpt>
      <trkpt lat="10.97266412" lon="-74.41463864">
<time>2014-05-18T21:31:22Z</time>
</trkpt>
      <trkpt lat="10.97272289" lon="-74.41524875">
<time>2014-05-18T21:31:24Z</time>
</trkpt>
      <trkpt lat="10.97278214" lon="-74.41584241">
<time>2014-05-18T21:31:26Z</time>
</trkpt>
      <trkpt lat="10.97284055" lon="-74.41640365">
<time>2014-05-18T21:31:28Z</time>
</trkpt>
      <trkpt lat="10.97288775" lon="-74.41693211">
<time>2014-05-18T21:31:30Z</time>
</trkpt>
      <trkpt lat="10.97293425" lon="-74.41741872">
<time>2014-05-18T21:31:32Z</time>
</trkpt>
      <trkpt lat="10.97297859" lon="-74.41790974">
<time>2014-05-18T21:31:34Z</time>
</trkpt>
      <trkpt lat="10.97301805" lon="-74.41840482">
<time>2014-05-18T21:31:36Z</time>
</trkpt>
      <trkpt lat="10.97305560" lon="-74.41890347">
<time>2014-05-18T21:31:38Z</time>
</trkpt>
      <trkpt lat="10.97310376" lon="-74.41942847">
<time>2014-05-18T21:31:40Z</time>
</trkpt>
      <trkpt lat="10.97317326" lon="-74.41998041">
<time>2014-05-18T21:31:42Z</time>
</trkpt>
      <trkpt lat="10.97324014" lon="-74.42056596">
<time>2014-05-18T21:31:44Z</time>
</trkpt>
      <trkpt lat="10.97330165" lon="-74.42117345">
<time>2014-05-18T21:31:46Z</time>
</trkpt>
      <trkpt lat="10.97334647" lon="-74.42179656">
<time>2014-05-18T21:31:48Z</time>
</trkpt>
      <trkpt lat="10.97338593" lon="-74.42243779">
<time>2014-05-18T21:31:50Z</time>
</trkpt>
      <trkpt lat="10.97342455" lon="-74.42307711">
<time>2014-05-18T21:31:52Z</time>
</trkpt>
      <trkpt lat="10.97346532" lon="-74.42372048">
<time>2014-05-18T21:31:54Z</time>
</trkpt>
      <trkpt lat="10.97350526" lon="-74.42435932">
<time>2014-05-18T21:31:56Z</time>
</trkpt>
      <trkpt lat="10.97354150" lon="-74.42499566">
<time>2014-05-18T21:31:58Z</time>
</trkpt>
      <trkpt lat="10.97357225" lon="-74.42562890">
<time>2014-05-18T21:32:00Z</time>
</trkpt>
      <trkpt lat="10.97360456" lon="-74.42626739">
<time>2014-05-18T21:32:02Z</time>
</trkpt>
      <trkpt lat="10.97363758" lon="-74.42690194">
<time>2014-05-18T21:32:04Z</time>
</trkpt>
      <trkpt lat="10.97367156" lon="-74.42753160">
<time>2014-05-18T21:32:06Z</time>
</trkpt>
      <trkpt lat="10.97369897" lon="-74.42816579">
<time>2014-05-18T21:32:08Z</time>
</trkpt>
      <trkpt lat="10.97372973" lon="-74.42880797">
<time>2014-05-18T21:32:10Z</time>
</trkpt>
      <trkpt lat="10.97376227" lon="-74.42944443">
<time>2014-05-18T21:32:12Z</time>
</trkpt>
      <trkpt lat="10.97379816" lon="-74.43008077">
<time>2014-05-18T21:32:14Z</time>
</trkpt>
      <trkpt lat="10.97382224" lon="-74.43067682">
<time>2014-05-18T21:32:16Z</time>
</trkpt>
      <trkpt lat="10.97382367" lon="-74.43122363">
<time>2014-05-18T21:32:18Z</time>
</trkpt>
      <trkpt lat="10.97379529" lon="-74.43170905">
<time>2014-05-18T21:32:20Z</time>
</trkpt>
      <trkpt lat="10.97371972" lon="-74.43219745">
<time>2014-05-18T21:32:22Z</time>
</trkpt>
      <trkpt lat="10.97361648" lon="-74.43272376">
<time>2014-05-18T21:32:24Z</time>
</trkpt>
      <trkpt lat="10.97349238" lon="-74.43327725">
<time>2014-05-18T21:32:26Z</time>
</trkpt>
      <trkpt lat="10.97336566" lon="-74.43387473">
<time>2014-05-18T21:32:28Z</time>
</trkpt>
      <trkpt lat="10.97323656" lon="-74.43450022">
<time>2014-05-18T21:32:30Z</time>
</trkpt>
      <trkpt lat="10.97311199" lon="-74.43513548">
<time>2014-05-18T21:32:32Z</time>
</trkpt>
      <trkpt lat="10.97299039" lon="-74.43577731">
<time>2014-05-18T21:32:34Z</time>
</trkpt>
      <trkpt lat="10.97286093" lon="-74.43643141">
<time>2014-05-18T21:32:36Z</time>
</trkpt>
      <trkpt lat="10.97272432" lon="-74.43708777">
<time>2014-05-18T21:32:38Z</time>
</trkpt>
      <trkpt lat="10.97258663" lon="-74.43775129">
<time>2014-05-18T21:32:40Z</time>
</trkpt>
      <trkpt lat="10.97245443" lon="-74.43842411">
<time>2014-05-18T21:32:42Z</time>
</trkpt>
      <trkpt lat="10.97231698" lon="-74.43909228">
<time>2014-05-18T21:32:44Z</time>
</trkpt>
      <trkpt lat="10.97217572" lon="-74.43975425">
<time>2014-05-18T21:32:46Z</time>
</trkpt>
      <trkpt lat="10.97203100" lon="-74.44042993">
<time>2014-05-18T21:32:48Z</time>
</trkpt>
      <trkpt lat="10.97188544" lon="-74.44111788">
<time>2014-05-18T21:32:50Z</time>
</trkpt>
      <trkpt lat="10.97174239" lon="-74.44181776">
<time>2014-05-18T21:32:52Z</time>
</trkpt>
      <trkpt lat="10.97160876" lon="-74.44249725">
<time>2014-05-18T21:32:54Z</time>
</trkpt>
      <trkpt lat="10.97148597" lon="-74.44314528">
<time>2014-05-18T21:32:56Z</time>
</trkpt>
      <trkpt lat="10.97140157" lon="-74.44374692">
<time>2014-05-18T21:32:58Z</time>
</trkpt>
      <trkpt lat="10.97137332" lon="-74.44434106">
<time>2014-05-18T21:33:00Z</time>
</trkpt>
      <trkpt lat="10.97142410" lon="-74.44492447">
<time>2014-05-18T21:33:02Z</time>
</trkpt>
      <trkpt lat="10.97151959" lon="-74.44554174">
<time>2014-05-18T21:33:04Z</time>
</trkpt>
      <trkpt lat="10.97162127" lon="-74.44618273">
<time>2014-05-18T21:33:06Z</time>
</trkpt>
      <trkpt lat="10.97172475" lon="-74.44684577">
<time>2014-05-18T21:33:08Z</time>
</trkpt>
      <trkpt lat="10.97183657" lon="-74.44750774">
<time>2014-05-18T21:33:10Z</time>
</trkpt>
      <trkpt lat="10.97194695" lon="-74.44818413">
<time>2014-05-18T21:33:12Z</time>
</trkpt>
      <trkpt lat="10.97207189" lon="-74.44883060">
<time>2014-05-18T21:33:14Z</time>
</trkpt>
      <trkpt lat="10.97220027" lon="-74.44948149">
<time>2014-05-18T21:33:16Z</time>
</trkpt>
      <trkpt lat="10.97231531" lon="-74.45015395">
<time>2014-05-18T21:33:18Z</time>
</trkpt>
      <trkpt lat="10.97242975" lon="-74.45082223">
<time>2014-05-18T21:33:20Z</time>
</trkpt>
      <trkpt lat="10.97253644" lon="-74.45150089">
<time>2014-05-18T21:33:22Z</time>
</trkpt>
      <trkpt lat="10.97264349" lon="-74.45218396">
<time>2014-05-18T21:33:24Z</time>
</trkpt>
      <trkpt lat="10.97275031" lon="-74.45286763">
<time>2014-05-18T21:33:26Z</time>
</trkpt>
      <trkpt lat="10.97285974" lon="-74.45355809">
<time>2014-05-18T21:33:28Z</time>
</trkpt>
      <trkpt lat="10.97297132" lon="-74.45425498">
<time>2014-05-18T21:33:30Z</time>
</trkpt>
      <trkpt lat="10.97308481" lon="-74.45494592">
<time>2014-05-18T21:33:32Z</time>
</trkpt>
      <trkpt lat="10.97319949" lon="-74.45561147">
<time>2014-05-18T21:33:34Z</time>
</trkpt>
      <trkpt lat="10.97330678" lon="-74.45625997">
<time>2014-05-18T21:33:36Z</time>
</trkpt>
      <trkpt lat="10.97341228" lon="-74.45688677">
<time>2014-05-18T21:33:38Z</time>
</trkpt>
      <trkpt lat="10.97351611" lon="-74.45751643">
<time>2014-05-18T21:33:40Z</time>
</trkpt>
      <trkpt lat="10.97362256" lon="-74.45815098">
<time>2014-05-18T21:33:42Z</time>
</trkpt>
      <trkpt lat="10.97372866" lon="-74.45878625">
<time>2014-05-18T21:33:44Z</time>
</trkpt>
      <trkpt lat="10.97382665" lon="-74.45942760">
<time>2014-05-18T21:33:46Z</time>
</trkpt>
      <trkpt lat="10.97392726" lon="-74.46007359">
<time>2014-05-18T21:33:48Z</time>
</trkpt>
      <trkpt lat="10.97403264" lon="-74.46071529">
<time>2014-05-18T21:33:50Z</time>
</trkpt>
      <trkpt lat="10.97414291" lon="-74.46134841">
<time>2014-05-18T21:33:52Z</time>
</trkpt>
      <trkpt lat="10.97425115" lon="-74.46198523">
<time>2014-05-18T21:33:54Z</time>
</trkpt>
      <trkpt lat="10.97435880" lon="-74.46262062">
<time>2014-05-18T21:33:56Z</time>
</trkpt>
      <trkpt lat="10.97446549" lon="-74.46325672">
<time>2014-05-18T21:33:58Z</time>
</trkpt>
      <trkpt lat="10.97456813" lon="-74.46389127">
<time>2014-05-18T21:34:00Z</time>
</trkpt>
      <trkpt lat="10.97467458" lon="-74.46452606">
<time>2014-05-18T21:34:02Z</time>
</trkpt>
      <trkpt lat="10.97477198" lon="-74.46516359">
<time>2014-05-18T21:34:04Z</time>
</trkpt>
      <trkpt lat="10.97486925" lon="-74.46580327">
<time>2014-05-18T21:34:06Z</time>
</trkpt>
      <trkpt lat="10.97497678" lon="-74.46644223">
<time>2014-05-18T21:34:08Z</time>
</trkpt>
      <trkpt lat="10.97508788" lon="-74.46707666">
<time>2014-05-18T21:34:10Z</time>
</trkpt>
      <trkpt lat="10.97519529" lon="-74.46771264">
<time>2014-05-18T21:34:12Z</time>
</trkpt>
      <trkpt lat="10.97531164" lon="-74.46834147">
<time>2014-05-18T21:34:14Z</time>
</trkpt>
      <trkpt lat="10.97541845" lon="-74.46897280">
<time>2014-05-18T21:34:16Z</time>
</trkpt>
      <trkpt lat="10.97551811" lon="-74.46959960">
<time>2014-05-18T21:34:18Z</time>
</trkpt>
      <trkpt lat="10.97562099" lon="-74.47022724">
<time>2014-05-18T21:34:20Z</time>
</trkpt>
      <trkpt lat="10.97572565" lon="-74.47086823">
<time>2014-05-18T21:34:22Z</time>
</trkpt>
      <trkpt lat="10.97582841" lon="-74.47151029">
<time>2014-05-18T21:34:24Z</time>
</trkpt>
      <trkpt lat="10.97592747" lon="-74.47215533">
<time>2014-05-18T21:34:26Z</time>
</trkpt>
      <trkpt lat="10.97602630" lon="-74.47278941">
<time>2014-05-18T21:34:28Z</time>
</trkpt>
      <trkpt lat="10.97612798" lon="-74.47341275">
<time>2014-05-18T21:34:30Z</time>
</trkpt>
      <trkpt lat="10.97622550" lon="-74.47403276">
<time>2014-05-18T21:34:32Z</time>
</trkpt>
      <trkpt lat="10.97632909" lon="-74.47461641">
<time>2014-05-18T21:34:34Z</time>
</trkpt>
      <trkpt lat="10.97643507" lon="-74.47519374">
<time>2014-05-18T21:34:36Z</time>
</trkpt>
      <trkpt lat="10.97655177" lon="-74.47576165">
<time>2014-05-18T21:34:38Z</time>
</trkpt>
      <trkpt lat="10.97667193" lon="-74.47631991">
<time>2014-05-18T21:34:40Z</time>
</trkpt>
      <trkpt lat="10.97679424" lon="-74.47687662">
<time>2014-05-18T21:34:42Z</time>
</trkpt>
      <trkpt lat="10.97691596" lon="-74.47743559">
<time>2014-05-18T21:34:44Z</time>
</trkpt>
      <trkpt lat="10.97703397" lon="-74.47800231">
<time>2014-05-18T21:34:46Z</time>
</trkpt>
      <trkpt lat="10.97715878" lon="-74.47858047">
<time>2014-05-18T21:34:48Z</time>
</trkpt>
      <trkpt lat="10.97727895" lon="-74.47916305">
<time>2014-05-18T21:34:50Z</time>
</trkpt>
      <trkpt lat="10.97739840" lon="-74.47974944">
<time>2014-05-18T21:34:52Z</time>
</trkpt>
      <trkpt lat="10.97752011" lon="-74.48032427">
<time>2014-05-18T21:34:54Z</time>
</trkpt>
      <trkpt lat="10.97763896" lon="-74.48089480">
<time>2014-05-18T21:34:56Z</time>
</trkpt>
      <trkpt lat="10.97775912" lon="-74.48146605">
<time>2014-05-18T21:34:58Z</time>
</trkpt>
      <trkpt lat="10.97788107" lon="-74.48203194">
<time>2014-05-18T21:35:00Z</time>
</trkpt>
      <trkpt lat="10.97799230" lon="-74.48258972">
<time>2014-05-18T21:35:02Z</time>
</trkpt>
      <trkpt lat="10.97809088" lon="-74.48314977">
<time>2014-05-18T21:35:04Z</time>
</trkpt>
      <trkpt lat="10.97818780" lon="-74.48371661">
<time>2014-05-18T21:35:06Z</time>
</trkpt>
      <trkpt lat="10.97828591" lon="-74.48428333">
<time>2014-05-18T21:35:08Z</time>
</trkpt>
      <trkpt lat="10.97837925" lon="-74.48485088">
<time>2014-05-18T21:35:10Z</time>
</trkpt>
      <trkpt lat="10.97846913" lon="-74.48540723">
<time>2014-05-18T21:35:12Z</time>
</trkpt>
      <trkpt lat="10.97856331" lon="-74.48595130">
<time>2014-05-18T21:35:14Z</time>
</trkpt>
      <trkpt lat="10.97865725" lon="-74.48648298">
<time>2014-05-18T21:35:16Z</time>
</trkpt>
      <trkpt lat="10.97874093" lon="-74.48701727">
<time>2014-05-18T21:35:18Z</time>
</trkpt>
      <trkpt lat="10.97883177" lon="-74.48754680">
<time>2014-05-18T21:35:20Z</time>
</trkpt>
      <trkpt lat="10.97891998" lon="-74.48807013">
<time>2014-05-18T21:35:22Z</time>
</trkpt>
      <trkpt lat="10.97899926" lon="-74.48860407">
<time>2014-05-18T21:35:24Z</time>
</trkpt>
      <trkpt lat="10.97908056" lon="-74.48913622">
<time>2014-05-18T21:35:26Z</time>
</trkpt>
      <trkpt lat="10.97917163" lon="-74.48967195">
<time>2014-05-18T21:35:28Z</time>
</trkpt>
      <trkpt lat="10.97926140" lon="-74.49021661">
<time>2014-05-18T21:35:30Z</time>
</trkpt>
      <trkpt lat="10.97935641" lon="-74.49075341">
<time>2014-05-18T21:35:32Z</time>
</trkpt>
      <trkpt lat="10.97944748" lon="-74.49130130">
<time>2014-05-18T21:35:34Z</time>
</trkpt>
      <trkpt lat="10.97953761" lon="-74.49184978">
<time>2014-05-18T21:35:36Z</time>
</trkpt>
      <trkpt lat="10.97962773" lon="-74.49239564">
<time>2014-05-18T21:35:38Z</time>
</trkpt>
      <trkpt lat="10.97971666" lon="-74.49293256">
<time>2014-05-18T21:35:40Z</time>
</trkpt>
      <trkpt lat="10.97980559" lon="-74.49347305">
<time>2014-05-18T21:35:42Z</time>
</trkpt>
      <trkpt lat="10.97989011" lon="-74.49400139">
<time>2014-05-18T21:35:44Z</time>
</trkpt>
      <trkpt lat="10.97997856" lon="-74.49453282">
<time>2014-05-18T21:35:46Z</time>
</trkpt>
      <trkpt lat="10.98007083" lon="-74.49507189">
<time>2014-05-18T21:35:48Z</time>
</trkpt>
      <trkpt lat="10.98016512" lon="-74.49561322">
<time>2014-05-18T21:35:50Z</time>
</trkpt>
      <trkpt lat="10.98025978" lon="-74.49616539">
<time>2014-05-18T21:35:52Z</time>
</trkpt>
      <trkpt lat="10.98035407" lon="-74.49672711">
<time>2014-05-18T21:35:54Z</time>
</trkpt>
      <trkpt lat="10.98045349" lon="-74.49728727">
<time>2014-05-18T21:35:56Z</time>
</trkpt>
      <trkpt lat="10.98055243" lon="-74.49786198">
<time>2014-05-18T21:35:58Z</time>
</trkpt>
      <trkpt lat="10.98064816" lon="-74.49845362">
<time>2014-05-18T21:36:00Z</time>
</trkpt>
      <trkpt lat="10.98074305" lon="-74.49904656">
<time>2014-05-18T21:36:02Z</time>
</trkpt>
      <trkpt lat="10.98083723" lon="-74.49965596">
<time>2014-05-18T21:36:04Z</time>
</trkpt>
      <trkpt lat="10.98093605" lon="-74.50025141">
<time>2014-05-18T21:36:06Z</time>
</trkpt>
      <trkpt lat="10.98103666" lon="-74.50084710">
<time>2014-05-18T21:36:08Z</time>
</trkpt>
      <trkpt lat="10.98113322" lon="-74.50145721">
<time>2014-05-18T21:36:10Z</time>
</trkpt>
      <trkpt lat="10.98123157" lon="-74.50206673">
<time>2014-05-18T21:36:12Z</time>
</trkpt>
      <trkpt lat="10.98133230" lon="-74.50267279">
<time>2014-05-18T21:36:14Z</time>
</trkpt>
      <trkpt lat="10.98144042" lon="-74.50328314">
<time>2014-05-18T21:36:16Z</time>
</trkpt>
      <trkpt lat="10.98154366" lon="-74.50389898">
<time>2014-05-18T21:36:18Z</time>
</trkpt>
      <trkpt lat="10.98165488" lon="-74.50451875">
<time>2014-05-18T21:36:20Z</time>
</trkpt>
      <trkpt lat="10.98175561" lon="-74.50513375">
<time>2014-05-18T21:36:22Z</time>
</trkpt>
      <trkpt lat="10.98184407" lon="-74.50574589">
<time>2014-05-18T21:36:24Z</time>
</trkpt>
      <trkpt lat="10.98192298" lon="-74.50635147">
<time>2014-05-18T21:36:26Z</time>
</trkpt>
      <trkpt lat="10.98199689" lon="-74.50693738">
<time>2014-05-18T21:36:28Z</time>
</trkpt>
      <trkpt lat="10.98206639" lon="-74.50751865">
<time>2014-05-18T21:36:30Z</time>
</trkpt>
      <trkpt lat="10.98213613" lon="-74.50809026">
<time>2014-05-18T21:36:32Z</time>
</trkpt>
      <trkpt lat="10.98220944" lon="-74.50867343">
<time>2014-05-18T21:36:34Z</time>
</trkpt>
      <trkpt lat="10.98228550" lon="-74.50925994">
<time>2014-05-18T21:36:36Z</time>
</trkpt>
      <trkpt lat="10.98236191" lon="-74.50985825">
<time>2014-05-18T21:36:38Z</time>
</trkpt>
      <trkpt lat="10.98243880" lon="-74.51046050">
<time>2014-05-18T21:36:40Z</time>
</trkpt>
      <trkpt lat="10.98251927" lon="-74.51105964">
<time>2014-05-18T21:36:42Z</time>
</trkpt>
      <trkpt lat="10.98259711" lon="-74.51165056">
<time>2014-05-18T21:36:44Z</time>
</trkpt>
      <trkpt lat="10.98266613" lon="-74.51222980">
<time>2014-05-18T21:36:46Z</time>
</trkpt>
      <trkpt lat="10.98272133" lon="-74.51279831">
<time>2014-05-18T21:36:48Z</time>
</trkpt>
      <trkpt lat="10.98277032" lon="-74.51334929">
<time>2014-05-18T21:36:50Z</time>
</trkpt>
      <trkpt lat="10.98283279" lon="-74.51390314">
<time>2014-05-18T21:36:52Z</time>
</trkpt>
      <trkpt lat="10.98291743" lon="-74.51445222">
<time>2014-05-18T21:36:54Z</time>
</trkpt>
      <trkpt lat="10.98301375" lon="-74.51501775">
<time>2014-05-18T21:36:56Z</time>
</trkpt>
      <trkpt lat="10.98310709" lon="-74.51558530">
<time>2014-05-18T21:36:58Z</time>
</trkpt>
      <trkpt lat="10.98321056" lon="-74.51614797">
<time>2014-05-18T21:37:00Z</time>
</trkpt>
      <trkpt lat="10.98333526" lon="-74.51669574">
<time>2014-05-18T21:37:02Z</time>
</trkpt>
      <trkpt lat="10.98348713" lon="-74.51723349">
<time>2014-05-18T21:37:04Z</time>
</trkpt>
      <trkpt lat="10.98364949" lon="-74.51777256">
<time>2014-05-18T21:37:06Z</time>
</trkpt>
      <trkpt lat="10.98381996" lon="-74.51832390">
<time>2014-05-18T21:37:08Z</time>
</trkpt>
      <trkpt lat="10.98399866" lon="-74.51887321">
<time>2014-05-18T21:37:10Z</time>
</trkpt>
      <trkpt lat="10.98417330" lon="-74.51942909">
<time>2014-05-18T21:37:12Z</time>
</trkpt>
      <trkpt lat="10.98433483" lon="-74.51996398">
<time>2014-05-18T21:37:14Z</time>
</trkpt>
      <trkpt lat="10.98447812" lon="-74.52044773">
<time>2014-05-18T21:37:16Z</time>
</trkpt>
      <trkpt lat="10.98459172" lon="-74.52090347">
<time>2014-05-18T21:37:18Z</time>
</trkpt>
      <trkpt lat="10.98473096" lon="-74.52136707">
<time>2014-05-18T21:37:20Z</time>
</trkpt>
      <trkpt lat="10.98488367" lon="-74.52183628">
<time>2014-05-18T21:37:22Z</time>
</trkpt>
      <trkpt lat="10.98502457" lon="-74.52226925">
<time>2014-05-18T21:37:24Z</time>
</trkpt>
      <trkpt lat="10.98514724" lon="-74.52268493">
<time>2014-05-18T21:37:26Z</time>
</trkpt>
      <trkpt lat="10.98527122" lon="-74.52310073">
<time>2014-05-18T21:37:28Z</time>
</trkpt>
      <trkpt lat="10.98539364" lon="-74.52355981">
<time>2014-05-18T21:37:30Z</time>
</trkpt>
      <trkpt lat="10.98555326" lon="-74.52406847">
<time>2014-05-18T21:37:32Z</time>
</trkpt>
      <trkpt lat="10.98572814" lon="-74.52460098">
<time>2014-05-18T21:37:34Z</time>
</trkpt>
      <trkpt lat="10.98589814" lon="-74.52514660">
<time>2014-05-18T21:37:36Z</time>
</trkpt>
      <trkpt lat="10.98606455" lon="-74.52569914">
<time>2014-05-18T21:37:38Z</time>
</trkpt>
      <trkpt lat="10.98623645" lon="-74.52624309">
<time>2014-05-18T21:37:40Z</time>
</trkpt>
      <trkpt lat="10.98640645" lon="-74.52678192">
<time>2014-05-18T21:37:42Z</time>
</trkpt>
      <trkpt lat="10.98657298" lon="-74.52732027">
<time>2014-05-18T21:37:44Z</time>
</trkpt>
      <trkpt lat="10.98673189" lon="-74.52784824">
<time>2014-05-18T21:37:46Z</time>
</trkpt>
      <trkpt lat="10.98689497" lon="-74.52838039">
<time>2014-05-18T21:37:48Z</time>
</trkpt>
      <trkpt lat="10.98706257" lon="-74.52890944">
<time>2014-05-18T21:37:50Z</time>
</trkpt>
      <trkpt lat="10.98723948" lon="-74.52942991">
<time>2014-05-18T21:37:52Z</time>
</trkpt>
      <trkpt lat="10.98743105" lon="-74.52994025">
<time>2014-05-18T21:37:54Z</time>
</trkpt>
      <trkpt lat="10.98763561" lon="-74.53045547">
<time>2014-05-18T21:37:56Z</time>
</trkpt>
      <trkpt lat="10.98784697" lon="-74.53098857">
<time>2014-05-18T21:37:58Z</time>
</trkpt>
      <trkpt lat="10.98805547" lon="-74.53153813">
<time>2014-05-18T21:38:00Z</time>
</trkpt>
      <trkpt lat="10.98827899" lon="-74.53208661">
<time>2014-05-18T21:38:02Z</time>
</trkpt>
      <trkpt lat="10.98851275" lon="-74.53264832">
<time>2014-05-18T21:38:04Z</time>
</trkpt>
      <trkpt lat="10.98874497" lon="-74.53322041">
<time>2014-05-18T21:38:06Z</time>
</trkpt>
      <trkpt lat="10.98897648" lon="-74.53379691">
<time>2014-05-18T21:38:08Z</time>
</trkpt>
      <trkpt lat="10.98921227" lon="-74.53437698">
<time>2014-05-18T21:38:10Z</time>
</trkpt>
      <trkpt lat="10.98945343" lon="-74.53495455">
<time>2014-05-18T21:38:12Z</time>
</trkpt>
      <trkpt lat="10.98968649" lon="-74.53553474">
<time>2014-05-18T21:38:14Z</time>
</trkpt>
      <trkpt lat="10.98991311" lon="-74.53610849">
<time>2014-05-18T21:38:16Z</time>
</trkpt>
      <trkpt lat="10.99013042" lon="-74.53667367">
<time>2014-05-18T21:38:18Z</time>
</trkpt>
      <trkpt lat="10.99034309" lon="-74.53720117">
<time>2014-05-18T21:38:20Z</time>
</trkpt>
      <trkpt lat="10.99053550" lon="-74.53768623">
<time>2014-05-18T21:38:22Z</time>
</trkpt>
      <trkpt lat="10.99071193" lon="-74.53814161">
<time>2014-05-18T21:38:24Z</time>
</trkpt>
      <trkpt lat="10.99088526" lon="-74.53862000">
<time>2014-05-18T21:38:26Z</time>
</trkpt>
      <trkpt lat="10.99106944" lon="-74.53907573">
<time>2014-05-18T21:38:28Z</time>
</trkpt>
      <trkpt lat="10.99124622" lon="-74.53950191">
<time>2014-05-18T21:38:30Z</time>
</trkpt>
      <trkpt lat="10.99137080" lon="-74.53992164">
<time>2014-05-18T21:38:32Z</time>
</trkpt>
      <trkpt lat="10.99145329" lon="-74.54036295">
<time>2014-05-18T21:38:34Z</time>
</trkpt>
      <trkpt lat="10.99150813" lon="-74.54082012">
<time>2014-05-18T21:38:36Z</time>
</trkpt>
      <trkpt lat="10.99154627" lon="-74.54126322">
<time>2014-05-18T21:38:38Z</time>
</trkpt>
      <trkpt lat="10.99158025" lon="-74.54170048">
<time>2014-05-18T21:38:40Z</time>
</trkpt>
      <trkpt lat="10.99161327" lon="-74.54214895">
<time>2014-05-18T21:38:42Z</time>
</trkpt>
      <trkpt lat="10.99165010" lon="-74.54262805">
<time>2014-05-18T21:38:44Z</time>
</trkpt>
      <trkpt lat="10.99169481" lon="-74.54310429">
<time>2014-05-18T21:38:46Z</time>
</trkpt>
      <trkpt lat="10.99171388" lon="-74.54357064">
<time>2014-05-18T21:38:48Z</time>
</trkpt>
      <trkpt lat="10.99169075" lon="-74.54403210">
<time>2014-05-18T21:38:50Z</time>
</trkpt>
      <trkpt lat="10.99163365" lon="-74.54447293">
<time>2014-05-18T21:38:52Z</time>
</trkpt>
      <trkpt lat="10.99153316" lon="-74.54491758">
<time>2014-05-18T21:38:54Z</time>
</trkpt>
      <trkpt lat="10.99136543" lon="-74.54538190">
<time>2014-05-18T21:38:56Z</time>
</trkpt>
      <trkpt lat="10.99114478" lon="-74.54587793">
<time>2014-05-18T21:38:58Z</time>
</trkpt>
      <trkpt lat="10.99091089" lon="-74.54640460">
<time>2014-05-18T21:39:00Z</time>
</trkpt>
      <trkpt lat="10.99068165" lon="-74.54695666">
<time>2014-05-18T21:39:02Z</time>
</trkpt>
      <trkpt lat="10.99045122" lon="-74.54751611">
<time>2014-05-18T21:39:04Z</time>
</trkpt>
      <trkpt lat="10.99023426" lon="-74.54807723">
<time>2014-05-18T21:39:06Z</time>
</trkpt>
      <trkpt lat="10.99002790" lon="-74.54863191">
<time>2014-05-18T21:39:08Z</time>
</trkpt>
      <trkpt lat="10.98984241" lon="-74.54914057">
<time>2014-05-18T21:39:10Z</time>
</trkpt>
      <trkpt lat="10.98970866" lon="-74.54961264">
<time>2014-05-18T21:39:12Z</time>
</trkpt>
      <trkpt lat="10.98962247" lon="-74.55006731">
<time>2014-05-18T21:39:14Z</time>
</trkpt>
      <trkpt lat="10.98960674" lon="-74.55052090">
<time>2014-05-18T21:39:16Z</time>
</trkpt>
      <trkpt lat="10.98968673" lon="-74.55098414">
<time>2014-05-18T21:39:18Z</time>
</trkpt>
      <trkpt lat="10.98984683" lon="-74.55143929">
<time>2014-05-18T21:39:20Z</time>
</trkpt>
      <trkpt lat="10.99005032" lon="-74.55192983">
<time>2014-05-18T21:39:22Z</time>
</trkpt>
      <trkpt lat="10.99026215" lon="-74.55247164">
<time>2014-05-18T21:39:24Z</time>
</trkpt>
      <trkpt lat="10.99047256" lon="-74.55304182">
<time>2014-05-18T21:39:26Z</time>
</trkpt>
      <trkpt lat="10.99068832" lon="-74.55362391">
<time>2014-05-18T21:39:28Z</time>
</trkpt>
      <trkpt lat="10.99090874" lon="-74.55420077">
<time>2014-05-18T21:39:30Z</time>
</trkpt>
      <trkpt lat="10.99113095" lon="-74.55477512">
<time>2014-05-18T21:39:32Z</time>
</trkpt>
      <trkpt lat="10.99135327" lon="-74.55534589">
<time>2014-05-18T21:39:34Z</time>
</trkpt>
      <trkpt lat="10.99156642" lon="-74.55590248">
<time>2014-05-18T21:39:36Z</time>
</trkpt>
      <trkpt lat="10.99176228" lon="-74.55641878">
<time>2014-05-18T21:39:38Z</time>
</trkpt>
      <trkpt lat="10.99191833" lon="-74.55689609">
<time>2014-05-18T21:39:40Z</time>
</trkpt>
      <trkpt lat="10.99202180" lon="-74.55734539">
<time>2014-05-18T21:39:42Z</time>
</trkpt>
      <trkpt lat="10.99207640" lon="-74.55779016">
<time>2014-05-18T21:39:44Z</time>
</trkpt>
      <trkpt lat="10.99209774" lon="-74.55823994">
<time>2014-05-18T21:39:46Z</time>
</trkpt>
      <trkpt lat="10.99210978" lon="-74.55872560">
<time>2014-05-18T21:39:48Z</time>
</trkpt>
      <trkpt lat="10.99212909" lon="-74.55925930">
<time>2014-05-18T21:39:50Z</time>
</trkpt>
      <trkpt lat="10.99215722" lon="-74.55983806">
<time>2014-05-18T21:39:52Z</time>
</trkpt>
      <trkpt lat="10.99219394" lon="-74.56044531">
<time>2014-05-18T21:39:54Z</time>
</trkpt>
      <trkpt lat="10.99225008" lon="-74.56106472">
<time>2014-05-18T21:39:56Z</time>
</trkpt>
      <trkpt lat="10.99229622" lon="-74.56169844">
<time>2014-05-18T21:39:58Z</time>
</trkpt>
      <trkpt lat="10.99234164" lon="-74.56232691">
<time>2014-05-18T21:40:00Z</time>
</trkpt>
      <trkpt lat="10.99238575" lon="-74.56295693">
<time>2014-05-18T21:40:02Z</time>
</trkpt>
      <trkpt lat="10.99242592" lon="-74.56358492">
<time>2014-05-18T21:40:04Z</time>
</trkpt>
      <trkpt lat="10.99246097" lon="-74.56417572">
<time>2014-05-18T21:40:06Z</time>
</trkpt>
      <trkpt lat="10.99250042" lon="-74.56469893">
<time>2014-05-18T21:40:08Z</time>
</trkpt>
      <trkpt lat="10.99253511" lon="-74.56518364">
<time>2014-05-18T21:40:10Z</time>
</trkpt>
      <trkpt lat="10.99256778" lon="-74.56562364">
<time>2014-05-18T21:40:12Z</time>
</trkpt>
      <trkpt lat="10.99261379" lon="-74.56600928">
<time>2014-05-18T21:40:14Z</time>
</trkpt>
      <trkpt lat="10.99268913" lon="-74.56634033">
<time>2014-05-18T21:40:16Z</time>
</trkpt>
      <trkpt lat="10.99278557" lon="-74.56664991">
<time>2014-05-18T21:40:18Z</time>
</trkpt>
      <trkpt lat="10.99289691" lon="-74.56696892">
<time>2014-05-18T21:40:20Z</time>
</trkpt>
      <trkpt lat="10.99303877" lon="-74.56730449">
<time>2014-05-18T21:40:22Z</time>
</trkpt>
      <trkpt lat="10.99318612" lon="-74.56768179">
<time>2014-05-18T21:40:24Z</time>
</trkpt>
      <trkpt lat="10.99335599" lon="-74.56812060">
<time>2014-05-18T21:40:26Z</time>
</trkpt>
      <trkpt lat="10.99354064" lon="-74.56857860">
<time>2014-05-18T21:40:28Z</time>
</trkpt>
      <trkpt lat="10.99371862" lon="-74.56902909">
<time>2014-05-18T21:40:30Z</time>
</trkpt>
      <trkpt lat="10.99389482" lon="-74.56951392">
<time>2014-05-18T21:40:32Z</time>
</trkpt>
      <trkpt lat="10.99409497" lon="-74.57001758">
<time>2014-05-18T21:40:34Z</time>
</trkpt>
      <trkpt lat="10.99431074" lon="-74.57053459">
<time>2014-05-18T21:40:36Z</time>
</trkpt>
      <trkpt lat="10.99452841" lon="-74.57105815">
<time>2014-05-18T21:40:38Z</time>
</trkpt>
      <trkpt lat="10.99474490" lon="-74.57158244">
<time>2014-05-18T21:40:40Z</time>
</trkpt>
      <trkpt lat="10.99494457" lon="-74.57209122">
<time>2014-05-18T21:40:42Z</time>
</trkpt>
      <trkpt lat="10.99510729" lon="-74.57259178">
<time>2014-05-18T21:40:44Z</time>
</trkpt>
      <trkpt lat="10.99523628" lon="-74.57310641">
<time>2014-05-18T21:40:46Z</time>
</trkpt>
      <trkpt lat="10.99532866" lon="-74.57364845">
<time>2014-05-18T21:40:48Z</time>
</trkpt>
      <trkpt lat="10.99540997" lon="-74.57420683">
<time>2014-05-18T21:40:50Z</time>
</trkpt>
      <trkpt lat="10.99549329" lon="-74.57477915">
<time>2014-05-18T21:40:52Z</time>
</trkpt>
      <trkpt lat="10.99557173" lon="-74.57537007">
<time>2014-05-18T21:40:54Z</time>
</trkpt>
      <trkpt lat="10.99566078" lon="-74.57594430">
<time>2014-05-18T21:40:56Z</time>
</trkpt>
      <trkpt lat="10.99574995" lon="-74.57647622">
<time>2014-05-18T21:40:58Z</time>
</trkpt>
      <trkpt lat="10.99586391" lon="-74.57696939">
<time>2014-05-18T21:41:00Z</time>
</trkpt>
      <trkpt lat="10.99602294" lon="-74.57744539">
<time>2014-05-18T21:41:02Z</time>
</trkpt>
      <trkpt lat="10.99622822" lon="-74.57792914">
<time>2014-05-18T21:41:04Z</time>
</trkpt>
      <trkpt lat="10.99647939" lon="-74.57841229">
<time>2014-05-18T21:41:06Z</time>
</trkpt>
      <trkpt lat="10.99676073" lon="-74.57890391">
<time>2014-05-18T21:41:08Z</time>
</trkpt>
      <trkpt lat="10.99704528" lon="-74.57940173">
<time>2014-05-18T21:41:10Z</time>
</trkpt>
      <trkpt lat="10.99729228" lon="-74.57988346">
<time>2014-05-18T21:41:12Z</time>
</trkpt>
      <trkpt lat="10.99749756" lon="-74.58035755">
<time>2014-05-18T21:41:14Z</time>
</trkpt>
      <trkpt lat="10.99765098" lon="-74.58083963">
<time>2014-05-18T21:41:16Z</time>
</trkpt>
      <trkpt lat="10.99773693" lon="-74.58132613">
<time>2014-05-18T21:41:18Z</time>
</trkpt>
      <trkpt lat="10.99777377" lon="-74.58184457">
<time>2014-05-18T21:41:20Z</time>
</trkpt>
      <trkpt lat="10.99779427" lon="-74.58238399">
<time>2014-05-18T21:41:22Z</time>
</trkpt>
      <trkpt lat="10.99780989" lon="-74.58294499">
<time>2014-05-18T21:41:24Z</time>
</trkpt>
      <trkpt lat="10.99782777" lon="-74.58351147">
<time>2014-05-18T21:41:26Z</time>
</trkpt>
      <trkpt lat="10.99785328" lon="-74.58405745">
<time>2014-05-18T21:41:28Z</time>
</trkpt>
      <trkpt lat="10.99790978" lon="-74.58457541">
<time>2014-05-18T21:41:30Z</time>
</trkpt>
      <trkpt lat="10.99798799" lon="-74.58509147">
<time>2014-05-18T21:41:32Z</time>
</trkpt>
      <trkpt lat="10.99809563" lon="-74.58560705">
<time>2014-05-18T21:41:34Z</time>
</trkpt>
      <trkpt lat="10.99820864" lon="-74.58613098">
<time>2014-05-18T21:41:36Z</time>
</trkpt>
      <trkpt lat="10.99831426" lon="-74.58659840">
<time>2014-05-18T21:41:38Z</time>
</trkpt>
      <trkpt lat="10.99840999" lon="-74.58700526">
<time>2014-05-18T21:41:40Z</time>
</trkpt>
      <trkpt lat="10.99849141" lon="-74.58737814">
<time>2014-05-18T21:41:42Z</time>
</trkpt>
      <trkpt lat="10.99856377" lon="-74.58773744">
<time>2014-05-18T21:41:44Z</time>
</trkpt>
      <trkpt lat="10.99863327" lon="-74.58807611">
<time>2014-05-18T21:41:46Z</time>
</trkpt>
      <trkpt lat="10.99873865" lon="-74.58837938">
<time>2014-05-18T21:41:48Z</time>
</trkpt>
      <trkpt lat="10.99887025" lon="-74.58867908">
<time>2014-05-18T21:41:50Z</time>
</trkpt>
      <trkpt lat="10.99904692" lon="-74.58899343">
<time>2014-05-18T21:41:52Z</time>
</trkpt>
      <trkpt lat="10.99926794" lon="-74.58933043">
<time>2014-05-18T21:41:54Z</time>
</trkpt>
      <trkpt lat="10.99949729" lon="-74.58966959">
<time>2014-05-18T21:41:56Z</time>
</trkpt>
      <trkpt lat="10.99970222" lon="-74.58996260">
<time>2014-05-18T21:41:58Z</time>
</trkpt>
      <trkpt lat="10.99990547" lon="-74.59025133">
<time>2014-05-18T21:42:00Z</time>
</trkpt>
      <trkpt lat="11.00008416" lon="-74.59056079">
<time>2014-05-18T21:42:02Z</time>
</trkpt>
      <trkpt lat="11.00021493" lon="-74.59086478">
<time>2014-05-18T21:42:04Z</time>
</trkpt>
      <trkpt lat="11.00029290" lon="-74.59117627">
<time>2014-05-18T21:42:06Z</time>
</trkpt>
      <trkpt lat="11.00032377" lon="-74.59152424">
<time>2014-05-18T21:42:08Z</time>
</trkpt>
      <trkpt lat="11.00033629" lon="-74.59191227">
<time>2014-05-18T21:42:10Z</time>
</trkpt>
      <trkpt lat="11.00035322" lon="-74.59232676">
<time>2014-05-18T21:42:12Z</time>
</trkpt>
      <trkpt lat="11.00039029" lon="-74.59277725">
<time>2014-05-18T21:42:14Z</time>
</trkpt>
      <trkpt lat="11.00042927" lon="-74.59324956">
<time>2014-05-18T21:42:16Z</time>
</trkpt>
      <trkpt lat="11.00045407" lon="-74.59373260">
<time>2014-05-18T21:42:18Z</time>
</trkpt>
      <trkpt lat="11.00046992" lon="-74.59419107">
<time>2014-05-18T21:42:20Z</time>
</trkpt>
      <trkpt lat="11.00048411" lon="-74.59460366">
<time>2014-05-18T21:42:22Z</time>
</trkpt>
      <trkpt lat="11.00049579" lon="-74.59495091">
<time>2014-05-18T21:42:24Z</time>
</trkpt>
      <trkpt lat="11.00052977" lon="-74.59528208">
<time>2014-05-18T21:42:26Z</time>
</trkpt>
      <trkpt lat="11.00058782" lon="-74.59558916">
<time>2014-05-18T21:42:28Z</time>
</trkpt>
      <trkpt lat="11.00064683" lon="-74.59591579">
<time>2014-05-18T21:42:30Z</time>
</trkpt>
      <trkpt lat="11.00071394" lon="-74.59623492">
<time>2014-05-18T21:42:32Z</time>
</trkpt>
      <trkpt lat="11.00077522" lon="-74.59652698">
<time>2014-05-18T21:42:34Z</time>
</trkpt>
      <trkpt lat="11.00084007" lon="-74.59679222">
<time>2014-05-18T21:42:36Z</time>
</trkpt>
      <trkpt lat="11.00091147" lon="-74.59705198">
<time>2014-05-18T21:42:38Z</time>
</trkpt>
      <trkpt lat="11.00100493" lon="-74.59730291">
<time>2014-05-18T21:42:40Z</time>
</trkpt>
      <trkpt lat="11.00111878" lon="-74.59758139">
<time>2014-05-18T21:42:42Z</time>
</trkpt>
      <trkpt lat="11.00127840" lon="-74.59786546">
<time>2014-05-18T21:42:44Z</time>
</trkpt>
      <trkpt lat="11.00147247" lon="-74.59816146">
<time>2014-05-18T21:42:46Z</time>
</trkpt>
      <trkpt lat="11.00170028" lon="-74.59844291">
<time>2014-05-18T21:42:48Z</time>
</trkpt>
      <trkpt lat="11.00194180" lon="-74.59869766">
<time>2014-05-18T21:42:50Z</time>
</trkpt>
      <trkpt lat="11.00221145" lon="-74.59894097">
<time>2014-05-18T21:42:52Z</time>
</trkpt>
      <trkpt lat="11.00251341" lon="-74.59922624">
<time>2014-05-18T21:42:54Z</time>
</trkpt>
      <trkpt lat="11.00285661" lon="-74.59954011">
<time>2014-05-18T21:42:56Z</time>
</trkpt>
      <trkpt lat="11.00323546" lon="-74.59986079">
<time>2014-05-18T21:42:58Z</time>
</trkpt>
      <trkpt lat="11.00363290" lon="-74.60019779">
<time>2014-05-18T21:43:00Z</time>
</trkpt>
      <trkpt lat="11.00404298" lon="-74.60056412">
<time>2014-05-18T21:43:02Z</time>
</trkpt>
      <trkpt lat="11.00446689" lon="-74.60093689">
<time>2014-05-18T21:43:04Z</time>
</trkpt>
      <trkpt lat="11.00489557" lon="-74.60132277">
<time>2014-05-18T21:43:06Z</time>
</trkpt>
      <trkpt lat="11.00532460" lon="-74.60171592">
<time>2014-05-18T21:43:08Z</time>
</trkpt>
      <trkpt lat="11.00575972" lon="-74.60210645">
<time>2014-05-18T21:43:10Z</time>
</trkpt>
      <trkpt lat="11.00619912" lon="-74.60250247">
<time>2014-05-18T21:43:12Z</time>
</trkpt>
      <trkpt lat="11.00664091" lon="-74.60290575">
<time>2014-05-18T21:43:14Z</time>
</trkpt>
      <trkpt lat="11.00708365" lon="-74.60330665">
<time>2014-05-18T21:43:16Z</time>
</trkpt>
      <trkpt lat="11.00752246" lon="-74.60369694">
<time>2014-05-18T21:43:18Z</time>
</trkpt>
      <trkpt lat="11.00794148" lon="-74.60406291">
<time>2014-05-18T21:43:20Z</time>
</trkpt>
      <trkpt lat="11.00832582" lon="-74.60440481">
<time>2014-05-18T21:43:22Z</time>
</trkpt>
      <trkpt lat="11.00866878" lon="-74.60473132">
<time>2014-05-18T21:43:24Z</time>
</trkpt>
      <trkpt lat="11.00897574" lon="-74.60506940">
<time>2014-05-18T21:43:26Z</time>
</trkpt>
      <trkpt lat="11.00925589" lon="-74.60544324">
<time>2014-05-18T21:43:28Z</time>
</trkpt>
      <trkpt lat="11.00950515" lon="-74.60585308">
<time>2014-05-18T21:43:30Z</time>
</trkpt>
      <trkpt lat="11.00973189" lon="-74.60629177">
<time>2014-05-18T21:43:32Z</time>
</trkpt>
      <trkpt lat="11.00995839" lon="-74.60675192">
<time>2014-05-18T21:43:34Z</time>
</trkpt>
      <trkpt lat="11.01019275" lon="-74.60722363">
<time>2014-05-18T21:43:36Z</time>
</trkpt>
      <trkpt lat="11.01043308" lon="-74.60770988">
<time>2014-05-18T21:43:38Z</time>
</trkpt>
      <trkpt lat="11.01068175" lon="-74.60820472">
<time>2014-05-18T21:43:40Z</time>
</trkpt>
      <trkpt lat="11.01093006" lon="-74.60870516">
<time>2014-05-18T21:43:42Z</time>
</trkpt>
      <trkpt lat="11.01116621" lon="-74.60919750">
<time>2014-05-18T21:43:44Z</time>
</trkpt>
      <trkpt lat="11.01140141" lon="-74.60967541">
<time>2014-05-18T21:43:46Z</time>
</trkpt>
      <trkpt lat="11.01161695" lon="-74.61011529">
<time>2014-05-18T21:43:48Z</time>
</trkpt>
      <trkpt lat="11.01181912" lon="-74.61050725">
<time>2014-05-18T21:43:50Z</time>
</trkpt>
      <trkpt lat="11.01199758" lon="-74.61087072">
<time>2014-05-18T21:43:52Z</time>
</trkpt>
      <trkpt lat="11.01216865" lon="-74.61124074">
<time>2014-05-18T21:43:54Z</time>
</trkpt>
      <trkpt lat="11.01231658" lon="-74.61160326">
<time>2014-05-18T21:43:56Z</time>
</trkpt>
      <trkpt lat="11.01241863" lon="-74.61193061">
<time>2014-05-18T21:43:58Z</time>
</trkpt>
      <trkpt lat="11.01248860" lon="-74.61222494">
<time>2014-05-18T21:44:00Z</time>
</trkpt>
      <trkpt lat="11.01253057" lon="-74.61248505">
<time>2014-05-18T21:44:02Z</time>
</trkpt>
      <trkpt lat="11.01255929" lon="-74.61270595">
<time>2014-05-18T21:44:04Z</time>
</trkpt>
      <trkpt lat="11.01257122" lon="-74.61289608">
<time>2014-05-18T21:44:06Z</time>
</trkpt>
      <trkpt lat="11.01258826" lon="-74.61306810">
<time>2014-05-18T21:44:08Z</time>
</trkpt>
      <trkpt lat="11.01260614" lon="-74.61326349">
<time>2014-05-18T21:44:10Z</time>
</trkpt>
      <trkpt lat="11.01262057" lon="-74.61350274">
<time>2014-05-18T21:44:12Z</time>
</trkpt>
      <trkpt lat="11.01264393" lon="-74.61379540">
<time>2014-05-18T21:44:14Z</time>
</trkpt>
      <trkpt lat="11.01267517" lon="-74.61414111">
<time>2014-05-18T21:44:16Z</time>
</trkpt>
      <trkpt lat="11.01271260" lon="-74.61452591">
<time>2014-05-18T21:44:18Z</time>
</trkpt>
      <trkpt lat="11.01275265" lon="-74.61495578">
<time>2014-05-18T21:44:20Z</time>
</trkpt>
      <trkpt lat="11.01279426" lon="-74.61540890">
<time>2014-05-18T21:44:22Z</time>
</trkpt>
      <trkpt lat="11.01283956" lon="-74.61587632">
<time>2014-05-18T21:44:24Z</time>
</trkpt>
      <trkpt lat="11.01288581" lon="-74.61636424">
<time>2014-05-18T21:44:26Z</time>
</trkpt>
      <trkpt lat="11.01293647" lon="-74.61686122">
<time>2014-05-18T21:44:28Z</time>
</trkpt>
      <trkpt lat="11.01298809" lon="-74.61738288">
<time>2014-05-18T21:44:30Z</time>
</trkpt>
      <trkpt lat="11.01303983" lon="-74.61791706">
<time>2014-05-18T21:44:32Z</time>
</trkpt>
      <trkpt lat="11.01308656" lon="-74.61844623">
<time>2014-05-18T21:44:34Z</time>
</trkpt>
      <trkpt lat="11.01313448" lon="-74.61897767">
<time>2014-05-18T21:44:36Z</time>
</trkpt>
      <trkpt lat="11.01317978" lon="-74.61950982">
<time>2014-05-18T21:44:38Z</time>
</trkpt>
      <trkpt lat="11.01323164" lon="-74.62004209">
<time>2014-05-18T21:44:40Z</time>
</trkpt>
      <trkpt lat="11.01328528" lon="-74.62059200">
<time>2014-05-18T21:44:42Z</time>
</trkpt>
      <trkpt lat="11.01334012" lon="-74.62115300">
<time>2014-05-18T21:44:44Z</time>
</trkpt>
      <trkpt lat="11.01339197" lon="-74.62172043">
<time>2014-05-18T21:44:46Z</time>
</trkpt>
      <trkpt lat="11.01344991" lon="-74.62229526">
<time>2014-05-18T21:44:48Z</time>
</trkpt>
      <trkpt lat="11.01350629" lon="-74.62288094">
<time>2014-05-18T21:44:50Z</time>
</trkpt>
      <trkpt lat="11.01356363" lon="-74.62346911">
<time>2014-05-18T21:44:52Z</time>
</trkpt>
      <trkpt lat="11.01361346" lon="-74.62406445">
<time>2014-05-18T21:44:54Z</time>
</trkpt>
      <trkpt lat="11.01367128" lon="-74.62465239">
<time>2014-05-18T21:44:56Z</time>
</trkpt>
      <trkpt lat="11.01373041" lon="-74.62523866">
<time>2014-05-18T21:44:58Z</time>
</trkpt>
      <trkpt lat="11.01379180" lon="-74.62580478">
<time>2014-05-18T21:45:00Z</time>
</trkpt>
      <trkpt lat="11.01384223" lon="-74.62638211">
<time>2014-05-18T21:45:02Z</time>
</trkpt>
      <trkpt lat="11.01389205" lon="-74.62696671">
<time>2014-05-18T21:45:04Z</time>
</trkpt>
      <trkpt lat="11.01394832" lon="-74.62755823">
<time>2014-05-18T21:45:06Z</time>
</trkpt>
      <trkpt lat="11.01400757" lon="-74.62812948">
<time>2014-05-18T21:45:08Z</time>
</trkpt>
      <trkpt lat="11.01406360" lon="-74.62868822">
<time>2014-05-18T21:45:10Z</time>
</trkpt>
      <trkpt lat="11.01411331" lon="-74.62924099">
<time>2014-05-18T21:45:12Z</time>
</trkpt>
      <trkpt lat="11.01414657" lon="-74.62979591">
<time>2014-05-18T21:45:14Z</time>
</trkpt>
      <trkpt lat="11.01415622" lon="-74.63034129">
<time>2014-05-18T21:45:16Z</time>
</trkpt>
      <trkpt lat="11.01411343" lon="-74.63088107">
<time>2014-05-18T21:45:18Z</time>
</trkpt>
      <trkpt lat="11.01402295" lon="-74.63141930">
<time>2014-05-18T21:45:20Z</time>
</trkpt>
      <trkpt lat="11.01391375" lon="-74.63196576">
<time>2014-05-18T21:45:22Z</time>
</trkpt>
      <trkpt lat="11.01381838" lon="-74.63252759">
<time>2014-05-18T21:45:24Z</time>
</trkpt>
      <trkpt lat="11.01370764" lon="-74.63310516">
<time>2014-05-18T21:45:26Z</time>
</trkpt>
      <trkpt lat="11.01358557" lon="-74.63368309">
<time>2014-05-18T21:45:28Z</time>
</trkpt>
      <trkpt lat="11.01347029" lon="-74.63426530">
<time>2014-05-18T21:45:30Z</time>
</trkpt>
      <trkpt lat="11.01336455" lon="-74.63485515">
<time>2014-05-18T21:45:32Z</time>
</trkpt>
      <trkpt lat="11.01325548" lon="-74.63544142">
<time>2014-05-18T21:45:34Z</time>
</trkpt>
      <trkpt lat="11.01314116" lon="-74.63602293">
<time>2014-05-18T21:45:36Z</time>
</trkpt>
      <trkpt lat="11.01303148" lon="-74.63659990">
<time>2014-05-18T21:45:38Z</time>
</trkpt>
      <trkpt lat="11.01291943" lon="-74.63717389">
<time>2014-05-18T21:45:40Z</time>
</trkpt>
      <trkpt lat="11.01280761" lon="-74.63775015">
<time>2014-05-18T21:45:42Z</time>
</trkpt>
      <trkpt lat="11.01269805" lon="-74.63832164">
<time>2014-05-18T21:45:44Z</time>
</trkpt>
      <trkpt lat="11.01258564" lon="-74.63889110">
<time>2014-05-18T21:45:46Z</time>
</trkpt>
      <trkpt lat="11.01247513" lon="-74.63945889">
<time>2014-05-18T21:45:48Z</time>
</trkpt>
      <trkpt lat="11.01237023" lon="-74.64002681">
<time>2014-05-18T21:45:50Z</time>
</trkpt>
      <trkpt lat="11.01225662" lon="-74.64060676">
<time>2014-05-18T21:45:52Z</time>
</trkpt>
      <trkpt lat="11.01214457" lon="-74.64118659">
<time>2014-05-18T21:45:54Z</time>
</trkpt>
      <trkpt lat="11.01203382" lon="-74.64177048">
<time>2014-05-18T21:45:56Z</time>
</trkpt>
      <trkpt lat="11.01192224" lon="-74.64237881">
<time>2014-05-18T21:45:58Z</time>
</trkpt>
      <trkpt lat="11.01180780" lon="-74.64298081">
<time>2014-05-18T21:46:00Z</time>
</trkpt>
      <trkpt lat="11.01169109" lon="-74.64358294">
<time>2014-05-18T21:46:02Z</time>
</trkpt>
      <trkpt lat="11.01156974" lon="-74.64417660">
<time>2014-05-18T21:46:04Z</time>
</trkpt>
      <trkpt lat="11.01145744" lon="-74.64476383">
<time>2014-05-18T21:46:06Z</time>
</trkpt>
      <trkpt lat="11.01134598" lon="-74.64529645">
<time>2014-05-18T21:46:08Z</time>
</trkpt>
      <trkpt lat="11.01123738" lon="-74.64574564">
<time>2014-05-18T21:46:10Z</time>
</trkpt>
      <trkpt lat="11.01109588" lon="-74.64618826">
<time>2014-05-18T21:46:12Z</time>
</trkpt>
      <trkpt lat="11.01090431" lon="-74.64661181">
<time>2014-05-18T21:46:14Z</time>
</trkpt>
      <trkpt lat="11.01066124" lon="-74.64703774">
<time>2014-05-18T21:46:16Z</time>
</trkpt>
      <trkpt lat="11.01038849" lon="-74.64749575">
<time>2014-05-18T21:46:18Z</time>
</trkpt>
      <trkpt lat="11.01011348" lon="-74.64797843">
<time>2014-05-18T21:46:20Z</time>
</trkpt>
      <trkpt lat="11.00982714" lon="-74.64846122">
<time>2014-05-18T21:46:22Z</time>
</trkpt>
      <trkpt lat="11.00954461" lon="-74.64895666">
<time>2014-05-18T21:46:24Z</time>
</trkpt>
      <trkpt lat="11.00925827" lon="-74.64946246">
<time>2014-05-18T21:46:26Z</time>
</trkpt>
      <trkpt lat="11.00896811" lon="-74.64996958">
<time>2014-05-18T21:46:28Z</time>
</trkpt>
      <trkpt lat="11.00866961" lon="-74.65047610">
<time>2014-05-18T21:46:30Z</time>
</trkpt>
      <trkpt lat="11.00837481" lon="-74.65099573">
<time>2014-05-18T21:46:32Z</time>
</trkpt>
      <trkpt lat="11.00807846" lon="-74.65151548">
<time>2014-05-18T21:46:34Z</time>
</trkpt>
      <trkpt lat="11.00777972" lon="-74.65203714">
<time>2014-05-18T21:46:36Z</time>
</trkpt>
      <trkpt lat="11.00748396" lon="-74.65256894">
<time>2014-05-18T21:46:38Z</time>
</trkpt>
      <trkpt lat="11.00719333" lon="-74.65309596">
<time>2014-05-18T21:46:40Z</time>
</trkpt>
      <trkpt lat="11.00690329" lon="-74.65358758">
<time>2014-05-18T21:46:42Z</time>
</trkpt>
      <trkpt lat="11.00663316" lon="-74.65402508">
<time>2014-05-18T21:46:44Z</time>
</trkpt>
      <trkpt lat="11.00642872" lon="-74.65445578">
<time>2014-05-18T21:46:46Z</time>
</trkpt>
      <trkpt lat="11.00630832" lon="-74.65490925">
<time>2014-05-18T21:46:48Z</time>
</trkpt>
      <trkpt lat="11.00619543" lon="-74.65540314">
<time>2014-05-18T21:46:50Z</time>
</trkpt>
      <trkpt lat="11.00609791" lon="-74.65592778">
<time>2014-05-18T21:46:52Z</time>
</trkpt>
      <trkpt lat="11.00602281" lon="-74.65647459">
<time>2014-05-18T21:46:54Z</time>
</trkpt>
      <trkpt lat="11.00593865" lon="-74.65702295">
<time>2014-05-18T21:46:56Z</time>
</trkpt>
      <trkpt lat="11.00584948" lon="-74.65757227">
<time>2014-05-18T21:46:58Z</time>
</trkpt>
      <trkpt lat="11.00575197" lon="-74.65811658">
<time>2014-05-18T21:47:00Z</time>
</trkpt>
      <trkpt lat="11.00565708" lon="-74.65865827">
<time>2014-05-18T21:47:02Z</time>
</trkpt>
      <trkpt lat="11.00557244" lon="-74.65919340">
<time>2014-05-18T21:47:04Z</time>
</trkpt>
      <trkpt lat="11.00547683" lon="-74.65973878">
<time>2014-05-18T21:47:06Z</time>
</trkpt>
      <trkpt lat="11.00538397" lon="-74.66027880">
<time>2014-05-18T21:47:08Z</time>
</trkpt>
      <trkpt lat="11.00529683" lon="-74.66082275">
<time>2014-05-18T21:47:10Z</time>
</trkpt>
      <trkpt lat="11.00520515" lon="-74.66137064">
<time>2014-05-18T21:47:12Z</time>
</trkpt>
      <trkpt lat="11.00512671" lon="-74.66190374">
<time>2014-05-18T21:47:14Z</time>
</trkpt>
      <trkpt lat="11.00503230" lon="-74.66245139">
<time>2014-05-18T21:47:16Z</time>
</trkpt>
      <trkpt lat="11.00494277" lon="-74.66301274">
<time>2014-05-18T21:47:18Z</time>
</trkpt>
      <trkpt lat="11.00485492" lon="-74.66357648">
<time>2014-05-18T21:47:20Z</time>
</trkpt>
      <trkpt lat="11.00476515" lon="-74.66414058">
<time>2014-05-18T21:47:22Z</time>
</trkpt>
      <trkpt lat="11.00470006" lon="-74.66471148">
<time>2014-05-18T21:47:24Z</time>
</trkpt>
      <trkpt lat="11.00466728" lon="-74.66529095">
<time>2014-05-18T21:47:26Z</time>
</trkpt>
      <trkpt lat="11.00464857" lon="-74.66587377">
<time>2014-05-18T21:47:28Z</time>
</trkpt>
      <trkpt lat="11.00465810" lon="-74.66645312">
<time>2014-05-18T21:47:30Z</time>
</trkpt>
      <trkpt lat="11.00468922" lon="-74.66703832">
<time>2014-05-18T21:47:32Z</time>
</trkpt>
      <trkpt lat="11.00473809" lon="-74.66762960">
<time>2014-05-18T21:47:34Z</time>
</trkpt>
      <trkpt lat="11.00481009" lon="-74.66822994">
<time>2014-05-18T21:47:36Z</time>
</trkpt>
      <trkpt lat="11.00489664" lon="-74.66881561">
<time>2014-05-18T21:47:38Z</time>
</trkpt>
      <trkpt lat="11.00498796" lon="-74.66940045">
<time>2014-05-18T21:47:40Z</time>
</trkpt>
      <trkpt lat="11.00507212" lon="-74.66997612">
<time>2014-05-18T21:47:42Z</time>
</trkpt>
      <trkpt lat="11.00516176" lon="-74.67056739">
<time>2014-05-18T21:47:44Z</time>
</trkpt>
      <trkpt lat="11.00526142" lon="-74.67115462">
<time>2014-05-18T21:47:46Z</time>
</trkpt>
      <trkpt lat="11.00535882" lon="-74.67172694">
<time>2014-05-18T21:47:48Z</time>
</trkpt>
      <trkpt lat="11.00545025" lon="-74.67226923">
<time>2014-05-18T21:47:50Z</time>
</trkpt>
      <trkpt lat="11.00553048" lon="-74.67277098">
<time>2014-05-18T21:47:52Z</time>
</trkpt>
      <trkpt lat="11.00560260" lon="-74.67326546">
<time>2014-05-18T21:47:54Z</time>
</trkpt>
      <trkpt lat="11.00567913" lon="-74.67378676">
<time>2014-05-18T21:47:56Z</time>
</trkpt>
      <trkpt lat="11.00574315" lon="-74.67433012">
<time>2014-05-18T21:47:58Z</time>
</trkpt>
      <trkpt lat="11.00582457" lon="-74.67488599">
<time>2014-05-18T21:48:00Z</time>
</trkpt>
      <trkpt lat="11.00592828" lon="-74.67545497">
<time>2014-05-18T21:48:02Z</time>
</trkpt>
      <trkpt lat="11.00602305" lon="-74.67605615">
<time>2014-05-18T21:48:04Z</time>
</trkpt>
      <trkpt lat="11.00611389" lon="-74.67665541">
<time>2014-05-18T21:48:06Z</time>
</trkpt>
      <trkpt lat="11.00621676" lon="-74.67724276">
<time>2014-05-18T21:48:08Z</time>
</trkpt>
      <trkpt lat="11.00633562" lon="-74.67781878">
<time>2014-05-18T21:48:10Z</time>
</trkpt>
      <trkpt lat="11.00643730" lon="-74.67836773">
<time>2014-05-18T21:48:12Z</time>
</trkpt>
      <trkpt lat="11.00652230" lon="-74.67890227">
<time>2014-05-18T21:48:14Z</time>
</trkpt>
      <trkpt lat="11.00659931" lon="-74.67942476">
<time>2014-05-18T21:48:16Z</time>
</trkpt>
      <trkpt lat="11.00667810" lon="-74.67993379">
<time>2014-05-18T21:48:18Z</time>
</trkpt>
      <trkpt lat="11.00675690" lon="-74.68043745">
<time>2014-05-18T21:48:20Z</time>
</trkpt>
      <trkpt lat="11.00681162" lon="-74.68094611">
<time>2014-05-18T21:48:22Z</time>
</trkpt>
      <trkpt lat="11.00682676" lon="-74.68146122">
<time>2014-05-18T21:48:24Z</time>
</trkpt>
      <trkpt lat="11.00677073" lon="-74.68198347">
<time>2014-05-18T21:48:26Z</time>
</trkpt>
      <trkpt lat="11.00665164" lon="-74.68249977">
<time>2014-05-18T21:48:28Z</time>
</trkpt>
      <trkpt lat="11.00646663" lon="-74.68301165">
<time>2014-05-18T21:48:30Z</time>
</trkpt>
      <trkpt lat="11.00622392" lon="-74.68349040">
<time>2014-05-18T21:48:32Z</time>
</trkpt>
      <trkpt lat="11.00593996" lon="-74.68395197">
<time>2014-05-18T21:48:34Z</time>
</trkpt>
      <trkpt lat="11.00565064" lon="-74.68442166">
<time>2014-05-18T21:48:36Z</time>
</trkpt>
      <trkpt lat="11.00536096" lon="-74.68489742">
<time>2014-05-18T21:48:38Z</time>
</trkpt>
      <trkpt lat="11.00507772" lon="-74.68536043">
<time>2014-05-18T21:48:40Z</time>
</trkpt>
      <trkpt lat="11.00479829" lon="-74.68583226">
<time>2014-05-18T21:48:42Z</time>
</trkpt>
      <trkpt lat="11.00450766" lon="-74.68630111">
<time>2014-05-18T21:48:44Z</time>
</trkpt>
      <trkpt lat="11.00421631" lon="-74.68676078">
<time>2014-05-18T21:48:46Z</time>
</trkpt>
      <trkpt lat="11.00392389" lon="-74.68722749">
<time>2014-05-18T21:48:48Z</time>
</trkpt>
      <trkpt lat="11.00363183" lon="-74.68769228">
<time>2014-05-18T21:48:50Z</time>
</trkpt>
      <trkpt lat="11.00334048" lon="-74.68817115">
<time>2014-05-18T21:48:52Z</time>
</trkpt>
      <trkpt lat="11.00303841" lon="-74.68866122">
<time>2014-05-18T21:48:54Z</time>
</trkpt>
      <trkpt lat="11.00272977" lon="-74.68914962">
<time>2014-05-18T21:48:56Z</time>
</trkpt>
      <trkpt lat="11.00242162" lon="-74.68962073">
<time>2014-05-18T21:48:58Z</time>
</trkpt>
      <trkpt lat="11.00209558" lon="-74.69005895">
<time>2014-05-18T21:49:00Z</time>
</trkpt>
      <trkpt lat="11.00174212" lon="-74.69047832">
<time>2014-05-18T21:49:02Z</time>
</trkpt>
      <trkpt lat="11.00136065" lon="-74.69089699">
<time>2014-05-18T21:49:04Z</time>
</trkpt>
      <trkpt lat="11.00095212" lon="-74.69130278">
<time>2014-05-18T21:49:06Z</time>
</trkpt>
      <trkpt lat="11.00052261" lon="-74.69170082">
<time>2014-05-18T21:49:08Z</time>
</trkpt>
      <trkpt lat="11.00005829" lon="-74.69208407">
<time>2014-05-18T21:49:10Z</time>
</trkpt>
      <trkpt lat="10.99958575" lon="-74.69247746">
<time>2014-05-18T21:49:12Z</time>
</trkpt>
      <trkpt lat="10.99911726" lon="-74.69288182">
<time>2014-05-18T21:49:14Z</time>
</trkpt>
      <trkpt lat="10.99864864" lon="-74.69328666">
<time>2014-05-18T21:49:16Z</time>
</trkpt>
      <trkpt lat="10.99820256" lon="-74.69370830">
<time>2014-05-18T21:49:18Z</time>
</trkpt>
      <trkpt lat="10.99778259" lon="-74.69415009">
<time>2014-05-18T21:49:20Z</time>
</trkpt>
      <trkpt lat="10.99739563" lon="-74.69460356">
<time>2014-05-18T21:49:22Z</time>
</trkpt>
      <trkpt lat="10.99702597" lon="-74.69505012">
<time>2014-05-18T21:49:24Z</time>
</trkpt>
      <trkpt lat="10.99665475" lon="-74.69549549">
<time>2014-05-18T21:49:26Z</time>
</trkpt>
      <trkpt lat="10.99629033" lon="-74.69593489">
<time>2014-05-18T21:49:28Z</time>
</trkpt>
      <trkpt lat="10.99592340" lon="-74.69636810">
<time>2014-05-18T21:49:30Z</time>
</trkpt>
      <trkpt lat="10.99555409" lon="-74.69680691">
<time>2014-05-18T21:49:32Z</time>
</trkpt>
      <trkpt lat="10.99519479" lon="-74.69725645">
<time>2014-05-18T21:49:34Z</time>
</trkpt>
      <trkpt lat="10.99482858" lon="-74.69769979">
<time>2014-05-18T21:49:36Z</time>
</trkpt>
      <trkpt lat="10.99446142" lon="-74.69814193">
<time>2014-05-18T21:49:38Z</time>
</trkpt>
      <trkpt lat="10.99409997" lon="-74.69857430">
<time>2014-05-18T21:49:40Z</time>
</trkpt>
      <trkpt lat="10.99374259" lon="-74.69899929">
<time>2014-05-18T21:49:42Z</time>
</trkpt>
      <trkpt lat="10.99338388" lon="-74.69942331">
<time>2014-05-18T21:49:44Z</time>
</trkpt>
      <trkpt lat="10.99303329" lon="-74.69983172">
<time>2014-05-18T21:49:46Z</time>
</trkpt>
      <trkpt lat="10.99269760" lon="-74.70022905">
<time>2014-05-18T21:49:48Z</time>
</trkpt>
      <trkpt lat="10.99235892" lon="-74.70062006">
<time>2014-05-18T21:49:50Z</time>
</trkpt>
      <trkpt lat="10.99200976" lon="-74.70101964">
<time>2014-05-18T21:49:52Z</time>
</trkpt>
      <trkpt lat="10.99164331" lon="-74.70146573">
<time>2014-05-18T21:49:54Z</time>
</trkpt>
      <trkpt lat="10.99128389" lon="-74.70194507">
<time>2014-05-18T21:49:56Z</time>
</trkpt>
      <trkpt lat="10.99093139" lon="-74.70244110">
<time>2014-05-18T21:49:58Z</time>
</trkpt>
      <trkpt lat="10.99060047" lon="-74.70293605">
<time>2014-05-18T21:50:00Z</time>
</trkpt>
      <trkpt lat="10.99031091" lon="-74.70342410">
<time>2014-05-18T21:50:02Z</time>
</trkpt>
      <trkpt lat="10.99003828" lon="-74.70390916">
<time>2014-05-18T21:50:04Z</time>
</trkpt>
      <trkpt lat="10.98979115" lon="-74.70439565">
<time>2014-05-18T21:50:06Z</time>
</trkpt>
      <trkpt lat="10.98956776" lon="-74.70489693">
<time>2014-05-18T21:50:08Z</time>
</trkpt>
      <trkpt lat="10.98937345" lon="-74.70541525">
<time>2014-05-18T21:50:10Z</time>
</trkpt>
      <trkpt lat="10.98918498" lon="-74.70594132">
<time>2014-05-18T21:50:12Z</time>
</trkpt>
      <trkpt lat="10.98899806" lon="-74.70647991">
<time>2014-05-18T21:50:14Z</time>
</trkpt>
      <trkpt lat="10.98880923" lon="-74.70701873">
<time>2014-05-18T21:50:16Z</time>
</trkpt>
      <trkpt lat="10.98862290" lon="-74.70757258">
<time>2014-05-18T21:50:18Z</time>
</trkpt>
      <trkpt lat="10.98842561" lon="-74.70814478">
<time>2014-05-18T21:50:20Z</time>
</trkpt>
      <trkpt lat="10.98822296" lon="-74.70872962">
<time>2014-05-18T21:50:22Z</time>
</trkpt>
      <trkpt lat="10.98801994" lon="-74.70931983">
<time>2014-05-18T21:50:24Z</time>
</trkpt>
      <trkpt lat="10.98781157" lon="-74.70991850">
<time>2014-05-18T21:50:26Z</time>
</trkpt>
      <trkpt lat="10.98760498" lon="-74.71052015">
<time>2014-05-18T21:50:28Z</time>
</trkpt>
      <trkpt lat="10.98740160" lon="-74.71111190">
<time>2014-05-18T21:50:30Z</time>
</trkpt>
      <trkpt lat="10.98719883" lon="-74.71169043">
<time>2014-05-18T21:50:32Z</time>
</trkpt>
      <trkpt lat="10.98700190" lon="-74.71226227">
<time>2014-05-18T21:50:34Z</time>
</trkpt>
      <trkpt lat="10.98680711" lon="-74.71282375">
<time>2014-05-18T21:50:36Z</time>
</trkpt>
      <trkpt lat="10.98661363" lon="-74.71337771">
<time>2014-05-18T21:50:38Z</time>
</trkpt>
      <trkpt lat="10.98641980" lon="-74.71392941">
<time>2014-05-18T21:50:40Z</time>
</trkpt>
      <trkpt lat="10.98624110" lon="-74.71444857">
<time>2014-05-18T21:50:42Z</time>
</trkpt>
      <trkpt lat="10.98608792" lon="-74.71490157">
<time>2014-05-18T21:50:44Z</time>
</trkpt>
      <trkpt lat="10.98595381" lon="-74.71528864">
<time>2014-05-18T21:50:46Z</time>
</trkpt>
      <trkpt lat="10.98583710" lon="-74.71563613">
<time>2014-05-18T21:50:48Z</time>
</trkpt>
      <trkpt lat="10.98572576" lon="-74.71595562">
<time>2014-05-18T21:50:50Z</time>
</trkpt>
      <trkpt lat="10.98562193" lon="-74.71625125">
<time>2014-05-18T21:50:52Z</time>
</trkpt>
      <trkpt lat="10.98552310" lon="-74.71653199">
<time>2014-05-18T21:50:54Z</time>
</trkpt>
      <trkpt lat="10.98542798" lon="-74.71678710">
<time>2014-05-18T21:50:56Z</time>
</trkpt>
      <trkpt lat="10.98535192" lon="-74.71701479">
<time>2014-05-18T21:50:58Z</time>
</trkpt>
      <trkpt lat="10.98528993" lon="-74.71719861">
<time>2014-05-18T21:51:00Z</time>
</trkpt>
      <trkpt lat="10.98525882" lon="-74.71730959">
<time>2014-05-18T21:51:02Z</time>
</trkpt>
      <trkpt lat="10.98524022" lon="-74.71735466">
<time>2014-05-18T21:51:04Z</time>
</trkpt>
      <trkpt lat="10.98522615" lon="-74.71740830">
<time>2014-05-18T21:51:06Z</time>
</trkpt>
      <trkpt lat="10.98519099" lon="-74.71749759">
<time>2014-05-18T21:51:08Z</time>
</trkpt>
      <trkpt lat="10.98514283" lon="-74.71762156">
<time>2014-05-18T21:51:10Z</time>
</trkpt>
      <trkpt lat="10.98508513" lon="-74.71777797">
<time>2014-05-18T21:51:12Z</time>
</trkpt>
      <trkpt lat="10.98502243" lon="-74.71796095">
<time>2014-05-18T21:51:14Z</time>
</trkpt>
      <trkpt lat="10.98494899" lon="-74.71816850">
<time>2014-05-18T21:51:16Z</time>
</trkpt>
      <trkpt lat="10.98486328" lon="-74.71839345">
<time>2014-05-18T21:51:18Z</time>
</trkpt>
      <trkpt lat="10.98478222" lon="-74.71862411">
<time>2014-05-18T21:51:20Z</time>
</trkpt>
      <trkpt lat="10.98469782" lon="-74.71886063">
<time>2014-05-18T21:51:22Z</time>
</trkpt>
      <trkpt lat="10.98460627" lon="-74.71910191">
<time>2014-05-18T21:51:24Z</time>
</trkpt>
      <trkpt lat="10.98451829" lon="-74.71935558">
<time>2014-05-18T21:51:26Z</time>
</trkpt>
      <trkpt lat="10.98442793" lon="-74.71962750">
<time>2014-05-18T21:51:28Z</time>
</trkpt>
      <trkpt lat="10.98433506" lon="-74.71990025">
<time>2014-05-18T21:51:30Z</time>
</trkpt>
      <trkpt lat="10.98423755" lon="-74.72019982">
<time>2014-05-18T21:51:32Z</time>
</trkpt>
      <trkpt lat="10.98411691" lon="-74.72052765">
<time>2014-05-18T21:51:34Z</time>
</trkpt>
      <trkpt lat="10.98398674" lon="-74.72089577">
<time>2014-05-18T21:51:36Z</time>
</trkpt>
      <trkpt lat="10.98384857" lon="-74.72128892">
<time>2014-05-18T21:51:38Z</time>
</trkpt>
      <trkpt lat="10.98370624" lon="-74.72170210">
<time>2014-05-18T21:51:40Z</time>
</trkpt>
      <trkpt lat="10.98356748" lon="-74.72210741">
<time>2014-05-18T21:51:42Z</time>
</trkpt>
      <trkpt lat="10.98342609" lon="-74.72249877">
<time>2014-05-18T21:51:44Z</time>
</trkpt>
      <trkpt lat="10.98329198" lon="-74.72289991">
<time>2014-05-18T21:51:46Z</time>
</trkpt>
      <trkpt lat="10.98315465" lon="-74.72331011">
<time>2014-05-18T21:51:48Z</time>
</trkpt>
      <trkpt lat="10.98301005" lon="-74.72372866">
<time>2014-05-18T21:51:50Z</time>
</trkpt>
      <trkpt lat="10.98286080" lon="-74.72416162">
<time>2014-05-18T21:51:52Z</time>
</trkpt>
      <trkpt lat="10.98270595" lon="-74.72460711">
<time>2014-05-18T21:51:54Z</time>
</trkpt>
      <trkpt lat="10.98253775" lon="-74.72506773">
<time>2014-05-18T21:51:56Z</time>
</trkpt>
      <trkpt lat="10.98233747" lon="-74.72552347">
<time>2014-05-18T21:51:58Z</time>
</trkpt>
      <trkpt lat="10.98209643" lon="-74.72597325">
<time>2014-05-18T21:52:00Z</time>
</trkpt>
      <trkpt lat="10.98181832" lon="-74.72641242">
<time>2014-05-18T21:52:02Z</time>
</trkpt>
      <trkpt lat="10.98150611" lon="-74.72683942">
<time>2014-05-18T21:52:04Z</time>
</trkpt>
      <trkpt lat="10.98115742" lon="-74.72724342">
<time>2014-05-18T21:52:06Z</time>
</trkpt>
      <trkpt lat="10.98079956" lon="-74.72762299">
<time>2014-05-18T21:52:08Z</time>
</trkpt>
      <trkpt lat="10.98047948" lon="-74.72795928">
<time>2014-05-18T21:52:10Z</time>
</trkpt>
      <trkpt lat="10.98019183" lon="-74.72824430">
<time>2014-05-18T21:52:12Z</time>
</trkpt>
      <trkpt lat="10.97994626" lon="-74.72849548">
<time>2014-05-18T21:52:14Z</time>
</trkpt>
      <trkpt lat="10.97973382" lon="-74.72873116">
<time>2014-05-18T21:52:16Z</time>
</trkpt>
      <trkpt lat="10.97957373" lon="-74.72893810">
<time>2014-05-18T21:52:18Z</time>
</trkpt>
      <trkpt lat="10.97944605" lon="-74.72912109">
<time>2014-05-18T21:52:20Z</time>
</trkpt>
      <trkpt lat="10.97934544" lon="-74.72927058">
<time>2014-05-18T21:52:22Z</time>
</trkpt>
      <trkpt lat="10.97927642" lon="-74.72937942">
<time>2014-05-18T21:52:24Z</time>
</trkpt>
      <trkpt lat="10.97921908" lon="-74.72946572">
<time>2014-05-18T21:52:26Z</time>
</trkpt>
      <trkpt lat="10.97918689" lon="-74.72950542">
<time>2014-05-18T21:52:28Z</time>
</trkpt>
      <trkpt lat="10.97918022" lon="-74.72951376">
<time>2014-05-18T21:52:30Z</time>
</trkpt>
      <trkpt lat="10.97917783" lon="-74.72951782">
<time>2014-05-18T21:52:32Z</time>
</trkpt>
      <trkpt lat="10.97916949" lon="-74.72952938">
<time>2014-05-18T21:52:34Z</time>
</trkpt>
      <trkpt lat="10.97916746" lon="-74.72953224">
<time>2014-05-18T21:52:36Z</time>
</trkpt>
      <trkpt lat="10.97915339" lon="-74.72954738">
<time>2014-05-18T21:52:38Z</time>
</trkpt>
      <trkpt lat="10.97909975" lon="-74.72960365">
<time>2014-05-18T21:52:40Z</time>
</trkpt>
      <trkpt lat="10.97902477" lon="-74.72967589">
<time>2014-05-18T21:52:42Z</time>
</trkpt>
      <trkpt lat="10.97898030" lon="-74.72972298">
<time>2014-05-18T21:52:44Z</time>
</trkpt>
      <trkpt lat="10.97895980" lon="-74.72974646">
<time>2014-05-18T21:52:46Z</time>
</trkpt>
      <trkpt lat="10.97893596" lon="-74.72977126">
<time>2014-05-18T21:52:48Z</time>
</trkpt>
      <trkpt lat="10.97891164" lon="-74.72979593">
<time>2014-05-18T21:52:50Z</time>
</trkpt>
      <trkpt lat="10.97888160" lon="-74.72981811">
<time>2014-05-18T21:52:52Z</time>
</trkpt>
      <trkpt lat="10.97885132" lon="-74.72983730">
<time>2014-05-18T21:52:54Z</time>
</trkpt>
      <trkpt lat="10.97879159" lon="-74.72989309">
<time>2014-05-18T21:52:56Z</time>
</trkpt>
      <trkpt lat="10.97871232" lon="-74.72997308">
<time>2014-05-18T21:52:58Z</time>
</trkpt>
      <trkpt lat="10.97860646" lon="-74.73007298">
<time>2014-05-18T21:53:00Z</time>
</trkpt>
      <trkpt lat="10.97847342" lon="-74.73019481">
<time>2014-05-18T21:53:02Z</time>
</trkpt>
      <trkpt lat="10.97831249" lon="-74.73032641">
<time>2014-05-18T21:53:04Z</time>
</trkpt>
      <trkpt lat="10.97813106" lon="-74.73046947">
<time>2014-05-18T21:53:06Z</time>
</trkpt>
      <trkpt lat="10.97793162" lon="-74.73063159">
<time>2014-05-18T21:53:08Z</time>
</trkpt>
      <trkpt lat="10.97770345" lon="-74.73084009">
<time>2014-05-18T21:53:10Z</time>
</trkpt>
      <trkpt lat="10.97745645" lon="-74.73108149">
<time>2014-05-18T21:53:12Z</time>
</trkpt>
      <trkpt lat="10.97719598" lon="-74.73134995">
<time>2014-05-18T21:53:14Z</time>
</trkpt>
      <trkpt lat="10.97691524" lon="-74.73163676">
<time>2014-05-18T21:53:16Z</time>
</trkpt>
      <trkpt lat="10.97661340" lon="-74.73195231">
<time>2014-05-18T21:53:18Z</time>
</trkpt>
      <trkpt lat="10.97631109" lon="-74.73226857">
<time>2014-05-18T21:53:20Z</time>
</trkpt>
      <trkpt lat="10.97600174" lon="-74.73258066">
<time>2014-05-18T21:53:22Z</time>
</trkpt>
      <trkpt lat="10.97567475" lon="-74.73287797">
<time>2014-05-18T21:53:24Z</time>
</trkpt>
      <trkpt lat="10.97531390" lon="-74.73315811">
<time>2014-05-18T21:53:26Z</time>
</trkpt>
      <trkpt lat="10.97493160" lon="-74.73343945">
<time>2014-05-18T21:53:28Z</time>
</trkpt>
      <trkpt lat="10.97452497" lon="-74.73371315">
<time>2014-05-18T21:53:30Z</time>
</trkpt>
      <trkpt lat="10.97409630" lon="-74.73396862">
<time>2014-05-18T21:53:32Z</time>
</trkpt>
      <trkpt lat="10.97364378" lon="-74.73420191">
<time>2014-05-18T21:53:34Z</time>
</trkpt>
      <trkpt lat="10.97317994" lon="-74.73442161">
<time>2014-05-18T21:53:36Z</time>
</trkpt>
      <trkpt lat="10.97270966" lon="-74.73461211">
<time>2014-05-18T21:53:38Z</time>
</trkpt>
      <trkpt lat="10.97223663" lon="-74.73476028">
<time>2014-05-18T21:53:40Z</time>
</trkpt>
      <trkpt lat="10.97177410" lon="-74.73487508">
<time>2014-05-18T21:53:42Z</time>
</trkpt>
      <trkpt lat="10.97128677" lon="-74.73498547">
<time>2014-05-18T21:53:44Z</time>
</trkpt>
      <trkpt lat="10.97077727" lon="-74.73507845">
<time>2014-05-18T21:53:46Z</time>
</trkpt>
      <trkpt lat="10.97027397" lon="-74.73517299">
<time>2014-05-18T21:53:48Z</time>
</trkpt>
      <trkpt lat="10.96977723" lon="-74.73526549">
<time>2014-05-18T21:53:50Z</time>
</trkpt>
      <trkpt lat="10.96928048" lon="-74.73537099">
<time>2014-05-18T21:53:52Z</time>
</trkpt>
      <trkpt lat="10.96878648" lon="-74.73550892">
<time>2014-05-18T21:53:54Z</time>
</trkpt>
      <trkpt lat="10.96830642" lon="-74.73569059">
<time>2014-05-18T21:53:56Z</time>
</trkpt>
      <trkpt lat="10.96785605" lon="-74.73592412">
<time>2014-05-18T21:53:58Z</time>
</trkpt>
      <trkpt lat="10.96743882" lon="-74.73619258">
<time>2014-05-18T21:54:00Z</time>
</trkpt>
      <trkpt lat="10.96706307" lon="-74.73650265">
<time>2014-05-18T21:54:02Z</time>
</trkpt>
      <trkpt lat="10.96671009" lon="-74.73684633">
<time>2014-05-18T21:54:04Z</time>
</trkpt>
      <trkpt lat="10.96637928" lon="-74.73718476">
<time>2014-05-18T21:54:06Z</time>
</trkpt>
      <trkpt lat="10.96608078" lon="-74.73750365">
<time>2014-05-18T21:54:08Z</time>
</trkpt>
      <trkpt lat="10.96578765" lon="-74.73782313">
<time>2014-05-18T21:54:10Z</time>
</trkpt>
      <trkpt lat="10.96547794" lon="-74.73815441">
<time>2014-05-18T21:54:12Z</time>
</trkpt>
      <trkpt lat="10.96516061" lon="-74.73848474">
<time>2014-05-18T21:54:14Z</time>
</trkpt>
      <trkpt lat="10.96485162" lon="-74.73880088">
<time>2014-05-18T21:54:16Z</time>
</trkpt>
      <trkpt lat="10.96457422" lon="-74.73909891">
<time>2014-05-18T21:54:18Z</time>
</trkpt>
      <trkpt lat="10.96433473" lon="-74.73937249">
<time>2014-05-18T21:54:20Z</time>
</trkpt>
      <trkpt lat="10.96410990" lon="-74.73963499">
<time>2014-05-18T21:54:22Z</time>
</trkpt>
      <trkpt lat="10.96386564" lon="-74.73990798">
<time>2014-05-18T21:54:24Z</time>
</trkpt>
      <trkpt lat="10.96359646" lon="-74.74019694">
<time>2014-05-18T21:54:26Z</time>
</trkpt>
      <trkpt lat="10.96333516" lon="-74.74048507">
<time>2014-05-18T21:54:28Z</time>
</trkpt>
      <trkpt lat="10.96310365" lon="-74.74073076">
<time>2014-05-18T21:54:30Z</time>
</trkpt>
      <trkpt lat="10.96292782" lon="-74.74092579">
<time>2014-05-18T21:54:32Z</time>
</trkpt>
      <trkpt lat="10.96280456" lon="-74.74106216">
<time>2014-05-18T21:54:34Z</time>
</trkpt>
      <trkpt lat="10.96270776" lon="-74.74115729">
<time>2014-05-18T21:54:36Z</time>
</trkpt>
      <trkpt lat="10.96262991" lon="-74.74123490">
<time>2014-05-18T21:54:38Z</time>
</trkpt>
      <trkpt lat="10.96258724" lon="-74.74127316">
<time>2014-05-18T21:54:40Z</time>
</trkpt>
      <trkpt lat="10.96253693" lon="-74.74132025">
<time>2014-05-18T21:54:42Z</time>
</trkpt>
      <trkpt lat="10.96245325" lon="-74.74140608">
<time>2014-05-18T21:54:44Z</time>
</trkpt>
      <trkpt lat="10.96235764" lon="-74.74148881">
<time>2014-05-18T21:54:46Z</time>
</trkpt>
      <trkpt lat="10.96228623" lon="-74.74155879">
<time>2014-05-18T21:54:48Z</time>
</trkpt>
      <trkpt lat="10.96219409" lon="-74.74165666">
<time>2014-05-18T21:54:50Z</time>
</trkpt>
      <trkpt lat="10.96205842" lon="-74.74180257">
<time>2014-05-18T21:54:52Z</time>
</trkpt>
      <trkpt lat="10.96188343" lon="-74.74198830">
<time>2014-05-18T21:54:54Z</time>
</trkpt>
      <trkpt lat="10.96168232" lon="-74.74219966">
<time>2014-05-18T21:54:56Z</time>
</trkpt>
      <trkpt lat="10.96148145" lon="-74.74240708">
<time>2014-05-18T21:54:58Z</time>
</trkpt>
      <trkpt lat="10.96127081" lon="-74.74261832">
<time>2014-05-18T21:55:00Z</time>
</trkpt>
      <trkpt lat="10.96105242" lon="-74.74283612">
<time>2014-05-18T21:55:02Z</time>
</trkpt>
      <trkpt lat="10.96081924" lon="-74.74307632">
<time>2014-05-18T21:55:04Z</time>
</trkpt>
      <trkpt lat="10.96056712" lon="-74.74335110">
<time>2014-05-18T21:55:06Z</time>
</trkpt>
      <trkpt lat="10.96028411" lon="-74.74365699">
<time>2014-05-18T21:55:08Z</time>
</trkpt>
      <trkpt lat="10.95998228" lon="-74.74394810">
<time>2014-05-18T21:55:10Z</time>
</trkpt>
      <trkpt lat="10.95965612" lon="-74.74420762">
<time>2014-05-18T21:55:12Z</time>
</trkpt>
      <trkpt lat="10.95928824" lon="-74.74445510">
<time>2014-05-18T21:55:14Z</time>
</trkpt>
      <trkpt lat="10.95888579" lon="-74.74468160">
<time>2014-05-18T21:55:16Z</time>
</trkpt>
      <trkpt lat="10.95845044" lon="-74.74488664">
<time>2014-05-18T21:55:18Z</time>
</trkpt>
      <trkpt lat="10.95799863" lon="-74.74507916">
<time>2014-05-18T21:55:20Z</time>
</trkpt>
      <trkpt lat="10.95753765" lon="-74.74527109">
<time>2014-05-18T21:55:22Z</time>
</trkpt>
      <trkpt lat="10.95706296" lon="-74.74546289">
<time>2014-05-18T21:55:24Z</time>
</trkpt>
      <trkpt lat="10.95658755" lon="-74.74565983">
<time>2014-05-18T21:55:26Z</time>
</trkpt>
      <trkpt lat="10.95614064" lon="-74.74584758">
<time>2014-05-18T21:55:28Z</time>
</trkpt>
      <trkpt lat="10.95573032" lon="-74.74601471">
<time>2014-05-18T21:55:30Z</time>
</trkpt>
      <trkpt lat="10.95535994" lon="-74.74617648">
<time>2014-05-18T21:55:32Z</time>
</trkpt>
      <trkpt lat="10.95501173" lon="-74.74634790">
<time>2014-05-18T21:55:34Z</time>
</trkpt>
      <trkpt lat="10.95468140" lon="-74.74654162">
<time>2014-05-18T21:55:36Z</time>
</trkpt>
      <trkpt lat="10.95437896" lon="-74.74674523">
<time>2014-05-18T21:55:38Z</time>
</trkpt>
      <trkpt lat="10.95409238" lon="-74.74697864">
<time>2014-05-18T21:55:40Z</time>
</trkpt>
      <trkpt lat="10.95384192" lon="-74.74722266">
<time>2014-05-18T21:55:42Z</time>
</trkpt>
      <trkpt lat="10.95360398" lon="-74.74748361">
<time>2014-05-18T21:55:44Z</time>
</trkpt>
      <trkpt lat="10.95338166" lon="-74.74776828">
<time>2014-05-18T21:55:46Z</time>
</trkpt>
      <trkpt lat="10.95316362" lon="-74.74807727">
<time>2014-05-18T21:55:48Z</time>
</trkpt>
      <trkpt lat="10.95298731" lon="-74.74837947">
<time>2014-05-18T21:55:50Z</time>
</trkpt>
      <trkpt lat="10.95282114" lon="-74.74866629">
<time>2014-05-18T21:55:52Z</time>
</trkpt>
      <trkpt lat="10.95267606" lon="-74.74894655">
<time>2014-05-18T21:55:54Z</time>
</trkpt>
      <trkpt lat="10.95252633" lon="-74.74920726">
<time>2014-05-18T21:55:56Z</time>
</trkpt>
      <trkpt lat="10.95239544" lon="-74.74944830">
<time>2014-05-18T21:55:58Z</time>
</trkpt>
      <trkpt lat="10.95226157" lon="-74.74967456">
<time>2014-05-18T21:56:00Z</time>
</trkpt>
      <trkpt lat="10.95211983" lon="-74.74990797">
<time>2014-05-18T21:56:02Z</time>
</trkpt>
      <trkpt lat="10.95197225" lon="-74.75016141">
<time>2014-05-18T21:56:04Z</time>
</trkpt>
      <trkpt lat="10.95182478" lon="-74.75041533">
<time>2014-05-18T21:56:06Z</time>
</trkpt>
      <trkpt lat="10.95167410" lon="-74.75067294">
<time>2014-05-18T21:56:08Z</time>
</trkpt>
      <trkpt lat="10.95152211" lon="-74.75092089">
<time>2014-05-18T21:56:10Z</time>
</trkpt>
      <trkpt lat="10.95137608" lon="-74.75118208">
<time>2014-05-18T21:56:12Z</time>
</trkpt>
      <trkpt lat="10.95124078" lon="-74.75146532">
<time>2014-05-18T21:56:14Z</time>
</trkpt>
      <trkpt lat="10.95111406" lon="-74.75176525">
<time>2014-05-18T21:56:16Z</time>
</trkpt>
      <trkpt lat="10.95099878" lon="-74.75209308">
<time>2014-05-18T21:56:18Z</time>
</trkpt>
      <trkpt lat="10.95090866" lon="-74.75242090">
<time>2014-05-18T21:56:20Z</time>
</trkpt>
      <trkpt lat="10.95084572" lon="-74.75273359">
<time>2014-05-18T21:56:22Z</time>
</trkpt>
      <trkpt lat="10.95080483" lon="-74.75299990">
<time>2014-05-18T21:56:24Z</time>
</trkpt>
      <trkpt lat="10.95079005" lon="-74.75323749">
<time>2014-05-18T21:56:26Z</time>
</trkpt>
      <trkpt lat="10.95077240" lon="-74.75348258">
<time>2014-05-18T21:56:28Z</time>
</trkpt>
      <trkpt lat="10.95076060" lon="-74.75378776">
<time>2014-05-18T21:56:30Z</time>
</trkpt>
      <trkpt lat="10.95076680" lon="-74.75410616">
<time>2014-05-18T21:56:32Z</time>
</trkpt>
      <trkpt lat="10.95077062" lon="-74.75441027">
<time>2014-05-18T21:56:34Z</time>
</trkpt>
      <trkpt lat="10.95077348" lon="-74.75469446">
<time>2014-05-18T21:56:36Z</time>
</trkpt>
      <trkpt lat="10.95077622" lon="-74.75496006">
<time>2014-05-18T21:56:38Z</time>
</trkpt>
      <trkpt lat="10.95077145" lon="-74.75524294">
<time>2014-05-18T21:56:40Z</time>
</trkpt>
      <trkpt lat="10.95076597" lon="-74.75555372">
<time>2014-05-18T21:56:42Z</time>
</trkpt>
      <trkpt lat="10.95076013" lon="-74.75585544">
<time>2014-05-18T21:56:44Z</time>
</trkpt>
      <trkpt lat="10.95076156" lon="-74.75610733">
<time>2014-05-18T21:56:46Z</time>
</trkpt>
      <trkpt lat="10.95075440" lon="-74.75630915">
<time>2014-05-18T21:56:48Z</time>
</trkpt>
      <trkpt lat="10.95074666" lon="-74.75648332">
<time>2014-05-18T21:56:50Z</time>
</trkpt>
      <trkpt lat="10.95073640" lon="-74.75664043">
<time>2014-05-18T21:56:52Z</time>
</trkpt>
      <trkpt lat="10.95073617" lon="-74.75679731">
<time>2014-05-18T21:56:54Z</time>
</trkpt>
      <trkpt lat="10.95073760" lon="-74.75696683">
<time>2014-05-18T21:56:56Z</time>
</trkpt>
      <trkpt lat="10.95073581" lon="-74.75714064">
<time>2014-05-18T21:56:58Z</time>
</trkpt>
      <trkpt lat="10.95073748" lon="-74.75731277">
<time>2014-05-18T21:57:00Z</time>
</trkpt>
      <trkpt lat="10.95073330" lon="-74.75750422">
<time>2014-05-18T21:57:02Z</time>
</trkpt>
      <trkpt lat="10.95073056" lon="-74.75771773">
<time>2014-05-18T21:57:04Z</time>
</trkpt>
      <trkpt lat="10.95072758" lon="-74.75795496">
<time>2014-05-18T21:57:06Z</time>
</trkpt>
      <trkpt lat="10.95072246" lon="-74.75821507">
<time>2014-05-18T21:57:08Z</time>
</trkpt>
      <trkpt lat="10.95072198" lon="-74.75848114">
<time>2014-05-18T21:57:10Z</time>
</trkpt>
      <trkpt lat="10.95071089" lon="-74.75873327">
<time>2014-05-18T21:57:12Z</time>
</trkpt>
      <trkpt lat="10.95070660" lon="-74.75897598">
<time>2014-05-18T21:57:14Z</time>
</trkpt>
      <trkpt lat="10.95070207" lon="-74.75919712">
<time>2014-05-18T21:57:16Z</time>
</trkpt>
      <trkpt lat="10.95070732" lon="-74.75937855">
<time>2014-05-18T21:57:18Z</time>
</trkpt>
      <trkpt lat="10.95070183" lon="-74.75955725">
<time>2014-05-18T21:57:20Z</time>
</trkpt>
      <trkpt lat="10.95070148" lon="-74.75973463">
<time>2014-05-18T21:57:22Z</time>
</trkpt>
      <trkpt lat="10.95069766" lon="-74.75991929">
<time>2014-05-18T21:57:24Z</time>
</trkpt>
      <trkpt lat="10.95069659" lon="-74.76012731">
<time>2014-05-18T21:57:26Z</time>
</trkpt>
      <trkpt lat="10.95068693" lon="-74.76035666">
<time>2014-05-18T21:57:28Z</time>
</trkpt>
      <trkpt lat="10.95068407" lon="-74.76059914">
<time>2014-05-18T21:57:30Z</time>
</trkpt>
      <trkpt lat="10.95067680" lon="-74.76086056">
<time>2014-05-18T21:57:32Z</time>
</trkpt>
      <trkpt lat="10.95066595" lon="-74.76112497">
<time>2014-05-18T21:57:34Z</time>
</trkpt>
      <trkpt lat="10.95066249" lon="-74.76137972">
<time>2014-05-18T21:57:36Z</time>
</trkpt>
      <trkpt lat="10.95065522" lon="-74.76163340">
<time>2014-05-18T21:57:38Z</time>
</trkpt>
      <trkpt lat="10.95064926" lon="-74.76187408">
<time>2014-05-18T21:57:40Z</time>
</trkpt>
      <trkpt lat="10.95065129" lon="-74.76210010">
<time>2014-05-18T21:57:42Z</time>
</trkpt>
      <trkpt lat="10.95065165" lon="-74.76232708">
<time>2014-05-18T21:57:44Z</time>
</trkpt>
      <trkpt lat="10.95064294" lon="-74.76255250">
<time>2014-05-18T21:57:46Z</time>
</trkpt>
      <trkpt lat="10.95064259" lon="-74.76276922">
<time>2014-05-18T21:57:48Z</time>
</trkpt>
      <trkpt lat="10.95064676" lon="-74.76299989">
<time>2014-05-18T21:57:50Z</time>
</trkpt>
      <trkpt lat="10.95065677" lon="-74.76323664">
<time>2014-05-18T21:57:52Z</time>
</trkpt>
      <trkpt lat="10.95068240" lon="-74.76347864">
<time>2014-05-18T21:57:54Z</time>
</trkpt>
      <trkpt lat="10.95070481" lon="-74.76373291">
<time>2014-05-18T21:57:56Z</time>
</trkpt>
      <trkpt lat="10.95073283" lon="-74.76400530">
<time>2014-05-18T21:57:58Z</time>
</trkpt>
      <trkpt lat="10.95076966" lon="-74.76429558">
<time>2014-05-18T21:58:00Z</time>
</trkpt>
      <trkpt lat="10.95080161" lon="-74.76459563">
<time>2014-05-18T21:58:02Z</time>
</trkpt>
      <trkpt lat="10.95084107" lon="-74.76492357">
<time>2014-05-18T21:58:04Z</time>
</trkpt>
      <trkpt lat="10.95088232" lon="-74.76525629">
<time>2014-05-18T21:58:06Z</time>
</trkpt>
      <trkpt lat="10.95091259" lon="-74.76560295">
<time>2014-05-18T21:58:08Z</time>
</trkpt>
      <trkpt lat="10.95091891" lon="-74.76593733">
<time>2014-05-18T21:58:10Z</time>
</trkpt>
      <trkpt lat="10.95088995" lon="-74.76626325">
<time>2014-05-18T21:58:12Z</time>
</trkpt>
      <trkpt lat="10.95083928" lon="-74.76656711">
<time>2014-05-18T21:58:14Z</time>
</trkpt>
      <trkpt lat="10.95077527" lon="-74.76685250">
<time>2014-05-18T21:58:16Z</time>
</trkpt>
      <trkpt lat="10.95071566" lon="-74.76709747">
<time>2014-05-18T21:58:18Z</time>
</trkpt>
      <trkpt lat="10.95064926" lon="-74.76730525">
<time>2014-05-18T21:58:20Z</time>
</trkpt>
      <trkpt lat="10.95057607" lon="-74.76750779">
<time>2014-05-18T21:58:22Z</time>
</trkpt>
      <trkpt lat="10.95051229" lon="-74.76769233">
<time>2014-05-18T21:58:24Z</time>
</trkpt>
      <trkpt lat="10.95045173" lon="-74.76787066">
<time>2014-05-18T21:58:26Z</time>
</trkpt>
      <trkpt lat="10.95039546" lon="-74.76803160">
<time>2014-05-18T21:58:28Z</time>
</trkpt>
      <trkpt lat="10.95034158" lon="-74.76817274">
<time>2014-05-18T21:58:30Z</time>
</trkpt>
      <trkpt lat="10.95030081" lon="-74.76828957">
<time>2014-05-18T21:58:32Z</time>
</trkpt>
      <trkpt lat="10.95026982" lon="-74.76838398">
<time>2014-05-18T21:58:34Z</time>
</trkpt>
      <trkpt lat="10.95023859" lon="-74.76847112">
<time>2014-05-18T21:58:36Z</time>
</trkpt>
      <trkpt lat="10.95020139" lon="-74.76858675">
<time>2014-05-18T21:58:38Z</time>
</trkpt>
      <trkpt lat="10.95015860" lon="-74.76872396">
<time>2014-05-18T21:58:40Z</time>
</trkpt>
      <trkpt lat="10.95012093" lon="-74.76884007">
<time>2014-05-18T21:58:42Z</time>
</trkpt>
      <trkpt lat="10.95009542" lon="-74.76895714">
<time>2014-05-18T21:58:44Z</time>
</trkpt>
      <trkpt lat="10.95006764" lon="-74.76908457">
<time>2014-05-18T21:58:46Z</time>
</trkpt>
      <trkpt lat="10.95003712" lon="-74.76921439">
<time>2014-05-18T21:58:48Z</time>
</trkpt>
      <trkpt lat="10.94999206" lon="-74.76934695">
<time>2014-05-18T21:58:50Z</time>
</trkpt>
      <trkpt lat="10.94994700" lon="-74.76946664">
<time>2014-05-18T21:58:52Z</time>
</trkpt>
      <trkpt lat="10.94990695" lon="-74.76957250">
<time>2014-05-18T21:58:54Z</time>
</trkpt>
      <trkpt lat="10.94986176" lon="-74.76968026">
<time>2014-05-18T21:58:56Z</time>
</trkpt>
      <trkpt lat="10.94983041" lon="-74.76979196">
<time>2014-05-18T21:58:58Z</time>
</trkpt>
      <trkpt lat="10.94979095" lon="-74.76989591">
<time>2014-05-18T21:59:00Z</time>
</trkpt>
      <trkpt lat="10.94977963" lon="-74.77000546">
<time>2014-05-18T21:59:02Z</time>
</trkpt>
      <trkpt lat="10.94974196" lon="-74.77013445">
<time>2014-05-18T21:59:04Z</time>
</trkpt>
      <trkpt lat="10.94970965" lon="-74.77028441">
<time>2014-05-18T21:59:06Z</time>
</trkpt>
      <trkpt lat="10.94966328" lon="-74.77045572">
<time>2014-05-18T21:59:08Z</time>
</trkpt>
      <trkpt lat="10.94960272" lon="-74.77065146">
<time>2014-05-18T21:59:10Z</time>
</trkpt>
      <trkpt lat="10.94953156" lon="-74.77088976">
<time>2014-05-18T21:59:12Z</time>
</trkpt>
      <trkpt lat="10.94944644" lon="-74.77116072">
<time>2014-05-18T21:59:14Z</time>
</trkpt>
      <trkpt lat="10.94936633" lon="-74.77141893">
<time>2014-05-18T21:59:16Z</time>
</trkpt>
      <trkpt lat="10.94931114" lon="-74.77166033">
<time>2014-05-18T21:59:18Z</time>
</trkpt>
      <trkpt lat="10.94929099" lon="-74.77187562">
<time>2014-05-18T21:59:20Z</time>
</trkpt>
      <trkpt lat="10.94929397" lon="-74.77206993">
<time>2014-05-18T21:59:22Z</time>
</trkpt>
      <trkpt lat="10.94932711" lon="-74.77227056">
<time>2014-05-18T21:59:24Z</time>
</trkpt>
      <trkpt lat="10.94937062" lon="-74.77246106">
<time>2014-05-18T21:59:26Z</time>
</trkpt>
      <trkpt lat="10.94941545" lon="-74.77263975">
<time>2014-05-18T21:59:28Z</time>
</trkpt>
      <trkpt lat="10.94945896" lon="-74.77281260">
<time>2014-05-18T21:59:30Z</time>
</trkpt>
      <trkpt lat="10.94949877" lon="-74.77293241">
<time>2014-05-18T21:59:32Z</time>
</trkpt>
      <trkpt lat="10.94952548" lon="-74.77301300">
<time>2014-05-18T21:59:34Z</time>
</trkpt>
      <trkpt lat="10.94955015" lon="-74.77305591">
<time>2014-05-18T21:59:36Z</time>
</trkpt>
      <trkpt lat="10.94957078" lon="-74.77308011">
<time>2014-05-18T21:59:38Z</time>
</trkpt>
      <trkpt lat="10.94958758" lon="-74.77312148">
<time>2014-05-18T21:59:40Z</time>
</trkpt>
      <trkpt lat="10.94961643" lon="-74.77318823">
<time>2014-05-18T21:59:42Z</time>
</trkpt>
      <trkpt lat="10.94965911" lon="-74.77327061">
<time>2014-05-18T21:59:44Z</time>
</trkpt>
      <trkpt lat="10.94971526" lon="-74.77337956">
<time>2014-05-18T21:59:46Z</time>
</trkpt>
      <trkpt lat="10.94977272" lon="-74.77352226">
<time>2014-05-18T21:59:48Z</time>
</trkpt>
      <trkpt lat="10.94980383" lon="-74.77368426">
<time>2014-05-18T21:59:50Z</time>
</trkpt>
      <trkpt lat="10.94975960" lon="-74.77383530">
<time>2014-05-18T21:59:52Z</time>
</trkpt>
      <trkpt lat="10.94968593" lon="-74.77396393">
<time>2014-05-18T21:59:54Z</time>
</trkpt>
      <trkpt lat="10.94961655" lon="-74.77405357">
<time>2014-05-18T21:59:56Z</time>
</trkpt>
      <trkpt lat="10.94955683" lon="-74.77411497">
<time>2014-05-18T21:59:58Z</time>
</trkpt>
      <trkpt lat="10.94950974" lon="-74.77418411">
<time>2014-05-18T22:00:00Z</time>
</trkpt>
      <trkpt lat="10.94945610" lon="-74.77426183">
<time>2014-05-18T22:00:02Z</time>
</trkpt>
      <trkpt lat="10.94939673" lon="-74.77434349">
<time>2014-05-18T22:00:04Z</time>
</trkpt>
      <trkpt lat="10.94932508" lon="-74.77444899">
<time>2014-05-18T22:00:06Z</time>
</trkpt>
      <trkpt lat="10.94926322" lon="-74.77456355">
<time>2014-05-18T22:00:08Z</time>
</trkpt>
      <trkpt lat="10.94920111" lon="-74.77469027">
<time>2014-05-18T22:00:10Z</time>
</trkpt>
      <trkpt lat="10.94912827" lon="-74.77480793">
<time>2014-05-18T22:00:12Z</time>
</trkpt>
      <trkpt lat="10.94902349" lon="-74.77491641">
<time>2014-05-18T22:00:14Z</time>
</trkpt>
      <trkpt lat="10.94889927" lon="-74.77500045">
<time>2014-05-18T22:00:16Z</time>
</trkpt>
      <trkpt lat="10.94875813" lon="-74.77507615">
<time>2014-05-18T22:00:18Z</time>
</trkpt>
      <trkpt lat="10.94859457" lon="-74.77514577">
<time>2014-05-18T22:00:20Z</time>
</trkpt>
      <trkpt lat="10.94841993" lon="-74.77521563">
<time>2014-05-18T22:00:22Z</time>
</trkpt>
      <trkpt lat="10.94823027" lon="-74.77530038">
<time>2014-05-18T22:00:24Z</time>
</trkpt>
      <trkpt lat="10.94801772" lon="-74.77540326">
<time>2014-05-18T22:00:26Z</time>
</trkpt>
      <trkpt lat="10.94780874" lon="-74.77549458">
<time>2014-05-18T22:00:28Z</time>
</trkpt>
      <trkpt lat="10.94762659" lon="-74.77558064">
<time>2014-05-18T22:00:30Z</time>
</trkpt>
      <trkpt lat="10.94746089" lon="-74.77564824">
<time>2014-05-18T22:00:32Z</time>
</trkpt>
      <trkpt lat="10.94730294" lon="-74.77570713">
<time>2014-05-18T22:00:34Z</time>
</trkpt>
      <trkpt lat="10.94714105" lon="-74.77577555">
<time>2014-05-18T22:00:36Z</time>
</trkpt>
      <trkpt lat="10.94698727" lon="-74.77584922">
<time>2014-05-18T22:00:38Z</time>
</trkpt>
      <trkpt lat="10.94686592" lon="-74.77590263">
<time>2014-05-18T22:00:40Z</time>
</trkpt>
      <trkpt lat="10.94674766" lon="-74.77596176">
<time>2014-05-18T22:00:42Z</time>
</trkpt>
      <trkpt lat="10.94661582" lon="-74.77602458">
<time>2014-05-18T22:00:44Z</time>
</trkpt>
      <trkpt lat="10.94648111" lon="-74.77608407">
<time>2014-05-18T22:00:46Z</time>
</trkpt>
      <trkpt lat="10.94635832" lon="-74.77613878">
<time>2014-05-18T22:00:48Z</time>
</trkpt>
      <trkpt lat="10.94625115" lon="-74.77618706">
<time>2014-05-18T22:00:50Z</time>
</trkpt>
      <trkpt lat="10.94615495" lon="-74.77621460">
<time>2014-05-18T22:00:52Z</time>
</trkpt>
      <trkpt lat="10.94607449" lon="-74.77625096">
<time>2014-05-18T22:00:54Z</time>
</trkpt>
      <trkpt lat="10.94597876" lon="-74.77629232">
<time>2014-05-18T22:00:56Z</time>
</trkpt>
      <trkpt lat="10.94584477" lon="-74.77633607">
<time>2014-05-18T22:00:58Z</time>
</trkpt>
      <trkpt lat="10.94569457" lon="-74.77639866">
<time>2014-05-18T22:01:00Z</time>
</trkpt>
      <trkpt lat="10.94552195" lon="-74.77646899">
<time>2014-05-18T22:01:02Z</time>
</trkpt>
      <trkpt lat="10.94533682" lon="-74.77654779">
<time>2014-05-18T22:01:04Z</time>
</trkpt>
      <trkpt lat="10.94516563" lon="-74.77661860">
<time>2014-05-18T22:01:06Z</time>
</trkpt>
      <trkpt lat="10.94498646" lon="-74.77668571">
<time>2014-05-18T22:01:08Z</time>
</trkpt>
      <trkpt lat="10.94480145" lon="-74.77676058">
<time>2014-05-18T22:01:10Z</time>
</trkpt>
      <trkpt lat="10.94461012" lon="-74.77684259">
<time>2014-05-18T22:01:12Z</time>
</trkpt>
      <trkpt lat="10.94441497" lon="-74.77692926">
<time>2014-05-18T22:01:14Z</time>
</trkpt>
      <trkpt lat="10.94420779" lon="-74.77702999">
<time>2014-05-18T22:01:16Z</time>
</trkpt>
      <trkpt lat="10.94399798" lon="-74.77712178">
<time>2014-05-18T22:01:18Z</time>
</trkpt>
      <trkpt lat="10.94378424" lon="-74.77720523">
<time>2014-05-18T22:01:20Z</time>
</trkpt>
      <trkpt lat="10.94357133" lon="-74.77728295">
<time>2014-05-18T22:01:22Z</time>
</trkpt>
      <trkpt lat="10.94340599" lon="-74.77735674">
<time>2014-05-18T22:01:24Z</time>
</trkpt>
      <trkpt lat="10.94327080" lon="-74.77741706">
<time>2014-05-18T22:01:26Z</time>
</trkpt>
      <trkpt lat="10.94312310" lon="-74.77749217">
<time>2014-05-18T22:01:28Z</time>
</trkpt>
      <trkpt lat="10.94296098" lon="-74.77757442">
<time>2014-05-18T22:01:30Z</time>
</trkpt>
      <trkpt lat="10.94279647" lon="-74.77764356">
<time>2014-05-18T22:01:32Z</time>
</trkpt>
      <trkpt lat="10.94265175" lon="-74.77770662">
<time>2014-05-18T22:01:34Z</time>
</trkpt>
      <trkpt lat="10.94252825" lon="-74.77775574">
<time>2014-05-18T22:01:36Z</time>
</trkpt>
      <trkpt lat="10.94240379" lon="-74.77780032">
<time>2014-05-18T22:01:38Z</time>
</trkpt>
      <trkpt lat="10.94227648" lon="-74.77785265">
<time>2014-05-18T22:01:40Z</time>
</trkpt>
      <trkpt lat="10.94215262" lon="-74.77791631">
<time>2014-05-18T22:01:42Z</time>
</trkpt>
      <trkpt lat="10.94203758" lon="-74.77797532">
<time>2014-05-18T22:01:44Z</time>
</trkpt>
      <trkpt lat="10.94192672" lon="-74.77801478">
<time>2014-05-18T22:01:46Z</time>
</trkpt>
      <trkpt lat="10.94182312" lon="-74.77805197">
<time>2014-05-18T22:01:48Z</time>
</trkpt>
      <trkpt lat="10.94172394" lon="-74.77808273">
<time>2014-05-18T22:01:50Z</time>
</trkpt>
      <trkpt lat="10.94161773" lon="-74.77812731">
<time>2014-05-18T22:01:52Z</time>
</trkpt>
      <trkpt lat="10.94148922" lon="-74.77817643">
<time>2014-05-18T22:01:54Z</time>
</trkpt>
      <trkpt lat="10.94134247" lon="-74.77824378">
<time>2014-05-18T22:01:56Z</time>
</trkpt>
      <trkpt lat="10.94117677" lon="-74.77829623">
<time>2014-05-18T22:01:58Z</time>
</trkpt>
      <trkpt lat="10.94100797" lon="-74.77836859">
<time>2014-05-18T22:02:00Z</time>
</trkpt>
      <trkpt lat="10.94081998" lon="-74.77844989">
<time>2014-05-18T22:02:02Z</time>
</trkpt>
      <trkpt lat="10.94061422" lon="-74.77853477">
<time>2014-05-18T22:02:04Z</time>
</trkpt>
      <trkpt lat="10.94040644" lon="-74.77862465">
<time>2014-05-18T22:02:06Z</time>
</trkpt>
      <trkpt lat="10.94020939" lon="-74.77871192">
<time>2014-05-18T22:02:08Z</time>
</trkpt>
      <trkpt lat="10.94001281" lon="-74.77879167">
<time>2014-05-18T22:02:10Z</time>
</trkpt>
      <trkpt lat="10.93981707" lon="-74.77888143">
<time>2014-05-18T22:02:12Z</time>
</trkpt>
      <trkpt lat="10.93963206" lon="-74.77896190">
<time>2014-05-18T22:02:14Z</time>
</trkpt>
      <trkpt lat="10.93945909" lon="-74.77902091">
<time>2014-05-18T22:02:16Z</time>
</trkpt>
      <trkpt lat="10.93929398" lon="-74.77909076">
<time>2014-05-18T22:02:18Z</time>
</trkpt>
      <trkpt lat="10.93912423" lon="-74.77916908">
<time>2014-05-18T22:02:20Z</time>
</trkpt>
      <trkpt lat="10.93896556" lon="-74.77924633">
<time>2014-05-18T22:02:22Z</time>
</trkpt>
      <trkpt lat="10.93880606" lon="-74.77930307">
<time>2014-05-18T22:02:24Z</time>
</trkpt>
      <trkpt lat="10.93864429" lon="-74.77937591">
<time>2014-05-18T22:02:26Z</time>
</trkpt>
      <trkpt lat="10.93847406" lon="-74.77945316">
<time>2014-05-18T22:02:28Z</time>
</trkpt>
      <trkpt lat="10.93829513" lon="-74.77954340">
<time>2014-05-18T22:02:30Z</time>
</trkpt>
      <trkpt lat="10.93810749" lon="-74.77963459">
<time>2014-05-18T22:02:32Z</time>
</trkpt>
      <trkpt lat="10.93792129" lon="-74.77972090">
<time>2014-05-18T22:02:34Z</time>
</trkpt>
      <trkpt lat="10.93773282" lon="-74.77980280">
<time>2014-05-18T22:02:36Z</time>
</trkpt>
      <trkpt lat="10.93754590" lon="-74.77990448">
<time>2014-05-18T22:02:38Z</time>
</trkpt>
      <trkpt lat="10.93736529" lon="-74.77998281">
<time>2014-05-18T22:02:40Z</time>
</trkpt>
      <trkpt lat="10.93717456" lon="-74.78006780">
<time>2014-05-18T22:02:42Z</time>
</trkpt>
      <trkpt lat="10.93697429" lon="-74.78014946">
<time>2014-05-18T22:02:44Z</time>
</trkpt>
      <trkpt lat="10.93676698" lon="-74.78022993">
<time>2014-05-18T22:02:46Z</time>
</trkpt>
      <trkpt lat="10.93658257" lon="-74.78032494">
<time>2014-05-18T22:02:48Z</time>
</trkpt>
      <trkpt lat="10.93639660" lon="-74.78040516">
<time>2014-05-18T22:02:50Z</time>
</trkpt>
      <trkpt lat="10.93621838" lon="-74.78046894">
<time>2014-05-18T22:02:52Z</time>
</trkpt>
      <trkpt lat="10.93606424" lon="-74.78053582">
<time>2014-05-18T22:02:54Z</time>
</trkpt>
      <trkpt lat="10.93591881" lon="-74.78058231">
<time>2014-05-18T22:02:56Z</time>
</trkpt>
      <trkpt lat="10.93575883" lon="-74.78060281">
<time>2014-05-18T22:02:58Z</time>
</trkpt>
      <trkpt lat="10.93559206" lon="-74.78060222">
<time>2014-05-18T22:03:00Z</time>
</trkpt>
      <trkpt lat="10.93542349" lon="-74.78058898">
<time>2014-05-18T22:03:02Z</time>
</trkpt>
      <trkpt lat="10.93524289" lon="-74.78058743">
<time>2014-05-18T22:03:04Z</time>
</trkpt>
      <trkpt lat="10.93505025" lon="-74.78060329">
<time>2014-05-18T22:03:06Z</time>
</trkpt>
      <trkpt lat="10.93484044" lon="-74.78064358">
<time>2014-05-18T22:03:08Z</time>
</trkpt>
      <trkpt lat="10.93463266" lon="-74.78067660">
<time>2014-05-18T22:03:10Z</time>
</trkpt>
      <trkpt lat="10.93439460" lon="-74.78073490">
<time>2014-05-18T22:03:12Z</time>
</trkpt>
      <trkpt lat="10.93414629" lon="-74.78079963">
<time>2014-05-18T22:03:14Z</time>
</trkpt>
      <trkpt lat="10.93390000" lon="-74.78085589">
<time>2014-05-18T22:03:16Z</time>
</trkpt>
      <trkpt lat="10.93366289" lon="-74.78092408">
<time>2014-05-18T22:03:18Z</time>
</trkpt>
      <trkpt lat="10.93343258" lon="-74.78101647">
<time>2014-05-18T22:03:20Z</time>
</trkpt>
      <trkpt lat="10.93322563" lon="-74.78113341">
<time>2014-05-18T22:03:22Z</time>
</trkpt>
      <trkpt lat="10.93304598" lon="-74.78130376">
<time>2014-05-18T22:03:24Z</time>
</trkpt>
      <trkpt lat="10.93287313" lon="-74.78149772">
<time>2014-05-18T22:03:26Z</time>
</trkpt>
      <trkpt lat="10.93272626" lon="-74.78171659">
<time>2014-05-18T22:03:28Z</time>
</trkpt>
      <trkpt lat="10.93258059" lon="-74.78192556">
<time>2014-05-18T22:03:30Z</time>
</trkpt>
      <trkpt lat="10.93242013" lon="-74.78213847">
<time>2014-05-18T22:03:32Z</time>
</trkpt>
      <trkpt lat="10.93225491" lon="-74.78235841">
<time>2014-05-18T22:03:34Z</time>
</trkpt>
      <trkpt lat="10.93210757" lon="-74.78256357">
<time>2014-05-18T22:03:36Z</time>
</trkpt>
      <trkpt lat="10.93200374" lon="-74.78273690">
<time>2014-05-18T22:03:38Z</time>
</trkpt>
      <trkpt lat="10.93196833" lon="-74.78289139">
<time>2014-05-18T22:03:40Z</time>
</trkpt>
      <trkpt lat="10.93198609" lon="-74.78303993">
<time>2014-05-18T22:03:42Z</time>
</trkpt>
      <trkpt lat="10.93201208" lon="-74.78318596">
<time>2014-05-18T22:03:44Z</time>
</trkpt>
      <trkpt lat="10.93204260" lon="-74.78330863">
<time>2014-05-18T22:03:46Z</time>
</trkpt>
      <trkpt lat="10.93204522" lon="-74.78344607">
<time>2014-05-18T22:03:48Z</time>
</trkpt>
      <trkpt lat="10.93200743" lon="-74.78359091">
<time>2014-05-18T22:03:50Z</time>
</trkpt>
      <trkpt lat="10.93191814" lon="-74.78372705">
<time>2014-05-18T22:03:52Z</time>
</trkpt>
      <trkpt lat="10.93178427" lon="-74.78382528">
<time>2014-05-18T22:03:54Z</time>
</trkpt>
      <trkpt lat="10.93161547" lon="-74.78386581">
<time>2014-05-18T22:03:56Z</time>
</trkpt>
      <trkpt lat="10.93144143" lon="-74.78385055">
<time>2014-05-18T22:03:58Z</time>
</trkpt>
      <trkpt lat="10.93126094" lon="-74.78380990">
<time>2014-05-18T22:04:00Z</time>
</trkpt>
      <trkpt lat="10.93109679" lon="-74.78377855">
<time>2014-05-18T22:04:02Z</time>
</trkpt>
      <trkpt lat="10.93094313" lon="-74.78380597">
<time>2014-05-18T22:04:04Z</time>
</trkpt>
      <trkpt lat="10.93078995" lon="-74.78390074">
<time>2014-05-18T22:04:06Z</time>
</trkpt>
      <trkpt lat="10.93062365" lon="-74.78405583">
<time>2014-05-18T22:04:08Z</time>
</trkpt>
      <trkpt lat="10.93042576" lon="-74.78426147">
<time>2014-05-18T22:04:10Z</time>
</trkpt>
      <trkpt lat="10.93019962" lon="-74.78449500">
<time>2014-05-18T22:04:12Z</time>
</trkpt>
      <trkpt lat="10.92998874" lon="-74.78470993">
<time>2014-05-18T22:04:14Z</time>
</trkpt>
      <trkpt lat="10.92978013" lon="-74.78492415">
<time>2014-05-18T22:04:16Z</time>
</trkpt>
      <trkpt lat="10.92956960" lon="-74.78517056">
<time>2014-05-18T22:04:18Z</time>
</trkpt>
      <trkpt lat="10.92931926" lon="-74.78544056">
<time>2014-05-18T22:04:20Z</time>
</trkpt>
      <trkpt lat="10.92906010" lon="-74.78571415">
<time>2014-05-18T22:04:22Z</time>
</trkpt>
      <trkpt lat="10.92880273" lon="-74.78598142">
<time>2014-05-18T22:04:24Z</time>
</trkpt>
      <trkpt lat="10.92855859" lon="-74.78623664">
<time>2014-05-18T22:04:26Z</time>
</trkpt>
      <trkpt lat="10.92832828" lon="-74.78648257">
<time>2014-05-18T22:04:28Z</time>
</trkpt>
      <trkpt lat="10.92808998" lon="-74.78672409">
<time>2014-05-18T22:04:30Z</time>
</trkpt>
      <trkpt lat="10.92786324" lon="-74.78697860">
<time>2014-05-18T22:04:32Z</time>
</trkpt>
      <trkpt lat="10.92762959" lon="-74.78722823">
<time>2014-05-18T22:04:34Z</time>
</trkpt>
      <trkpt lat="10.92739344" lon="-74.78748655">
<time>2014-05-18T22:04:36Z</time>
</trkpt>
      <trkpt lat="10.92716539" lon="-74.78777432">
<time>2014-05-18T22:04:38Z</time>
</trkpt>
      <trkpt lat="10.92693114" lon="-74.78807724">
<time>2014-05-18T22:04:40Z</time>
</trkpt>
      <trkpt lat="10.92669129" lon="-74.78839123">
<time>2014-05-18T22:04:42Z</time>
</trkpt>
      <trkpt lat="10.92645478" lon="-74.78870511">
<time>2014-05-18T22:04:44Z</time>
</trkpt>
      <trkpt lat="10.92622781" lon="-74.78902781">
<time>2014-05-18T22:04:46Z</time>
</trkpt>
      <trkpt lat="10.92602122" lon="-74.78936398">
<time>2014-05-18T22:04:48Z</time>
</trkpt>
      <trkpt lat="10.92581415" lon="-74.78970623">
<time>2014-05-18T22:04:50Z</time>
</trkpt>
      <trkpt lat="10.92561233" lon="-74.79005325">
<time>2014-05-18T22:04:52Z</time>
</trkpt>
      <trkpt lat="10.92542231" lon="-74.79040778">
<time>2014-05-18T22:04:54Z</time>
</trkpt>
      <trkpt lat="10.92524588" lon="-74.79075277">
<time>2014-05-18T22:04:56Z</time>
</trkpt>
      <trkpt lat="10.92510009" lon="-74.79108262">
<time>2014-05-18T22:04:58Z</time>
</trkpt>
      <trkpt lat="10.92497981" lon="-74.79140806">
<time>2014-05-18T22:05:00Z</time>
</trkpt>
      <trkpt lat="10.92487442" lon="-74.79168713">
<time>2014-05-18T22:05:02Z</time>
</trkpt>
      <trkpt lat="10.92478609" lon="-74.79191375">
<time>2014-05-18T22:05:04Z</time>
</trkpt>
      <trkpt lat="10.92471433" lon="-74.79211175">
<time>2014-05-18T22:05:06Z</time>
</trkpt>
      <trkpt lat="10.92466116" lon="-74.79226196">
<time>2014-05-18T22:05:08Z</time>
</trkpt>
      <trkpt lat="10.92461514" lon="-74.79238677">
<time>2014-05-18T22:05:10Z</time>
</trkpt>
      <trkpt lat="10.92457056" lon="-74.79249895">
<time>2014-05-18T22:05:12Z</time>
</trkpt>
      <trkpt lat="10.92454672" lon="-74.79257548">
<time>2014-05-18T22:05:14Z</time>
</trkpt>
      <trkpt lat="10.92452574" lon="-74.79264224">
<time>2014-05-18T22:05:16Z</time>
</trkpt>
      <trkpt lat="10.92450476" lon="-74.79269409">
<time>2014-05-18T22:05:18Z</time>
</trkpt>
      <trkpt lat="10.92448282" lon="-74.79272962">
<time>2014-05-18T22:05:20Z</time>
</trkpt>
      <trkpt lat="10.92446446" lon="-74.79278958">
<time>2014-05-18T22:05:22Z</time>
</trkpt>
      <trkpt lat="10.92444789" lon="-74.79283476">
<time>2014-05-18T22:05:24Z</time>
</trkpt>
      <trkpt lat="10.92443979" lon="-74.79287755">
<time>2014-05-18T22:05:26Z</time>
</trkpt>
      <trkpt lat="10.92443562" lon="-74.79292274">
<time>2014-05-18T22:05:28Z</time>
</trkpt>
      <trkpt lat="10.92443192" lon="-74.79294217">
<time>2014-05-18T22:05:30Z</time>
</trkpt>
      <trkpt lat="10.92443550" lon="-74.79294610">
<time>2014-05-18T22:05:32Z</time>
</trkpt>
      <trkpt lat="10.92443395" lon="-74.79294741">
<time>2014-05-18T22:05:34Z</time>
</trkpt>
      <trkpt lat="10.92443347" lon="-74.79294848">
<time>2014-05-18T22:05:36Z</time>
</trkpt>
      <trkpt lat="10.92443383" lon="-74.79294908">
<time>2014-05-18T22:05:38Z</time>
</trkpt>
      <trkpt lat="10.92443430" lon="-74.79294896">
<time>2014-05-18T22:05:40Z</time>
</trkpt>
      <trkpt lat="10.92443466" lon="-74.79294872">
<time>2014-05-18T22:05:42Z</time>
</trkpt>
      <trkpt lat="10.92443430" lon="-74.79294860">
<time>2014-05-18T22:05:44Z</time>
</trkpt>
      <trkpt lat="10.92443359" lon="-74.79294872">
<time>2014-05-18T22:05:46Z</time>
</trkpt>
      <trkpt lat="10.92443347" lon="-74.79294980">
<time>2014-05-18T22:05:48Z</time>
</trkpt>
      <trkpt lat="10.92443609" lon="-74.79295373">
<time>2014-05-18T22:05:50Z</time>
</trkpt>
      <trkpt lat="10.92443943" lon="-74.79296494">
<time>2014-05-18T22:05:52Z</time>
</trkpt>
      <trkpt lat="10.92444229" lon="-74.79297209">
<time>2014-05-18T22:05:54Z</time>
</trkpt>
      <trkpt lat="10.92444313" lon="-74.79297447">
<time>2014-05-18T22:05:56Z</time>
</trkpt>
      <trkpt lat="10.92444825" lon="-74.79304600">
<time>2014-05-18T22:05:58Z</time>
</trkpt>
      <trkpt lat="10.92444563" lon="-74.79315829">
<time>2014-05-18T22:06:00Z</time>
</trkpt>
      <trkpt lat="10.92445028" lon="-74.79327857">
<time>2014-05-18T22:06:02Z</time>
</trkpt>
      <trkpt lat="10.92444479" lon="-74.79340088">
<time>2014-05-18T22:06:04Z</time>
</trkpt>
      <trkpt lat="10.92441261" lon="-74.79352677">
<time>2014-05-18T22:06:06Z</time>
</trkpt>
      <trkpt lat="10.92437291" lon="-74.79363358">
<time>2014-05-18T22:06:08Z</time>
</trkpt>
      <trkpt lat="10.92435825" lon="-74.79371989">
<time>2014-05-18T22:06:10Z</time>
</trkpt>
      <trkpt lat="10.92433214" lon="-74.79382765">
<time>2014-05-18T22:06:12Z</time>
</trkpt>
      <trkpt lat="10.92432547" lon="-74.79389989">
<time>2014-05-18T22:06:14Z</time>
</trkpt>
      <trkpt lat="10.92431796" lon="-74.79396808">
<time>2014-05-18T22:06:16Z</time>
</trkpt>
      <trkpt lat="10.92429256" lon="-74.79407310">
<time>2014-05-18T22:06:18Z</time>
</trkpt>
      <trkpt lat="10.92427349" lon="-74.79416358">
<time>2014-05-18T22:06:20Z</time>
</trkpt>
      <trkpt lat="10.92427015" lon="-74.79424143">
<time>2014-05-18T22:06:22Z</time>
</trkpt>
      <trkpt lat="10.92425573" lon="-74.79431391">
<time>2014-05-18T22:06:24Z</time>
</trkpt>
      <trkpt lat="10.92424214" lon="-74.79442775">
<time>2014-05-18T22:06:26Z</time>
</trkpt>
      <trkpt lat="10.92421913" lon="-74.79456925">
<time>2014-05-18T22:06:28Z</time>
</trkpt>
      <trkpt lat="10.92418456" lon="-74.79469407">
<time>2014-05-18T22:06:30Z</time>
</trkpt>
      <trkpt lat="10.92413592" lon="-74.79481149">
<time>2014-05-18T22:06:32Z</time>
</trkpt>
      <trkpt lat="10.92413712" lon="-74.79490483">
<time>2014-05-18T22:06:34Z</time>
</trkpt>
      <trkpt lat="10.92412698" lon="-74.79495656">
<time>2014-05-18T22:06:36Z</time>
</trkpt>
      <trkpt lat="10.92411590" lon="-74.79497612">
<time>2014-05-18T22:06:38Z</time>
</trkpt>
      <trkpt lat="10.92410398" lon="-74.79499066">
<time>2014-05-18T22:06:40Z</time>
</trkpt>
      <trkpt lat="10.92410696" lon="-74.79502249">
<time>2014-05-18T22:06:42Z</time>
</trkpt>
      <trkpt lat="10.92410660" lon="-74.79506791">
<time>2014-05-18T22:06:44Z</time>
</trkpt>
      <trkpt lat="10.92410398" lon="-74.79511225">
<time>2014-05-18T22:06:46Z</time>
</trkpt>
      <trkpt lat="10.92408860" lon="-74.79513776">
<time>2014-05-18T22:06:48Z</time>
</trkpt>
      <trkpt lat="10.92409205" lon="-74.79515493">
<time>2014-05-18T22:06:50Z</time>
</trkpt>
      <trkpt lat="10.92408931" lon="-74.79518032">
<time>2014-05-18T22:06:52Z</time>
</trkpt>
      <trkpt lat="10.92409348" lon="-74.79519308">
<time>2014-05-18T22:06:54Z</time>
</trkpt>
      <trkpt lat="10.92409980" lon="-74.79520309">
<time>2014-05-18T22:06:56Z</time>
</trkpt>
      <trkpt lat="10.92407942" lon="-74.79523659">
<time>2014-05-18T22:06:58Z</time>
</trkpt>
      <trkpt lat="10.92406046" lon="-74.79527342">
<time>2014-05-18T22:07:00Z</time>
</trkpt>
      <trkpt lat="10.92404556" lon="-74.79528797">
<time>2014-05-18T22:07:02Z</time>
</trkpt>
      <trkpt lat="10.92405057" lon="-74.79530311">
<time>2014-05-18T22:07:04Z</time>
</trkpt>
      <trkpt lat="10.92404640" lon="-74.79532063">
<time>2014-05-18T22:07:06Z</time>
</trkpt>
      <trkpt lat="10.92403150" lon="-74.79534960">
<time>2014-05-18T22:07:08Z</time>
</trkpt>
      <trkpt lat="10.92400706" lon="-74.79537809">
<time>2014-05-18T22:07:10Z</time>
</trkpt>
      <trkpt lat="10.92399549" lon="-74.79541278">
<time>2014-05-18T22:07:12Z</time>
</trkpt>
      <trkpt lat="10.92398977" lon="-74.79542398">
<time>2014-05-18T22:07:14Z</time>
</trkpt>
      <trkpt lat="10.92398643" lon="-74.79542589">
<time>2014-05-18T22:07:16Z</time>
</trkpt>
      <trkpt lat="10.92398846" lon="-74.79542911">
<time>2014-05-18T22:07:18Z</time>
</trkpt>
      <trkpt lat="10.92398858" lon="-74.79542947">
<time>2014-05-18T22:07:20Z</time>
</trkpt>
      <trkpt lat="10.92398894" lon="-74.79542983">
<time>2014-05-18T22:07:22Z</time>
</trkpt>
      <trkpt lat="10.92397690" lon="-74.79544163">
<time>2014-05-18T22:07:24Z</time>
</trkpt>
      <trkpt lat="10.92397416" lon="-74.79544580">
<time>2014-05-18T22:07:26Z</time>
</trkpt>
      <trkpt lat="10.92397392" lon="-74.79544628">
<time>2014-05-18T22:07:28Z</time>
</trkpt>
      <trkpt lat="10.92397416" lon="-74.79544675">
<time>2014-05-18T22:07:30Z</time>
</trkpt>
      <trkpt lat="10.92397428" lon="-74.79544675">
<time>2014-05-18T22:07:32Z</time>
</trkpt>
      <trkpt lat="10.92397428" lon="-74.79544759">
<time>2014-05-18T22:07:34Z</time>
</trkpt>
      <trkpt lat="10.92397547" lon="-74.79544878">
<time>2014-05-18T22:07:36Z</time>
</trkpt>
      <trkpt lat="10.92397642" lon="-74.79544973">
<time>2014-05-18T22:07:38Z</time>
</trkpt>
      <trkpt lat="10.92397809" lon="-74.79545045">
<time>2014-05-18T22:07:40Z</time>
</trkpt>
      <trkpt lat="10.92397964" lon="-74.79545057">
<time>2014-05-18T22:07:42Z</time>
</trkpt>
      <trkpt lat="10.92398047" lon="-74.79545093">
<time>2014-05-18T22:07:44Z</time>
</trkpt>
      <trkpt lat="10.92398083" lon="-74.79545093">
<time>2014-05-18T22:07:46Z</time>
</trkpt>
      <trkpt lat="10.92398131" lon="-74.79545093">
<time>2014-05-18T22:07:48Z</time>
</trkpt>
      <trkpt lat="10.92398143" lon="-74.79545093">
<time>2014-05-18T22:07:50Z</time>
</trkpt>
      <trkpt lat="10.92398167" lon="-74.79545093">
<time>2014-05-18T22:07:52Z</time>
</trkpt>
      <trkpt lat="10.92398167" lon="-74.79545116">
<time>2014-05-18T22:07:54Z</time>
</trkpt>
      <trkpt lat="10.92398167" lon="-74.79545116">
<time>2014-05-18T22:07:56Z</time>
</trkpt>
      <trkpt lat="10.92398143" lon="-74.79545116">
<time>2014-05-18T22:07:58Z</time>
</trkpt>
      <trkpt lat="10.92398131" lon="-74.79545116">
<time>2014-05-18T22:08:00Z</time>
</trkpt>
      <trkpt lat="10.92398131" lon="-74.79545116">
<time>2014-05-18T22:08:02Z</time>
</trkpt>
      <trkpt lat="10.92398107" lon="-74.79545093">
<time>2014-05-18T22:08:04Z</time>
</trkpt>
      <trkpt lat="10.92398107" lon="-74.79545116">
<time>2014-05-18T22:08:06Z</time>
</trkpt>
      <trkpt lat="10.92398095" lon="-74.79545116">
<time>2014-05-18T22:08:08Z</time>
</trkpt>
      <trkpt lat="10.92398083" lon="-74.79545093">
<time>2014-05-18T22:08:10Z</time>
</trkpt>
      <trkpt lat="10.92398059" lon="-74.79545093">
<time>2014-05-18T22:08:12Z</time>
</trkpt>
      <trkpt lat="10.92398059" lon="-74.79545093">
<time>2014-05-18T22:08:14Z</time>
</trkpt>
      <trkpt lat="10.92398047" lon="-74.79545093">
<time>2014-05-18T22:08:16Z</time>
</trkpt>
      <trkpt lat="10.92398024" lon="-74.79545093">
<time>2014-05-18T22:08:18Z</time>
</trkpt>
      <trkpt lat="10.92398000" lon="-74.79545081">
<time>2014-05-18T22:08:20Z</time>
</trkpt>
      <trkpt lat="10.92398000" lon="-74.79545081">
<time>2014-05-18T22:08:22Z</time>
</trkpt>
      <trkpt lat="10.92398000" lon="-74.79545081">
<time>2014-05-18T22:08:24Z</time>
</trkpt>
      <trkpt lat="10.92397976" lon="-74.79545081">
<time>2014-05-18T22:08:26Z</time>
</trkpt>
      <trkpt lat="10.92397940" lon="-74.79545057">
<time>2014-05-18T22:08:28Z</time>
</trkpt>
      <trkpt lat="10.92397976" lon="-74.79545081">
<time>2014-05-18T22:08:30Z</time>
</trkpt>
      <trkpt lat="10.92397964" lon="-74.79545081">
<time>2014-05-18T22:08:32Z</time>
</trkpt>
      <trkpt lat="10.92397940" lon="-74.79545116">
<time>2014-05-18T22:08:34Z</time>
</trkpt>
      <trkpt lat="10.92397940" lon="-74.79545116">
<time>2014-05-18T22:08:36Z</time>
</trkpt>
      <trkpt lat="10.92397964" lon="-74.79545116">
<time>2014-05-18T22:08:38Z</time>
</trkpt>
      <trkpt lat="10.92397964" lon="-74.79545128">
<time>2014-05-18T22:08:40Z</time>
</trkpt>
      <trkpt lat="10.92397857" lon="-74.79545164">
<time>2014-05-18T22:08:42Z</time>
</trkpt>
      <trkpt lat="10.92396331" lon="-74.79546916">
<time>2014-05-18T22:08:44Z</time>
</trkpt>
      <trkpt lat="10.92394340" lon="-74.79549611">
<time>2014-05-18T22:08:46Z</time>
</trkpt>
      <trkpt lat="10.92392778" lon="-74.79553211">
<time>2014-05-18T22:08:48Z</time>
</trkpt>
      <trkpt lat="10.92392457" lon="-74.79556966">
<time>2014-05-18T22:08:50Z</time>
</trkpt>
      <trkpt lat="10.92392731" lon="-74.79560280">
<time>2014-05-18T22:08:52Z</time>
</trkpt>
      <trkpt lat="10.92391694" lon="-74.79561305">
<time>2014-05-18T22:08:54Z</time>
</trkpt>
      <trkpt lat="10.92390406" lon="-74.79562497">
<time>2014-05-18T22:08:56Z</time>
</trkpt>
      <trkpt lat="10.92390645" lon="-74.79563522">
<time>2014-05-18T22:08:58Z</time>
</trkpt>
      <trkpt lat="10.92390180" lon="-74.79564583">
<time>2014-05-18T22:09:00Z</time>
</trkpt>
      <trkpt lat="10.92390108" lon="-74.79564798">
<time>2014-05-18T22:09:02Z</time>
</trkpt>
      <trkpt lat="10.92389262" lon="-74.79566228">
<time>2014-05-18T22:09:04Z</time>
</trkpt>
      <trkpt lat="10.92387927" lon="-74.79568708">
<time>2014-05-18T22:09:06Z</time>
</trkpt>
      <trkpt lat="10.92387962" lon="-74.79570627">
<time>2014-05-18T22:09:08Z</time>
</trkpt>
      <trkpt lat="10.92388022" lon="-74.79573298">
<time>2014-05-18T22:09:10Z</time>
</trkpt>
      <trkpt lat="10.92388427" lon="-74.79575431">
<time>2014-05-18T22:09:12Z</time>
</trkpt>
      <trkpt lat="10.92387676" lon="-74.79576147">
<time>2014-05-18T22:09:14Z</time>
</trkpt>
      <trkpt lat="10.92387164" lon="-74.79576194">
<time>2014-05-18T22:09:16Z</time>
</trkpt>
      <trkpt lat="10.92387283" lon="-74.79576313">
<time>2014-05-18T22:09:18Z</time>
</trkpt>
      <trkpt lat="10.92387426" lon="-74.79576313">
<time>2014-05-18T22:09:20Z</time>
</trkpt>
      <trkpt lat="10.92387724" lon="-74.79576921">
<time>2014-05-18T22:09:22Z</time>
</trkpt>
      <trkpt lat="10.92389047" lon="-74.79577458">
<time>2014-05-18T22:09:24Z</time>
</trkpt>
      <trkpt lat="10.92390430" lon="-74.79578125">
<time>2014-05-18T22:09:26Z</time>
</trkpt>
      <trkpt lat="10.92390811" lon="-74.79578376">
<time>2014-05-18T22:09:28Z</time>
</trkpt>
      <trkpt lat="10.92391181" lon="-74.79578626">
<time>2014-05-18T22:09:30Z</time>
</trkpt>
      <trkpt lat="10.92391360" lon="-74.79578793">
<time>2014-05-18T22:09:32Z</time>
</trkpt>
      <trkpt lat="10.92391479" lon="-74.79578888">
<time>2014-05-18T22:09:34Z</time>
</trkpt>
      <trkpt lat="10.92391646" lon="-74.79578960">
<time>2014-05-18T22:09:36Z</time>
</trkpt>
      <trkpt lat="10.92391813" lon="-74.79579091">
<time>2014-05-18T22:09:38Z</time>
</trkpt>
      <trkpt lat="10.92391956" lon="-74.79579294">
<time>2014-05-18T22:09:40Z</time>
</trkpt>
      <trkpt lat="10.92391992" lon="-74.79579699">
<time>2014-05-18T22:09:42Z</time>
</trkpt>
      <trkpt lat="10.92391646" lon="-74.79580724">
<time>2014-05-18T22:09:44Z</time>
</trkpt>
      <trkpt lat="10.92391229" lon="-74.79581523">
<time>2014-05-18T22:09:46Z</time>
</trkpt>
      <trkpt lat="10.92390311" lon="-74.79583442">
<time>2014-05-18T22:09:48Z</time>
</trkpt>
      <trkpt lat="10.92389107" lon="-74.79588294">
<time>2014-05-18T22:09:50Z</time>
</trkpt>
      <trkpt lat="10.92386341" lon="-74.79596460">
<time>2014-05-18T22:09:52Z</time>
</trkpt>
      <trkpt lat="10.92385209" lon="-74.79602623">
<time>2014-05-18T22:09:54Z</time>
</trkpt>
      <trkpt lat="10.92384112" lon="-74.79609573">
<time>2014-05-18T22:09:56Z</time>
</trkpt>
      <trkpt lat="10.92382455" lon="-74.79616594">
<time>2014-05-18T22:09:58Z</time>
</trkpt>
      <trkpt lat="10.92381561" lon="-74.79620194">
<time>2014-05-18T22:10:00Z</time>
</trkpt>
      <trkpt lat="10.92380738" lon="-74.79623210">
<time>2014-05-18T22:10:02Z</time>
</trkpt>
      <trkpt lat="10.92379892" lon="-74.79626441">
<time>2014-05-18T22:10:04Z</time>
</trkpt>
      <trkpt lat="10.92379010" lon="-74.79629672">
<time>2014-05-18T22:10:06Z</time>
</trkpt>
      <trkpt lat="10.92378378" lon="-74.79633260">
<time>2014-05-18T22:10:08Z</time>
</trkpt>
      <trkpt lat="10.92377388" lon="-74.79638922">
<time>2014-05-18T22:10:10Z</time>
</trkpt>
      <trkpt lat="10.92375696" lon="-74.79644275">
<time>2014-05-18T22:10:12Z</time>
</trkpt>
      <trkpt lat="10.92374241" lon="-74.79650223">
<time>2014-05-18T22:10:14Z</time>
</trkpt>
      <trkpt lat="10.92373991" lon="-74.79654145">
<time>2014-05-18T22:10:16Z</time>
</trkpt>
      <trkpt lat="10.92374456" lon="-74.79658246">
<time>2014-05-18T22:10:18Z</time>
</trkpt>
      <trkpt lat="10.92375064" lon="-74.79665542">
<time>2014-05-18T22:10:20Z</time>
</trkpt>
      <trkpt lat="10.92374730" lon="-74.79672611">
<time>2014-05-18T22:10:22Z</time>
</trkpt>
      <trkpt lat="10.92374599" lon="-74.79680026">
<time>2014-05-18T22:10:24Z</time>
</trkpt>
      <trkpt lat="10.92373872" lon="-74.79686975">
<time>2014-05-18T22:10:26Z</time>
</trkpt>
      <trkpt lat="10.92372656" lon="-74.79697526">
<time>2014-05-18T22:10:28Z</time>
</trkpt>
      <trkpt lat="10.92372096" lon="-74.79706764">
<time>2014-05-18T22:10:30Z</time>
</trkpt>
      <trkpt lat="10.92371190" lon="-74.79715264">
<time>2014-05-18T22:10:32Z</time>
</trkpt>
      <trkpt lat="10.92370057" lon="-74.79721582">
<time>2014-05-18T22:10:34Z</time>
</trkpt>
      <trkpt lat="10.92370141" lon="-74.79725862">
<time>2014-05-18T22:10:36Z</time>
</trkpt>
      <trkpt lat="10.92370605" lon="-74.79728866">
<time>2014-05-18T22:10:38Z</time>
</trkpt>
      <trkpt lat="10.92371881" lon="-74.79732490">
<time>2014-05-18T22:10:40Z</time>
</trkpt>
      <trkpt lat="10.92371690" lon="-74.79737449">
<time>2014-05-18T22:10:42Z</time>
</trkpt>
      <trkpt lat="10.92371929" lon="-74.79743099">
<time>2014-05-18T22:10:44Z</time>
</trkpt>
      <trkpt lat="10.92371893" lon="-74.79749382">
<time>2014-05-18T22:10:46Z</time>
</trkpt>
      <trkpt lat="10.92371166" lon="-74.79756558">
<time>2014-05-18T22:10:48Z</time>
</trkpt>
      <trkpt lat="10.92368889" lon="-74.79763579">
<time>2014-05-18T22:10:50Z</time>
</trkpt>
      <trkpt lat="10.92368078" lon="-74.79771399">
<time>2014-05-18T22:10:52Z</time>
</trkpt>
      <trkpt lat="10.92367589" lon="-74.79779243">
<time>2014-05-18T22:10:54Z</time>
</trkpt>
      <trkpt lat="10.92366695" lon="-74.79784060">
<time>2014-05-18T22:10:56Z</time>
</trkpt>
      <trkpt lat="10.92366517" lon="-74.79786015">
<time>2014-05-18T22:10:58Z</time>
</trkpt>
      <trkpt lat="10.92364872" lon="-74.79789507">
<time>2014-05-18T22:11:00Z</time>
</trkpt>
      <trkpt lat="10.92363572" lon="-74.79796314">
<time>2014-05-18T22:11:02Z</time>
</trkpt>
      <trkpt lat="10.92362976" lon="-74.79804158">
<time>2014-05-18T22:11:04Z</time>
</trkpt>
      <trkpt lat="10.92362058" lon="-74.79810965">
<time>2014-05-18T22:11:06Z</time>
</trkpt>
      <trkpt lat="10.92360699" lon="-74.79812491">
<time>2014-05-18T22:11:08Z</time>
</trkpt>
      <trkpt lat="10.92359865" lon="-74.79815030">
<time>2014-05-18T22:11:10Z</time>
</trkpt>
      <trkpt lat="10.92359662" lon="-74.79820848">
<time>2014-05-18T22:11:12Z</time>
</trkpt>
      <trkpt lat="10.92359841" lon="-74.79831159">
<time>2014-05-18T22:11:14Z</time>
</trkpt>
      <trkpt lat="10.92360044" lon="-74.79844892">
<time>2014-05-18T22:11:16Z</time>
</trkpt>
      <trkpt lat="10.92359746" lon="-74.79860282">
<time>2014-05-18T22:11:18Z</time>
</trkpt>
      <trkpt lat="10.92359424" lon="-74.79877710">
<time>2014-05-18T22:11:20Z</time>
</trkpt>
      <trkpt lat="10.92358398" lon="-74.79894483">
<time>2014-05-18T22:11:22Z</time>
</trkpt>
      <trkpt lat="10.92357230" lon="-74.79911029">
<time>2014-05-18T22:11:24Z</time>
</trkpt>
      <trkpt lat="10.92355013" lon="-74.79929066">
<time>2014-05-18T22:11:26Z</time>
</trkpt>
      <trkpt lat="10.92354381" lon="-74.79946697">
<time>2014-05-18T22:11:28Z</time>
</trkpt>
      <trkpt lat="10.92354524" lon="-74.79963362">
<time>2014-05-18T22:11:30Z</time>
</trkpt>
      <trkpt lat="10.92353773" lon="-74.79978013">
<time>2014-05-18T22:11:32Z</time>
</trkpt>
      <trkpt lat="10.92353475" lon="-74.79990399">
<time>2014-05-18T22:11:34Z</time>
</trkpt>
      <trkpt lat="10.92354083" lon="-74.80000949">
<time>2014-05-18T22:11:36Z</time>
</trkpt>
      <trkpt lat="10.92354000" lon="-74.80011129">
<time>2014-05-18T22:11:38Z</time>
</trkpt>
      <trkpt lat="10.92353165" lon="-74.80020261">
<time>2014-05-18T22:11:40Z</time>
</trkpt>
      <trkpt lat="10.92352724" lon="-74.80027282">
<time>2014-05-18T22:11:42Z</time>
</trkpt>
      <trkpt lat="10.92352176" lon="-74.80031562">
<time>2014-05-18T22:11:44Z</time>
</trkpt>
      <trkpt lat="10.92351258" lon="-74.80035865">
<time>2014-05-18T22:11:46Z</time>
</trkpt>
      <trkpt lat="10.92350626" lon="-74.80038595">
<time>2014-05-18T22:11:48Z</time>
</trkpt>
      <trkpt lat="10.92350531" lon="-74.80039489">
<time>2014-05-18T22:11:50Z</time>
</trkpt>
      <trkpt lat="10.92349982" lon="-74.80041313">
<time>2014-05-18T22:11:52Z</time>
</trkpt>
      <trkpt lat="10.92349064" lon="-74.80044866">
<time>2014-05-18T22:11:54Z</time>
</trkpt>
      <trkpt lat="10.92349148" lon="-74.80050409">
<time>2014-05-18T22:11:56Z</time>
</trkpt>
      <trkpt lat="10.92348933" lon="-74.80055726">
<time>2014-05-18T22:11:58Z</time>
</trkpt>
      <trkpt lat="10.92348289" lon="-74.80060625">
<time>2014-05-18T22:12:00Z</time>
</trkpt>
      <trkpt lat="10.92348289" lon="-74.80065906">
<time>2014-05-18T22:12:02Z</time>
</trkpt>
      <trkpt lat="10.92348242" lon="-74.80070996">
<time>2014-05-18T22:12:04Z</time>
</trkpt>
      <trkpt lat="10.92348683" lon="-74.80073988">
<time>2014-05-18T22:12:06Z</time>
</trkpt>
      <trkpt lat="10.92348623" lon="-74.80076432">
<time>2014-05-18T22:12:08Z</time>
</trkpt>
      <trkpt lat="10.92347288" lon="-74.80079257">
<time>2014-05-18T22:12:10Z</time>
</trkpt>
      <trkpt lat="10.92346561" lon="-74.80083358">
<time>2014-05-18T22:12:12Z</time>
</trkpt>
      <trkpt lat="10.92346847" lon="-74.80090129">
<time>2014-05-18T22:12:14Z</time>
</trkpt>
      <trkpt lat="10.92346942" lon="-74.80096662">
<time>2014-05-18T22:12:16Z</time>
</trkpt>
      <trkpt lat="10.92346478" lon="-74.80101657">
<time>2014-05-18T22:12:18Z</time>
</trkpt>
      <trkpt lat="10.92346489" lon="-74.80105925">
<time>2014-05-18T22:12:20Z</time>
</trkpt>
      <trkpt lat="10.92346525" lon="-74.80112040">
<time>2014-05-18T22:12:22Z</time>
</trkpt>
      <trkpt lat="10.92346656" lon="-74.80120397">
<time>2014-05-18T22:12:24Z</time>
</trkpt>
      <trkpt lat="10.92347109" lon="-74.80129158">
<time>2014-05-18T22:12:26Z</time>
</trkpt>
      <trkpt lat="10.92346776" lon="-74.80136812">
<time>2014-05-18T22:12:28Z</time>
</trkpt>
      <trkpt lat="10.92346680" lon="-74.80142510">
<time>2014-05-18T22:12:30Z</time>
</trkpt>
      <trkpt lat="10.92347109" lon="-74.80147922">
<time>2014-05-18T22:12:32Z</time>
</trkpt>
      <trkpt lat="10.92346978" lon="-74.80153596">
<time>2014-05-18T22:12:34Z</time>
</trkpt>
      <trkpt lat="10.92346108" lon="-74.80157328">
<time>2014-05-18T22:12:36Z</time>
</trkpt>
      <trkpt lat="10.92345214" lon="-74.80161166">
<time>2014-05-18T22:12:38Z</time>
</trkpt>
      <trkpt lat="10.92344248" lon="-74.80167866">
<time>2014-05-18T22:12:40Z</time>
</trkpt>
      <trkpt lat="10.92343056" lon="-74.80177045">
<time>2014-05-18T22:12:42Z</time>
</trkpt>
      <trkpt lat="10.92342389" lon="-74.80186677">
<time>2014-05-18T22:12:44Z</time>
</trkpt>
      <trkpt lat="10.92341423" lon="-74.80195475">
<time>2014-05-18T22:12:46Z</time>
</trkpt>
      <trkpt lat="10.92340744" lon="-74.80202532">
<time>2014-05-18T22:12:48Z</time>
</trkpt>
      <trkpt lat="10.92339575" lon="-74.80207896">
<time>2014-05-18T22:12:50Z</time>
</trkpt>
      <trkpt lat="10.92340422" lon="-74.80214560">
<time>2014-05-18T22:12:52Z</time>
</trkpt>
      <trkpt lat="10.92339444" lon="-74.80223322">
<time>2014-05-18T22:12:54Z</time>
</trkpt>
      <trkpt lat="10.92339146" lon="-74.80230212">
<time>2014-05-18T22:12:56Z</time>
</trkpt>
      <trkpt lat="10.92338490" lon="-74.80236948">
<time>2014-05-18T22:12:58Z</time>
</trkpt>
      <trkpt lat="10.92337966" lon="-74.80242491">
<time>2014-05-18T22:13:00Z</time>
</trkpt>
      <trkpt lat="10.92337549" lon="-74.80248916">
<time>2014-05-18T22:13:02Z</time>
</trkpt>
      <trkpt lat="10.92336428" lon="-74.80255949">
<time>2014-05-18T22:13:04Z</time>
</trkpt>
      <trkpt lat="10.92335510" lon="-74.80261648">
<time>2014-05-18T22:13:06Z</time>
</trkpt>
      <trkpt lat="10.92334807" lon="-74.80267715">
<time>2014-05-18T22:13:08Z</time>
</trkpt>
      <trkpt lat="10.92334259" lon="-74.80275178">
<time>2014-05-18T22:13:10Z</time>
</trkpt>
      <trkpt lat="10.92333210" lon="-74.80285966">
<time>2014-05-18T22:13:12Z</time>
</trkpt>
      <trkpt lat="10.92331779" lon="-74.80297780">
<time>2014-05-18T22:13:14Z</time>
</trkpt>
      <trkpt lat="10.92331409" lon="-74.80309916">
<time>2014-05-18T22:13:16Z</time>
</trkpt>
      <trkpt lat="10.92330766" lon="-74.80324399">
<time>2014-05-18T22:13:18Z</time>
</trkpt>
      <trkpt lat="10.92330241" lon="-74.80340183">
<time>2014-05-18T22:13:20Z</time>
</trkpt>
      <trkpt lat="10.92329788" lon="-74.80358171">
<time>2014-05-18T22:13:22Z</time>
</trkpt>
      <trkpt lat="10.92329443" lon="-74.80378127">
<time>2014-05-18T22:13:24Z</time>
</trkpt>
      <trkpt lat="10.92328441" lon="-74.80401659">
<time>2014-05-18T22:13:26Z</time>
</trkpt>
      <trkpt lat="10.92326856" lon="-74.80424929">
<time>2014-05-18T22:13:28Z</time>
</trkpt>
      <trkpt lat="10.92325532" lon="-74.80446792">
<time>2014-05-18T22:13:30Z</time>
</trkpt>
      <trkpt lat="10.92324412" lon="-74.80466890">
<time>2014-05-18T22:13:32Z</time>
</trkpt>
      <trkpt lat="10.92322111" lon="-74.80488276">
<time>2014-05-18T22:13:34Z</time>
</trkpt>
      <trkpt lat="10.92320013" lon="-74.80511916">
<time>2014-05-18T22:13:36Z</time>
</trkpt>
      <trkpt lat="10.92318809" lon="-74.80536211">
<time>2014-05-18T22:13:38Z</time>
</trkpt>
      <trkpt lat="10.92317796" lon="-74.80561543">
<time>2014-05-18T22:13:40Z</time>
</trkpt>
      <trkpt lat="10.92316008" lon="-74.80588794">
<time>2014-05-18T22:13:42Z</time>
</trkpt>
      <trkpt lat="10.92314875" lon="-74.80617559">
<time>2014-05-18T22:13:44Z</time>
</trkpt>
      <trkpt lat="10.92313814" lon="-74.80647397">
<time>2014-05-18T22:13:46Z</time>
</trkpt>
      <trkpt lat="10.92313790" lon="-74.80677128">
<time>2014-05-18T22:13:48Z</time>
</trkpt>
      <trkpt lat="10.92313027" lon="-74.80706847">
<time>2014-05-18T22:13:50Z</time>
</trkpt>
      <trkpt lat="10.92311299" lon="-74.80736077">
<time>2014-05-18T22:13:52Z</time>
</trkpt>
      <trkpt lat="10.92311275" lon="-74.80766523">
<time>2014-05-18T22:13:54Z</time>
</trkpt>
      <trkpt lat="10.92311275" lon="-74.80797362">
<time>2014-05-18T22:13:56Z</time>
</trkpt>
      <trkpt lat="10.92310143" lon="-74.80827129">
<time>2014-05-18T22:13:58Z</time>
</trkpt>
      <trkpt lat="10.92308640" lon="-74.80857277">
<time>2014-05-18T22:14:00Z</time>
</trkpt>
      <trkpt lat="10.92307174" lon="-74.80887794">
<time>2014-05-18T22:14:02Z</time>
</trkpt>
      <trkpt lat="10.92306006" lon="-74.80919957">
<time>2014-05-18T22:14:04Z</time>
</trkpt>
      <trkpt lat="10.92303979" lon="-74.80951691">
<time>2014-05-18T22:14:06Z</time>
</trkpt>
      <trkpt lat="10.92302680" lon="-74.80981541">
<time>2014-05-18T22:14:08Z</time>
</trkpt>
      <trkpt lat="10.92300606" lon="-74.81009579">
<time>2014-05-18T22:14:10Z</time>
</trkpt>
      <trkpt lat="10.92297947" lon="-74.81036377">
<time>2014-05-18T22:14:12Z</time>
</trkpt>
      <trkpt lat="10.92296195" lon="-74.81062293">
<time>2014-05-18T22:14:14Z</time>
</trkpt>
      <trkpt lat="10.92293382" lon="-74.81085789">
<time>2014-05-18T22:14:16Z</time>
</trkpt>
      <trkpt lat="10.92291772" lon="-74.81110859">
<time>2014-05-18T22:14:18Z</time>
</trkpt>
      <trkpt lat="10.92289865" lon="-74.81137693">
<time>2014-05-18T22:14:20Z</time>
</trkpt>
      <trkpt lat="10.92288411" lon="-74.81166446">
<time>2014-05-18T22:14:22Z</time>
</trkpt>
      <trkpt lat="10.92286849" lon="-74.81195939">
<time>2014-05-18T22:14:24Z</time>
</trkpt>
      <trkpt lat="10.92285347" lon="-74.81227338">
<time>2014-05-18T22:14:26Z</time>
</trkpt>
      <trkpt lat="10.92282772" lon="-74.81255889">
<time>2014-05-18T22:14:28Z</time>
</trkpt>
      <trkpt lat="10.92280841" lon="-74.81283724">
<time>2014-05-18T22:14:30Z</time>
</trkpt>
      <trkpt lat="10.92278993" lon="-74.81314313">
<time>2014-05-18T22:14:32Z</time>
</trkpt>
      <trkpt lat="10.92277730" lon="-74.81345999">
<time>2014-05-18T22:14:34Z</time>
</trkpt>
      <trkpt lat="10.92275929" lon="-74.81377089">
<time>2014-05-18T22:14:36Z</time>
</trkpt>
      <trkpt lat="10.92275143" lon="-74.81407022">
<time>2014-05-18T22:14:38Z</time>
</trkpt>
      <trkpt lat="10.92273843" lon="-74.81435180">
<time>2014-05-18T22:14:40Z</time>
</trkpt>
      <trkpt lat="10.92272007" lon="-74.81461275">
<time>2014-05-18T22:14:42Z</time>
</trkpt>
      <trkpt lat="10.92272294" lon="-74.81487358">
<time>2014-05-18T22:14:44Z</time>
</trkpt>
      <trkpt lat="10.92274010" lon="-74.81514776">
<time>2014-05-18T22:14:46Z</time>
</trkpt>
      <trkpt lat="10.92276943" lon="-74.81542325">
<time>2014-05-18T22:14:48Z</time>
</trkpt>
      <trkpt lat="10.92280507" lon="-74.81569743">
<time>2014-05-18T22:14:50Z</time>
</trkpt>
      <trkpt lat="10.92284882" lon="-74.81597281">
<time>2014-05-18T22:14:52Z</time>
</trkpt>
      <trkpt lat="10.92291033" lon="-74.81624222">
<time>2014-05-18T22:14:54Z</time>
</trkpt>
      <trkpt lat="10.92298222" lon="-74.81651974">
<time>2014-05-18T22:14:56Z</time>
</trkpt>
      <trkpt lat="10.92307997" lon="-74.81681132">
<time>2014-05-18T22:14:58Z</time>
</trkpt>
      <trkpt lat="10.92318809" lon="-74.81710696">
<time>2014-05-18T22:15:00Z</time>
</trkpt>
      <trkpt lat="10.92331588" lon="-74.81741023">
<time>2014-05-18T22:15:02Z</time>
</trkpt>
      <trkpt lat="10.92344642" lon="-74.81771898">
<time>2014-05-18T22:15:04Z</time>
</trkpt>
      <trkpt lat="10.92358088" lon="-74.81801713">
<time>2014-05-18T22:15:06Z</time>
</trkpt>
      <trkpt lat="10.92371595" lon="-74.81831145">
<time>2014-05-18T22:15:08Z</time>
</trkpt>
      <trkpt lat="10.92386162" lon="-74.81860161">
<time>2014-05-18T22:15:10Z</time>
</trkpt>
      <trkpt lat="10.92399573" lon="-74.81890547">
<time>2014-05-18T22:15:12Z</time>
</trkpt>
      <trkpt lat="10.92413640" lon="-74.81920671">
<time>2014-05-18T22:15:14Z</time>
</trkpt>
      <trkpt lat="10.92427826" lon="-74.81951022">
<time>2014-05-18T22:15:16Z</time>
</trkpt>
      <trkpt lat="10.92442262" lon="-74.81981707">
<time>2014-05-18T22:15:18Z</time>
</trkpt>
      <trkpt lat="10.92456007" lon="-74.82013214">
<time>2014-05-18T22:15:20Z</time>
</trkpt>
      <trkpt lat="10.92470741" lon="-74.82045496">
<time>2014-05-18T22:15:22Z</time>
</trkpt>
      <trkpt lat="10.92486107" lon="-74.82078028">
<time>2014-05-18T22:15:24Z</time>
</trkpt>
      <trkpt lat="10.92502058" lon="-74.82111228">
<time>2014-05-18T22:15:26Z</time>
</trkpt>
      <trkpt lat="10.92517829" lon="-74.82144260">
<time>2014-05-18T22:15:28Z</time>
</trkpt>
      <trkpt lat="10.92533982" lon="-74.82178700">
<time>2014-05-18T22:15:30Z</time>
</trkpt>
      <trkpt lat="10.92550623" lon="-74.82214475">
<time>2014-05-18T22:15:32Z</time>
</trkpt>
      <trkpt lat="10.92568207" lon="-74.82251179">
<time>2014-05-18T22:15:34Z</time>
</trkpt>
      <trkpt lat="10.92586291" lon="-74.82288563">
<time>2014-05-18T22:15:36Z</time>
</trkpt>
      <trkpt lat="10.92603374" lon="-74.82326806">
<time>2014-05-18T22:15:38Z</time>
</trkpt>
      <trkpt lat="10.92621958" lon="-74.82363510">
<time>2014-05-18T22:15:40Z</time>
</trkpt>
      <trkpt lat="10.92641008" lon="-74.82398677">
<time>2014-05-18T22:15:42Z</time>
</trkpt>
      <trkpt lat="10.92659330" lon="-74.82433677">
<time>2014-05-18T22:15:44Z</time>
</trkpt>
      <trkpt lat="10.92675555" lon="-74.82467496">
<time>2014-05-18T22:15:46Z</time>
</trkpt>
      <trkpt lat="10.92691076" lon="-74.82501912">
<time>2014-05-18T22:15:48Z</time>
</trkpt>
      <trkpt lat="10.92705774" lon="-74.82534742">
<time>2014-05-18T22:15:50Z</time>
</trkpt>
      <trkpt lat="10.92720008" lon="-74.82567549">
<time>2014-05-18T22:15:52Z</time>
</trkpt>
      <trkpt lat="10.92735124" lon="-74.82600439">
<time>2014-05-18T22:15:54Z</time>
</trkpt>
      <trkpt lat="10.92748916" lon="-74.82632160">
<time>2014-05-18T22:15:56Z</time>
</trkpt>
      <trkpt lat="10.92763805" lon="-74.82664192">
<time>2014-05-18T22:15:58Z</time>
</trkpt>
      <trkpt lat="10.92779493" lon="-74.82697213">
<time>2014-05-18T22:16:00Z</time>
</trkpt>
      <trkpt lat="10.92794991" lon="-74.82730806">
<time>2014-05-18T22:16:02Z</time>
</trkpt>
      <trkpt lat="10.92810428" lon="-74.82763147">
<time>2014-05-18T22:16:04Z</time>
</trkpt>
      <trkpt lat="10.92826259" lon="-74.82797194">
<time>2014-05-18T22:16:06Z</time>
</trkpt>
      <trkpt lat="10.92842162" lon="-74.82830131">
<time>2014-05-18T22:16:08Z</time>
</trkpt>
      <trkpt lat="10.92857397" lon="-74.82861722">
<time>2014-05-18T22:16:10Z</time>
</trkpt>
      <trkpt lat="10.92871523" lon="-74.82893622">
<time>2014-05-18T22:16:12Z</time>
</trkpt>
      <trkpt lat="10.92886841" lon="-74.82926059">
<time>2014-05-18T22:16:14Z</time>
</trkpt>
      <trkpt lat="10.92902660" lon="-74.82960296">
<time>2014-05-18T22:16:16Z</time>
</trkpt>
      <trkpt lat="10.92919290" lon="-74.82995546">
<time>2014-05-18T22:16:18Z</time>
</trkpt>
      <trkpt lat="10.92936778" lon="-74.83032131">
<time>2014-05-18T22:16:20Z</time>
</trkpt>
      <trkpt lat="10.92955005" lon="-74.83068442">
<time>2014-05-18T22:16:22Z</time>
</trkpt>
      <trkpt lat="10.92974782" lon="-74.83103144">
<time>2014-05-18T22:16:24Z</time>
</trkpt>
      <trkpt lat="10.92996430" lon="-74.83135760">
<time>2014-05-18T22:16:26Z</time>
</trkpt>
      <trkpt lat="10.93019915" lon="-74.83167112">
<time>2014-05-18T22:16:28Z</time>
</trkpt>
      <trkpt lat="10.93044758" lon="-74.83197129">
<time>2014-05-18T22:16:30Z</time>
</trkpt>
      <trkpt lat="10.93071365" lon="-74.83224308">
<time>2014-05-18T22:16:32Z</time>
</trkpt>
      <trkpt lat="10.93098748" lon="-74.83250308">
<time>2014-05-18T22:16:34Z</time>
</trkpt>
      <trkpt lat="10.93127728" lon="-74.83275008">
<time>2014-05-18T22:16:36Z</time>
</trkpt>
      <trkpt lat="10.93158579" lon="-74.83297956">
<time>2014-05-18T22:16:38Z</time>
</trkpt>
      <trkpt lat="10.93190777" lon="-74.83320272">
<time>2014-05-18T22:16:40Z</time>
</trkpt>
      <trkpt lat="10.93224013" lon="-74.83341408">
<time>2014-05-18T22:16:42Z</time>
</trkpt>
      <trkpt lat="10.93259108" lon="-74.83360898">
<time>2014-05-18T22:16:44Z</time>
</trkpt>
      <trkpt lat="10.93294489" lon="-74.83378232">
<time>2014-05-18T22:16:46Z</time>
</trkpt>
      <trkpt lat="10.93330574" lon="-74.83392346">
<time>2014-05-18T22:16:48Z</time>
</trkpt>
      <trkpt lat="10.93367791" lon="-74.83404124">
<time>2014-05-18T22:16:50Z</time>
</trkpt>
      <trkpt lat="10.93405461" lon="-74.83414161">
<time>2014-05-18T22:16:52Z</time>
</trkpt>
      <trkpt lat="10.93443024" lon="-74.83421826">
<time>2014-05-18T22:16:54Z</time>
</trkpt>
      <trkpt lat="10.93481243" lon="-74.83427632">
<time>2014-05-18T22:16:56Z</time>
</trkpt>
      <trkpt lat="10.93520582" lon="-74.83431995">
<time>2014-05-18T22:16:58Z</time>
</trkpt>
      <trkpt lat="10.93560421" lon="-74.83432841">
<time>2014-05-18T22:17:00Z</time>
</trkpt>
      <trkpt lat="10.93599665" lon="-74.83431745">
<time>2014-05-18T22:17:02Z</time>
</trkpt>
      <trkpt lat="10.93639421" lon="-74.83429396">
<time>2014-05-18T22:17:04Z</time>
</trkpt>
      <trkpt lat="10.93677127" lon="-74.83425391">
<time>2014-05-18T22:17:06Z</time>
</trkpt>
      <trkpt lat="10.93712926" lon="-74.83420515">
<time>2014-05-18T22:17:08Z</time>
</trkpt>
      <trkpt lat="10.93747473" lon="-74.83416772">
<time>2014-05-18T22:17:10Z</time>
</trkpt>
      <trkpt lat="10.93782461" lon="-74.83413005">
<time>2014-05-18T22:17:12Z</time>
</trkpt>
      <trkpt lat="10.93818212" lon="-74.83409941">
<time>2014-05-18T22:17:14Z</time>
</trkpt>
      <trkpt lat="10.93854141" lon="-74.83407688">
<time>2014-05-18T22:17:16Z</time>
</trkpt>
      <trkpt lat="10.93890607" lon="-74.83404231">
<time>2014-05-18T22:17:18Z</time>
</trkpt>
      <trkpt lat="10.93927574" lon="-74.83400512">
<time>2014-05-18T22:17:20Z</time>
</trkpt>
      <trkpt lat="10.93966448" lon="-74.83395529">
<time>2014-05-18T22:17:22Z</time>
</trkpt>
      <trkpt lat="10.94006908" lon="-74.83390856">
<time>2014-05-18T22:17:24Z</time>
</trkpt>
      <trkpt lat="10.94047499" lon="-74.83385813">
<time>2014-05-18T22:17:26Z</time>
</trkpt>
      <trkpt lat="10.94085872" lon="-74.83383000">
<time>2014-05-18T22:17:28Z</time>
</trkpt>
      <trkpt lat="10.94123590" lon="-74.83382213">
<time>2014-05-18T22:17:30Z</time>
</trkpt>
      <trkpt lat="10.94160974" lon="-74.83380508">
<time>2014-05-18T22:17:32Z</time>
</trkpt>
      <trkpt lat="10.94197500" lon="-74.83377695">
<time>2014-05-18T22:17:34Z</time>
</trkpt>
      <trkpt lat="10.94232011" lon="-74.83374107">
<time>2014-05-18T22:17:36Z</time>
</trkpt>
      <trkpt lat="10.94261158" lon="-74.83370447">
<time>2014-05-18T22:17:38Z</time>
</trkpt>
      <trkpt lat="10.94284940" lon="-74.83367682">
<time>2014-05-18T22:17:40Z</time>
</trkpt>
      <trkpt lat="10.94301975" lon="-74.83365715">
<time>2014-05-18T22:17:42Z</time>
</trkpt>
      <trkpt lat="10.94312799" lon="-74.83363998">
<time>2014-05-18T22:17:44Z</time>
</trkpt>
      <trkpt lat="10.94320726" lon="-74.83363163">
<time>2014-05-18T22:17:46Z</time>
</trkpt>
      <trkpt lat="10.94329727" lon="-74.83361840">
<time>2014-05-18T22:17:48Z</time>
</trkpt>
      <trkpt lat="10.94341159" lon="-74.83360279">
<time>2014-05-18T22:17:50Z</time>
</trkpt>
      <trkpt lat="10.94355309" lon="-74.83358610">
<time>2014-05-18T22:17:52Z</time>
</trkpt>
      <trkpt lat="10.94369209" lon="-74.83354378">
<time>2014-05-18T22:17:54Z</time>
</trkpt>
      <trkpt lat="10.94380426" lon="-74.83346891">
<time>2014-05-18T22:17:56Z</time>
</trkpt>
      <trkpt lat="10.94389629" lon="-74.83335400">
<time>2014-05-18T22:17:58Z</time>
</trkpt>
      <trkpt lat="10.94392109" lon="-74.83321738">
<time>2014-05-18T22:18:00Z</time>
</trkpt>
      <trkpt lat="10.94393325" lon="-74.83305323">
<time>2014-05-18T22:18:02Z</time>
</trkpt>
      <trkpt lat="10.94390357" lon="-74.83286977">
<time>2014-05-18T22:18:04Z</time>
</trkpt>
      <trkpt lat="10.94386947" lon="-74.83269477">
<time>2014-05-18T22:18:06Z</time>
</trkpt>
      <trkpt lat="10.94384241" lon="-74.83249450">
<time>2014-05-18T22:18:08Z</time>
</trkpt>
      <trkpt lat="10.94378781" lon="-74.83228660">
<time>2014-05-18T22:18:10Z</time>
</trkpt>
      <trkpt lat="10.94371939" lon="-74.83210826">
<time>2014-05-18T22:18:12Z</time>
</trkpt>
      <trkpt lat="10.94358432" lon="-74.83205307">
<time>2014-05-18T22:18:14Z</time>
</trkpt>
      <trkpt lat="10.94344175" lon="-74.83206296">
<time>2014-05-18T22:18:16Z</time>
</trkpt>
      <trkpt lat="10.94332111" lon="-74.83212578">
<time>2014-05-18T22:18:18Z</time>
</trkpt>
      <trkpt lat="10.94326878" lon="-74.83223248">
<time>2014-05-18T22:18:20Z</time>
</trkpt>
      <trkpt lat="10.94324362" lon="-74.83238578">
<time>2014-05-18T22:18:22Z</time>
</trkpt>
      <trkpt lat="10.94326210" lon="-74.83259130">
<time>2014-05-18T22:18:24Z</time>
</trkpt>
      <trkpt lat="10.94328690" lon="-74.83283210">
<time>2014-05-18T22:18:26Z</time>
</trkpt>
      <trkpt lat="10.94331181" lon="-74.83308077">
<time>2014-05-18T22:18:28Z</time>
</trkpt>
      <trkpt lat="10.94332063" lon="-74.83329844">
<time>2014-05-18T22:18:30Z</time>
</trkpt>
      <trkpt lat="10.94332957" lon="-74.83347011">
<time>2014-05-18T22:18:32Z</time>
</trkpt>
      <trkpt lat="10.94334757" lon="-74.83363283">
<time>2014-05-18T22:18:34Z</time>
</trkpt>
      <trkpt lat="10.94337511" lon="-74.83379889">
<time>2014-05-18T22:18:36Z</time>
</trkpt>
      <trkpt lat="10.94339478" lon="-74.83398283">
<time>2014-05-18T22:18:38Z</time>
</trkpt>
      <trkpt lat="10.94341195" lon="-74.83417833">
<time>2014-05-18T22:18:40Z</time>
</trkpt>
      <trkpt lat="10.94343162" lon="-74.83440506">
<time>2014-05-18T22:18:42Z</time>
</trkpt>
      <trkpt lat="10.94344831" lon="-74.83466959">
<time>2014-05-18T22:18:44Z</time>
</trkpt>
      <trkpt lat="10.94346476" lon="-74.83495641">
<time>2014-05-18T22:18:46Z</time>
</trkpt>
      <trkpt lat="10.94349074" lon="-74.83522999">
<time>2014-05-18T22:18:48Z</time>
</trkpt>
      <trkpt lat="10.94352293" lon="-74.83549678">
<time>2014-05-18T22:18:50Z</time>
</trkpt>
      <trkpt lat="10.94354093" lon="-74.83577216">
<time>2014-05-18T22:18:52Z</time>
</trkpt>
      <trkpt lat="10.94355524" lon="-74.83604360">
<time>2014-05-18T22:18:54Z</time>
</trkpt>
      <trkpt lat="10.94358492" lon="-74.83629739">
<time>2014-05-18T22:18:56Z</time>
</trkpt>
      <trkpt lat="10.94361210" lon="-74.83654177">
<time>2014-05-18T22:18:58Z</time>
</trkpt>
      <trkpt lat="10.94363213" lon="-74.83679366">
<time>2014-05-18T22:19:00Z</time>
</trkpt>
      <trkpt lat="10.94365215" lon="-74.83705366">
<time>2014-05-18T22:19:02Z</time>
</trkpt>
      <trkpt lat="10.94368899" lon="-74.83729923">
<time>2014-05-18T22:19:04Z</time>
</trkpt>
      <trkpt lat="10.94373465" lon="-74.83755291">
<time>2014-05-18T22:19:06Z</time>
</trkpt>
      <trkpt lat="10.94375956" lon="-74.83781481">
<time>2014-05-18T22:19:08Z</time>
</trkpt>
      <trkpt lat="10.94377959" lon="-74.83807766">
<time>2014-05-18T22:19:10Z</time>
</trkpt>
      <trkpt lat="10.94378245" lon="-74.83834493">
<time>2014-05-18T22:19:12Z</time>
</trkpt>
      <trkpt lat="10.94376826" lon="-74.83861780">
<time>2014-05-18T22:19:14Z</time>
</trkpt>
      <trkpt lat="10.94373000" lon="-74.83888292">
<time>2014-05-18T22:19:16Z</time>
</trkpt>
      <trkpt lat="10.94366360" lon="-74.83913827">
<time>2014-05-18T22:19:18Z</time>
</trkpt>
      <trkpt lat="10.94358850" lon="-74.83938205">
<time>2014-05-18T22:19:20Z</time>
</trkpt>
      <trkpt lat="10.94351757" lon="-74.83962572">
<time>2014-05-18T22:19:22Z</time>
</trkpt>
      <trkpt lat="10.94344258" lon="-74.83988011">
<time>2014-05-18T22:19:24Z</time>
</trkpt>
      <trkpt lat="10.94335413" lon="-74.84014511">
<time>2014-05-18T22:19:26Z</time>
</trkpt>
      <trkpt lat="10.94326890" lon="-74.84041524">
<time>2014-05-18T22:19:28Z</time>
</trkpt>
      <trkpt lat="10.94318330" lon="-74.84068882">
<time>2014-05-18T22:19:30Z</time>
</trkpt>
      <trkpt lat="10.94311130" lon="-74.84096539">
<time>2014-05-18T22:19:32Z</time>
</trkpt>
      <trkpt lat="10.94303274" lon="-74.84123981">
<time>2014-05-18T22:19:34Z</time>
</trkpt>
      <trkpt lat="10.94295132" lon="-74.84152544">
<time>2014-05-18T22:19:36Z</time>
</trkpt>
      <trkpt lat="10.94286859" lon="-74.84180343">
<time>2014-05-18T22:19:38Z</time>
</trkpt>
      <trkpt lat="10.94278264" lon="-74.84209716">
<time>2014-05-18T22:19:40Z</time>
</trkpt>
      <trkpt lat="10.94270146" lon="-74.84238231">
<time>2014-05-18T22:19:42Z</time>
</trkpt>
      <trkpt lat="10.94261849" lon="-74.84265542">
<time>2014-05-18T22:19:44Z</time>
</trkpt>
      <trkpt lat="10.94252825" lon="-74.84290814">
<time>2014-05-18T22:19:46Z</time>
</trkpt>
      <trkpt lat="10.94243193" lon="-74.84314775">
<time>2014-05-18T22:19:48Z</time>
</trkpt>
      <trkpt lat="10.94231808" lon="-74.84338391">
<time>2014-05-18T22:19:50Z</time>
</trkpt>
      <trkpt lat="10.94219327" lon="-74.84361494">
<time>2014-05-18T22:19:52Z</time>
</trkpt>
      <trkpt lat="10.94207013" lon="-74.84384394">
<time>2014-05-18T22:19:54Z</time>
</trkpt>
      <trkpt lat="10.94194639" lon="-74.84408200">
<time>2014-05-18T22:19:56Z</time>
</trkpt>
      <trkpt lat="10.94181597" lon="-74.84432912">
<time>2014-05-18T22:19:58Z</time>
</trkpt>
      <trkpt lat="10.94168043" lon="-74.84458160">
<time>2014-05-18T22:20:00Z</time>
</trkpt>
      <trkpt lat="10.94155705" lon="-74.84483290">
<time>2014-05-18T22:20:02Z</time>
</trkpt>
      <trkpt lat="10.94142878" lon="-74.84508848">
<time>2014-05-18T22:20:04Z</time>
</trkpt>
      <trkpt lat="10.94129992" lon="-74.84534943">
<time>2014-05-18T22:20:06Z</time>
</trkpt>
      <trkpt lat="10.94116259" lon="-74.84561121">
<time>2014-05-18T22:20:08Z</time>
</trkpt>
      <trkpt lat="10.94101191" lon="-74.84587598">
<time>2014-05-18T22:20:10Z</time>
</trkpt>
      <trkpt lat="10.94086862" lon="-74.84615541">
<time>2014-05-18T22:20:12Z</time>
</trkpt>
      <trkpt lat="10.94072700" lon="-74.84643114">
<time>2014-05-18T22:20:14Z</time>
</trkpt>
      <trkpt lat="10.94057655" lon="-74.84672725">
<time>2014-05-18T22:20:16Z</time>
</trkpt>
      <trkpt lat="10.94041860" lon="-74.84702742">
<time>2014-05-18T22:20:18Z</time>
</trkpt>
      <trkpt lat="10.94026196" lon="-74.84731865">
<time>2014-05-18T22:20:20Z</time>
</trkpt>
      <trkpt lat="10.94008315" lon="-74.84760344">
<time>2014-05-18T22:20:22Z</time>
</trkpt>
      <trkpt lat="10.93990099" lon="-74.84788883">
<time>2014-05-18T22:20:24Z</time>
</trkpt>
      <trkpt lat="10.93973029" lon="-74.84816575">
<time>2014-05-18T22:20:26Z</time>
</trkpt>
      <trkpt lat="10.93955863" lon="-74.84843731">
<time>2014-05-18T22:20:28Z</time>
</trkpt>
      <trkpt lat="10.93939638" lon="-74.84870124">
<time>2014-05-18T22:20:30Z</time>
</trkpt>
      <trkpt lat="10.93923974" lon="-74.84895229">
<time>2014-05-18T22:20:32Z</time>
</trkpt>
      <trkpt lat="10.93908811" lon="-74.84919107">
<time>2014-05-18T22:20:34Z</time>
</trkpt>
      <trkpt lat="10.93895292" lon="-74.84943008">
<time>2014-05-18T22:20:36Z</time>
</trkpt>
      <trkpt lat="10.93885589" lon="-74.84968591">
<time>2014-05-18T22:20:38Z</time>
</trkpt>
      <trkpt lat="10.93878150" lon="-74.84996259">
<time>2014-05-18T22:20:40Z</time>
</trkpt>
      <trkpt lat="10.93874097" lon="-74.85026932">
<time>2014-05-18T22:20:42Z</time>
</trkpt>
      <trkpt lat="10.93871856" lon="-74.85059297">
<time>2014-05-18T22:20:44Z</time>
</trkpt>
      <trkpt lat="10.93869829" lon="-74.85091722">
<time>2014-05-18T22:20:46Z</time>
</trkpt>
      <trkpt lat="10.93868876" lon="-74.85121346">
<time>2014-05-18T22:20:48Z</time>
</trkpt>
      <trkpt lat="10.93868029" lon="-74.85147631">
<time>2014-05-18T22:20:50Z</time>
</trkpt>
      <trkpt lat="10.93866539" lon="-74.85172760">
<time>2014-05-18T22:20:52Z</time>
</trkpt>
      <trkpt lat="10.93864727" lon="-74.85198033">
<time>2014-05-18T22:20:54Z</time>
</trkpt>
      <trkpt lat="10.93862641" lon="-74.85225856">
<time>2014-05-18T22:20:56Z</time>
</trkpt>
      <trkpt lat="10.93859708" lon="-74.85252762">
<time>2014-05-18T22:20:58Z</time>
</trkpt>
      <trkpt lat="10.93855608" lon="-74.85276592">
<time>2014-05-18T22:21:00Z</time>
</trkpt>
      <trkpt lat="10.93851781" lon="-74.85294759">
<time>2014-05-18T22:21:02Z</time>
</trkpt>
      <trkpt lat="10.93849325" lon="-74.85315061">
<time>2014-05-18T22:21:04Z</time>
</trkpt>
      <trkpt lat="10.93849492" lon="-74.85339010">
<time>2014-05-18T22:21:06Z</time>
</trkpt>
      <trkpt lat="10.93850076" lon="-74.85364759">
<time>2014-05-18T22:21:08Z</time>
</trkpt>
      <trkpt lat="10.93847775" lon="-74.85393596">
<time>2014-05-18T22:21:10Z</time>
</trkpt>
      <trkpt lat="10.93842363" lon="-74.85425997">
<time>2014-05-18T22:21:12Z</time>
</trkpt>
      <trkpt lat="10.93835866" lon="-74.85461140">
<time>2014-05-18T22:21:14Z</time>
</trkpt>
      <trkpt lat="10.93827438" lon="-74.85497642">
<time>2014-05-18T22:21:16Z</time>
</trkpt>
      <trkpt lat="10.93815696" lon="-74.85533392">
<time>2014-05-18T22:21:18Z</time>
</trkpt>
      <trkpt lat="10.93801594" lon="-74.85569179">
<time>2014-05-18T22:21:20Z</time>
</trkpt>
      <trkpt lat="10.93786442" lon="-74.85604739">
<time>2014-05-18T22:21:22Z</time>
</trkpt>
      <trkpt lat="10.93770826" lon="-74.85640681">
<time>2014-05-18T22:21:24Z</time>
</trkpt>
      <trkpt lat="10.93755925" lon="-74.85676241">
<time>2014-05-18T22:21:26Z</time>
</trkpt>
      <trkpt lat="10.93740642" lon="-74.85711014">
<time>2014-05-18T22:21:28Z</time>
</trkpt>
      <trkpt lat="10.93724012" lon="-74.85745847">
<time>2014-05-18T22:21:30Z</time>
</trkpt>
      <trkpt lat="10.93703890" lon="-74.85780215">
<time>2014-05-18T22:21:32Z</time>
</trkpt>
      <trkpt lat="10.93679225" lon="-74.85813105">
<time>2014-05-18T22:21:34Z</time>
</trkpt>
      <trkpt lat="10.93651450" lon="-74.85845363">
<time>2014-05-18T22:21:36Z</time>
</trkpt>
      <trkpt lat="10.93619430" lon="-74.85874355">
<time>2014-05-18T22:21:38Z</time>
</trkpt>
      <trkpt lat="10.93587494" lon="-74.85903108">
<time>2014-05-18T22:21:40Z</time>
</trkpt>
      <trkpt lat="10.93555188" lon="-74.85932314">
<time>2014-05-18T22:21:42Z</time>
</trkpt>
      <trkpt lat="10.93522632" lon="-74.85961378">
<time>2014-05-18T22:21:44Z</time>
</trkpt>
      <trkpt lat="10.93489790" lon="-74.85991359">
<time>2014-05-18T22:21:46Z</time>
</trkpt>
      <trkpt lat="10.93457162" lon="-74.86022139">
<time>2014-05-18T22:21:48Z</time>
</trkpt>
      <trkpt lat="10.93423676" lon="-74.86053097">
<time>2014-05-18T22:21:50Z</time>
</trkpt>
      <trkpt lat="10.93390882" lon="-74.86084592">
<time>2014-05-18T22:21:52Z</time>
</trkpt>
      <trkpt lat="10.93356812" lon="-74.86116433">
<time>2014-05-18T22:21:54Z</time>
</trkpt>
      <trkpt lat="10.93318331" lon="-74.86152077">
<time>2014-05-18T22:21:56Z</time>
</trkpt>
      <trkpt lat="10.93277228" lon="-74.86193991">
<time>2014-05-18T22:21:58Z</time>
</trkpt>
      <trkpt lat="10.93234205" lon="-74.86240959">
<time>2014-05-18T22:22:00Z</time>
</trkpt>
      <trkpt lat="10.93189490" lon="-74.86291683">
<time>2014-05-18T22:22:02Z</time>
</trkpt>
      <trkpt lat="10.93142772" lon="-74.86344361">
<time>2014-05-18T22:22:04Z</time>
</trkpt>
      <trkpt lat="10.93097413" lon="-74.86393774">
<time>2014-05-18T22:22:06Z</time>
</trkpt>
      <trkpt lat="10.93054092" lon="-74.86440992">
<time>2014-05-18T22:22:08Z</time>
</trkpt>
      <trkpt lat="10.93014383" lon="-74.86483741">
<time>2014-05-18T22:22:10Z</time>
</trkpt>
      <trkpt lat="10.92976272" lon="-74.86522806">
<time>2014-05-18T22:22:12Z</time>
</trkpt>
      <trkpt lat="10.92936897" lon="-74.86554909">
<time>2014-05-18T22:22:14Z</time>
</trkpt>
      <trkpt lat="10.92895162" lon="-74.86578560">
<time>2014-05-18T22:22:16Z</time>
</trkpt>
      <trkpt lat="10.92846739" lon="-74.86596215">
<time>2014-05-18T22:22:18Z</time>
</trkpt>
      <trkpt lat="10.92798281" lon="-74.86611676">
<time>2014-05-18T22:22:20Z</time>
</trkpt>
      <trkpt lat="10.92755628" lon="-74.86624372">
<time>2014-05-18T22:22:22Z</time>
</trkpt>
      <trkpt lat="10.92717063" lon="-74.86634815">
<time>2014-05-18T22:22:24Z</time>
</trkpt>
      <trkpt lat="10.92678583" lon="-74.86646974">
<time>2014-05-18T22:22:26Z</time>
</trkpt>
      <trkpt lat="10.92639780" lon="-74.86665130">
<time>2014-05-18T22:22:28Z</time>
</trkpt>
      <trkpt lat="10.92600358" lon="-74.86690080">
<time>2014-05-18T22:22:30Z</time>
</trkpt>
      <trkpt lat="10.92561865" lon="-74.86717725">
<time>2014-05-18T22:22:32Z</time>
</trkpt>
      <trkpt lat="10.92523193" lon="-74.86747193">
<time>2014-05-18T22:22:34Z</time>
</trkpt>
      <trkpt lat="10.92483544" lon="-74.86778176">
<time>2014-05-18T22:22:36Z</time>
</trkpt>
      <trkpt lat="10.92444623" lon="-74.86809397">
<time>2014-05-18T22:22:38Z</time>
</trkpt>
      <trkpt lat="10.92407072" lon="-74.86841130">
<time>2014-05-18T22:22:40Z</time>
</trkpt>
      <trkpt lat="10.92371845" lon="-74.86873305">
<time>2014-05-18T22:22:42Z</time>
</trkpt>
      <trkpt lat="10.92339540" lon="-74.86907363">
<time>2014-05-18T22:22:44Z</time>
</trkpt>
      <trkpt lat="10.92310572" lon="-74.86945343">
<time>2014-05-18T22:22:46Z</time>
</trkpt>
      <trkpt lat="10.92283332" lon="-74.86986327">
<time>2014-05-18T22:22:48Z</time>
</trkpt>
      <trkpt lat="10.92257428" lon="-74.87028122">
<time>2014-05-18T22:22:50Z</time>
</trkpt>
      <trkpt lat="10.92231083" lon="-74.87070549">
<time>2014-05-18T22:22:52Z</time>
</trkpt>
      <trkpt lat="10.92204964" lon="-74.87113810">
<time>2014-05-18T22:22:54Z</time>
</trkpt>
      <trkpt lat="10.92178857" lon="-74.87156916">
<time>2014-05-18T22:22:56Z</time>
</trkpt>
      <trkpt lat="10.92151761" lon="-74.87201059">
<time>2014-05-18T22:22:58Z</time>
</trkpt>
      <trkpt lat="10.92124355" lon="-74.87245345">
<time>2014-05-18T22:23:00Z</time>
</trkpt>
      <trkpt lat="10.92096078" lon="-74.87290227">
<time>2014-05-18T22:23:02Z</time>
</trkpt>
      <trkpt lat="10.92068326" lon="-74.87336397">
<time>2014-05-18T22:23:04Z</time>
</trkpt>
      <trkpt lat="10.92040324" lon="-74.87382233">
<time>2014-05-18T22:23:06Z</time>
</trkpt>
      <trkpt lat="10.92012262" lon="-74.87428772">
<time>2014-05-18T22:23:08Z</time>
</trkpt>
      <trkpt lat="10.91984391" lon="-74.87472498">
<time>2014-05-18T22:23:10Z</time>
</trkpt>
      <trkpt lat="10.91958439" lon="-74.87508821">
<time>2014-05-18T22:23:12Z</time>
</trkpt>
      <trkpt lat="10.91932273" lon="-74.87536561">
<time>2014-05-18T22:23:14Z</time>
</trkpt>
      <trkpt lat="10.91903579" lon="-74.87558091">
<time>2014-05-18T22:23:16Z</time>
</trkpt>
      <trkpt lat="10.91868949" lon="-74.87576306">
<time>2014-05-18T22:23:18Z</time>
</trkpt>
      <trkpt lat="10.91829658" lon="-74.87590480">
<time>2014-05-18T22:23:20Z</time>
</trkpt>
      <trkpt lat="10.91786659" lon="-74.87601697">
<time>2014-05-18T22:23:22Z</time>
</trkpt>
      <trkpt lat="10.91741788" lon="-74.87611794">
<time>2014-05-18T22:23:24Z</time>
</trkpt>
      <trkpt lat="10.91696322" lon="-74.87622344">
<time>2014-05-18T22:23:26Z</time>
</trkpt>
      <trkpt lat="10.91649473" lon="-74.87633526">
<time>2014-05-18T22:23:28Z</time>
</trkpt>
      <trkpt lat="10.91602361" lon="-74.87646055">
<time>2014-05-18T22:23:30Z</time>
</trkpt>
      <trkpt lat="10.91557372" lon="-74.87660396">
<time>2014-05-18T22:23:32Z</time>
</trkpt>
      <trkpt lat="10.91512883" lon="-74.87677145">
<time>2014-05-18T22:23:34Z</time>
</trkpt>
      <trkpt lat="10.91467905" lon="-74.87697589">
<time>2014-05-18T22:23:36Z</time>
</trkpt>
      <trkpt lat="10.91423190" lon="-74.87719965">
<time>2014-05-18T22:23:38Z</time>
</trkpt>
      <trkpt lat="10.91378641" lon="-74.87742865">
<time>2014-05-18T22:23:40Z</time>
</trkpt>
      <trkpt lat="10.91336179" lon="-74.87767243">
<time>2014-05-18T22:23:42Z</time>
</trkpt>
      <trkpt lat="10.91294980" lon="-74.87795389">
<time>2014-05-18T22:23:44Z</time>
</trkpt>
      <trkpt lat="10.91254199" lon="-74.87826824">
<time>2014-05-18T22:23:46Z</time>
</trkpt>
      <trkpt lat="10.91217005" lon="-74.87857831">
<time>2014-05-18T22:23:48Z</time>
</trkpt>
      <trkpt lat="10.91183674" lon="-74.87887597">
<time>2014-05-18T22:23:50Z</time>
</trkpt>
      <trkpt lat="10.91152978" lon="-74.87915528">
<time>2014-05-18T22:23:52Z</time>
</trkpt>
      <trkpt lat="10.91125309" lon="-74.87941599">
<time>2014-05-18T22:23:54Z</time>
</trkpt>
      <trkpt lat="10.91098177" lon="-74.87966943">
<time>2014-05-18T22:23:56Z</time>
</trkpt>
      <trkpt lat="10.91069281" lon="-74.87992847">
<time>2014-05-18T22:23:58Z</time>
</trkpt>
      <trkpt lat="10.91037977" lon="-74.88019943">
<time>2014-05-18T22:24:00Z</time>
</trkpt>
      <trkpt lat="10.91004205" lon="-74.88048697">
<time>2014-05-18T22:24:02Z</time>
</trkpt>
      <trkpt lat="10.90969408" lon="-74.88078630">
<time>2014-05-18T22:24:04Z</time>
</trkpt>
      <trkpt lat="10.90933990" lon="-74.88108265">
<time>2014-05-18T22:24:06Z</time>
</trkpt>
      <trkpt lat="10.90899932" lon="-74.88136756">
<time>2014-05-18T22:24:08Z</time>
</trkpt>
      <trkpt lat="10.90867996" lon="-74.88162339">
<time>2014-05-18T22:24:10Z</time>
</trkpt>
      <trkpt lat="10.90835798" lon="-74.88184083">
<time>2014-05-18T22:24:12Z</time>
</trkpt>
      <trkpt lat="10.90801156" lon="-74.88202560">
<time>2014-05-18T22:24:14Z</time>
</trkpt>
      <trkpt lat="10.90763557" lon="-74.88217783">
<time>2014-05-18T22:24:16Z</time>
</trkpt>
      <trkpt lat="10.90726340" lon="-74.88227999">
<time>2014-05-18T22:24:18Z</time>
</trkpt>
      <trkpt lat="10.90688264" lon="-74.88234794">
<time>2014-05-18T22:24:20Z</time>
</trkpt>
      <trkpt lat="10.90649414" lon="-74.88239598">
<time>2014-05-18T22:24:22Z</time>
</trkpt>
      <trkpt lat="10.90611565" lon="-74.88242590">
<time>2014-05-18T22:24:24Z</time>
</trkpt>
      <trkpt lat="10.90574610" lon="-74.88245499">
<time>2014-05-18T22:24:26Z</time>
</trkpt>
      <trkpt lat="10.90535581" lon="-74.88247991">
<time>2014-05-18T22:24:28Z</time>
</trkpt>
      <trkpt lat="10.90495074" lon="-74.88249731">
<time>2014-05-18T22:24:30Z</time>
</trkpt>
      <trkpt lat="10.90455949" lon="-74.88251460">
<time>2014-05-18T22:24:32Z</time>
</trkpt>
      <trkpt lat="10.90419757" lon="-74.88253045">
<time>2014-05-18T22:24:34Z</time>
</trkpt>
      <trkpt lat="10.90384245" lon="-74.88255107">
<time>2014-05-18T22:24:36Z</time>
</trkpt>
      <trkpt lat="10.90352142" lon="-74.88256645">
<time>2014-05-18T22:24:38Z</time>
</trkpt>
      <trkpt lat="10.90323782" lon="-74.88258708">
<time>2014-05-18T22:24:40Z</time>
</trkpt>
      <trkpt lat="10.90298223" lon="-74.88260829">
<time>2014-05-18T22:24:42Z</time>
</trkpt>
      <trkpt lat="10.90276647" lon="-74.88262749">
<time>2014-05-18T22:24:44Z</time>
</trkpt>
      <trkpt lat="10.90255332" lon="-74.88264298">
<time>2014-05-18T22:24:46Z</time>
</trkpt>
      <trkpt lat="10.90231049" lon="-74.88266659">
<time>2014-05-18T22:24:48Z</time>
</trkpt>
      <trkpt lat="10.90205705" lon="-74.88270772">
<time>2014-05-18T22:24:50Z</time>
</trkpt>
      <trkpt lat="10.90181959" lon="-74.88275123">
<time>2014-05-18T22:24:52Z</time>
</trkpt>
      <trkpt lat="10.90153873" lon="-74.88277578">
<time>2014-05-18T22:24:54Z</time>
</trkpt>
      <trkpt lat="10.90123272" lon="-74.88282573">
<time>2014-05-18T22:24:56Z</time>
</trkpt>
      <trkpt lat="10.90099573" lon="-74.88286257">
<time>2014-05-18T22:24:58Z</time>
</trkpt>
      <trkpt lat="10.90084493" lon="-74.88288844">
<time>2014-05-18T22:25:00Z</time>
</trkpt>
      <trkpt lat="10.90073562" lon="-74.88290358">
<time>2014-05-18T22:25:02Z</time>
</trkpt>
      <trkpt lat="10.90063024" lon="-74.88292360">
<time>2014-05-18T22:25:04Z</time>
</trkpt>
      <trkpt lat="10.90052414" lon="-74.88295007">
<time>2014-05-18T22:25:06Z</time>
</trkpt>
      <trkpt lat="10.90040731" lon="-74.88296390">
<time>2014-05-18T22:25:08Z</time>
</trkpt>
      <trkpt lat="10.90027523" lon="-74.88298225">
<time>2014-05-18T22:25:10Z</time>
</trkpt>
      <trkpt lat="10.90012872" lon="-74.88300157">
<time>2014-05-18T22:25:12Z</time>
</trkpt>
      <trkpt lat="10.89997661" lon="-74.88302243">
<time>2014-05-18T22:25:14Z</time>
</trkpt>
      <trkpt lat="10.89981365" lon="-74.88305449">
<time>2014-05-18T22:25:16Z</time>
</trkpt>
      <trkpt lat="10.89964807" lon="-74.88307416">
<time>2014-05-18T22:25:18Z</time>
</trkpt>
      <trkpt lat="10.89947677" lon="-74.88310075">
<time>2014-05-18T22:25:20Z</time>
</trkpt>
      <trkpt lat="10.89928961" lon="-74.88313544">
<time>2014-05-18T22:25:22Z</time>
</trkpt>
      <trkpt lat="10.89907181" lon="-74.88316000">
<time>2014-05-18T22:25:24Z</time>
</trkpt>
      <trkpt lat="10.89884222" lon="-74.88318872">
<time>2014-05-18T22:25:26Z</time>
</trkpt>
      <trkpt lat="10.89862061" lon="-74.88322330">
<time>2014-05-18T22:25:28Z</time>
</trkpt>
      <trkpt lat="10.89841306" lon="-74.88324833">
<time>2014-05-18T22:25:30Z</time>
</trkpt>
      <trkpt lat="10.89820623" lon="-74.88328230">
<time>2014-05-18T22:25:32Z</time>
</trkpt>
      <trkpt lat="10.89798665" lon="-74.88332212">
<time>2014-05-18T22:25:34Z</time>
</trkpt>
      <trkpt lat="10.89774513" lon="-74.88335705">
<time>2014-05-18T22:25:36Z</time>
</trkpt>
      <trkpt lat="10.89752126" lon="-74.88338995">
<time>2014-05-18T22:25:38Z</time>
</trkpt>
      <trkpt lat="10.89730263" lon="-74.88341832">
<time>2014-05-18T22:25:40Z</time>
</trkpt>
      <trkpt lat="10.89709616" lon="-74.88344061">
<time>2014-05-18T22:25:42Z</time>
</trkpt>
      <trkpt lat="10.89689839" lon="-74.88346410">
<time>2014-05-18T22:25:44Z</time>
</trkpt>
      <trkpt lat="10.89670479" lon="-74.88349533">
<time>2014-05-18T22:25:46Z</time>
</trkpt>
      <trkpt lat="10.89649856" lon="-74.88352811">
<time>2014-05-18T22:25:48Z</time>
</trkpt>
      <trkpt lat="10.89627230" lon="-74.88356066">
<time>2014-05-18T22:25:50Z</time>
</trkpt>
      <trkpt lat="10.89602172" lon="-74.88359439">
<time>2014-05-18T22:25:52Z</time>
</trkpt>
      <trkpt lat="10.89574897" lon="-74.88363755">
<time>2014-05-18T22:25:54Z</time>
</trkpt>
      <trkpt lat="10.89545441" lon="-74.88368881">
<time>2014-05-18T22:25:56Z</time>
</trkpt>
      <trkpt lat="10.89512026" lon="-74.88373530">
<time>2014-05-18T22:25:58Z</time>
</trkpt>
      <trkpt lat="10.89475882" lon="-74.88379776">
<time>2014-05-18T22:26:00Z</time>
</trkpt>
      <trkpt lat="10.89439189" lon="-74.88389122">
<time>2014-05-18T22:26:02Z</time>
</trkpt>
      <trkpt lat="10.89405811" lon="-74.88402891">
<time>2014-05-18T22:26:04Z</time>
</trkpt>
      <trkpt lat="10.89374566" lon="-74.88420761">
<time>2014-05-18T22:26:06Z</time>
</trkpt>
      <trkpt lat="10.89344382" lon="-74.88442731">
<time>2014-05-18T22:26:08Z</time>
</trkpt>
      <trkpt lat="10.89313555" lon="-74.88466144">
<time>2014-05-18T22:26:10Z</time>
</trkpt>
      <trkpt lat="10.89282763" lon="-74.88490593">
<time>2014-05-18T22:26:12Z</time>
</trkpt>
      <trkpt lat="10.89254808" lon="-74.88512743">
<time>2014-05-18T22:26:14Z</time>
</trkpt>
      <trkpt lat="10.89228261" lon="-74.88533723">
<time>2014-05-18T22:26:16Z</time>
</trkpt>
      <trkpt lat="10.89200842" lon="-74.88556111">
<time>2014-05-18T22:26:18Z</time>
</trkpt>
      <trkpt lat="10.89172292" lon="-74.88578725">
<time>2014-05-18T22:26:20Z</time>
</trkpt>
      <trkpt lat="10.89143324" lon="-74.88603175">
<time>2014-05-18T22:26:22Z</time>
</trkpt>
      <trkpt lat="10.89112806" lon="-74.88628125">
<time>2014-05-18T22:26:24Z</time>
</trkpt>
      <trkpt lat="10.89082456" lon="-74.88652408">
<time>2014-05-18T22:26:26Z</time>
</trkpt>
      <trkpt lat="10.89054012" lon="-74.88674843">
<time>2014-05-18T22:26:28Z</time>
</trkpt>
      <trkpt lat="10.89027023" lon="-74.88696814">
<time>2014-05-18T22:26:30Z</time>
</trkpt>
      <trkpt lat="10.89000225" lon="-74.88718307">
<time>2014-05-18T22:26:32Z</time>
</trkpt>
      <trkpt lat="10.88972247" lon="-74.88740206">
<time>2014-05-18T22:26:34Z</time>
</trkpt>
      <trkpt lat="10.88942742" lon="-74.88763964">
<time>2014-05-18T22:26:36Z</time>
</trkpt>
      <trkpt lat="10.88910675" lon="-74.88784528">
<time>2014-05-18T22:26:38Z</time>
</trkpt>
      <trkpt lat="10.88875544" lon="-74.88801432">
<time>2014-05-18T22:26:40Z</time>
</trkpt>
      <trkpt lat="10.88836765" lon="-74.88816392">
<time>2014-05-18T22:26:42Z</time>
</trkpt>
      <trkpt lat="10.88796580" lon="-74.88832057">
<time>2014-05-18T22:26:44Z</time>
</trkpt>
      <trkpt lat="10.88755214" lon="-74.88848233">
<time>2014-05-18T22:26:46Z</time>
</trkpt>
      <trkpt lat="10.88712513" lon="-74.88863850">
<time>2014-05-18T22:26:48Z</time>
</trkpt>
      <trkpt lat="10.88667822" lon="-74.88881266">
<time>2014-05-18T22:26:50Z</time>
</trkpt>
      <trkpt lat="10.88621640" lon="-74.88897228">
<time>2014-05-18T22:26:52Z</time>
</trkpt>
      <trkpt lat="10.88574290" lon="-74.88915431">
<time>2014-05-18T22:26:54Z</time>
</trkpt>
      <trkpt lat="10.88526583" lon="-74.88932467">
<time>2014-05-18T22:26:56Z</time>
</trkpt>
      <trkpt lat="10.88477707" lon="-74.88946426">
<time>2014-05-18T22:26:58Z</time>
</trkpt>
      <trkpt lat="10.88429427" lon="-74.88957429">
<time>2014-05-18T22:27:00Z</time>
</trkpt>
      <trkpt lat="10.88381958" lon="-74.88968098">
<time>2014-05-18T22:27:02Z</time>
</trkpt>
      <trkpt lat="10.88334823" lon="-74.88979399">
<time>2014-05-18T22:27:04Z</time>
</trkpt>
      <trkpt lat="10.88288689" lon="-74.88992929">
<time>2014-05-18T22:27:06Z</time>
</trkpt>
      <trkpt lat="10.88244772" lon="-74.89011216">
<time>2014-05-18T22:27:08Z</time>
</trkpt>
      <trkpt lat="10.88201165" lon="-74.89033675">
<time>2014-05-18T22:27:10Z</time>
</trkpt>
      <trkpt lat="10.88156331" lon="-74.89056957">
<time>2014-05-18T22:27:12Z</time>
</trkpt>
      <trkpt lat="10.88110077" lon="-74.89079678">
<time>2014-05-18T22:27:14Z</time>
</trkpt>
      <trkpt lat="10.88064742" lon="-74.89102125">
<time>2014-05-18T22:27:16Z</time>
</trkpt>
      <trkpt lat="10.88020933" lon="-74.89120841">
<time>2014-05-18T22:27:18Z</time>
</trkpt>
      <trkpt lat="10.87977123" lon="-74.89135027">
<time>2014-05-18T22:27:20Z</time>
</trkpt>
      <trkpt lat="10.87931216" lon="-74.89146733">
<time>2014-05-18T22:27:22Z</time>
</trkpt>
      <trkpt lat="10.87883162" lon="-74.89157438">
<time>2014-05-18T22:27:24Z</time>
</trkpt>
      <trkpt lat="10.87833560" lon="-74.89168739">
<time>2014-05-18T22:27:26Z</time>
</trkpt>
      <trkpt lat="10.87783444" lon="-74.89181066">
<time>2014-05-18T22:27:28Z</time>
</trkpt>
      <trkpt lat="10.87732983" lon="-74.89192748">
<time>2014-05-18T22:27:30Z</time>
</trkpt>
      <trkpt lat="10.87684083" lon="-74.89204156">
<time>2014-05-18T22:27:32Z</time>
</trkpt>
      <trkpt lat="10.87635732" lon="-74.89216673">
<time>2014-05-18T22:27:34Z</time>
</trkpt>
      <trkpt lat="10.87587142" lon="-74.89229381">
<time>2014-05-18T22:27:36Z</time>
</trkpt>
      <trkpt lat="10.87538910" lon="-74.89240181">
<time>2014-05-18T22:27:38Z</time>
</trkpt>
      <trkpt lat="10.87491083" lon="-74.89251530">
<time>2014-05-18T22:27:40Z</time>
</trkpt>
      <trkpt lat="10.87442505" lon="-74.89263511">
<time>2014-05-18T22:27:42Z</time>
</trkpt>
      <trkpt lat="10.87394798" lon="-74.89277780">
<time>2014-05-18T22:27:44Z</time>
</trkpt>
      <trkpt lat="10.87356472" lon="-74.89290774">
<time>2014-05-18T22:27:46Z</time>
</trkpt>
      <trkpt lat="10.87327158" lon="-74.89305925">
<time>2014-05-18T22:27:48Z</time>
</trkpt>
      <trkpt lat="10.87295163" lon="-74.89322674">
<time>2014-05-18T22:27:50Z</time>
</trkpt>
      <trkpt lat="10.87258708" lon="-74.89338458">
<time>2014-05-18T22:27:52Z</time>
</trkpt>
      <trkpt lat="10.87219894" lon="-74.89354396">
<time>2014-05-18T22:27:54Z</time>
</trkpt>
      <trkpt lat="10.87178743" lon="-74.89370859">
<time>2014-05-18T22:27:56Z</time>
</trkpt>
      <trkpt lat="10.87136507" lon="-74.89388573">
<time>2014-05-18T22:27:58Z</time>
</trkpt>
      <trkpt lat="10.87091827" lon="-74.89406681">
<time>2014-05-18T22:28:00Z</time>
</trkpt>
      <trkpt lat="10.87045288" lon="-74.89424396">
<time>2014-05-18T22:28:02Z</time>
</trkpt>
      <trkpt lat="10.86996078" lon="-74.89440107">
<time>2014-05-18T22:28:04Z</time>
</trkpt>
      <trkpt lat="10.86945510" lon="-74.89453614">
<time>2014-05-18T22:28:06Z</time>
</trkpt>
      <trkpt lat="10.86893547" lon="-74.89466906">
<time>2014-05-18T22:28:08Z</time>
</trkpt>
      <trkpt lat="10.86840558" lon="-74.89480078">
<time>2014-05-18T22:28:10Z</time>
</trkpt>
      <trkpt lat="10.86786580" lon="-74.89493191">
<time>2014-05-18T22:28:12Z</time>
</trkpt>
      <trkpt lat="10.86732113" lon="-74.89506257">
<time>2014-05-18T22:28:14Z</time>
</trkpt>
      <trkpt lat="10.86677313" lon="-74.89518547">
<time>2014-05-18T22:28:16Z</time>
</trkpt>
      <trkpt lat="10.86622322" lon="-74.89531326">
<time>2014-05-18T22:28:18Z</time>
</trkpt>
      <trkpt lat="10.86566496" lon="-74.89544523">
<time>2014-05-18T22:28:20Z</time>
</trkpt>
      <trkpt lat="10.86510122" lon="-74.89558029">
<time>2014-05-18T22:28:22Z</time>
</trkpt>
      <trkpt lat="10.86453009" lon="-74.89571095">
<time>2014-05-18T22:28:24Z</time>
</trkpt>
      <trkpt lat="10.86395812" lon="-74.89585030">
<time>2014-05-18T22:28:26Z</time>
</trkpt>
      <trkpt lat="10.86338794" lon="-74.89599323">
<time>2014-05-18T22:28:28Z</time>
</trkpt>
      <trkpt lat="10.86281848" lon="-74.89612746">
<time>2014-05-18T22:28:30Z</time>
</trkpt>
      <trkpt lat="10.86224473" lon="-74.89624774">
<time>2014-05-18T22:28:32Z</time>
</trkpt>
      <trkpt lat="10.86166227" lon="-74.89638340">
<time>2014-05-18T22:28:34Z</time>
</trkpt>
      <trkpt lat="10.86108863" lon="-74.89652526">
<time>2014-05-18T22:28:36Z</time>
</trkpt>
      <trkpt lat="10.86051679" lon="-74.89667726">
<time>2014-05-18T22:28:38Z</time>
</trkpt>
      <trkpt lat="10.85997748" lon="-74.89681578">
<time>2014-05-18T22:28:40Z</time>
</trkpt>
      <trkpt lat="10.85945678" lon="-74.89690363">
<time>2014-05-18T22:28:42Z</time>
</trkpt>
      <trkpt lat="10.85894299" lon="-74.89692926">
<time>2014-05-18T22:28:44Z</time>
</trkpt>
      <trkpt lat="10.85843277" lon="-74.89690495">
<time>2014-05-18T22:28:46Z</time>
</trkpt>
      <trkpt lat="10.85792947" lon="-74.89682412">
<time>2014-05-18T22:28:48Z</time>
</trkpt>
      <trkpt lat="10.85743308" lon="-74.89670074">
<time>2014-05-18T22:28:50Z</time>
</trkpt>
      <trkpt lat="10.85694206" lon="-74.89655316">
<time>2014-05-18T22:28:52Z</time>
</trkpt>
      <trkpt lat="10.85643959" lon="-74.89639461">
<time>2014-05-18T22:28:54Z</time>
</trkpt>
      <trkpt lat="10.85592365" lon="-74.89623690">
<time>2014-05-18T22:28:56Z</time>
</trkpt>
      <trkpt lat="10.85539579" lon="-74.89606988">
<time>2014-05-18T22:28:58Z</time>
</trkpt>
      <trkpt lat="10.85487247" lon="-74.89590108">
<time>2014-05-18T22:29:00Z</time>
</trkpt>
      <trkpt lat="10.85435545" lon="-74.89573824">
<time>2014-05-18T22:29:02Z</time>
</trkpt>
      <trkpt lat="10.85384488" lon="-74.89557743">
<time>2014-05-18T22:29:04Z</time>
</trkpt>
      <trkpt lat="10.85335863" lon="-74.89542508">
<time>2014-05-18T22:29:06Z</time>
</trkpt>
      <trkpt lat="10.85291946" lon="-74.89527845">
<time>2014-05-18T22:29:08Z</time>
</trkpt>
      <trkpt lat="10.85252345" lon="-74.89516115">
<time>2014-05-18T22:29:10Z</time>
</trkpt>
      <trkpt lat="10.85217631" lon="-74.89507008">
<time>2014-05-18T22:29:12Z</time>
</trkpt>
      <trkpt lat="10.85185373" lon="-74.89503407">
<time>2014-05-18T22:29:14Z</time>
</trkpt>
      <trkpt lat="10.85154474" lon="-74.89505458">
<time>2014-05-18T22:29:16Z</time>
</trkpt>
      <trkpt lat="10.85123992" lon="-74.89513433">
<time>2014-05-18T22:29:18Z</time>
</trkpt>
      <trkpt lat="10.85093760" lon="-74.89524841">
<time>2014-05-18T22:29:20Z</time>
</trkpt>
      <trkpt lat="10.85064340" lon="-74.89539111">
<time>2014-05-18T22:29:22Z</time>
</trkpt>
      <trkpt lat="10.85035264" lon="-74.89554811">
<time>2014-05-18T22:29:24Z</time>
</trkpt>
      <trkpt lat="10.85011208" lon="-74.89568245">
<time>2014-05-18T22:29:26Z</time>
</trkpt>
      <trkpt lat="10.84991598" lon="-74.89579344">
<time>2014-05-18T22:29:28Z</time>
</trkpt>
      <trkpt lat="10.84973061" lon="-74.89589977">
<time>2014-05-18T22:29:30Z</time>
</trkpt>
      <trkpt lat="10.84955192" lon="-74.89599133">
<time>2014-05-18T22:29:32Z</time>
</trkpt>
      <trkpt lat="10.84939265" lon="-74.89607930">
<time>2014-05-18T22:29:34Z</time>
</trkpt>
      <trkpt lat="10.84926999" lon="-74.89614880">
<time>2014-05-18T22:29:36Z</time>
</trkpt>
      <trkpt lat="10.84914899" lon="-74.89622223">
<time>2014-05-18T22:29:38Z</time>
</trkpt>
      <trkpt lat="10.84900630" lon="-74.89631057">
<time>2014-05-18T22:29:40Z</time>
</trkpt>
      <trkpt lat="10.84886956" lon="-74.89639449">
<time>2014-05-18T22:29:42Z</time>
</trkpt>
      <trkpt lat="10.84874189" lon="-74.89647365">
<time>2014-05-18T22:29:44Z</time>
</trkpt>
      <trkpt lat="10.84859443" lon="-74.89656782">
<time>2014-05-18T22:29:46Z</time>
</trkpt>
      <trkpt lat="10.84841323" lon="-74.89667177">
<time>2014-05-18T22:29:48Z</time>
</trkpt>
      <trkpt lat="10.84819293" lon="-74.89680123">
<time>2014-05-18T22:29:50Z</time>
</trkpt>
      <trkpt lat="10.84793544" lon="-74.89695156">
<time>2014-05-18T22:29:52Z</time>
</trkpt>
      <trkpt lat="10.84766877" lon="-74.89711344">
<time>2014-05-18T22:29:54Z</time>
</trkpt>
      <trkpt lat="10.84740579" lon="-74.89727247">
<time>2014-05-18T22:29:56Z</time>
</trkpt>
      <trkpt lat="10.84713948" lon="-74.89742613">
<time>2014-05-18T22:29:58Z</time>
</trkpt>
      <trkpt lat="10.84687197" lon="-74.89758575">
<time>2014-05-18T22:30:00Z</time>
</trkpt>
      <trkpt lat="10.84659493" lon="-74.89775240">
<time>2014-05-18T22:30:02Z</time>
</trkpt>
      <trkpt lat="10.84631658" lon="-74.89791381">
<time>2014-05-18T22:30:04Z</time>
</trkpt>
      <trkpt lat="10.84603894" lon="-74.89807045">
<time>2014-05-18T22:30:06Z</time>
</trkpt>
      <trkpt lat="10.84573722" lon="-74.89825547">
<time>2014-05-18T22:30:08Z</time>
</trkpt>
      <trkpt lat="10.84540021" lon="-74.89846289">
<time>2014-05-18T22:30:10Z</time>
</trkpt>
      <trkpt lat="10.84503627" lon="-74.89869392">
<time>2014-05-18T22:30:12Z</time>
</trkpt>
      <trkpt lat="10.84465992" lon="-74.89892924">
<time>2014-05-18T22:30:14Z</time>
</trkpt>
      <trkpt lat="10.84427762" lon="-74.89916408">
<time>2014-05-18T22:30:16Z</time>
</trkpt>
      <trkpt lat="10.84389091" lon="-74.89940464">
<time>2014-05-18T22:30:18Z</time>
</trkpt>
      <trkpt lat="10.84348893" lon="-74.89964128">
<time>2014-05-18T22:30:20Z</time>
</trkpt>
      <trkpt lat="10.84307039" lon="-74.89989030">
<time>2014-05-18T22:30:22Z</time>
</trkpt>
      <trkpt lat="10.84264743" lon="-74.90012014">
<time>2014-05-18T22:30:24Z</time>
</trkpt>
      <trkpt lat="10.84222674" lon="-74.90032709">
<time>2014-05-18T22:30:26Z</time>
</trkpt>
      <trkpt lat="10.84180033" lon="-74.90052807">
<time>2014-05-18T22:30:28Z</time>
</trkpt>
      <trkpt lat="10.84136271" lon="-74.90072191">
<time>2014-05-18T22:30:30Z</time>
</trkpt>
      <trkpt lat="10.84092498" lon="-74.90093625">
<time>2014-05-18T22:30:32Z</time>
</trkpt>
      <trkpt lat="10.84051657" lon="-74.90112722">
<time>2014-05-18T22:30:34Z</time>
</trkpt>
      <trkpt lat="10.84017122" lon="-74.90128791">
<time>2014-05-18T22:30:36Z</time>
</trkpt>
      <trkpt lat="10.83987248" lon="-74.90141857">
<time>2014-05-18T22:30:38Z</time>
</trkpt>
      <trkpt lat="10.83960211" lon="-74.90152276">
<time>2014-05-18T22:30:40Z</time>
</trkpt>
      <trkpt lat="10.83936679" lon="-74.90159214">
<time>2014-05-18T22:30:42Z</time>
</trkpt>
      <trkpt lat="10.83914316" lon="-74.90166211">
<time>2014-05-18T22:30:44Z</time>
</trkpt>
      <trkpt lat="10.83892679" lon="-74.90173829">
<time>2014-05-18T22:30:46Z</time>
</trkpt>
      <trkpt lat="10.83869421" lon="-74.90181613">
<time>2014-05-18T22:30:48Z</time>
</trkpt>
      <trkpt lat="10.83846927" lon="-74.90188694">
<time>2014-05-18T22:30:50Z</time>
</trkpt>
      <trkpt lat="10.83828199" lon="-74.90195072">
<time>2014-05-18T22:30:52Z</time>
</trkpt>
      <trkpt lat="10.83811545" lon="-74.90199566">
<time>2014-05-18T22:30:54Z</time>
</trkpt>
      <trkpt lat="10.83799100" lon="-74.90204656">
<time>2014-05-18T22:30:56Z</time>
</trkpt>
      <trkpt lat="10.83789325" lon="-74.90208125">
<time>2014-05-18T22:30:58Z</time>
</trkpt>
      <trkpt lat="10.83781314" lon="-74.90211225">
<time>2014-05-18T22:31:00Z</time>
</trkpt>
      <trkpt lat="10.83775723" lon="-74.90213060">
<time>2014-05-18T22:31:02Z</time>
</trkpt>
      <trkpt lat="10.83771658" lon="-74.90215826">
<time>2014-05-18T22:31:04Z</time>
</trkpt>
      <trkpt lat="10.83767331" lon="-74.90218174">
<time>2014-05-18T22:31:06Z</time>
</trkpt>
      <trkpt lat="10.83763111" lon="-74.90220129">
<time>2014-05-18T22:31:08Z</time>
</trkpt>
      <trkpt lat="10.83757448" lon="-74.90221381">
<time>2014-05-18T22:31:10Z</time>
</trkpt>
      <trkpt lat="10.83751082" lon="-74.90223444">
<time>2014-05-18T22:31:12Z</time>
</trkpt>
      <trkpt lat="10.83742297" lon="-74.90226281">
<time>2014-05-18T22:31:14Z</time>
</trkpt>
      <trkpt lat="10.83731616" lon="-74.90228271">
<time>2014-05-18T22:31:16Z</time>
</trkpt>
      <trkpt lat="10.83715427" lon="-74.90230072">
<time>2014-05-18T22:31:18Z</time>
</trkpt>
      <trkpt lat="10.83697248" lon="-74.90232956">
<time>2014-05-18T22:31:20Z</time>
</trkpt>
      <trkpt lat="10.83681333" lon="-74.90236700">
<time>2014-05-18T22:31:22Z</time>
</trkpt>
      <trkpt lat="10.83665657" lon="-74.90240383">
<time>2014-05-18T22:31:24Z</time>
</trkpt>
      <trkpt lat="10.83642530" lon="-74.90246439">
<time>2014-05-18T22:31:26Z</time>
</trkpt>
      <trkpt lat="10.83611143" lon="-74.90255809">
<time>2014-05-18T22:31:28Z</time>
</trkpt>
      <trkpt lat="10.83575678" lon="-74.90267110">
<time>2014-05-18T22:31:30Z</time>
</trkpt>
      <trkpt lat="10.83539748" lon="-74.90279543">
<time>2014-05-18T22:31:32Z</time>
</trkpt>
      <trkpt lat="10.83503413" lon="-74.90297616">
<time>2014-05-18T22:31:34Z</time>
</trkpt>
      <trkpt lat="10.83468866" lon="-74.90321422">
<time>2014-05-18T22:31:36Z</time>
</trkpt>
      <trkpt lat="10.83436131" lon="-74.90348542">
<time>2014-05-18T22:31:38Z</time>
</trkpt>
      <trkpt lat="10.83400714" lon="-74.90377927">
<time>2014-05-18T22:31:40Z</time>
</trkpt>
      <trkpt lat="10.83365107" lon="-74.90407109">
<time>2014-05-18T22:31:42Z</time>
</trkpt>
      <trkpt lat="10.83329976" lon="-74.90436792">
<time>2014-05-18T22:31:44Z</time>
</trkpt>
      <trkpt lat="10.83294225" lon="-74.90467322">
<time>2014-05-18T22:31:46Z</time>
</trkpt>
      <trkpt lat="10.83258343" lon="-74.90497208">
<time>2014-05-18T22:31:48Z</time>
</trkpt>
      <trkpt lat="10.83222508" lon="-74.90528691">
<time>2014-05-18T22:31:50Z</time>
</trkpt>
      <trkpt lat="10.83186913" lon="-74.90560794">
<time>2014-05-18T22:31:52Z</time>
</trkpt>
      <trkpt lat="10.83149922" lon="-74.90593588">
<time>2014-05-18T22:31:54Z</time>
</trkpt>
      <trkpt lat="10.83113194" lon="-74.90626526">
<time>2014-05-18T22:31:56Z</time>
</trkpt>
      <trkpt lat="10.83076048" lon="-74.90658116">
<time>2014-05-18T22:31:58Z</time>
</trkpt>
      <trkpt lat="10.83041549" lon="-74.90688276">
<time>2014-05-18T22:32:00Z</time>
</trkpt>
      <trkpt lat="10.83006179" lon="-74.90713239">
<time>2014-05-18T22:32:02Z</time>
</trkpt>
      <trkpt lat="10.82968044" lon="-74.90736556">
<time>2014-05-18T22:32:04Z</time>
</trkpt>
      <trkpt lat="10.82927394" lon="-74.90758955">
<time>2014-05-18T22:32:06Z</time>
</trkpt>
      <trkpt lat="10.82885408" lon="-74.90782094">
<time>2014-05-18T22:32:08Z</time>
</trkpt>
      <trkpt lat="10.82842946" lon="-74.90805209">
<time>2014-05-18T22:32:10Z</time>
</trkpt>
      <trkpt lat="10.82799983" lon="-74.90828526">
<time>2014-05-18T22:32:12Z</time>
</trkpt>
      <trkpt lat="10.82756412" lon="-74.90851641">
<time>2014-05-18T22:32:14Z</time>
</trkpt>
      <trkpt lat="10.82712746" lon="-74.90875173">
<time>2014-05-18T22:32:16Z</time>
</trkpt>
      <trkpt lat="10.82667983" lon="-74.90899742">
<time>2014-05-18T22:32:18Z</time>
</trkpt>
      <trkpt lat="10.82622707" lon="-74.90924561">
<time>2014-05-18T22:32:20Z</time>
</trkpt>
      <trkpt lat="10.82577050" lon="-74.90949357">
<time>2014-05-18T22:32:22Z</time>
</trkpt>
      <trkpt lat="10.82531559" lon="-74.90974522">
<time>2014-05-18T22:32:24Z</time>
</trkpt>
      <trkpt lat="10.82487190" lon="-74.91000009">
<time>2014-05-18T22:32:26Z</time>
</trkpt>
      <trkpt lat="10.82444596" lon="-74.91028881">
<time>2014-05-18T22:32:28Z</time>
</trkpt>
      <trkpt lat="10.82404292" lon="-74.91062140">
<time>2014-05-18T22:32:30Z</time>
</trkpt>
      <trkpt lat="10.82364607" lon="-74.91097307">
<time>2014-05-18T22:32:32Z</time>
</trkpt>
      <trkpt lat="10.82325864" lon="-74.91132033">
<time>2014-05-18T22:32:34Z</time>
</trkpt>
      <trkpt lat="10.82290161" lon="-74.91163194">
<time>2014-05-18T22:32:36Z</time>
</trkpt>
      <trkpt lat="10.82255363" lon="-74.91188848">
<time>2014-05-18T22:32:38Z</time>
</trkpt>
      <trkpt lat="10.82217526" lon="-74.91209316">
<time>2014-05-18T22:32:40Z</time>
</trkpt>
      <trkpt lat="10.82173383" lon="-74.91227090">
<time>2014-05-18T22:32:42Z</time>
</trkpt>
      <trkpt lat="10.82125139" lon="-74.91245210">
<time>2014-05-18T22:32:44Z</time>
</trkpt>
      <trkpt lat="10.82075465" lon="-74.91263461">
<time>2014-05-18T22:32:46Z</time>
</trkpt>
      <trkpt lat="10.82024062" lon="-74.91281140">
<time>2014-05-18T22:32:48Z</time>
</trkpt>
      <trkpt lat="10.81971061" lon="-74.91300964">
<time>2014-05-18T22:32:50Z</time>
</trkpt>
      <trkpt lat="10.81916642" lon="-74.91320395">
<time>2014-05-18T22:32:52Z</time>
</trkpt>
      <trkpt lat="10.81863391" lon="-74.91339409">
<time>2014-05-18T22:32:54Z</time>
</trkpt>
      <trkpt lat="10.81814945" lon="-74.91356432">
<time>2014-05-18T22:32:56Z</time>
</trkpt>
      <trkpt lat="10.81769490" lon="-74.91369438">
<time>2014-05-18T22:32:58Z</time>
</trkpt>
      <trkpt lat="10.81722760" lon="-74.91378462">
<time>2014-05-18T22:33:00Z</time>
</trkpt>
      <trkpt lat="10.81674016" lon="-74.91387081">
<time>2014-05-18T22:33:02Z</time>
</trkpt>
      <trkpt lat="10.81624544" lon="-74.91395926">
<time>2014-05-18T22:33:04Z</time>
</trkpt>
      <trkpt lat="10.81575358" lon="-74.91404593">
<time>2014-05-18T22:33:06Z</time>
</trkpt>
      <trkpt lat="10.81525898" lon="-74.91412890">
<time>2014-05-18T22:33:08Z</time>
</trkpt>
      <trkpt lat="10.81473362" lon="-74.91422629">
<time>2014-05-18T22:33:10Z</time>
</trkpt>
      <trkpt lat="10.81421316" lon="-74.91432607">
<time>2014-05-18T22:33:12Z</time>
</trkpt>
      <trkpt lat="10.81371343" lon="-74.91442323">
<time>2014-05-18T22:33:14Z</time>
</trkpt>
      <trkpt lat="10.81324589" lon="-74.91451490">
<time>2014-05-18T22:33:16Z</time>
</trkpt>
      <trkpt lat="10.81279874" lon="-74.91459882">
<time>2014-05-18T22:33:18Z</time>
</trkpt>
      <trkpt lat="10.81233883" lon="-74.91467965">
<time>2014-05-18T22:33:20Z</time>
</trkpt>
      <trkpt lat="10.81188822" lon="-74.91475010">
<time>2014-05-18T22:33:22Z</time>
</trkpt>
      <trkpt lat="10.81146026" lon="-74.91482806">
<time>2014-05-18T22:33:24Z</time>
</trkpt>
      <trkpt lat="10.81105912" lon="-74.91490579">
<time>2014-05-18T22:33:26Z</time>
</trkpt>
      <trkpt lat="10.81066465" lon="-74.91497946">
<time>2014-05-18T22:33:28Z</time>
</trkpt>
      <trkpt lat="10.81027925" lon="-74.91504896">
<time>2014-05-18T22:33:30Z</time>
</trkpt>
      <trkpt lat="10.80991542" lon="-74.91511679">
<time>2014-05-18T22:33:32Z</time>
</trkpt>
      <trkpt lat="10.80956829" lon="-74.91517198">
<time>2014-05-18T22:33:34Z</time>
</trkpt>
      <trkpt lat="10.80923998" lon="-74.91522694">
<time>2014-05-18T22:33:36Z</time>
</trkpt>
      <trkpt lat="10.80892825" lon="-74.91528046">
<time>2014-05-18T22:33:38Z</time>
</trkpt>
      <trkpt lat="10.80860889" lon="-74.91533816">
<time>2014-05-18T22:33:40Z</time>
</trkpt>
      <trkpt lat="10.80829561" lon="-74.91539848">
<time>2014-05-18T22:33:42Z</time>
</trkpt>
      <trkpt lat="10.80800509" lon="-74.91545045">
<time>2014-05-18T22:33:44Z</time>
</trkpt>
      <trkpt lat="10.80775464" lon="-74.91547263">
<time>2014-05-18T22:33:46Z</time>
</trkpt>
      <trkpt lat="10.80752516" lon="-74.91549408">
<time>2014-05-18T22:33:48Z</time>
</trkpt>
      <trkpt lat="10.80732405" lon="-74.91549790">
<time>2014-05-18T22:33:50Z</time>
</trkpt>
      <trkpt lat="10.80715430" lon="-74.91546965">
<time>2014-05-18T22:33:52Z</time>
</trkpt>
      <trkpt lat="10.80696607" lon="-74.91542757">
<time>2014-05-18T22:33:54Z</time>
</trkpt>
      <trkpt lat="10.80675960" lon="-74.91536081">
<time>2014-05-18T22:33:56Z</time>
</trkpt>
      <trkpt lat="10.80653894" lon="-74.91525793">
<time>2014-05-18T22:33:58Z</time>
</trkpt>
      <trkpt lat="10.80631697" lon="-74.91511929">
<time>2014-05-18T22:34:00Z</time>
</trkpt>
      <trkpt lat="10.80610442" lon="-74.91494560">
<time>2014-05-18T22:34:02Z</time>
</trkpt>
      <trkpt lat="10.80591023" lon="-74.91476226">
<time>2014-05-18T22:34:04Z</time>
</trkpt>
      <trkpt lat="10.80573666" lon="-74.91456532">
<time>2014-05-18T22:34:06Z</time>
</trkpt>
      <trkpt lat="10.80560458" lon="-74.91437650">
<time>2014-05-18T22:34:08Z</time>
</trkpt>
      <trkpt lat="10.80548275" lon="-74.91421390">
<time>2014-05-18T22:34:10Z</time>
</trkpt>
      <trkpt lat="10.80538392" lon="-74.91408241">
<time>2014-05-18T22:34:12Z</time>
</trkpt>
      <trkpt lat="10.80529475" lon="-74.91396177">
<time>2014-05-18T22:34:14Z</time>
</trkpt>
      <trkpt lat="10.80518091" lon="-74.91381264">
<time>2014-05-18T22:34:16Z</time>
</trkpt>
      <trkpt lat="10.80501926" lon="-74.91361761">
<time>2014-05-18T22:34:18Z</time>
</trkpt>
      <trkpt lat="10.80482280" lon="-74.91339242">
<time>2014-05-18T22:34:20Z</time>
</trkpt>
      <trkpt lat="10.80459094" lon="-74.91311693">
<time>2014-05-18T22:34:22Z</time>
</trkpt>
      <trkpt lat="10.80433595" lon="-74.91282082">
<time>2014-05-18T22:34:24Z</time>
</trkpt>
      <trkpt lat="10.80406106" lon="-74.91249931">
<time>2014-05-18T22:34:26Z</time>
</trkpt>
      <trkpt lat="10.80379248" lon="-74.91218579">
<time>2014-05-18T22:34:28Z</time>
</trkpt>
      <trkpt lat="10.80354130" lon="-74.91189396">
<time>2014-05-18T22:34:30Z</time>
</trkpt>
      <trkpt lat="10.80329907" lon="-74.91163278">
<time>2014-05-18T22:34:32Z</time>
</trkpt>
      <trkpt lat="10.80309308" lon="-74.91139627">
<time>2014-05-18T22:34:34Z</time>
</trkpt>
      <trkpt lat="10.80290258" lon="-74.91117823">
<time>2014-05-18T22:34:36Z</time>
</trkpt>
      <trkpt lat="10.80272031" lon="-74.91097033">
<time>2014-05-18T22:34:38Z</time>
</trkpt>
      <trkpt lat="10.80255377" lon="-74.91077292">
<time>2014-05-18T22:34:40Z</time>
</trkpt>
      <trkpt lat="10.80240178" lon="-74.91059697">
<time>2014-05-18T22:34:42Z</time>
</trkpt>
      <trkpt lat="10.80226016" lon="-74.91043472">
<time>2014-05-18T22:34:44Z</time>
</trkpt>
      <trkpt lat="10.80212808" lon="-74.91028309">
<time>2014-05-18T22:34:46Z</time>
</trkpt>
      <trkpt lat="10.80200076" lon="-74.91012430">
<time>2014-05-18T22:34:48Z</time>
</trkpt>
      <trkpt lat="10.80185091" lon="-74.90994728">
<time>2014-05-18T22:34:50Z</time>
</trkpt>
      <trkpt lat="10.80169213" lon="-74.90975499">
<time>2014-05-18T22:34:52Z</time>
</trkpt>
      <trkpt lat="10.80154157" lon="-74.90956879">
<time>2014-05-18T22:34:54Z</time>
</trkpt>
      <trkpt lat="10.80140293" lon="-74.90940845">
<time>2014-05-18T22:34:56Z</time>
</trkpt>
      <trkpt lat="10.80127478" lon="-74.90927625">
<time>2014-05-18T22:34:58Z</time>
</trkpt>
      <trkpt lat="10.80116355" lon="-74.90914679">
<time>2014-05-18T22:35:00Z</time>
</trkpt>
      <trkpt lat="10.80105865" lon="-74.90902674">
<time>2014-05-18T22:35:02Z</time>
</trkpt>
      <trkpt lat="10.80095208" lon="-74.90891063">
<time>2014-05-18T22:35:04Z</time>
</trkpt>
      <trkpt lat="10.80084014" lon="-74.90878105">
<time>2014-05-18T22:35:06Z</time>
</trkpt>
      <trkpt lat="10.80072856" lon="-74.90863848">
<time>2014-05-18T22:35:08Z</time>
</trkpt>
      <trkpt lat="10.80063176" lon="-74.90850222">
<time>2014-05-18T22:35:10Z</time>
</trkpt>
      <trkpt lat="10.80051124" lon="-74.90837026">
<time>2014-05-18T22:35:12Z</time>
</trkpt>
      <trkpt lat="10.80037546" lon="-74.90821779">
<time>2014-05-18T22:35:14Z</time>
</trkpt>
      <trkpt lat="10.80022156" lon="-74.90804076">
<time>2014-05-18T22:35:16Z</time>
</trkpt>
      <trkpt lat="10.80004048" lon="-74.90783882">
<time>2014-05-18T22:35:18Z</time>
</trkpt>
      <trkpt lat="10.79982316" lon="-74.90762889">
<time>2014-05-18T22:35:20Z</time>
</trkpt>
      <trkpt lat="10.79957640" lon="-74.90743029">
<time>2014-05-18T22:35:22Z</time>
</trkpt>
      <trkpt lat="10.79930091" lon="-74.90725994">
<time>2014-05-18T22:35:24Z</time>
</trkpt>
      <trkpt lat="10.79901242" lon="-74.90713096">
<time>2014-05-18T22:35:26Z</time>
</trkpt>
      <trkpt lat="10.79873240" lon="-74.90702009">
<time>2014-05-18T22:35:28Z</time>
</trkpt>
      <trkpt lat="10.79845297" lon="-74.90690410">
<time>2014-05-18T22:35:30Z</time>
</trkpt>
      <trkpt lat="10.79815543" lon="-74.90677643">
<time>2014-05-18T22:35:32Z</time>
</trkpt>
      <trkpt lat="10.79782224" lon="-74.90664148">
<time>2014-05-18T22:35:34Z</time>
</trkpt>
      <trkpt lat="10.79747593" lon="-74.90650678">
<time>2014-05-18T22:35:36Z</time>
</trkpt>
      <trkpt lat="10.79711163" lon="-74.90635824">
<time>2014-05-18T22:35:38Z</time>
</trkpt>
      <trkpt lat="10.79675543" lon="-74.90621865">
<time>2014-05-18T22:35:40Z</time>
</trkpt>
      <trkpt lat="10.79640245" lon="-74.90608406">
<time>2014-05-18T22:35:42Z</time>
</trkpt>
      <trkpt lat="10.79605961" lon="-74.90594327">
<time>2014-05-18T22:35:44Z</time>
</trkpt>
      <trkpt lat="10.79572380" lon="-74.90580916">
<time>2014-05-18T22:35:46Z</time>
</trkpt>
      <trkpt lat="10.79540431" lon="-74.90567040">
<time>2014-05-18T22:35:48Z</time>
</trkpt>
      <trkpt lat="10.79508507" lon="-74.90550900">
<time>2014-05-18T22:35:50Z</time>
</trkpt>
      <trkpt lat="10.79476428" lon="-74.90528941">
<time>2014-05-18T22:35:52Z</time>
</trkpt>
      <trkpt lat="10.79444706" lon="-74.90502763">
<time>2014-05-18T22:35:54Z</time>
</trkpt>
      <trkpt lat="10.79411626" lon="-74.90474761">
<time>2014-05-18T22:35:56Z</time>
</trkpt>
      <trkpt lat="10.79377747" lon="-74.90446556">
<time>2014-05-18T22:35:58Z</time>
</trkpt>
      <trkpt lat="10.79342830" lon="-74.90415847">
<time>2014-05-18T22:36:00Z</time>
</trkpt>
      <trkpt lat="10.79307377" lon="-74.90385115">
<time>2014-05-18T22:36:02Z</time>
</trkpt>
      <trkpt lat="10.79272878" lon="-74.90354323">
<time>2014-05-18T22:36:04Z</time>
</trkpt>
      <trkpt lat="10.79237509" lon="-74.90325558">
<time>2014-05-18T22:36:06Z</time>
</trkpt>
      <trkpt lat="10.79204476" lon="-74.90301228">
<time>2014-05-18T22:36:08Z</time>
</trkpt>
      <trkpt lat="10.79172206" lon="-74.90284598">
<time>2014-05-18T22:36:10Z</time>
</trkpt>
      <trkpt lat="10.79138839" lon="-74.90275574">
<time>2014-05-18T22:36:12Z</time>
</trkpt>
      <trkpt lat="10.79104078" lon="-74.90273631">
<time>2014-05-18T22:36:14Z</time>
</trkpt>
      <trkpt lat="10.79067278" lon="-74.90279162">
<time>2014-05-18T22:36:16Z</time>
</trkpt>
      <trkpt lat="10.79028213" lon="-74.90290189">
<time>2014-05-18T22:36:18Z</time>
</trkpt>
      <trkpt lat="10.78987122" lon="-74.90302956">
<time>2014-05-18T22:36:20Z</time>
</trkpt>
      <trkpt lat="10.78944361" lon="-74.90316546">
<time>2014-05-18T22:36:22Z</time>
</trkpt>
      <trkpt lat="10.78900278" lon="-74.90330422">
<time>2014-05-18T22:36:24Z</time>
</trkpt>
      <trkpt lat="10.78855395" lon="-74.90344405">
<time>2014-05-18T22:36:26Z</time>
</trkpt>
      <trkpt lat="10.78809905" lon="-74.90358591">
<time>2014-05-18T22:36:28Z</time>
</trkpt>
      <trkpt lat="10.78763330" lon="-74.90372944">
<time>2014-05-18T22:36:30Z</time>
</trkpt>
      <trkpt lat="10.78715229" lon="-74.90387630">
<time>2014-05-18T22:36:32Z</time>
</trkpt>
      <trkpt lat="10.78665888" lon="-74.90403628">
<time>2014-05-18T22:36:34Z</time>
</trkpt>
      <trkpt lat="10.78617597" lon="-74.90418541">
<time>2014-05-18T22:36:36Z</time>
</trkpt>
      <trkpt lat="10.78571260" lon="-74.90433109">
<time>2014-05-18T22:36:38Z</time>
</trkpt>
      <trkpt lat="10.78527796" lon="-74.90446329">
<time>2014-05-18T22:36:40Z</time>
</trkpt>
      <trkpt lat="10.78489256" lon="-74.90458763">
<time>2014-05-18T22:36:42Z</time>
</trkpt>
      <trkpt lat="10.78460145" lon="-74.90468323">
<time>2014-05-18T22:36:44Z</time>
</trkpt>
      <trkpt lat="10.78432882" lon="-74.90474641">
<time>2014-05-18T22:36:46Z</time>
</trkpt>
      <trkpt lat="10.78401339" lon="-74.90484142">
<time>2014-05-18T22:36:48Z</time>
</trkpt>
      <trkpt lat="10.78367579" lon="-74.90496159">
<time>2014-05-18T22:36:50Z</time>
</trkpt>
      <trkpt lat="10.78334761" lon="-74.90508127">
<time>2014-05-18T22:36:52Z</time>
</trkpt>
      <trkpt lat="10.78305840" lon="-74.90517783">
<time>2014-05-18T22:36:54Z</time>
</trkpt>
      <trkpt lat="10.78279889" lon="-74.90526247">
<time>2014-05-18T22:36:56Z</time>
</trkpt>
      <trkpt lat="10.78254509" lon="-74.90533841">
<time>2014-05-18T22:36:58Z</time>
</trkpt>
      <trkpt lat="10.78230572" lon="-74.90541673">
<time>2014-05-18T22:37:00Z</time>
</trkpt>
      <trkpt lat="10.78207016" lon="-74.90548766">
<time>2014-05-18T22:37:02Z</time>
</trkpt>
      <trkpt lat="10.78182757" lon="-74.90555644">
<time>2014-05-18T22:37:04Z</time>
</trkpt>
      <trkpt lat="10.78157544" lon="-74.90562689">
<time>2014-05-18T22:37:06Z</time>
</trkpt>
      <trkpt lat="10.78131473" lon="-74.90571511">
<time>2014-05-18T22:37:08Z</time>
</trkpt>
      <trkpt lat="10.78103840" lon="-74.90580511">
<time>2014-05-18T22:37:10Z</time>
</trkpt>
      <trkpt lat="10.78073967" lon="-74.90589333">
<time>2014-05-18T22:37:12Z</time>
</trkpt>
      <trkpt lat="10.78040600" lon="-74.90599382">
<time>2014-05-18T22:37:14Z</time>
</trkpt>
      <trkpt lat="10.78003955" lon="-74.90610957">
<time>2014-05-18T22:37:16Z</time>
</trkpt>
      <trkpt lat="10.77964079" lon="-74.90622747">
<time>2014-05-18T22:37:18Z</time>
</trkpt>
      <trkpt lat="10.77921772" lon="-74.90635681">
<time>2014-05-18T22:37:20Z</time>
</trkpt>
      <trkpt lat="10.77877557" lon="-74.90649605">
<time>2014-05-18T22:37:22Z</time>
</trkpt>
      <trkpt lat="10.77831483" lon="-74.90664244">
<time>2014-05-18T22:37:24Z</time>
</trkpt>
      <trkpt lat="10.77783990" lon="-74.90678298">
<time>2014-05-18T22:37:26Z</time>
</trkpt>
      <trkpt lat="10.77735448" lon="-74.90692329">
<time>2014-05-18T22:37:28Z</time>
</trkpt>
      <trkpt lat="10.77686191" lon="-74.90707076">
<time>2014-05-18T22:37:30Z</time>
</trkpt>
      <trkpt lat="10.77635694" lon="-74.90723300">
<time>2014-05-18T22:37:32Z</time>
</trkpt>
      <trkpt lat="10.77583981" lon="-74.90739524">
<time>2014-05-18T22:37:34Z</time>
</trkpt>
      <trkpt lat="10.77532732" lon="-74.90755796">
<time>2014-05-18T22:37:36Z</time>
</trkpt>
      <trkpt lat="10.77484107" lon="-74.90769982">
<time>2014-05-18T22:37:38Z</time>
</trkpt>
      <trkpt lat="10.77439094" lon="-74.90783381">
<time>2014-05-18T22:37:40Z</time>
</trkpt>
      <trkpt lat="10.77396429" lon="-74.90796793">
<time>2014-05-18T22:37:42Z</time>
</trkpt>
      <trkpt lat="10.77352965" lon="-74.90810382">
<time>2014-05-18T22:37:44Z</time>
</trkpt>
      <trkpt lat="10.77309632" lon="-74.90823710">
<time>2014-05-18T22:37:46Z</time>
</trkpt>
      <trkpt lat="10.77269042" lon="-74.90836716">
<time>2014-05-18T22:37:48Z</time>
</trkpt>
      <trkpt lat="10.77231646" lon="-74.90848577">
<time>2014-05-18T22:37:50Z</time>
</trkpt>
      <trkpt lat="10.77197373" lon="-74.90858662">
<time>2014-05-18T22:37:52Z</time>
</trkpt>
      <trkpt lat="10.77162349" lon="-74.90865290">
<time>2014-05-18T22:37:54Z</time>
</trkpt>
      <trkpt lat="10.77126741" lon="-74.90865433">
<time>2014-05-18T22:37:56Z</time>
</trkpt>
      <trkpt lat="10.77091324" lon="-74.90859115">
<time>2014-05-18T22:37:58Z</time>
</trkpt>
      <trkpt lat="10.77055478" lon="-74.90846813">
<time>2014-05-18T22:38:00Z</time>
</trkpt>
      <trkpt lat="10.77018559" lon="-74.90830243">
<time>2014-05-18T22:38:02Z</time>
</trkpt>
      <trkpt lat="10.76981556" lon="-74.90810800">
<time>2014-05-18T22:38:04Z</time>
</trkpt>
      <trkpt lat="10.76947105" lon="-74.90792191">
<time>2014-05-18T22:38:06Z</time>
</trkpt>
      <trkpt lat="10.76916099" lon="-74.90776062">
<time>2014-05-18T22:38:08Z</time>
</trkpt>
      <trkpt lat="10.76886964" lon="-74.90760648">
<time>2014-05-18T22:38:10Z</time>
</trkpt>
      <trkpt lat="10.76858497" lon="-74.90747082">
<time>2014-05-18T22:38:12Z</time>
</trkpt>
      <trkpt lat="10.76830876" lon="-74.90736973">
<time>2014-05-18T22:38:14Z</time>
</trkpt>
      <trkpt lat="10.76799643" lon="-74.90731156">
<time>2014-05-18T22:38:16Z</time>
</trkpt>
      <trkpt lat="10.76764262" lon="-74.90730190">
<time>2014-05-18T22:38:18Z</time>
</trkpt>
      <trkpt lat="10.76726913" lon="-74.90734696">
<time>2014-05-18T22:38:20Z</time>
</trkpt>
      <trkpt lat="10.76689899" lon="-74.90741956">
<time>2014-05-18T22:38:22Z</time>
</trkpt>
      <trkpt lat="10.76654208" lon="-74.90750396">
<time>2014-05-18T22:38:24Z</time>
</trkpt>
      <trkpt lat="10.76617432" lon="-74.90759242">
<time>2014-05-18T22:38:26Z</time>
</trkpt>
      <trkpt lat="10.76578116" lon="-74.90770805">
<time>2014-05-18T22:38:28Z</time>
</trkpt>
      <trkpt lat="10.76539159" lon="-74.90785456">
<time>2014-05-18T22:38:30Z</time>
</trkpt>
      <trkpt lat="10.76500797" lon="-74.90806222">
<time>2014-05-18T22:38:32Z</time>
</trkpt>
      <trkpt lat="10.76462114" lon="-74.90831316">
<time>2014-05-18T22:38:34Z</time>
</trkpt>
      <trkpt lat="10.76421797" lon="-74.90855849">
<time>2014-05-18T22:38:36Z</time>
</trkpt>
      <trkpt lat="10.76380455" lon="-74.90879822">
<time>2014-05-18T22:38:38Z</time>
</trkpt>
      <trkpt lat="10.76339161" lon="-74.90905309">
<time>2014-05-18T22:38:40Z</time>
</trkpt>
      <trkpt lat="10.76297283" lon="-74.90930748">
<time>2014-05-18T22:38:42Z</time>
</trkpt>
      <trkpt lat="10.76254213" lon="-74.90955532">
<time>2014-05-18T22:38:44Z</time>
</trkpt>
      <trkpt lat="10.76211345" lon="-74.90980029">
<time>2014-05-18T22:38:46Z</time>
</trkpt>
      <trkpt lat="10.76167691" lon="-74.91004574">
<time>2014-05-18T22:38:48Z</time>
</trkpt>
      <trkpt lat="10.76123190" lon="-74.91030538">
<time>2014-05-18T22:38:50Z</time>
</trkpt>
      <trkpt lat="10.76078594" lon="-74.91057110">
<time>2014-05-18T22:38:52Z</time>
</trkpt>
      <trkpt lat="10.76033425" lon="-74.91084063">
<time>2014-05-18T22:38:54Z</time>
</trkpt>
      <trkpt lat="10.75989246" lon="-74.91110146">
<time>2014-05-18T22:38:56Z</time>
</trkpt>
      <trkpt lat="10.75944674" lon="-74.91136038">
<time>2014-05-18T22:38:58Z</time>
</trkpt>
      <trkpt lat="10.75900531" lon="-74.91161895">
<time>2014-05-18T22:39:00Z</time>
</trkpt>
      <trkpt lat="10.75856280" lon="-74.91188443">
<time>2014-05-18T22:39:02Z</time>
</trkpt>
      <trkpt lat="10.75811160" lon="-74.91214955">
<time>2014-05-18T22:39:04Z</time>
</trkpt>
      <trkpt lat="10.75764239" lon="-74.91241932">
<time>2014-05-18T22:39:06Z</time>
</trkpt>
      <trkpt lat="10.75716150" lon="-74.91269994">
<time>2014-05-18T22:39:08Z</time>
</trkpt>
      <trkpt lat="10.75667310" lon="-74.91299140">
<time>2014-05-18T22:39:10Z</time>
</trkpt>
      <trkpt lat="10.75617659" lon="-74.91328657">
<time>2014-05-18T22:39:12Z</time>
</trkpt>
      <trkpt lat="10.75567865" lon="-74.91358626">
<time>2014-05-18T22:39:14Z</time>
</trkpt>
      <trkpt lat="10.75517893" lon="-74.91388011">
<time>2014-05-18T22:39:16Z</time>
</trkpt>
      <trkpt lat="10.75468099" lon="-74.91417229">
<time>2014-05-18T22:39:18Z</time>
</trkpt>
      <trkpt lat="10.75418794" lon="-74.91446495">
<time>2014-05-18T22:39:20Z</time>
</trkpt>
      <trkpt lat="10.75370193" lon="-74.91474843">
<time>2014-05-18T22:39:22Z</time>
</trkpt>
      <trkpt lat="10.75326729" lon="-74.91500330">
<time>2014-05-18T22:39:24Z</time>
</trkpt>
      <trkpt lat="10.75291896" lon="-74.91520047">
<time>2014-05-18T22:39:26Z</time>
</trkpt>
      <trkpt lat="10.75257373" lon="-74.91533208">
<time>2014-05-18T22:39:28Z</time>
</trkpt>
      <trkpt lat="10.75220811" lon="-74.91539907">
<time>2014-05-18T22:39:30Z</time>
</trkpt>
      <trkpt lat="10.75182033" lon="-74.91536891">
<time>2014-05-18T22:39:32Z</time>
</trkpt>
      <trkpt lat="10.75142705" lon="-74.91525245">
<time>2014-05-18T22:39:34Z</time>
</trkpt>
      <trkpt lat="10.75100577" lon="-74.91510522">
<time>2014-05-18T22:39:36Z</time>
</trkpt>
      <trkpt lat="10.75056231" lon="-74.91494656">
<time>2014-05-18T22:39:38Z</time>
</trkpt>
      <trkpt lat="10.75010180" lon="-74.91477859">
<time>2014-05-18T22:39:40Z</time>
</trkpt>
      <trkpt lat="10.74963164" lon="-74.91461265">
<time>2014-05-18T22:39:42Z</time>
</trkpt>
      <trkpt lat="10.74915290" lon="-74.91444027">
<time>2014-05-18T22:39:44Z</time>
</trkpt>
      <trkpt lat="10.74866390" lon="-74.91425824">
<time>2014-05-18T22:39:46Z</time>
</trkpt>
      <trkpt lat="10.74816597" lon="-74.91407299">
<time>2014-05-18T22:39:48Z</time>
</trkpt>
      <trkpt lat="10.74765062" lon="-74.91388476">
<time>2014-05-18T22:39:50Z</time>
</trkpt>
      <trkpt lat="10.74712896" lon="-74.91369605">
<time>2014-05-18T22:39:52Z</time>
</trkpt>
      <trkpt lat="10.74661899" lon="-74.91351414">
<time>2014-05-18T22:39:54Z</time>
</trkpt>
      <trkpt lat="10.74612665" lon="-74.91332090">
<time>2014-05-18T22:39:56Z</time>
</trkpt>
      <trkpt lat="10.74564707" lon="-74.91310644">
<time>2014-05-18T22:39:58Z</time>
</trkpt>
      <trkpt lat="10.74517107" lon="-74.91289091">
<time>2014-05-18T22:40:00Z</time>
</trkpt>
      <trkpt lat="10.74469531" lon="-74.91266775">
<time>2014-05-18T22:40:02Z</time>
</trkpt>
      <trkpt lat="10.74422050" lon="-74.91244328">
<time>2014-05-18T22:40:04Z</time>
</trkpt>
      <trkpt lat="10.74375427" lon="-74.91224015">
<time>2014-05-18T22:40:06Z</time>
</trkpt>
      <trkpt lat="10.74327123" lon="-74.91207862">
<time>2014-05-18T22:40:08Z</time>
</trkpt>
      <trkpt lat="10.74275708" lon="-74.91193843">
<time>2014-05-18T22:40:10Z</time>
</trkpt>
      <trkpt lat="10.74223399" lon="-74.91179180">
<time>2014-05-18T22:40:12Z</time>
</trkpt>
      <trkpt lat="10.74169743" lon="-74.91165864">
<time>2014-05-18T22:40:14Z</time>
</trkpt>
      <trkpt lat="10.74116981" lon="-74.91153026">
<time>2014-05-18T22:40:16Z</time>
</trkpt>
      <trkpt lat="10.74065411" lon="-74.91141438">
<time>2014-05-18T22:40:18Z</time>
</trkpt>
      <trkpt lat="10.74014413" lon="-74.91131043">
<time>2014-05-18T22:40:20Z</time>
</trkpt>
      <trkpt lat="10.73964345" lon="-74.91122615">
<time>2014-05-18T22:40:22Z</time>
</trkpt>
      <trkpt lat="10.73913813" lon="-74.91119981">
<time>2014-05-18T22:40:24Z</time>
</trkpt>
      <trkpt lat="10.73862362" lon="-74.91119599">
<time>2014-05-18T22:40:26Z</time>
</trkpt>
      <trkpt lat="10.73809791" lon="-74.91117990">
<time>2014-05-18T22:40:28Z</time>
</trkpt>
      <trkpt lat="10.73756933" lon="-74.91117561">
<time>2014-05-18T22:40:30Z</time>
</trkpt>
      <trkpt lat="10.73703992" lon="-74.91116512">
<time>2014-05-18T22:40:32Z</time>
</trkpt>
      <trkpt lat="10.73650873" lon="-74.91115189">
<time>2014-05-18T22:40:34Z</time>
</trkpt>
      <trkpt lat="10.73599529" lon="-74.91113758">
<time>2014-05-18T22:40:36Z</time>
</trkpt>
      <trkpt lat="10.73550677" lon="-74.91113222">
<time>2014-05-18T22:40:38Z</time>
</trkpt>
      <trkpt lat="10.73504257" lon="-74.91111815">
<time>2014-05-18T22:40:40Z</time>
</trkpt>
      <trkpt lat="10.73460722" lon="-74.91112900">
<time>2014-05-18T22:40:42Z</time>
</trkpt>
      <trkpt lat="10.73419607" lon="-74.91118658">
<time>2014-05-18T22:40:44Z</time>
</trkpt>
      <trkpt lat="10.73379147" lon="-74.91130233">
<time>2014-05-18T22:40:46Z</time>
</trkpt>
      <trkpt lat="10.73337579" lon="-74.91146839">
<time>2014-05-18T22:40:48Z</time>
</trkpt>
      <trkpt lat="10.73293340" lon="-74.91165864">
<time>2014-05-18T22:40:50Z</time>
</trkpt>
      <trkpt lat="10.73248672" lon="-74.91185415">
<time>2014-05-18T22:40:52Z</time>
</trkpt>
      <trkpt lat="10.73203790" lon="-74.91204822">
<time>2014-05-18T22:40:54Z</time>
</trkpt>
      <trkpt lat="10.73158181" lon="-74.91225278">
<time>2014-05-18T22:40:56Z</time>
</trkpt>
      <trkpt lat="10.73111641" lon="-74.91245532">
<time>2014-05-18T22:40:58Z</time>
</trkpt>
      <trkpt lat="10.73066032" lon="-74.91265595">
<time>2014-05-18T22:41:00Z</time>
</trkpt>
      <trkpt lat="10.73023081" lon="-74.91281581">
<time>2014-05-18T22:41:02Z</time>
</trkpt>
      <trkpt lat="10.72980583" lon="-74.91289544">
<time>2014-05-18T22:41:04Z</time>
</trkpt>
      <trkpt lat="10.72935510" lon="-74.91288757">
<time>2014-05-18T22:41:06Z</time>
</trkpt>
      <trkpt lat="10.72886372" lon="-74.91283846">
<time>2014-05-18T22:41:08Z</time>
</trkpt>
      <trkpt lat="10.72833610" lon="-74.91278398">
<time>2014-05-18T22:41:10Z</time>
</trkpt>
      <trkpt lat="10.72778940" lon="-74.91274023">
<time>2014-05-18T22:41:12Z</time>
</trkpt>
      <trkpt lat="10.72723281" lon="-74.91270363">
<time>2014-05-18T22:41:14Z</time>
</trkpt>
      <trkpt lat="10.72669029" lon="-74.91268599">
<time>2014-05-18T22:41:16Z</time>
</trkpt>
      <trkpt lat="10.72616756" lon="-74.91268492">
<time>2014-05-18T22:41:18Z</time>
</trkpt>
      <trkpt lat="10.72568476" lon="-74.91268849">
<time>2014-05-18T22:41:20Z</time>
</trkpt>
      <trkpt lat="10.72523677" lon="-74.91268456">
<time>2014-05-18T22:41:22Z</time>
</trkpt>
      <trkpt lat="10.72479606" lon="-74.91267562">
<time>2014-05-18T22:41:24Z</time>
</trkpt>
      <trkpt lat="10.72435081" lon="-74.91267550">
<time>2014-05-18T22:41:26Z</time>
</trkpt>
      <trkpt lat="10.72393060" lon="-74.91266942">
<time>2014-05-18T22:41:28Z</time>
</trkpt>
      <trkpt lat="10.72354841" lon="-74.91266930">
<time>2014-05-18T22:41:30Z</time>
</trkpt>
      <trkpt lat="10.72319293" lon="-74.91267526">
<time>2014-05-18T22:41:32Z</time>
</trkpt>
      <trkpt lat="10.72285378" lon="-74.91268361">
<time>2014-05-18T22:41:34Z</time>
</trkpt>
      <trkpt lat="10.72253013" lon="-74.91267157">
<time>2014-05-18T22:41:36Z</time>
</trkpt>
      <trkpt lat="10.72219098" lon="-74.91266978">
<time>2014-05-18T22:41:38Z</time>
</trkpt>
      <trkpt lat="10.72184241" lon="-74.91267776">
<time>2014-05-18T22:41:40Z</time>
</trkpt>
      <trkpt lat="10.72155690" lon="-74.91267955">
<time>2014-05-18T22:41:42Z</time>
</trkpt>
      <trkpt lat="10.72132349" lon="-74.91267514">
<time>2014-05-18T22:41:44Z</time>
</trkpt>
      <trkpt lat="10.72109795" lon="-74.91269064">
<time>2014-05-18T22:41:46Z</time>
</trkpt>
      <trkpt lat="10.72084475" lon="-74.91269588">
<time>2014-05-18T22:41:48Z</time>
</trkpt>
      <trkpt lat="10.72054493" lon="-74.91269410">
<time>2014-05-18T22:41:50Z</time>
</trkpt>
      <trkpt lat="10.72023082" lon="-74.91268539">
<time>2014-05-18T22:41:52Z</time>
</trkpt>
      <trkpt lat="10.71993041" lon="-74.91267276">
<time>2014-05-18T22:41:54Z</time>
</trkpt>
      <trkpt lat="10.71962106" lon="-74.91265595">
<time>2014-05-18T22:41:56Z</time>
</trkpt>
      <trkpt lat="10.71929622" lon="-74.91260648">
<time>2014-05-18T22:41:58Z</time>
</trkpt>
      <trkpt lat="10.71897447" lon="-74.91253746">
<time>2014-05-18T22:42:00Z</time>
</trkpt>
      <trkpt lat="10.71866405" lon="-74.91242361">
<time>2014-05-18T22:42:02Z</time>
</trkpt>
      <trkpt lat="10.71834326" lon="-74.91226566">
<time>2014-05-18T22:42:04Z</time>
</trkpt>
      <trkpt lat="10.71799409" lon="-74.91206360">
<time>2014-05-18T22:42:06Z</time>
</trkpt>
      <trkpt lat="10.71761715" lon="-74.91181874">
<time>2014-05-18T22:42:08Z</time>
</trkpt>
      <trkpt lat="10.71719193" lon="-74.91155624">
<time>2014-05-18T22:42:10Z</time>
</trkpt>
      <trkpt lat="10.71673965" lon="-74.91129279">
<time>2014-05-18T22:42:12Z</time>
</trkpt>
      <trkpt lat="10.71628141" lon="-74.91105247">
<time>2014-05-18T22:42:14Z</time>
</trkpt>
      <trkpt lat="10.71581459" lon="-74.91085947">
<time>2014-05-18T22:42:16Z</time>
</trkpt>
      <trkpt lat="10.71535456" lon="-74.91069531">
<time>2014-05-18T22:42:18Z</time>
</trkpt>
      <trkpt lat="10.71495748" lon="-74.91055238">
<time>2014-05-18T22:42:20Z</time>
</trkpt>
      <trkpt lat="10.71460557" lon="-74.91042244">
<time>2014-05-18T22:42:22Z</time>
</trkpt>
      <trkpt lat="10.71424007" lon="-74.91028857">
<time>2014-05-18T22:42:24Z</time>
</trkpt>
      <trkpt lat="10.71384895" lon="-74.91014647">
<time>2014-05-18T22:42:26Z</time>
</trkpt>
      <trkpt lat="10.71346724" lon="-74.91000628">
<time>2014-05-18T22:42:28Z</time>
</trkpt>
      <trkpt lat="10.71310532" lon="-74.90988696">
<time>2014-05-18T22:42:30Z</time>
</trkpt>
      <trkpt lat="10.71276009" lon="-74.90977049">
<time>2014-05-18T22:42:32Z</time>
</trkpt>
      <trkpt lat="10.71242523" lon="-74.90965307">
<time>2014-05-18T22:42:34Z</time>
</trkpt>
      <trkpt lat="10.71209431" lon="-74.90952349">
<time>2014-05-18T22:42:36Z</time>
</trkpt>
      <trkpt lat="10.71176994" lon="-74.90934396">
<time>2014-05-18T22:42:38Z</time>
</trkpt>
      <trkpt lat="10.71143723" lon="-74.90914083">
<time>2014-05-18T22:42:40Z</time>
</trkpt>
      <trkpt lat="10.71114492" lon="-74.90896678">
<time>2014-05-18T22:42:42Z</time>
</trkpt>
      <trkpt lat="10.71086192" lon="-74.90881097">
<time>2014-05-18T22:42:44Z</time>
</trkpt>
      <trkpt lat="10.71058273" lon="-74.90863645">
<time>2014-05-18T22:42:46Z</time>
</trkpt>
      <trkpt lat="10.71029365" lon="-74.90845931">
<time>2014-05-18T22:42:48Z</time>
</trkpt>
      <trkpt lat="10.71001959" lon="-74.90828645">
<time>2014-05-18T22:42:50Z</time>
</trkpt>
      <trkpt lat="10.70974660" lon="-74.90811312">
<time>2014-05-18T22:42:52Z</time>
</trkpt>
      <trkpt lat="10.70945644" lon="-74.90792513">
<time>2014-05-18T22:42:54Z</time>
</trkpt>
      <trkpt lat="10.70913291" lon="-74.90772891">
<time>2014-05-18T22:42:56Z</time>
</trkpt>
      <trkpt lat="10.70879316" lon="-74.90752172">
<time>2014-05-18T22:42:58Z</time>
</trkpt>
      <trkpt lat="10.70846331" lon="-74.90731847">
<time>2014-05-18T22:43:00Z</time>
</trkpt>
      <trkpt lat="10.70814347" lon="-74.90711796">
<time>2014-05-18T22:43:02Z</time>
</trkpt>
      <trkpt lat="10.70783091" lon="-74.90691650">
<time>2014-05-18T22:43:04Z</time>
</trkpt>
      <trkpt lat="10.70749974" lon="-74.90670991">
<time>2014-05-18T22:43:06Z</time>
</trkpt>
      <trkpt lat="10.70712566" lon="-74.90647113">
<time>2014-05-18T22:43:08Z</time>
</trkpt>
      <trkpt lat="10.70671141" lon="-74.90622878">
<time>2014-05-18T22:43:10Z</time>
</trkpt>
      <trkpt lat="10.70632482" lon="-74.90601289">
<time>2014-05-18T22:43:12Z</time>
</trkpt>
      <trkpt lat="10.70594728" lon="-74.90584362">
<time>2014-05-18T22:43:14Z</time>
</trkpt>
      <trkpt lat="10.70554495" lon="-74.90574098">
<time>2014-05-18T22:43:16Z</time>
</trkpt>
      <trkpt lat="10.70512640" lon="-74.90573049">
<time>2014-05-18T22:43:18Z</time>
</trkpt>
      <trkpt lat="10.70467842" lon="-74.90581763">
<time>2014-05-18T22:43:20Z</time>
</trkpt>
      <trkpt lat="10.70419192" lon="-74.90594816">
<time>2014-05-18T22:43:22Z</time>
</trkpt>
      <trkpt lat="10.70364642" lon="-74.90609860">
<time>2014-05-18T22:43:24Z</time>
</trkpt>
      <trkpt lat="10.70304966" lon="-74.90625906">
<time>2014-05-18T22:43:26Z</time>
</trkpt>
      <trkpt lat="10.70242167" lon="-74.90642798">
<time>2014-05-18T22:43:28Z</time>
</trkpt>
      <trkpt lat="10.70180058" lon="-74.90659523">
<time>2014-05-18T22:43:30Z</time>
</trkpt>
      <trkpt lat="10.70119166" lon="-74.90675998">
<time>2014-05-18T22:43:32Z</time>
</trkpt>
      <trkpt lat="10.70062673" lon="-74.90692413">
<time>2014-05-18T22:43:34Z</time>
</trkpt>
      <trkpt lat="10.70011783" lon="-74.90704155">
<time>2014-05-18T22:43:36Z</time>
</trkpt>
      <trkpt lat="10.69961977" lon="-74.90706742">
<time>2014-05-18T22:43:38Z</time>
</trkpt>
      <trkpt lat="10.69911683" lon="-74.90701175">
<time>2014-05-18T22:43:40Z</time>
</trkpt>
      <trkpt lat="10.69858515" lon="-74.90690923">
<time>2014-05-18T22:43:42Z</time>
</trkpt>
      <trkpt lat="10.69803572" lon="-74.90680492">
<time>2014-05-18T22:43:44Z</time>
</trkpt>
      <trkpt lat="10.69753015" lon="-74.90671647">
<time>2014-05-18T22:43:46Z</time>
</trkpt>
      <trkpt lat="10.69706643" lon="-74.90670860">
<time>2014-05-18T22:43:48Z</time>
</trkpt>
      <trkpt lat="10.69661212" lon="-74.90679646">
<time>2014-05-18T22:43:50Z</time>
</trkpt>
      <trkpt lat="10.69612181" lon="-74.90695858">
<time>2014-05-18T22:43:52Z</time>
</trkpt>
      <trkpt lat="10.69559610" lon="-74.90715408">
<time>2014-05-18T22:43:54Z</time>
</trkpt>
      <trkpt lat="10.69504726" lon="-74.90735543">
<time>2014-05-18T22:43:56Z</time>
</trkpt>
      <trkpt lat="10.69451630" lon="-74.90755916">
<time>2014-05-18T22:43:58Z</time>
</trkpt>
      <trkpt lat="10.69400775" lon="-74.90773129">
<time>2014-05-18T22:44:00Z</time>
</trkpt>
      <trkpt lat="10.69349444" lon="-74.90784431">
<time>2014-05-18T22:44:02Z</time>
</trkpt>
      <trkpt lat="10.69296932" lon="-74.90791178">
<time>2014-05-18T22:44:04Z</time>
</trkpt>
      <trkpt lat="10.69244099" lon="-74.90796447">
<time>2014-05-18T22:44:06Z</time>
</trkpt>
      <trkpt lat="10.69195426" lon="-74.90800881">
<time>2014-05-18T22:44:08Z</time>
</trkpt>
      <trkpt lat="10.69152439" lon="-74.90800214">
<time>2014-05-18T22:44:10Z</time>
</trkpt>
      <trkpt lat="10.69109476" lon="-74.90792310">
<time>2014-05-18T22:44:12Z</time>
</trkpt>
      <trkpt lat="10.69064689" lon="-74.90777206">
<time>2014-05-18T22:44:14Z</time>
</trkpt>
      <trkpt lat="10.69015026" lon="-74.90756893">
<time>2014-05-18T22:44:16Z</time>
</trkpt>
      <trkpt lat="10.68960929" lon="-74.90734816">
<time>2014-05-18T22:44:18Z</time>
</trkpt>
      <trkpt lat="10.68903041" lon="-74.90711772">
<time>2014-05-18T22:44:20Z</time>
</trkpt>
      <trkpt lat="10.68842328" lon="-74.90687132">
<time>2014-05-18T22:44:22Z</time>
</trkpt>
      <trkpt lat="10.68782544" lon="-74.90662706">
<time>2014-05-18T22:44:24Z</time>
</trkpt>
      <trkpt lat="10.68725789" lon="-74.90641379">
<time>2014-05-18T22:44:26Z</time>
</trkpt>
      <trkpt lat="10.68670988" lon="-74.90620649">
<time>2014-05-18T22:44:28Z</time>
</trkpt>
      <trkpt lat="10.68616509" lon="-74.90598679">
<time>2014-05-18T22:44:30Z</time>
</trkpt>
      <trkpt lat="10.68560898" lon="-74.90576196">
<time>2014-05-18T22:44:32Z</time>
</trkpt>
      <trkpt lat="10.68506110" lon="-74.90554214">
<time>2014-05-18T22:44:34Z</time>
</trkpt>
      <trkpt lat="10.68455195" lon="-74.90534914">
<time>2014-05-18T22:44:36Z</time>
</trkpt>
      <trkpt lat="10.68406844" lon="-74.90522158">
<time>2014-05-18T22:44:38Z</time>
</trkpt>
      <trkpt lat="10.68359399" lon="-74.90516996">
<time>2014-05-18T22:44:40Z</time>
</trkpt>
      <trkpt lat="10.68310964" lon="-74.90520990">
<time>2014-05-18T22:44:42Z</time>
</trkpt>
      <trkpt lat="10.68258858" lon="-74.90531039">
<time>2014-05-18T22:44:44Z</time>
</trkpt>
      <trkpt lat="10.68204510" lon="-74.90542531">
<time>2014-05-18T22:44:46Z</time>
</trkpt>
      <trkpt lat="10.68152940" lon="-74.90552461">
<time>2014-05-18T22:44:48Z</time>
</trkpt>
      <trkpt lat="10.68106425" lon="-74.90560365">
<time>2014-05-18T22:44:50Z</time>
</trkpt>
      <trkpt lat="10.68063772" lon="-74.90562558">
<time>2014-05-18T22:44:52Z</time>
</trkpt>
      <trkpt lat="10.68022573" lon="-74.90556860">
<time>2014-05-18T22:44:54Z</time>
</trkpt>
      <trkpt lat="10.67984164" lon="-74.90544093">
<time>2014-05-18T22:44:56Z</time>
</trkpt>
      <trkpt lat="10.67945158" lon="-74.90522683">
<time>2014-05-18T22:44:58Z</time>
</trkpt>
      <trkpt lat="10.67904913" lon="-74.90496016">
<time>2014-05-18T22:45:00Z</time>
</trkpt>
      <trkpt lat="10.67863381" lon="-74.90469944">
<time>2014-05-18T22:45:02Z</time>
</trkpt>
      <trkpt lat="10.67823660" lon="-74.90449607">
<time>2014-05-18T22:45:04Z</time>
</trkpt>
      <trkpt lat="10.67786908" lon="-74.90435016">
<time>2014-05-18T22:45:06Z</time>
</trkpt>
      <trkpt lat="10.67749214" lon="-74.90429246">
<time>2014-05-18T22:45:08Z</time>
</trkpt>
      <trkpt lat="10.67711091" lon="-74.90432930">
<time>2014-05-18T22:45:10Z</time>
</trkpt>
      <trkpt lat="10.67675257" lon="-74.90445161">
<time>2014-05-18T22:45:12Z</time>
</trkpt>
      <trkpt lat="10.67640078" lon="-74.90467048">
<time>2014-05-18T22:45:14Z</time>
</trkpt>
      <trkpt lat="10.67603898" lon="-74.90498316">
<time>2014-05-18T22:45:16Z</time>
</trkpt>
      <trkpt lat="10.67566097" lon="-74.90535605">
<time>2014-05-18T22:45:18Z</time>
</trkpt>
      <trkpt lat="10.67524755" lon="-74.90574741">
<time>2014-05-18T22:45:20Z</time>
</trkpt>
      <trkpt lat="10.67482615" lon="-74.90615010">
<time>2014-05-18T22:45:22Z</time>
</trkpt>
      <trkpt lat="10.67439663" lon="-74.90654922">
<time>2014-05-18T22:45:24Z</time>
</trkpt>
      <trkpt lat="10.67397475" lon="-74.90695226">
<time>2014-05-18T22:45:26Z</time>
</trkpt>
      <trkpt lat="10.67354679" lon="-74.90737212">
<time>2014-05-18T22:45:28Z</time>
</trkpt>
      <trkpt lat="10.67310023" lon="-74.90777946">
<time>2014-05-18T22:45:30Z</time>
</trkpt>
      <trkpt lat="10.67264676" lon="-74.90820777">
<time>2014-05-18T22:45:32Z</time>
</trkpt>
      <trkpt lat="10.67219865" lon="-74.90863681">
<time>2014-05-18T22:45:34Z</time>
</trkpt>
      <trkpt lat="10.67177093" lon="-74.90903461">
<time>2014-05-18T22:45:36Z</time>
</trkpt>
      <trkpt lat="10.67137361" lon="-74.90941465">
<time>2014-05-18T22:45:38Z</time>
</trkpt>
      <trkpt lat="10.67101431" lon="-74.90975976">
<time>2014-05-18T22:45:40Z</time>
</trkpt>
      <trkpt lat="10.67069960" lon="-74.91006958">
<time>2014-05-18T22:45:42Z</time>
</trkpt>
      <trkpt lat="10.67040122" lon="-74.91034591">
<time>2014-05-18T22:45:44Z</time>
</trkpt>
      <trkpt lat="10.67011273" lon="-74.91058838">
<time>2014-05-18T22:45:46Z</time>
</trkpt>
      <trkpt lat="10.66981316" lon="-74.91077316">
<time>2014-05-18T22:45:48Z</time>
</trkpt>
      <trkpt lat="10.66949832" lon="-74.91087544">
<time>2014-05-18T22:45:50Z</time>
</trkpt>
      <trkpt lat="10.66915762" lon="-74.91091192">
<time>2014-05-18T22:45:52Z</time>
</trkpt>
      <trkpt lat="10.66879594" lon="-74.91087043">
<time>2014-05-18T22:45:54Z</time>
</trkpt>
      <trkpt lat="10.66840041" lon="-74.91073930">
<time>2014-05-18T22:45:56Z</time>
</trkpt>
      <trkpt lat="10.66796529" lon="-74.91056943">
<time>2014-05-18T22:45:58Z</time>
</trkpt>
      <trkpt lat="10.66754627" lon="-74.91041458">
<time>2014-05-18T22:46:00Z</time>
</trkpt>
      <trkpt lat="10.66719890" lon="-74.91029358">
<time>2014-05-18T22:46:02Z</time>
</trkpt>
      <trkpt lat="10.66691339" lon="-74.91018546">
<time>2014-05-18T22:46:04Z</time>
</trkpt>
      <trkpt lat="10.66666174" lon="-74.91008377">
<time>2014-05-18T22:46:06Z</time>
</trkpt>
      <trkpt lat="10.66641307" lon="-74.91000414">
<time>2014-05-18T22:46:08Z</time>
</trkpt>
      <trkpt lat="10.66616166" lon="-74.90994227">
<time>2014-05-18T22:46:10Z</time>
</trkpt>
      <trkpt lat="10.66590989" lon="-74.90992105">
<time>2014-05-18T22:46:12Z</time>
</trkpt>
      <trkpt lat="10.66565049" lon="-74.90994716">
<time>2014-05-18T22:46:14Z</time>
</trkpt>
      <trkpt lat="10.66538024" lon="-74.91000247">
<time>2014-05-18T22:46:16Z</time>
</trkpt>
      <trkpt lat="10.66512513" lon="-74.91009510">
<time>2014-05-18T22:46:18Z</time>
</trkpt>
      <trkpt lat="10.66488123" lon="-74.91020715">
<time>2014-05-18T22:46:20Z</time>
</trkpt>
      <trkpt lat="10.66462994" lon="-74.91035855">
<time>2014-05-18T22:46:22Z</time>
</trkpt>
      <trkpt lat="10.66433144" lon="-74.91054106">
<time>2014-05-18T22:46:24Z</time>
</trkpt>
      <trkpt lat="10.66398883" lon="-74.91078746">
<time>2014-05-18T22:46:26Z</time>
</trkpt>
      <trkpt lat="10.66360199" lon="-74.91105747">
<time>2014-05-18T22:46:28Z</time>
</trkpt>
      <trkpt lat="10.66319096" lon="-74.91133976">
<time>2014-05-18T22:46:30Z</time>
</trkpt>
      <trkpt lat="10.66276133" lon="-74.91163611">
<time>2014-05-18T22:46:32Z</time>
</trkpt>
      <trkpt lat="10.66233826" lon="-74.91192472">
<time>2014-05-18T22:46:34Z</time>
</trkpt>
      <trkpt lat="10.66194224" lon="-74.91217744">
<time>2014-05-18T22:46:36Z</time>
</trkpt>
      <trkpt lat="10.66154957" lon="-74.91240025">
<time>2014-05-18T22:46:38Z</time>
</trkpt>
      <trkpt lat="10.66112864" lon="-74.91259480">
<time>2014-05-18T22:46:40Z</time>
</trkpt>
      <trkpt lat="10.66067183" lon="-74.91276765">
<time>2014-05-18T22:46:42Z</time>
</trkpt>
      <trkpt lat="10.66018414" lon="-74.91293156">
<time>2014-05-18T22:46:44Z</time>
</trkpt>
      <trkpt lat="10.65967822" lon="-74.91309714">
<time>2014-05-18T22:46:46Z</time>
</trkpt>
      <trkpt lat="10.65916276" lon="-74.91325676">
<time>2014-05-18T22:46:48Z</time>
</trkpt>
      <trkpt lat="10.65863764" lon="-74.91342878">
<time>2014-05-18T22:46:50Z</time>
</trkpt>
      <trkpt lat="10.65810966" lon="-74.91360629">
<time>2014-05-18T22:46:52Z</time>
</trkpt>
      <trkpt lat="10.65759444" lon="-74.91377831">
<time>2014-05-18T22:46:54Z</time>
</trkpt>
      <trkpt lat="10.65711176" lon="-74.91393328">
<time>2014-05-18T22:46:56Z</time>
</trkpt>
      <trkpt lat="10.65662909" lon="-74.91405797">
<time>2014-05-18T22:46:58Z</time>
</trkpt>
      <trkpt lat="10.65611732" lon="-74.91414690">
<time>2014-05-18T22:47:00Z</time>
</trkpt>
      <trkpt lat="10.65558660" lon="-74.91420639">
<time>2014-05-18T22:47:02Z</time>
</trkpt>
      <trkpt lat="10.65503466" lon="-74.91425765">
<time>2014-05-18T22:47:04Z</time>
</trkpt>
      <trkpt lat="10.65447581" lon="-74.91431046">
<time>2014-05-18T22:47:06Z</time>
</trkpt>
      <trkpt lat="10.65393782" lon="-74.91436076">
<time>2014-05-18T22:47:08Z</time>
</trkpt>
      <trkpt lat="10.65344131" lon="-74.91439199">
<time>2014-05-18T22:47:10Z</time>
</trkpt>
      <trkpt lat="10.65297925" lon="-74.91436732">
<time>2014-05-18T22:47:12Z</time>
</trkpt>
      <trkpt lat="10.65253782" lon="-74.91426539">
<time>2014-05-18T22:47:14Z</time>
</trkpt>
      <trkpt lat="10.65210414" lon="-74.91410577">
<time>2014-05-18T22:47:16Z</time>
</trkpt>
      <trkpt lat="10.65165663" lon="-74.91391683">
<time>2014-05-18T22:47:18Z</time>
</trkpt>
      <trkpt lat="10.65120280" lon="-74.91373372">
<time>2014-05-18T22:47:20Z</time>
</trkpt>
      <trkpt lat="10.65074790" lon="-74.91356516">
<time>2014-05-18T22:47:22Z</time>
</trkpt>
      <trkpt lat="10.65032780" lon="-74.91341746">
<time>2014-05-18T22:47:24Z</time>
</trkpt>
      <trkpt lat="10.64997792" lon="-74.91329873">
<time>2014-05-18T22:47:26Z</time>
</trkpt>
      <trkpt lat="10.64966416" lon="-74.91322064">
<time>2014-05-18T22:47:28Z</time>
</trkpt>
      <trkpt lat="10.64937377" lon="-74.91320395">
<time>2014-05-18T22:47:30Z</time>
</trkpt>
      <trkpt lat="10.64906776" lon="-74.91325307">
<time>2014-05-18T22:47:32Z</time>
</trkpt>
      <trkpt lat="10.64872599" lon="-74.91337156">
<time>2014-05-18T22:47:34Z</time>
</trkpt>
      <trkpt lat="10.64838159" lon="-74.91356611">
<time>2014-05-18T22:47:36Z</time>
</trkpt>
      <trkpt lat="10.64806807" lon="-74.91385245">
<time>2014-05-18T22:47:38Z</time>
</trkpt>
      <trkpt lat="10.64778244" lon="-74.91419113">
<time>2014-05-18T22:47:40Z</time>
</trkpt>
      <trkpt lat="10.64749479" lon="-74.91452610">
<time>2014-05-18T22:47:42Z</time>
</trkpt>
      <trkpt lat="10.64720976" lon="-74.91485798">
<time>2014-05-18T22:47:44Z</time>
</trkpt>
      <trkpt lat="10.64693439" lon="-74.91518199">
<time>2014-05-18T22:47:46Z</time>
</trkpt>
      <trkpt lat="10.64666677" lon="-74.91549540">
<time>2014-05-18T22:47:48Z</time>
</trkpt>
      <trkpt lat="10.64642024" lon="-74.91579211">
<time>2014-05-18T22:47:50Z</time>
</trkpt>
      <trkpt lat="10.64616764" lon="-74.91607583">
<time>2014-05-18T22:47:52Z</time>
</trkpt>
      <trkpt lat="10.64592576" lon="-74.91635096">
<time>2014-05-18T22:47:54Z</time>
</trkpt>
      <trkpt lat="10.64569283" lon="-74.91662312">
<time>2014-05-18T22:47:56Z</time>
</trkpt>
      <trkpt lat="10.64545381" lon="-74.91689706">
<time>2014-05-18T22:47:58Z</time>
</trkpt>
      <trkpt lat="10.64519155" lon="-74.91719413">
<time>2014-05-18T22:48:00Z</time>
</trkpt>
      <trkpt lat="10.64493060" lon="-74.91748464">
<time>2014-05-18T22:48:02Z</time>
</trkpt>
      <trkpt lat="10.64469230" lon="-74.91775572">
<time>2014-05-18T22:48:04Z</time>
</trkpt>
      <trkpt lat="10.64447141" lon="-74.91801047">
<time>2014-05-18T22:48:06Z</time>
</trkpt>
      <trkpt lat="10.64424980" lon="-74.91827977">
<time>2014-05-18T22:48:08Z</time>
</trkpt>
      <trkpt lat="10.64400172" lon="-74.91856158">
<time>2014-05-18T22:48:10Z</time>
</trkpt>
      <trkpt lat="10.64370763" lon="-74.91887248">
<time>2014-05-18T22:48:12Z</time>
</trkpt>
      <trkpt lat="10.64340305" lon="-74.91922641">
<time>2014-05-18T22:48:14Z</time>
</trkpt>
      <trkpt lat="10.64309931" lon="-74.91957450">
<time>2014-05-18T22:48:16Z</time>
</trkpt>
      <trkpt lat="10.64283895" lon="-74.91986930">
<time>2014-05-18T22:48:18Z</time>
</trkpt>
      <trkpt lat="10.64261055" lon="-74.92012799">
<time>2014-05-18T22:48:20Z</time>
</trkpt>
      <trkpt lat="10.64240479" lon="-74.92036450">
<time>2014-05-18T22:48:22Z</time>
</trkpt>
      <trkpt lat="10.64224362" lon="-74.92055821">
<time>2014-05-18T22:48:24Z</time>
</trkpt>
      <trkpt lat="10.64214122" lon="-74.92067897">
<time>2014-05-18T22:48:26Z</time>
</trkpt>
      <trkpt lat="10.64201391" lon="-74.92082930">
<time>2014-05-18T22:48:28Z</time>
</trkpt>
      <trkpt lat="10.64184177" lon="-74.92104065">
<time>2014-05-18T22:48:30Z</time>
</trkpt>
      <trkpt lat="10.64163291" lon="-74.92129064">
<time>2014-05-18T22:48:32Z</time>
</trkpt>
      <trkpt lat="10.64142191" lon="-74.92152345">
<time>2014-05-18T22:48:34Z</time>
</trkpt>
      <trkpt lat="10.64121425" lon="-74.92174411">
<time>2014-05-18T22:48:36Z</time>
</trkpt>
      <trkpt lat="10.64101744" lon="-74.92197144">
<time>2014-05-18T22:48:38Z</time>
</trkpt>
      <trkpt lat="10.64083374" lon="-74.92217338">
<time>2014-05-18T22:48:40Z</time>
</trkpt>
      <trkpt lat="10.64064765" lon="-74.92236328">
<time>2014-05-18T22:48:42Z</time>
</trkpt>
      <trkpt lat="10.64045691" lon="-74.92257726">
<time>2014-05-18T22:48:44Z</time>
</trkpt>
      <trkpt lat="10.64027679" lon="-74.92278767">
<time>2014-05-18T22:48:46Z</time>
</trkpt>
      <trkpt lat="10.64009500" lon="-74.92300022">
<time>2014-05-18T22:48:48Z</time>
</trkpt>
      <trkpt lat="10.63992572" lon="-74.92319214">
<time>2014-05-18T22:48:50Z</time>
</trkpt>
      <trkpt lat="10.63977778" lon="-74.92337024">
<time>2014-05-18T22:48:52Z</time>
</trkpt>
      <trkpt lat="10.63964355" lon="-74.92353046">
<time>2014-05-18T22:48:54Z</time>
</trkpt>
      <trkpt lat="10.63956344" lon="-74.92362392">
<time>2014-05-18T22:48:56Z</time>
</trkpt>
      <trkpt lat="10.63948679" lon="-74.92370415">
<time>2014-05-18T22:48:58Z</time>
</trkpt>
      <trkpt lat="10.63940859" lon="-74.92378926">
<time>2014-05-18T22:49:00Z</time>
</trkpt>
      <trkpt lat="10.63931847" lon="-74.92389226">
<time>2014-05-18T22:49:02Z</time>
</trkpt>
      <trkpt lat="10.63920939" lon="-74.92401123">
<time>2014-05-18T22:49:04Z</time>
</trkpt>
      <trkpt lat="10.63911259" lon="-74.92412865">
<time>2014-05-18T22:49:06Z</time>
</trkpt>
      <trkpt lat="10.63900495" lon="-74.92426264">
<time>2014-05-18T22:49:08Z</time>
</trkpt>
      <trkpt lat="10.63890505" lon="-74.92438281">
<time>2014-05-18T22:49:10Z</time>
</trkpt>
      <trkpt lat="10.63880205" lon="-74.92449510">
<time>2014-05-18T22:49:12Z</time>
</trkpt>
      <trkpt lat="10.63871491" lon="-74.92460215">
<time>2014-05-18T22:49:14Z</time>
</trkpt>
      <trkpt lat="10.63865793" lon="-74.92467546">
<time>2014-05-18T22:49:16Z</time>
</trkpt>
      <trkpt lat="10.63863325" lon="-74.92471480">
<time>2014-05-18T22:49:18Z</time>
</trkpt>
      <trkpt lat="10.63862062" lon="-74.92472947">
<time>2014-05-18T22:49:20Z</time>
</trkpt>
      <trkpt lat="10.63862562" lon="-74.92472780">
<time>2014-05-18T22:49:22Z</time>
</trkpt>
      <trkpt lat="10.63863599" lon="-74.92472494">
<time>2014-05-18T22:49:24Z</time>
</trkpt>
      <trkpt lat="10.63863742" lon="-74.92472482">
<time>2014-05-18T22:49:26Z</time>
</trkpt>
      <trkpt lat="10.63863790" lon="-74.92472494">
<time>2014-05-18T22:49:28Z</time>
</trkpt>
      <trkpt lat="10.63863778" lon="-74.92472494">
<time>2014-05-18T22:49:30Z</time>
</trkpt>
      <trkpt lat="10.63863862" lon="-74.92472541">
<time>2014-05-18T22:49:32Z</time>
</trkpt>
      <trkpt lat="10.63864076" lon="-74.92472506">
<time>2014-05-18T22:49:34Z</time>
</trkpt>
      <trkpt lat="10.63864315" lon="-74.92472410">
<time>2014-05-18T22:49:36Z</time>
</trkpt>
      <trkpt lat="10.63864326" lon="-74.92472327">
<time>2014-05-18T22:49:38Z</time>
</trkpt>
      <trkpt lat="10.63864291" lon="-74.92472327">
<time>2014-05-18T22:49:40Z</time>
</trkpt>
      <trkpt lat="10.63864255" lon="-74.92472374">
<time>2014-05-18T22:49:42Z</time>
</trkpt>
      <trkpt lat="10.63864243" lon="-74.92472291">
<time>2014-05-18T22:49:44Z</time>
</trkpt>
      <trkpt lat="10.63864100" lon="-74.92472148">
<time>2014-05-18T22:49:46Z</time>
</trkpt>
      <trkpt lat="10.63863909" lon="-74.92471993">
<time>2014-05-18T22:49:48Z</time>
</trkpt>
      <trkpt lat="10.63863730" lon="-74.92471921">
<time>2014-05-18T22:49:50Z</time>
</trkpt>
      <trkpt lat="10.63863599" lon="-74.92471898">
<time>2014-05-18T22:49:52Z</time>
</trkpt>
      <trkpt lat="10.63863361" lon="-74.92471850">
<time>2014-05-18T22:49:54Z</time>
</trkpt>
      <trkpt lat="10.63862932" lon="-74.92471862">
<time>2014-05-18T22:49:56Z</time>
</trkpt>
      <trkpt lat="10.63859093" lon="-74.92474282">
<time>2014-05-18T22:49:58Z</time>
</trkpt>
      <trkpt lat="10.63854361" lon="-74.92479241">
<time>2014-05-18T22:50:00Z</time>
</trkpt>
      <trkpt lat="10.63847113" lon="-74.92488372">
<time>2014-05-18T22:50:02Z</time>
</trkpt>
      <trkpt lat="10.63838458" lon="-74.92498326">
<time>2014-05-18T22:50:04Z</time>
</trkpt>
      <trkpt lat="10.63830173" lon="-74.92507529">
<time>2014-05-18T22:50:06Z</time>
</trkpt>
      <trkpt lat="10.63821876" lon="-74.92516673">
<time>2014-05-18T22:50:08Z</time>
</trkpt>
      <trkpt lat="10.63814247" lon="-74.92525744">
<time>2014-05-18T22:50:10Z</time>
</trkpt>
      <trkpt lat="10.63806129" lon="-74.92534530">
<time>2014-05-18T22:50:12Z</time>
</trkpt>
      <trkpt lat="10.63796997" lon="-74.92544472">
<time>2014-05-18T22:50:14Z</time>
</trkpt>
      <trkpt lat="10.63787544" lon="-74.92555797">
<time>2014-05-18T22:50:16Z</time>
</trkpt>
      <trkpt lat="10.63777089" lon="-74.92568982">
<time>2014-05-18T22:50:18Z</time>
</trkpt>
      <trkpt lat="10.63764846" lon="-74.92582059">
<time>2014-05-18T22:50:20Z</time>
</trkpt>
      <trkpt lat="10.63754189" lon="-74.92594814">
<time>2014-05-18T22:50:22Z</time>
</trkpt>
      <trkpt lat="10.63745940" lon="-74.92605877">
<time>2014-05-18T22:50:24Z</time>
</trkpt>
      <trkpt lat="10.63739944" lon="-74.92615414">
<time>2014-05-18T22:50:26Z</time>
</trkpt>
      <trkpt lat="10.63733733" lon="-74.92626655">
<time>2014-05-18T22:50:28Z</time>
</trkpt>
      <trkpt lat="10.63728297" lon="-74.92639172">
<time>2014-05-18T22:50:30Z</time>
</trkpt>
      <trkpt lat="10.63723600" lon="-74.92653191">
<time>2014-05-18T22:50:32Z</time>
</trkpt>
      <trkpt lat="10.63719356" lon="-74.92670727">
<time>2014-05-18T22:50:34Z</time>
</trkpt>
      <trkpt lat="10.63717079" lon="-74.92687666">
<time>2014-05-18T22:50:36Z</time>
</trkpt>
      <trkpt lat="10.63717115" lon="-74.92705512">
<time>2014-05-18T22:50:38Z</time>
</trkpt>
      <trkpt lat="10.63719809" lon="-74.92724597">
<time>2014-05-18T22:50:40Z</time>
</trkpt>
      <trkpt lat="10.63723123" lon="-74.92745161">
<time>2014-05-18T22:50:42Z</time>
</trkpt>
      <trkpt lat="10.63727665" lon="-74.92767560">
<time>2014-05-18T22:50:44Z</time>
</trkpt>
      <trkpt lat="10.63733506" lon="-74.92791128">
<time>2014-05-18T22:50:46Z</time>
</trkpt>
      <trkpt lat="10.63739276" lon="-74.92815483">
<time>2014-05-18T22:50:48Z</time>
</trkpt>
      <trkpt lat="10.63745260" lon="-74.92840612">
<time>2014-05-18T22:50:50Z</time>
</trkpt>
      <trkpt lat="10.63750422" lon="-74.92864347">
<time>2014-05-18T22:50:52Z</time>
</trkpt>
      <trkpt lat="10.63755691" lon="-74.92885590">
<time>2014-05-18T22:50:54Z</time>
</trkpt>
      <trkpt lat="10.63759875" lon="-74.92904615">
<time>2014-05-18T22:50:56Z</time>
</trkpt>
      <trkpt lat="10.63763845" lon="-74.92922163">
<time>2014-05-18T22:50:58Z</time>
</trkpt>
      <trkpt lat="10.63768208" lon="-74.92938745">
<time>2014-05-18T22:51:00Z</time>
</trkpt>
      <trkpt lat="10.63772261" lon="-74.92953396">
<time>2014-05-18T22:51:02Z</time>
</trkpt>
      <trkpt lat="10.63774526" lon="-74.92965913">
<time>2014-05-18T22:51:04Z</time>
</trkpt>
      <trkpt lat="10.63776410" lon="-74.92979097">
<time>2014-05-18T22:51:06Z</time>
</trkpt>
      <trkpt lat="10.63778698" lon="-74.92993081">
<time>2014-05-18T22:51:08Z</time>
</trkpt>
      <trkpt lat="10.63782227" lon="-74.93004715">
<time>2014-05-18T22:51:10Z</time>
</trkpt>
      <trkpt lat="10.63784456" lon="-74.93013108">
<time>2014-05-18T22:51:12Z</time>
</trkpt>
      <trkpt lat="10.63784611" lon="-74.93017733">
<time>2014-05-18T22:51:14Z</time>
</trkpt>
      <trkpt lat="10.63784373" lon="-74.93020928">
<time>2014-05-18T22:51:16Z</time>
</trkpt>
      <trkpt lat="10.63784480" lon="-74.93024409">
<time>2014-05-18T22:51:18Z</time>
</trkpt>
      <trkpt lat="10.63785875" lon="-74.93027961">
<time>2014-05-18T22:51:20Z</time>
</trkpt>
      <trkpt lat="10.63787591" lon="-74.93033564">
<time>2014-05-18T22:51:22Z</time>
</trkpt>
      <trkpt lat="10.63788676" lon="-74.93041241">
<time>2014-05-18T22:51:24Z</time>
</trkpt>
      <trkpt lat="10.63789511" lon="-74.93050265">
<time>2014-05-18T22:51:26Z</time>
</trkpt>
      <trkpt lat="10.63792348" lon="-74.93062663">
<time>2014-05-18T22:51:28Z</time>
</trkpt>
      <trkpt lat="10.63795745" lon="-74.93078697">
<time>2014-05-18T22:51:30Z</time>
</trkpt>
      <trkpt lat="10.63800275" lon="-74.93098879">
<time>2014-05-18T22:51:32Z</time>
</trkpt>
      <trkpt lat="10.63807106" lon="-74.93130040">
<time>2014-05-18T22:51:34Z</time>
</trkpt>
      <trkpt lat="10.63817465" lon="-74.93167925">
<time>2014-05-18T22:51:36Z</time>
</trkpt>
      <trkpt lat="10.63827229" lon="-74.93210900">
<time>2014-05-18T22:51:38Z</time>
</trkpt>
      <trkpt lat="10.63837647" lon="-74.93256581">
<time>2014-05-18T22:51:40Z</time>
</trkpt>
      <trkpt lat="10.63847339" lon="-74.93300033">
<time>2014-05-18T22:51:42Z</time>
</trkpt>
      <trkpt lat="10.63856423" lon="-74.93338799">
<time>2014-05-18T22:51:44Z</time>
</trkpt>
      <trkpt lat="10.63864315" lon="-74.93373883">
<time>2014-05-18T22:51:46Z</time>
</trkpt>
      <trkpt lat="10.63870406" lon="-74.93401110">
<time>2014-05-18T22:51:48Z</time>
</trkpt>
      <trkpt lat="10.63874495" lon="-74.93418229">
<time>2014-05-18T22:51:50Z</time>
</trkpt>
      <trkpt lat="10.63875544" lon="-74.93427527">
<time>2014-05-18T22:51:52Z</time>
</trkpt>
      <trkpt lat="10.63878715" lon="-74.93435347">
<time>2014-05-18T22:51:54Z</time>
</trkpt>
      <trkpt lat="10.63883078" lon="-74.93447411">
<time>2014-05-18T22:51:56Z</time>
</trkpt>
      <trkpt lat="10.63887656" lon="-74.93466890">
<time>2014-05-18T22:51:58Z</time>
</trkpt>
      <trkpt lat="10.63893092" lon="-74.93491793">
<time>2014-05-18T22:52:00Z</time>
</trkpt>
      <trkpt lat="10.63899660" lon="-74.93520892">
<time>2014-05-18T22:52:02Z</time>
</trkpt>
      <trkpt lat="10.63906491" lon="-74.93551838">
<time>2014-05-18T22:52:04Z</time>
</trkpt>
      <trkpt lat="10.63912857" lon="-74.93582845">
<time>2014-05-18T22:52:06Z</time>
</trkpt>
      <trkpt lat="10.63920212" lon="-74.93615782">
<time>2014-05-18T22:52:08Z</time>
</trkpt>
      <trkpt lat="10.63928330" lon="-74.93649030">
<time>2014-05-18T22:52:10Z</time>
</trkpt>
      <trkpt lat="10.63936532" lon="-74.93682945">
<time>2014-05-18T22:52:12Z</time>
</trkpt>
      <trkpt lat="10.63943505" lon="-74.93716359">
<time>2014-05-18T22:52:14Z</time>
</trkpt>
      <trkpt lat="10.63951123" lon="-74.93750572">
<time>2014-05-18T22:52:16Z</time>
</trkpt>
      <trkpt lat="10.63959479" lon="-74.93787706">
<time>2014-05-18T22:52:18Z</time>
</trkpt>
      <trkpt lat="10.63967395" lon="-74.93824363">
<time>2014-05-18T22:52:20Z</time>
</trkpt>
      <trkpt lat="10.63975322" lon="-74.93860698">
<time>2014-05-18T22:52:22Z</time>
</trkpt>
      <trkpt lat="10.63983083" lon="-74.93897581">
<time>2014-05-18T22:52:24Z</time>
</trkpt>
      <trkpt lat="10.63990641" lon="-74.93932927">
<time>2014-05-18T22:52:26Z</time>
</trkpt>
      <trkpt lat="10.63998008" lon="-74.93968177">
<time>2014-05-18T22:52:28Z</time>
</trkpt>
      <trkpt lat="10.64006972" lon="-74.94005024">
<time>2014-05-18T22:52:30Z</time>
</trkpt>
      <trkpt lat="10.64015114" lon="-74.94047391">
<time>2014-05-18T22:52:32Z</time>
</trkpt>
      <trkpt lat="10.64026523" lon="-74.94095576">
<time>2014-05-18T22:52:34Z</time>
</trkpt>
      <trkpt lat="10.64040065" lon="-74.94146943">
<time>2014-05-18T22:52:36Z</time>
</trkpt>
      <trkpt lat="10.64052188" lon="-74.94199264">
<time>2014-05-18T22:52:38Z</time>
</trkpt>
      <trkpt lat="10.64065039" lon="-74.94254398">
<time>2014-05-18T22:52:40Z</time>
</trkpt>
      <trkpt lat="10.64078748" lon="-74.94311464">
<time>2014-05-18T22:52:42Z</time>
</trkpt>
      <trkpt lat="10.64092588" lon="-74.94370031">
<time>2014-05-18T22:52:44Z</time>
</trkpt>
      <trkpt lat="10.64105129" lon="-74.94429147">
<time>2014-05-18T22:52:46Z</time>
</trkpt>
      <trkpt lat="10.64118028" lon="-74.94487345">
<time>2014-05-18T22:52:48Z</time>
</trkpt>
      <trkpt lat="10.64130878" lon="-74.94545281">
<time>2014-05-18T22:52:50Z</time>
</trkpt>
      <trkpt lat="10.64139926" lon="-74.94601691">
<time>2014-05-18T22:52:52Z</time>
</trkpt>
      <trkpt lat="10.64145327" lon="-74.94659758">
<time>2014-05-18T22:52:54Z</time>
</trkpt>
      <trkpt lat="10.64147973" lon="-74.94719315">
<time>2014-05-18T22:52:56Z</time>
</trkpt>
      <trkpt lat="10.64149106" lon="-74.94774461">
<time>2014-05-18T22:52:58Z</time>
</trkpt>
      <trkpt lat="10.64145613" lon="-74.94826007">
<time>2014-05-18T22:53:00Z</time>
</trkpt>
      <trkpt lat="10.64135540" lon="-74.94878399">
<time>2014-05-18T22:53:02Z</time>
</trkpt>
      <trkpt lat="10.64122939" lon="-74.94933391">
<time>2014-05-18T22:53:04Z</time>
</trkpt>
      <trkpt lat="10.64109194" lon="-74.94991076">
<time>2014-05-18T22:53:06Z</time>
</trkpt>
      <trkpt lat="10.64095616" lon="-74.95049012">
<time>2014-05-18T22:53:08Z</time>
</trkpt>
      <trkpt lat="10.64081812" lon="-74.95107579">
<time>2014-05-18T22:53:10Z</time>
</trkpt>
      <trkpt lat="10.64068091" lon="-74.95166957">
<time>2014-05-18T22:53:12Z</time>
</trkpt>
      <trkpt lat="10.64053988" lon="-74.95226991">
<time>2014-05-18T22:53:14Z</time>
</trkpt>
      <trkpt lat="10.64039946" lon="-74.95287824">
<time>2014-05-18T22:53:16Z</time>
</trkpt>
      <trkpt lat="10.64025974" lon="-74.95349360">
<time>2014-05-18T22:53:18Z</time>
</trkpt>
      <trkpt lat="10.64012039" lon="-74.95411372">
<time>2014-05-18T22:53:20Z</time>
</trkpt>
      <trkpt lat="10.63999212" lon="-74.95472145">
<time>2014-05-18T22:53:22Z</time>
</trkpt>
      <trkpt lat="10.63987041" lon="-74.95528126">
<time>2014-05-18T22:53:24Z</time>
</trkpt>
      <trkpt lat="10.63980746" lon="-74.95578659">
<time>2014-05-18T22:53:26Z</time>
</trkpt>
      <trkpt lat="10.63981390" lon="-74.95628726">
<time>2014-05-18T22:53:28Z</time>
</trkpt>
      <trkpt lat="10.63988459" lon="-74.95681381">
<time>2014-05-18T22:53:30Z</time>
</trkpt>
      <trkpt lat="10.63998330" lon="-74.95733678">
<time>2014-05-18T22:53:32Z</time>
</trkpt>
      <trkpt lat="10.64009988" lon="-74.95781231">
<time>2014-05-18T22:53:34Z</time>
</trkpt>
      <trkpt lat="10.64026964" lon="-74.95825374">
<time>2014-05-18T22:53:36Z</time>
</trkpt>
      <trkpt lat="10.64052689" lon="-74.95866466">
<time>2014-05-18T22:53:38Z</time>
</trkpt>
      <trkpt lat="10.64086533" lon="-74.95908225">
<time>2014-05-18T22:53:40Z</time>
</trkpt>
      <trkpt lat="10.64124644" lon="-74.95954049">
<time>2014-05-18T22:53:42Z</time>
</trkpt>
      <trkpt lat="10.64165974" lon="-74.96003890">
<time>2014-05-18T22:53:44Z</time>
</trkpt>
      <trkpt lat="10.64210594" lon="-74.96057093">
<time>2014-05-18T22:53:46Z</time>
</trkpt>
      <trkpt lat="10.64254832" lon="-74.96110356">
<time>2014-05-18T22:53:48Z</time>
</trkpt>
      <trkpt lat="10.64299417" lon="-74.96163309">
<time>2014-05-18T22:53:50Z</time>
</trkpt>
      <trkpt lat="10.64342725" lon="-74.96216273">
<time>2014-05-18T22:53:52Z</time>
</trkpt>
      <trkpt lat="10.64386666" lon="-74.96268642">
<time>2014-05-18T22:53:54Z</time>
</trkpt>
      <trkpt lat="10.64429641" lon="-74.96320343">
<time>2014-05-18T22:53:56Z</time>
</trkpt>
      <trkpt lat="10.64468205" lon="-74.96372008">
<time>2014-05-18T22:53:58Z</time>
</trkpt>
      <trkpt lat="10.64499414" lon="-74.96426141">
<time>2014-05-18T22:54:00Z</time>
</trkpt>
      <trkpt lat="10.64525926" lon="-74.96483588">
<time>2014-05-18T22:54:02Z</time>
</trkpt>
      <trkpt lat="10.64549565" lon="-74.96544683">
<time>2014-05-18T22:54:04Z</time>
</trkpt>
      <trkpt lat="10.64574397" lon="-74.96607900">
<time>2014-05-18T22:54:06Z</time>
</trkpt>
      <trkpt lat="10.64598596" lon="-74.96671033">
<time>2014-05-18T22:54:08Z</time>
</trkpt>
      <trkpt lat="10.64622462" lon="-74.96734929">
<time>2014-05-18T22:54:10Z</time>
</trkpt>
      <trkpt lat="10.64646459" lon="-74.96798861">
<time>2014-05-18T22:54:12Z</time>
</trkpt>
      <trkpt lat="10.64671183" lon="-74.96862757">
<time>2014-05-18T22:54:14Z</time>
</trkpt>
      <trkpt lat="10.64695811" lon="-74.96926689">
<time>2014-05-18T22:54:16Z</time>
</trkpt>
      <trkpt lat="10.64721060" lon="-74.96991491">
<time>2014-05-18T22:54:18Z</time>
</trkpt>
      <trkpt lat="10.64746678" lon="-74.97056878">
<time>2014-05-18T22:54:20Z</time>
</trkpt>
      <trkpt lat="10.64771366" lon="-74.97121227">
<time>2014-05-18T22:54:22Z</time>
</trkpt>
      <trkpt lat="10.64793396" lon="-74.97180295">
<time>2014-05-18T22:54:24Z</time>
</trkpt>
      <trkpt lat="10.64810407" lon="-74.97233057">
<time>2014-05-18T22:54:26Z</time>
</trkpt>
      <trkpt lat="10.64821839" lon="-74.97285044">
<time>2014-05-18T22:54:28Z</time>
</trkpt>
      <trkpt lat="10.64826894" lon="-74.97339129">
<time>2014-05-18T22:54:30Z</time>
</trkpt>
      <trkpt lat="10.64829123" lon="-74.97397423">
<time>2014-05-18T22:54:32Z</time>
</trkpt>
      <trkpt lat="10.64831543" lon="-74.97459805">
<time>2014-05-18T22:54:34Z</time>
</trkpt>
      <trkpt lat="10.64834058" lon="-74.97524309">
<time>2014-05-18T22:54:36Z</time>
</trkpt>
      <trkpt lat="10.64836597" lon="-74.97590125">
<time>2014-05-18T22:54:38Z</time>
</trkpt>
      <trkpt lat="10.64839363" lon="-74.97655129">
<time>2014-05-18T22:54:40Z</time>
</trkpt>
      <trkpt lat="10.64842665" lon="-74.97717309">
<time>2014-05-18T22:54:42Z</time>
</trkpt>
      <trkpt lat="10.64847839" lon="-74.97772539">
<time>2014-05-18T22:54:44Z</time>
</trkpt>
      <trkpt lat="10.64857280" lon="-74.97821677">
<time>2014-05-18T22:54:46Z</time>
</trkpt>
      <trkpt lat="10.64871514" lon="-74.97870660">
<time>2014-05-18T22:54:48Z</time>
</trkpt>
      <trkpt lat="10.64889812" lon="-74.97921824">
<time>2014-05-18T22:54:50Z</time>
</trkpt>
      <trkpt lat="10.64908683" lon="-74.97977912">
<time>2014-05-18T22:54:52Z</time>
</trkpt>
      <trkpt lat="10.64929307" lon="-74.98036408">
<time>2014-05-18T22:54:54Z</time>
</trkpt>
      <trkpt lat="10.64949679" lon="-74.98097682">
<time>2014-05-18T22:54:56Z</time>
</trkpt>
      <trkpt lat="10.64970922" lon="-74.98160589">
<time>2014-05-18T22:54:58Z</time>
</trkpt>
      <trkpt lat="10.64992809" lon="-74.98223722">
<time>2014-05-18T22:55:00Z</time>
</trkpt>
      <trkpt lat="10.65014696" lon="-74.98287165">
<time>2014-05-18T22:55:02Z</time>
</trkpt>
      <trkpt lat="10.65036798" lon="-74.98351109">
<time>2014-05-18T22:55:04Z</time>
</trkpt>
      <trkpt lat="10.65059066" lon="-74.98414958">
<time>2014-05-18T22:55:06Z</time>
</trkpt>
      <trkpt lat="10.65080345" lon="-74.98478794">
<time>2014-05-18T22:55:08Z</time>
</trkpt>
      <trkpt lat="10.65101409" lon="-74.98540866">
<time>2014-05-18T22:55:10Z</time>
</trkpt>
      <trkpt lat="10.65121543" lon="-74.98600805">
<time>2014-05-18T22:55:12Z</time>
</trkpt>
      <trkpt lat="10.65140438" lon="-74.98657262">
<time>2014-05-18T22:55:14Z</time>
</trkpt>
      <trkpt lat="10.65159011" lon="-74.98714089">
<time>2014-05-18T22:55:16Z</time>
</trkpt>
      <trkpt lat="10.65179431" lon="-74.98774040">
<time>2014-05-18T22:55:18Z</time>
</trkpt>
      <trkpt lat="10.65200007" lon="-74.98836565">
<time>2014-05-18T22:55:20Z</time>
</trkpt>
      <trkpt lat="10.65220058" lon="-74.98901021">
<time>2014-05-18T22:55:22Z</time>
</trkpt>
      <trkpt lat="10.65240574" lon="-74.98967695">
<time>2014-05-18T22:55:24Z</time>
</trkpt>
      <trkpt lat="10.65260732" lon="-74.99034691">
<time>2014-05-18T22:55:26Z</time>
</trkpt>
      <trkpt lat="10.65280914" lon="-74.99103606">
<time>2014-05-18T22:55:28Z</time>
</trkpt>
      <trkpt lat="10.65301764" lon="-74.99172878">
<time>2014-05-18T22:55:30Z</time>
</trkpt>
      <trkpt lat="10.65322793" lon="-74.99240792">
<time>2014-05-18T22:55:32Z</time>
</trkpt>
      <trkpt lat="10.65343773" lon="-74.99307775">
<time>2014-05-18T22:55:34Z</time>
</trkpt>
      <trkpt lat="10.65364325" lon="-74.99374199">
<time>2014-05-18T22:55:36Z</time>
</trkpt>
      <trkpt lat="10.65384614" lon="-74.99440479">
<time>2014-05-18T22:55:38Z</time>
</trkpt>
      <trkpt lat="10.65404344" lon="-74.99507511">
<time>2014-05-18T22:55:40Z</time>
</trkpt>
      <trkpt lat="10.65424275" lon="-74.99575508">
<time>2014-05-18T22:55:42Z</time>
</trkpt>
      <trkpt lat="10.65445650" lon="-74.99644506">
<time>2014-05-18T22:55:44Z</time>
</trkpt>
      <trkpt lat="10.65465927" lon="-74.99714041">
<time>2014-05-18T22:55:46Z</time>
</trkpt>
      <trkpt lat="10.65487158" lon="-74.99783492">
<time>2014-05-18T22:55:48Z</time>
</trkpt>
      <trkpt lat="10.65508115" lon="-74.99853206">
<time>2014-05-18T22:55:50Z</time>
</trkpt>
      <trkpt lat="10.65529561" lon="-74.99923742">
<time>2014-05-18T22:55:52Z</time>
</trkpt>
      <trkpt lat="10.65550590" lon="-74.99993348">
<time>2014-05-18T22:55:54Z</time>
</trkpt>
      <trkpt lat="10.65571582" lon="-75.00062907">
<time>2014-05-18T22:55:56Z</time>
</trkpt>
      <trkpt lat="10.65593660" lon="-75.00131977">
<time>2014-05-18T22:55:58Z</time>
</trkpt>
      <trkpt lat="10.65614581" lon="-75.00200975">
<time>2014-05-18T22:56:00Z</time>
</trkpt>
      <trkpt lat="10.65635765" lon="-75.00270116">
<time>2014-05-18T22:56:02Z</time>
</trkpt>
      <trkpt lat="10.65656292" lon="-75.00337958">
<time>2014-05-18T22:56:04Z</time>
</trkpt>
      <trkpt lat="10.65675747" lon="-75.00402999">
<time>2014-05-18T22:56:06Z</time>
</trkpt>
      <trkpt lat="10.65693092" lon="-75.00460279">
<time>2014-05-18T22:56:08Z</time>
</trkpt>
      <trkpt lat="10.65703690" lon="-75.00509298">
<time>2014-05-18T22:56:10Z</time>
</trkpt>
      <trkpt lat="10.65707016" lon="-75.00555182">
<time>2014-05-18T22:56:12Z</time>
</trkpt>
      <trkpt lat="10.65702331" lon="-75.00603545">
<time>2014-05-18T22:56:14Z</time>
</trkpt>
      <trkpt lat="10.65694308" lon="-75.00655341">
<time>2014-05-18T22:56:16Z</time>
</trkpt>
      <trkpt lat="10.65686095" lon="-75.00710011">
<time>2014-05-18T22:56:18Z</time>
</trkpt>
      <trkpt lat="10.65677559" lon="-75.00767946">
<time>2014-05-18T22:56:20Z</time>
</trkpt>
      <trkpt lat="10.65669560" lon="-75.00829315">
<time>2014-05-18T22:56:22Z</time>
</trkpt>
      <trkpt lat="10.65661764" lon="-75.00892997">
<time>2014-05-18T22:56:24Z</time>
</trkpt>
      <trkpt lat="10.65653074" lon="-75.00956428">
<time>2014-05-18T22:56:26Z</time>
</trkpt>
      <trkpt lat="10.65644276" lon="-75.01017022">
<time>2014-05-18T22:56:28Z</time>
</trkpt>
      <trkpt lat="10.65636826" lon="-75.01073015">
<time>2014-05-18T22:56:30Z</time>
</trkpt>
      <trkpt lat="10.65629315" lon="-75.01126349">
<time>2014-05-18T22:56:32Z</time>
</trkpt>
      <trkpt lat="10.65621150" lon="-75.01181555">
<time>2014-05-18T22:56:34Z</time>
</trkpt>
      <trkpt lat="10.65611732" lon="-75.01239192">
<time>2014-05-18T22:56:36Z</time>
</trkpt>
      <trkpt lat="10.65604031" lon="-75.01299989">
<time>2014-05-18T22:56:38Z</time>
</trkpt>
      <trkpt lat="10.65596342" lon="-75.01366496">
<time>2014-05-18T22:56:40Z</time>
</trkpt>
      <trkpt lat="10.65587962" lon="-75.01436090">
<time>2014-05-18T22:56:42Z</time>
</trkpt>
      <trkpt lat="10.65579665" lon="-75.01503932">
<time>2014-05-18T22:56:44Z</time>
</trkpt>
      <trkpt lat="10.65573645" lon="-75.01564491">
<time>2014-05-18T22:56:46Z</time>
</trkpt>
      <trkpt lat="10.65568173" lon="-75.01612091">
<time>2014-05-18T22:56:48Z</time>
</trkpt>
      <trkpt lat="10.65557861" lon="-75.01655126">
<time>2014-05-18T22:56:50Z</time>
</trkpt>
      <trkpt lat="10.65541482" lon="-75.01701498">
<time>2014-05-18T22:56:52Z</time>
</trkpt>
      <trkpt lat="10.65520430" lon="-75.01751292">
<time>2014-05-18T22:56:54Z</time>
</trkpt>
      <trkpt lat="10.65497816" lon="-75.01803863">
<time>2014-05-18T22:56:56Z</time>
</trkpt>
      <trkpt lat="10.65475798" lon="-75.01857162">
<time>2014-05-18T22:56:58Z</time>
</trkpt>
      <trkpt lat="10.65454578" lon="-75.01909149">
<time>2014-05-18T22:57:00Z</time>
</trkpt>
      <trkpt lat="10.65436792" lon="-75.01955247">
<time>2014-05-18T22:57:02Z</time>
</trkpt>
      <trkpt lat="10.65423059" lon="-75.01996779">
<time>2014-05-18T22:57:04Z</time>
</trkpt>
      <trkpt lat="10.65413976" lon="-75.02037263">
<time>2014-05-18T22:57:06Z</time>
</trkpt>
      <trkpt lat="10.65411294" lon="-75.02081740">
<time>2014-05-18T22:57:08Z</time>
</trkpt>
      <trkpt lat="10.65411055" lon="-75.02130890">
<time>2014-05-18T22:57:10Z</time>
</trkpt>
      <trkpt lat="10.65411496" lon="-75.02184796">
<time>2014-05-18T22:57:12Z</time>
</trkpt>
      <trkpt lat="10.65411890" lon="-75.02242124">
<time>2014-05-18T22:57:14Z</time>
</trkpt>
      <trkpt lat="10.65412629" lon="-75.02301610">
<time>2014-05-18T22:57:16Z</time>
</trkpt>
      <trkpt lat="10.65413105" lon="-75.02362442">
<time>2014-05-18T22:57:18Z</time>
</trkpt>
      <trkpt lat="10.65413082" lon="-75.02422631">
<time>2014-05-18T22:57:20Z</time>
</trkpt>
      <trkpt lat="10.65413022" lon="-75.02477741">
<time>2014-05-18T22:57:22Z</time>
</trkpt>
      <trkpt lat="10.65414715" lon="-75.02528191">
<time>2014-05-18T22:57:24Z</time>
</trkpt>
      <trkpt lat="10.65419126" lon="-75.02576756">
<time>2014-05-18T22:57:26Z</time>
</trkpt>
      <trkpt lat="10.65427315" lon="-75.02628791">
<time>2014-05-18T22:57:28Z</time>
</trkpt>
      <trkpt lat="10.65438282" lon="-75.02683079">
<time>2014-05-18T22:57:30Z</time>
</trkpt>
      <trkpt lat="10.65451431" lon="-75.02741146">
<time>2014-05-18T22:57:32Z</time>
</trkpt>
      <trkpt lat="10.65464556" lon="-75.02802157">
<time>2014-05-18T22:57:34Z</time>
</trkpt>
      <trkpt lat="10.65477991" lon="-75.02864790">
<time>2014-05-18T22:57:36Z</time>
</trkpt>
      <trkpt lat="10.65491450" lon="-75.02928841">
<time>2014-05-18T22:57:38Z</time>
</trkpt>
      <trkpt lat="10.65505648" lon="-75.02993405">
<time>2014-05-18T22:57:40Z</time>
</trkpt>
      <trkpt lat="10.65519607" lon="-75.03058445">
<time>2014-05-18T22:57:42Z</time>
</trkpt>
      <trkpt lat="10.65533829" lon="-75.03124189">
<time>2014-05-18T22:57:44Z</time>
</trkpt>
      <trkpt lat="10.65548098" lon="-75.03190124">
<time>2014-05-18T22:57:46Z</time>
</trkpt>
      <trkpt lat="10.65562248" lon="-75.03256500">
<time>2014-05-18T22:57:48Z</time>
</trkpt>
      <trkpt lat="10.65576005" lon="-75.03323209">
<time>2014-05-18T22:57:50Z</time>
</trkpt>
      <trkpt lat="10.65589774" lon="-75.03389597">
<time>2014-05-18T22:57:52Z</time>
</trkpt>
      <trkpt lat="10.65603971" lon="-75.03455031">
<time>2014-05-18T22:57:54Z</time>
</trkpt>
      <trkpt lat="10.65617430" lon="-75.03518522">
<time>2014-05-18T22:57:56Z</time>
</trkpt>
      <trkpt lat="10.65630305" lon="-75.03580511">
<time>2014-05-18T22:57:58Z</time>
</trkpt>
      <trkpt lat="10.65643108" lon="-75.03642178">
<time>2014-05-18T22:58:00Z</time>
</trkpt>
      <trkpt lat="10.65656590" lon="-75.03704572">
<time>2014-05-18T22:58:02Z</time>
</trkpt>
      <trkpt lat="10.65670264" lon="-75.03767776">
<time>2014-05-18T22:58:04Z</time>
</trkpt>
      <trkpt lat="10.65683925" lon="-75.03831327">
<time>2014-05-18T22:58:06Z</time>
</trkpt>
      <trkpt lat="10.65697265" lon="-75.03895044">
<time>2014-05-18T22:58:08Z</time>
</trkpt>
      <trkpt lat="10.65711164" lon="-75.03958249">
<time>2014-05-18T22:58:10Z</time>
</trkpt>
      <trkpt lat="10.65724313" lon="-75.04019189">
<time>2014-05-18T22:58:12Z</time>
</trkpt>
      <trkpt lat="10.65736639" lon="-75.04076374">
<time>2014-05-18T22:58:14Z</time>
</trkpt>
      <trkpt lat="10.65748072" lon="-75.04129159">
<time>2014-05-18T22:58:16Z</time>
</trkpt>
      <trkpt lat="10.65759158" lon="-75.04179180">
<time>2014-05-18T22:58:18Z</time>
</trkpt>
      <trkpt lat="10.65769899" lon="-75.04230261">
<time>2014-05-18T22:58:20Z</time>
</trkpt>
      <trkpt lat="10.65779841" lon="-75.04278147">
<time>2014-05-18T22:58:22Z</time>
</trkpt>
      <trkpt lat="10.65788746" lon="-75.04320347">
<time>2014-05-18T22:58:24Z</time>
</trkpt>
      <trkpt lat="10.65794432" lon="-75.04359305">
<time>2014-05-18T22:58:26Z</time>
</trkpt>
      <trkpt lat="10.65795910" lon="-75.04400742">
<time>2014-05-18T22:58:28Z</time>
</trkpt>
      <trkpt lat="10.65792716" lon="-75.04444039">
<time>2014-05-18T22:58:30Z</time>
</trkpt>
      <trkpt lat="10.65783858" lon="-75.04488242">
<time>2014-05-18T22:58:32Z</time>
</trkpt>
      <trkpt lat="10.65769339" lon="-75.04534447">
<time>2014-05-18T22:58:34Z</time>
</trkpt>
      <trkpt lat="10.65752447" lon="-75.04585040">
<time>2014-05-18T22:58:36Z</time>
</trkpt>
      <trkpt lat="10.65734005" lon="-75.04638147">
<time>2014-05-18T22:58:38Z</time>
</trkpt>
      <trkpt lat="10.65715563" lon="-75.04693365">
<time>2014-05-18T22:58:40Z</time>
</trkpt>
      <trkpt lat="10.65695846" lon="-75.04750693">
<time>2014-05-18T22:58:42Z</time>
</trkpt>
      <trkpt lat="10.65675843" lon="-75.04810178">
<time>2014-05-18T22:58:44Z</time>
</trkpt>
      <trkpt lat="10.65655315" lon="-75.04870856">
<time>2014-05-18T22:58:46Z</time>
</trkpt>
      <trkpt lat="10.65633965" lon="-75.04933095">
<time>2014-05-18T22:58:48Z</time>
</trkpt>
      <trkpt lat="10.65611494" lon="-75.04996622">
<time>2014-05-18T22:58:50Z</time>
</trkpt>
      <trkpt lat="10.65589857" lon="-75.05061758">
<time>2014-05-18T22:58:52Z</time>
</trkpt>
      <trkpt lat="10.65568280" lon="-75.05127096">
<time>2014-05-18T22:58:54Z</time>
</trkpt>
      <trkpt lat="10.65546072" lon="-75.05191410">
<time>2014-05-18T22:58:56Z</time>
</trkpt>
      <trkpt lat="10.65523958" lon="-75.05255699">
<time>2014-05-18T22:58:58Z</time>
</trkpt>
      <trkpt lat="10.65502191" lon="-75.05319595">
<time>2014-05-18T22:59:00Z</time>
</trkpt>
      <trkpt lat="10.65480411" lon="-75.05382788">
<time>2014-05-18T22:59:02Z</time>
</trkpt>
      <trkpt lat="10.65459442" lon="-75.05445480">
<time>2014-05-18T22:59:04Z</time>
</trkpt>
      <trkpt lat="10.65438545" lon="-75.05507898">
<time>2014-05-18T22:59:06Z</time>
</trkpt>
      <trkpt lat="10.65418088" lon="-75.05570543">
<time>2014-05-18T22:59:08Z</time>
</trkpt>
      <trkpt lat="10.65397394" lon="-75.05633676">
<time>2014-05-18T22:59:10Z</time>
</trkpt>
      <trkpt lat="10.65375590" lon="-75.05697763">
<time>2014-05-18T22:59:12Z</time>
</trkpt>
      <trkpt lat="10.65353465" lon="-75.05762339">
<time>2014-05-18T22:59:14Z</time>
</trkpt>
      <trkpt lat="10.65331697" lon="-75.05827093">
<time>2014-05-18T22:59:16Z</time>
</trkpt>
      <trkpt lat="10.65309823" lon="-75.05892038">
<time>2014-05-18T22:59:18Z</time>
</trkpt>
      <trkpt lat="10.65287459" lon="-75.05957139">
<time>2014-05-18T22:59:20Z</time>
</trkpt>
      <trkpt lat="10.65265524" lon="-75.06022394">
<time>2014-05-18T22:59:22Z</time>
</trkpt>
      <trkpt lat="10.65244198" lon="-75.06088424">
<time>2014-05-18T22:59:24Z</time>
</trkpt>
      <trkpt lat="10.65222180" lon="-75.06154692">
<time>2014-05-18T22:59:26Z</time>
</trkpt>
      <trkpt lat="10.65200460" lon="-75.06221211">
<time>2014-05-18T22:59:28Z</time>
</trkpt>
      <trkpt lat="10.65178466" lon="-75.06287646">
<time>2014-05-18T22:59:30Z</time>
</trkpt>
      <trkpt lat="10.65156341" lon="-75.06354249">
<time>2014-05-18T22:59:32Z</time>
</trkpt>
      <trkpt lat="10.65133905" lon="-75.06420195">
<time>2014-05-18T22:59:34Z</time>
</trkpt>
      <trkpt lat="10.65111232" lon="-75.06485856">
<time>2014-05-18T22:59:36Z</time>
</trkpt>
      <trkpt lat="10.65089130" lon="-75.06550741">
<time>2014-05-18T22:59:38Z</time>
</trkpt>
      <trkpt lat="10.65067577" lon="-75.06615865">
<time>2014-05-18T22:59:40Z</time>
</trkpt>
      <trkpt lat="10.65045881" lon="-75.06680191">
<time>2014-05-18T22:59:42Z</time>
</trkpt>
      <trkpt lat="10.65024197" lon="-75.06744623">
<time>2014-05-18T22:59:44Z</time>
</trkpt>
      <trkpt lat="10.65001941" lon="-75.06809449">
<time>2014-05-18T22:59:46Z</time>
</trkpt>
      <trkpt lat="10.64980209" lon="-75.06873798">
<time>2014-05-18T22:59:48Z</time>
</trkpt>
      <trkpt lat="10.64958310" lon="-75.06938326">
<time>2014-05-18T22:59:50Z</time>
</trkpt>
      <trkpt lat="10.64936090" lon="-75.07002926">
<time>2014-05-18T22:59:52Z</time>
</trkpt>
      <trkpt lat="10.64914763" lon="-75.07068157">
<time>2014-05-18T22:59:54Z</time>
</trkpt>
      <trkpt lat="10.64892995" lon="-75.07133257">
<time>2014-05-18T22:59:56Z</time>
</trkpt>
      <trkpt lat="10.64870381" lon="-75.07198048">
<time>2014-05-18T22:59:58Z</time>
</trkpt>
      <trkpt lat="10.64848697" lon="-75.07262874">
<time>2014-05-18T23:00:00Z</time>
</trkpt>
      <trkpt lat="10.64827681" lon="-75.07327259">
<time>2014-05-18T23:00:02Z</time>
</trkpt>
      <trkpt lat="10.64806759" lon="-75.07391095">
<time>2014-05-18T23:00:04Z</time>
</trkpt>
      <trkpt lat="10.64785314" lon="-75.07454324">
<time>2014-05-18T23:00:06Z</time>
</trkpt>
      <trkpt lat="10.64763331" lon="-75.07517195">
<time>2014-05-18T23:00:08Z</time>
</trkpt>
      <trkpt lat="10.64741695" lon="-75.07580161">
<time>2014-05-18T23:00:10Z</time>
</trkpt>
      <trkpt lat="10.64720476" lon="-75.07643223">
<time>2014-05-18T23:00:12Z</time>
</trkpt>
      <trkpt lat="10.64699113" lon="-75.07705843">
<time>2014-05-18T23:00:14Z</time>
</trkpt>
      <trkpt lat="10.64677572" lon="-75.07768607">
<time>2014-05-18T23:00:16Z</time>
</trkpt>
      <trkpt lat="10.64656496" lon="-75.07831645">
<time>2014-05-18T23:00:18Z</time>
</trkpt>
      <trkpt lat="10.64635193" lon="-75.07894862">
<time>2014-05-18T23:00:20Z</time>
</trkpt>
      <trkpt lat="10.64613676" lon="-75.07958496">
<time>2014-05-18T23:00:22Z</time>
</trkpt>
      <trkpt lat="10.64592648" lon="-75.08023047">
<time>2014-05-18T23:00:24Z</time>
</trkpt>
      <trkpt lat="10.64571512" lon="-75.08087349">
<time>2014-05-18T23:00:26Z</time>
</trkpt>
      <trkpt lat="10.64550257" lon="-75.08152223">
<time>2014-05-18T23:00:28Z</time>
</trkpt>
      <trkpt lat="10.64528275" lon="-75.08216691">
<time>2014-05-18T23:00:30Z</time>
</trkpt>
      <trkpt lat="10.64506614" lon="-75.08280599">
<time>2014-05-18T23:00:32Z</time>
</trkpt>
      <trkpt lat="10.64485216" lon="-75.08343232">
<time>2014-05-18T23:00:34Z</time>
</trkpt>
      <trkpt lat="10.64464855" lon="-75.08404124">
<time>2014-05-18T23:00:36Z</time>
</trkpt>
      <trkpt lat="10.64446843" lon="-75.08459342">
<time>2014-05-18T23:00:38Z</time>
</trkpt>
      <trkpt lat="10.64430106" lon="-75.08505499">
<time>2014-05-18T23:00:40Z</time>
</trkpt>
      <trkpt lat="10.64409983" lon="-75.08548641">
<time>2014-05-18T23:00:42Z</time>
</trkpt>
      <trkpt lat="10.64385092" lon="-75.08594215">
<time>2014-05-18T23:00:44Z</time>
</trkpt>
      <trkpt lat="10.64357579" lon="-75.08642232">
<time>2014-05-18T23:00:46Z</time>
</trkpt>
      <trkpt lat="10.64329326" lon="-75.08692372">
<time>2014-05-18T23:00:48Z</time>
</trkpt>
      <trkpt lat="10.64299738" lon="-75.08743012">
<time>2014-05-18T23:00:50Z</time>
</trkpt>
      <trkpt lat="10.64270008" lon="-75.08795357">
<time>2014-05-18T23:00:52Z</time>
</trkpt>
      <trkpt lat="10.64239800" lon="-75.08848381">
<time>2014-05-18T23:00:54Z</time>
</trkpt>
      <trkpt lat="10.64209616" lon="-75.08902276">
<time>2014-05-18T23:00:56Z</time>
</trkpt>
      <trkpt lat="10.64179289" lon="-75.08957112">
<time>2014-05-18T23:00:58Z</time>
</trkpt>
      <trkpt lat="10.64149165" lon="-75.09011829">
<time>2014-05-18T23:01:00Z</time>
</trkpt>
      <trkpt lat="10.64119124" lon="-75.09065759">
<time>2014-05-18T23:01:02Z</time>
</trkpt>
      <trkpt lat="10.64088082" lon="-75.09120131">
<time>2014-05-18T23:01:04Z</time>
</trkpt>
      <trkpt lat="10.64058757" lon="-75.09171665">
<time>2014-05-18T23:01:06Z</time>
</trkpt>
      <trkpt lat="10.64034629" lon="-75.09217858">
<time>2014-05-18T23:01:08Z</time>
</trkpt>
      <trkpt lat="10.64014232" lon="-75.09263372">
<time>2014-05-18T23:01:10Z</time>
</trkpt>
      <trkpt lat="10.63997829" lon="-75.09306490">
<time>2014-05-18T23:01:12Z</time>
</trkpt>
      <trkpt lat="10.63983357" lon="-75.09349298">
<time>2014-05-18T23:01:14Z</time>
</trkpt>
      <trkpt lat="10.63969958" lon="-75.09392428">
<time>2014-05-18T23:01:16Z</time>
</trkpt>
      <trkpt lat="10.63955677" lon="-75.09435689">
<time>2014-05-18T23:01:18Z</time>
</trkpt>
      <trkpt lat="10.63942814" lon="-75.09477222">
<time>2014-05-18T23:01:20Z</time>
</trkpt>
      <trkpt lat="10.63930595" lon="-75.09515250">
<time>2014-05-18T23:01:22Z</time>
</trkpt>
      <trkpt lat="10.63918090" lon="-75.09552395">
<time>2014-05-18T23:01:24Z</time>
</trkpt>
      <trkpt lat="10.63904190" lon="-75.09590626">
<time>2014-05-18T23:01:26Z</time>
</trkpt>
      <trkpt lat="10.63890672" lon="-75.09629023">
<time>2014-05-18T23:01:28Z</time>
</trkpt>
      <trkpt lat="10.63878679" lon="-75.09665763">
<time>2014-05-18T23:01:30Z</time>
</trkpt>
      <trkpt lat="10.63866365" lon="-75.09699750">
<time>2014-05-18T23:01:32Z</time>
</trkpt>
      <trkpt lat="10.63853312" lon="-75.09731114">
<time>2014-05-18T23:01:34Z</time>
</trkpt>
      <trkpt lat="10.63837790" lon="-75.09763515">
<time>2014-05-18T23:01:36Z</time>
</trkpt>
      <trkpt lat="10.63817048" lon="-75.09796810">
<time>2014-05-18T23:01:38Z</time>
</trkpt>
      <trkpt lat="10.63792908" lon="-75.09831929">
<time>2014-05-18T23:01:40Z</time>
</trkpt>
      <trkpt lat="10.63765681" lon="-75.09869039">
<time>2014-05-18T23:01:42Z</time>
</trkpt>
      <trkpt lat="10.63735926" lon="-75.09907663">
<time>2014-05-18T23:01:44Z</time>
</trkpt>
      <trkpt lat="10.63704264" lon="-75.09948397">
<time>2014-05-18T23:01:46Z</time>
</trkpt>
      <trkpt lat="10.63672566" lon="-75.09990048">
<time>2014-05-18T23:01:48Z</time>
</trkpt>
      <trkpt lat="10.63640523" lon="-75.10032082">
<time>2014-05-18T23:01:50Z</time>
</trkpt>
      <trkpt lat="10.63611424" lon="-75.10070860">
<time>2014-05-18T23:01:52Z</time>
</trkpt>
      <trkpt lat="10.63585424" lon="-75.10105181">
<time>2014-05-18T23:01:54Z</time>
</trkpt>
      <trkpt lat="10.63563192" lon="-75.10133612">
<time>2014-05-18T23:01:56Z</time>
</trkpt>
      <trkpt lat="10.63543165" lon="-75.10157657">
<time>2014-05-18T23:01:58Z</time>
</trkpt>
      <trkpt lat="10.63522875" lon="-75.10178173">
<time>2014-05-18T23:02:00Z</time>
</trkpt>
      <trkpt lat="10.63501608" lon="-75.10196662">
<time>2014-05-18T23:02:02Z</time>
</trkpt>
      <trkpt lat="10.63478494" lon="-75.10214162">
<time>2014-05-18T23:02:04Z</time>
</trkpt>
      <trkpt lat="10.63450944" lon="-75.10229731">
<time>2014-05-18T23:02:06Z</time>
</trkpt>
      <trkpt lat="10.63420141" lon="-75.10243666">
<time>2014-05-18T23:02:08Z</time>
</trkpt>
      <trkpt lat="10.63387692" lon="-75.10256195">
<time>2014-05-18T23:02:10Z</time>
</trkpt>
      <trkpt lat="10.63355613" lon="-75.10265839">
<time>2014-05-18T23:02:12Z</time>
</trkpt>
      <trkpt lat="10.63323641" lon="-75.10275793">
<time>2014-05-18T23:02:14Z</time>
</trkpt>
      <trkpt lat="10.63288331" lon="-75.10286391">
<time>2014-05-18T23:02:16Z</time>
</trkpt>
      <trkpt lat="10.63252449" lon="-75.10296607">
<time>2014-05-18T23:02:18Z</time>
</trkpt>
      <trkpt lat="10.63218641" lon="-75.10305846">
<time>2014-05-18T23:02:20Z</time>
</trkpt>
      <trkpt lat="10.63187373" lon="-75.10314310">
<time>2014-05-18T23:02:22Z</time>
</trkpt>
      <trkpt lat="10.63155508" lon="-75.10323405">
<time>2014-05-18T23:02:24Z</time>
</trkpt>
      <trkpt lat="10.63121557" lon="-75.10333443">
<time>2014-05-18T23:02:26Z</time>
</trkpt>
      <trkpt lat="10.63085842" lon="-75.10344982">
<time>2014-05-18T23:02:28Z</time>
</trkpt>
      <trkpt lat="10.63049781" lon="-75.10356247">
<time>2014-05-18T23:02:30Z</time>
</trkpt>
      <trkpt lat="10.63013089" lon="-75.10367644">
<time>2014-05-18T23:02:32Z</time>
</trkpt>
      <trkpt lat="10.62976456" lon="-75.10380161">
<time>2014-05-18T23:02:34Z</time>
</trkpt>
      <trkpt lat="10.62941325" lon="-75.10391426">
<time>2014-05-18T23:02:36Z</time>
</trkpt>
      <trkpt lat="10.62908900" lon="-75.10402238">
<time>2014-05-18T23:02:38Z</time>
</trkpt>
      <trkpt lat="10.62877250" lon="-75.10411429">
<time>2014-05-18T23:02:40Z</time>
</trkpt>
      <trkpt lat="10.62845945" lon="-75.10420811">
<time>2014-05-18T23:02:42Z</time>
</trkpt>
      <trkpt lat="10.62813711" lon="-75.10430157">
<time>2014-05-18T23:02:44Z</time>
</trkpt>
      <trkpt lat="10.62779188" lon="-75.10441446">
<time>2014-05-18T23:02:46Z</time>
</trkpt>
      <trkpt lat="10.62741172" lon="-75.10453475">
<time>2014-05-18T23:02:48Z</time>
</trkpt>
      <trkpt lat="10.62701297" lon="-75.10465789">
<time>2014-05-18T23:02:50Z</time>
</trkpt>
      <trkpt lat="10.62660491" lon="-75.10478950">
<time>2014-05-18T23:02:52Z</time>
</trkpt>
      <trkpt lat="10.62619126" lon="-75.10491478">
<time>2014-05-18T23:02:54Z</time>
</trkpt>
      <trkpt lat="10.62577856" lon="-75.10503757">
<time>2014-05-18T23:02:56Z</time>
</trkpt>
      <trkpt lat="10.62536407" lon="-75.10516810">
<time>2014-05-18T23:02:58Z</time>
</trkpt>
      <trkpt lat="10.62494648" lon="-75.10529542">
<time>2014-05-18T23:03:00Z</time>
</trkpt>
      <trkpt lat="10.62452638" lon="-75.10541892">
<time>2014-05-18T23:03:02Z</time>
</trkpt>
      <trkpt lat="10.62409806" lon="-75.10555673">
<time>2014-05-18T23:03:04Z</time>
</trkpt>
      <trkpt lat="10.62366915" lon="-75.10570323">
<time>2014-05-18T23:03:06Z</time>
</trkpt>
      <trkpt lat="10.62323177" lon="-75.10583365">
<time>2014-05-18T23:03:08Z</time>
</trkpt>
      <trkpt lat="10.62279296" lon="-75.10596383">
<time>2014-05-18T23:03:10Z</time>
</trkpt>
      <trkpt lat="10.62234497" lon="-75.10609782">
<time>2014-05-18T23:03:12Z</time>
</trkpt>
      <trkpt lat="10.62189412" lon="-75.10622764">
<time>2014-05-18T23:03:14Z</time>
</trkpt>
      <trkpt lat="10.62143409" lon="-75.10636461">
<time>2014-05-18T23:03:16Z</time>
</trkpt>
      <trkpt lat="10.62096989" lon="-75.10651064">
<time>2014-05-18T23:03:18Z</time>
</trkpt>
      <trkpt lat="10.62050128" lon="-75.10666263">
<time>2014-05-18T23:03:20Z</time>
</trkpt>
      <trkpt lat="10.62003064" lon="-75.10681224">
<time>2014-05-18T23:03:22Z</time>
</trkpt>
      <trkpt lat="10.61955631" lon="-75.10696089">
<time>2014-05-18T23:03:24Z</time>
</trkpt>
      <trkpt lat="10.61907864" lon="-75.10711229">
<time>2014-05-18T23:03:26Z</time>
</trkpt>
      <trkpt lat="10.61859405" lon="-75.10725844">
<time>2014-05-18T23:03:28Z</time>
</trkpt>
      <trkpt lat="10.61810923" lon="-75.10740781">
<time>2014-05-18T23:03:30Z</time>
</trkpt>
      <trkpt lat="10.61762011" lon="-75.10755813">
<time>2014-05-18T23:03:32Z</time>
</trkpt>
      <trkpt lat="10.61712992" lon="-75.10771096">
<time>2014-05-18T23:03:34Z</time>
</trkpt>
      <trkpt lat="10.61664009" lon="-75.10786259">
<time>2014-05-18T23:03:36Z</time>
</trkpt>
      <trkpt lat="10.61614966" lon="-75.10801077">
<time>2014-05-18T23:03:38Z</time>
</trkpt>
      <trkpt lat="10.61565530" lon="-75.10816896">
<time>2014-05-18T23:03:40Z</time>
</trkpt>
      <trkpt lat="10.61515057" lon="-75.10832655">
<time>2014-05-18T23:03:42Z</time>
</trkpt>
      <trkpt lat="10.61463475" lon="-75.10848594">
<time>2014-05-18T23:03:44Z</time>
</trkpt>
      <trkpt lat="10.61410797" lon="-75.10864258">
<time>2014-05-18T23:03:46Z</time>
</trkpt>
      <trkpt lat="10.61357379" lon="-75.10880876">
<time>2014-05-18T23:03:48Z</time>
</trkpt>
      <trkpt lat="10.61303532" lon="-75.10897446">
<time>2014-05-18T23:03:50Z</time>
</trkpt>
      <trkpt lat="10.61249614" lon="-75.10913813">
<time>2014-05-18T23:03:52Z</time>
</trkpt>
      <trkpt lat="10.61196172" lon="-75.10930443">
<time>2014-05-18T23:03:54Z</time>
</trkpt>
      <trkpt lat="10.61146438" lon="-75.10945964">
<time>2014-05-18T23:03:56Z</time>
</trkpt>
      <trkpt lat="10.61100757" lon="-75.10959339">
<time>2014-05-18T23:03:58Z</time>
</trkpt>
      <trkpt lat="10.61057091" lon="-75.10972345">
<time>2014-05-18T23:04:00Z</time>
</trkpt>
      <trkpt lat="10.61017179" lon="-75.10984433">
<time>2014-05-18T23:04:02Z</time>
</trkpt>
      <trkpt lat="10.60981596" lon="-75.10996842">
<time>2014-05-18T23:04:04Z</time>
</trkpt>
      <trkpt lat="10.60948288" lon="-75.11010563">
<time>2014-05-18T23:04:06Z</time>
</trkpt>
      <trkpt lat="10.60917056" lon="-75.11026716">
<time>2014-05-18T23:04:08Z</time>
</trkpt>
      <trkpt lat="10.60888696" lon="-75.11046863">
<time>2014-05-18T23:04:10Z</time>
</trkpt>
      <trkpt lat="10.60861039" lon="-75.11071277">
<time>2014-05-18T23:04:12Z</time>
</trkpt>
      <trkpt lat="10.60834479" lon="-75.11099160">
<time>2014-05-18T23:04:14Z</time>
</trkpt>
      <trkpt lat="10.60807824" lon="-75.11129975">
<time>2014-05-18T23:04:16Z</time>
</trkpt>
      <trkpt lat="10.60780048" lon="-75.11163080">
<time>2014-05-18T23:04:18Z</time>
</trkpt>
      <trkpt lat="10.60752475" lon="-75.11195374">
<time>2014-05-18T23:04:20Z</time>
</trkpt>
      <trkpt lat="10.60723913" lon="-75.11227000">
<time>2014-05-18T23:04:22Z</time>
</trkpt>
      <trkpt lat="10.60695207" lon="-75.11259961">
<time>2014-05-18T23:04:24Z</time>
</trkpt>
      <trkpt lat="10.60664630" lon="-75.11294162">
<time>2014-05-18T23:04:26Z</time>
</trkpt>
      <trkpt lat="10.60632741" lon="-75.11328626">
<time>2014-05-18T23:04:28Z</time>
</trkpt>
      <trkpt lat="10.60601127" lon="-75.11362946">
<time>2014-05-18T23:04:30Z</time>
</trkpt>
      <trkpt lat="10.60569072" lon="-75.11398661">
<time>2014-05-18T23:04:32Z</time>
</trkpt>
      <trkpt lat="10.60536027" lon="-75.11434913">
<time>2014-05-18T23:04:34Z</time>
</trkpt>
      <trkpt lat="10.60502994" lon="-75.11471438">
<time>2014-05-18T23:04:36Z</time>
</trkpt>
      <trkpt lat="10.60472429" lon="-75.11505556">
<time>2014-05-18T23:04:38Z</time>
</trkpt>
      <trkpt lat="10.60446072" lon="-75.11535466">
<time>2014-05-18T23:04:40Z</time>
</trkpt>
      <trkpt lat="10.60423589" lon="-75.11563742">
<time>2014-05-18T23:04:42Z</time>
</trkpt>
      <trkpt lat="10.60404360" lon="-75.11593878">
<time>2014-05-18T23:04:44Z</time>
</trkpt>
      <trkpt lat="10.60385442" lon="-75.11627889">
<time>2014-05-18T23:04:46Z</time>
</trkpt>
      <trkpt lat="10.60367775" lon="-75.11665344">
<time>2014-05-18T23:04:48Z</time>
</trkpt>
      <trkpt lat="10.60349464" lon="-75.11705363">
<time>2014-05-18T23:04:50Z</time>
</trkpt>
      <trkpt lat="10.60331690" lon="-75.11742496">
<time>2014-05-18T23:04:52Z</time>
</trkpt>
      <trkpt lat="10.60315442" lon="-75.11776960">
<time>2014-05-18T23:04:54Z</time>
</trkpt>
      <trkpt lat="10.60299706" lon="-75.11810589">
<time>2014-05-18T23:04:56Z</time>
</trkpt>
      <trkpt lat="10.60286117" lon="-75.11841810">
<time>2014-05-18T23:04:58Z</time>
</trkpt>
      <trkpt lat="10.60274255" lon="-75.11870229">
<time>2014-05-18T23:05:00Z</time>
</trkpt>
      <trkpt lat="10.60266507" lon="-75.11896193">
<time>2014-05-18T23:05:02Z</time>
</trkpt>
      <trkpt lat="10.60262465" lon="-75.11923850">
<time>2014-05-18T23:05:04Z</time>
</trkpt>
      <trkpt lat="10.60260665" lon="-75.11951363">
<time>2014-05-18T23:05:06Z</time>
</trkpt>
      <trkpt lat="10.60260248" lon="-75.11981750">
<time>2014-05-18T23:05:08Z</time>
</trkpt>
      <trkpt lat="10.60260773" lon="-75.12015891">
<time>2014-05-18T23:05:10Z</time>
</trkpt>
      <trkpt lat="10.60261762" lon="-75.12054229">
<time>2014-05-18T23:05:12Z</time>
</trkpt>
      <trkpt lat="10.60262716" lon="-75.12095678">
<time>2014-05-18T23:05:14Z</time>
</trkpt>
      <trkpt lat="10.60263264" lon="-75.12139273">
<time>2014-05-18T23:05:16Z</time>
</trkpt>
      <trkpt lat="10.60263598" lon="-75.12185276">
<time>2014-05-18T23:05:18Z</time>
</trkpt>
      <trkpt lat="10.60264206" lon="-75.12233210">
<time>2014-05-18T23:05:20Z</time>
</trkpt>
      <trkpt lat="10.60264742" lon="-75.12282562">
<time>2014-05-18T23:05:22Z</time>
</trkpt>
      <trkpt lat="10.60265493" lon="-75.12332606">
<time>2014-05-18T23:05:24Z</time>
</trkpt>
      <trkpt lat="10.60266590" lon="-75.12383139">
<time>2014-05-18T23:05:26Z</time>
</trkpt>
      <trkpt lat="10.60267138" lon="-75.12434733">
<time>2014-05-18T23:05:28Z</time>
</trkpt>
      <trkpt lat="10.60267675" lon="-75.12486494">
<time>2014-05-18T23:05:30Z</time>
</trkpt>
      <trkpt lat="10.60268927" lon="-75.12533808">
<time>2014-05-18T23:05:32Z</time>
</trkpt>
      <trkpt lat="10.60270143" lon="-75.12577629">
<time>2014-05-18T23:05:34Z</time>
</trkpt>
      <trkpt lat="10.60270774" lon="-75.12620258">
<time>2014-05-18T23:05:36Z</time>
</trkpt>
      <trkpt lat="10.60270989" lon="-75.12662148">
<time>2014-05-18T23:05:38Z</time>
</trkpt>
      <trkpt lat="10.60271847" lon="-75.12704611">
<time>2014-05-18T23:05:40Z</time>
</trkpt>
      <trkpt lat="10.60273111" lon="-75.12748349">
<time>2014-05-18T23:05:42Z</time>
</trkpt>
      <trkpt lat="10.60274923" lon="-75.12793565">
<time>2014-05-18T23:05:44Z</time>
</trkpt>
      <trkpt lat="10.60274982" lon="-75.12839448">
<time>2014-05-18T23:05:46Z</time>
</trkpt>
      <trkpt lat="10.60274494" lon="-75.12885094">
<time>2014-05-18T23:05:48Z</time>
</trkpt>
      <trkpt lat="10.60274673" lon="-75.12931824">
<time>2014-05-18T23:05:50Z</time>
</trkpt>
      <trkpt lat="10.60275042" lon="-75.12979305">
<time>2014-05-18T23:05:52Z</time>
</trkpt>
      <trkpt lat="10.60275090" lon="-75.13025510">
<time>2014-05-18T23:05:54Z</time>
</trkpt>
      <trkpt lat="10.60276294" lon="-75.13066673">
<time>2014-05-18T23:05:56Z</time>
</trkpt>
      <trkpt lat="10.60277343" lon="-75.13104057">
<time>2014-05-18T23:05:58Z</time>
</trkpt>
      <trkpt lat="10.60280955" lon="-75.13138199">
<time>2014-05-18T23:06:00Z</time>
</trkpt>
      <trkpt lat="10.60287476" lon="-75.13169694">
<time>2014-05-18T23:06:02Z</time>
</trkpt>
      <trkpt lat="10.60297656" lon="-75.13200724">
<time>2014-05-18T23:06:04Z</time>
</trkpt>
      <trkpt lat="10.60313308" lon="-75.13232839">
<time>2014-05-18T23:06:06Z</time>
</trkpt>
      <trkpt lat="10.60332644" lon="-75.13267148">
<time>2014-05-18T23:06:08Z</time>
</trkpt>
      <trkpt lat="10.60353959" lon="-75.13303339">
<time>2014-05-18T23:06:10Z</time>
</trkpt>
      <trkpt lat="10.60376179" lon="-75.13341093">
<time>2014-05-18T23:06:12Z</time>
</trkpt>
      <trkpt lat="10.60399866" lon="-75.13379526">
<time>2014-05-18T23:06:14Z</time>
</trkpt>
      <trkpt lat="10.60424364" lon="-75.13418806">
<time>2014-05-18T23:06:16Z</time>
</trkpt>
      <trkpt lat="10.60446465" lon="-75.13456345">
<time>2014-05-18T23:06:18Z</time>
</trkpt>
      <trkpt lat="10.60466778" lon="-75.13489914">
<time>2014-05-18T23:06:20Z</time>
</trkpt>
      <trkpt lat="10.60484791" lon="-75.13519549">
<time>2014-05-18T23:06:22Z</time>
</trkpt>
      <trkpt lat="10.60501540" lon="-75.13546646">
<time>2014-05-18T23:06:24Z</time>
</trkpt>
      <trkpt lat="10.60517514" lon="-75.13573349">
<time>2014-05-18T23:06:26Z</time>
</trkpt>
      <trkpt lat="10.60533190" lon="-75.13599789">
<time>2014-05-18T23:06:28Z</time>
</trkpt>
      <trkpt lat="10.60549641" lon="-75.13627589">
<time>2014-05-18T23:06:30Z</time>
</trkpt>
      <trkpt lat="10.60566640" lon="-75.13655257">
<time>2014-05-18T23:06:32Z</time>
</trkpt>
      <trkpt lat="10.60584056" lon="-75.13681149">
<time>2014-05-18T23:06:34Z</time>
</trkpt>
      <trkpt lat="10.60604763" lon="-75.13706028">
<time>2014-05-18T23:06:36Z</time>
</trkpt>
      <trkpt lat="10.60629106" lon="-75.13728690">
<time>2014-05-18T23:06:38Z</time>
</trkpt>
      <trkpt lat="10.60653722" lon="-75.13748825">
<time>2014-05-18T23:06:40Z</time>
</trkpt>
      <trkpt lat="10.60677838" lon="-75.13768113">
<time>2014-05-18T23:06:42Z</time>
</trkpt>
      <trkpt lat="10.60701811" lon="-75.13785589">
<time>2014-05-18T23:06:44Z</time>
</trkpt>
      <trkpt lat="10.60723782" lon="-75.13801062">
<time>2014-05-18T23:06:46Z</time>
</trkpt>
      <trkpt lat="10.60744083" lon="-75.13816130">
<time>2014-05-18T23:06:48Z</time>
</trkpt>
      <trkpt lat="10.60764229" lon="-75.13831556">
<time>2014-05-18T23:06:50Z</time>
</trkpt>
      <trkpt lat="10.60784256" lon="-75.13846147">
<time>2014-05-18T23:06:52Z</time>
</trkpt>
      <trkpt lat="10.60801744" lon="-75.13859129">
<time>2014-05-18T23:06:54Z</time>
</trkpt>
      <trkpt lat="10.60815978" lon="-75.13870275">
<time>2014-05-18T23:06:56Z</time>
</trkpt>
      <trkpt lat="10.60826683" lon="-75.13878477">
<time>2014-05-18T23:06:58Z</time>
</trkpt>
      <trkpt lat="10.60834074" lon="-75.13885033">
<time>2014-05-18T23:07:00Z</time>
</trkpt>
      <trkpt lat="10.60842609" lon="-75.13891423">
<time>2014-05-18T23:07:02Z</time>
</trkpt>
      <trkpt lat="10.60854614" lon="-75.13900566">
<time>2014-05-18T23:07:04Z</time>
</trkpt>
      <trkpt lat="10.60869205" lon="-75.13912511">
<time>2014-05-18T23:07:06Z</time>
</trkpt>
      <trkpt lat="10.60883713" lon="-75.13927197">
<time>2014-05-18T23:07:08Z</time>
</trkpt>
      <trkpt lat="10.60898530" lon="-75.13943613">
<time>2014-05-18T23:07:10Z</time>
</trkpt>
      <trkpt lat="10.60912728" lon="-75.13962293">
<time>2014-05-18T23:07:12Z</time>
</trkpt>
      <trkpt lat="10.60926616" lon="-75.13982415">
<time>2014-05-18T23:07:14Z</time>
</trkpt>
      <trkpt lat="10.60937798" lon="-75.14004183">
<time>2014-05-18T23:07:16Z</time>
</trkpt>
      <trkpt lat="10.60947931" lon="-75.14027882">
<time>2014-05-18T23:07:18Z</time>
</trkpt>
      <trkpt lat="10.60956800" lon="-75.14052474">
<time>2014-05-18T23:07:20Z</time>
</trkpt>
      <trkpt lat="10.60965097" lon="-75.14076746">
<time>2014-05-18T23:07:22Z</time>
</trkpt>
      <trkpt lat="10.60971308" lon="-75.14097166">
<time>2014-05-18T23:07:24Z</time>
</trkpt>
      <trkpt lat="10.60977030" lon="-75.14114547">
<time>2014-05-18T23:07:26Z</time>
</trkpt>
      <trkpt lat="10.60981739" lon="-75.14130175">
<time>2014-05-18T23:07:28Z</time>
</trkpt>
      <trkpt lat="10.60986912" lon="-75.14145792">
<time>2014-05-18T23:07:30Z</time>
</trkpt>
      <trkpt lat="10.60989940" lon="-75.14160407">
<time>2014-05-18T23:07:32Z</time>
</trkpt>
      <trkpt lat="10.60992658" lon="-75.14169788">
<time>2014-05-18T23:07:34Z</time>
</trkpt>
      <trkpt lat="10.60995424" lon="-75.14176583">
<time>2014-05-18T23:07:36Z</time>
</trkpt>
      <trkpt lat="10.60998845" lon="-75.14185560">
<time>2014-05-18T23:07:38Z</time>
</trkpt>
      <trkpt lat="10.61001492" lon="-75.14194655">
<time>2014-05-18T23:07:40Z</time>
</trkpt>
      <trkpt lat="10.61006963" lon="-75.14206815">
<time>2014-05-18T23:07:42Z</time>
</trkpt>
      <trkpt lat="10.61012042" lon="-75.14218509">
<time>2014-05-18T23:07:44Z</time>
</trkpt>
      <trkpt lat="10.61016011" lon="-75.14230227">
<time>2014-05-18T23:07:46Z</time>
</trkpt>
      <trkpt lat="10.61019945" lon="-75.14242649">
<time>2014-05-18T23:07:48Z</time>
</trkpt>
      <trkpt lat="10.61023641" lon="-75.14252067">
<time>2014-05-18T23:07:50Z</time>
</trkpt>
      <trkpt lat="10.61027479" lon="-75.14261925">
<time>2014-05-18T23:07:52Z</time>
</trkpt>
      <trkpt lat="10.61030757" lon="-75.14273858">
<time>2014-05-18T23:07:54Z</time>
</trkpt>
      <trkpt lat="10.61034477" lon="-75.14286208">
<time>2014-05-18T23:07:56Z</time>
</trkpt>
      <trkpt lat="10.61038792" lon="-75.14298749">
<time>2014-05-18T23:07:58Z</time>
</trkpt>
      <trkpt lat="10.61042559" lon="-75.14308524">
<time>2014-05-18T23:08:00Z</time>
</trkpt>
      <trkpt lat="10.61045873" lon="-75.14317822">
<time>2014-05-18T23:08:02Z</time>
</trkpt>
      <trkpt lat="10.61049712" lon="-75.14328861">
<time>2014-05-18T23:08:04Z</time>
</trkpt>
      <trkpt lat="10.61053956" lon="-75.14340711">
<time>2014-05-18T23:08:06Z</time>
</trkpt>
      <trkpt lat="10.61058259" lon="-75.14354229">
<time>2014-05-18T23:08:08Z</time>
</trkpt>
      <trkpt lat="10.61062789" lon="-75.14367497">
<time>2014-05-18T23:08:10Z</time>
</trkpt>
      <trkpt lat="10.61066198" lon="-75.14379311">
<time>2014-05-18T23:08:12Z</time>
</trkpt>
      <trkpt lat="10.61069977" lon="-75.14390397">
<time>2014-05-18T23:08:14Z</time>
</trkpt>
      <trkpt lat="10.61074543" lon="-75.14402246">
<time>2014-05-18T23:08:16Z</time>
</trkpt>
      <trkpt lat="10.61078715" lon="-75.14417076">
<time>2014-05-18T23:08:18Z</time>
</trkpt>
      <trkpt lat="10.61083126" lon="-75.14430046">
<time>2014-05-18T23:08:20Z</time>
</trkpt>
      <trkpt lat="10.61086309" lon="-75.14443064">
<time>2014-05-18T23:08:22Z</time>
</trkpt>
      <trkpt lat="10.61089432" lon="-75.14454627">
<time>2014-05-18T23:08:24Z</time>
</trkpt>
      <trkpt lat="10.61094749" lon="-75.14466906">
<time>2014-05-18T23:08:26Z</time>
</trkpt>
      <trkpt lat="10.61102045" lon="-75.14483714">
<time>2014-05-18T23:08:28Z</time>
</trkpt>
      <trkpt lat="10.61109674" lon="-75.14505696">
<time>2014-05-18T23:08:30Z</time>
</trkpt>
      <trkpt lat="10.61117959" lon="-75.14531326">
<time>2014-05-18T23:08:32Z</time>
</trkpt>
      <trkpt lat="10.61127245" lon="-75.14557958">
<time>2014-05-18T23:08:34Z</time>
</trkpt>
      <trkpt lat="10.61135578" lon="-75.14585495">
<time>2014-05-18T23:08:36Z</time>
</trkpt>
      <trkpt lat="10.61145473" lon="-75.14613497">
<time>2014-05-18T23:08:38Z</time>
</trkpt>
      <trkpt lat="10.61156046" lon="-75.14643180">
<time>2014-05-18T23:08:40Z</time>
</trkpt>
      <trkpt lat="10.61166263" lon="-75.14673400">
<time>2014-05-18T23:08:42Z</time>
</trkpt>
      <trkpt lat="10.61175096" lon="-75.14699757">
<time>2014-05-18T23:08:44Z</time>
</trkpt>
      <trkpt lat="10.61180627" lon="-75.14718628">
<time>2014-05-18T23:08:46Z</time>
</trkpt>
      <trkpt lat="10.61184263" lon="-75.14731097">
<time>2014-05-18T23:08:48Z</time>
</trkpt>
      <trkpt lat="10.61189282" lon="-75.14745307">
<time>2014-05-18T23:08:50Z</time>
</trkpt>
      <trkpt lat="10.61194956" lon="-75.14764631">
<time>2014-05-18T23:08:52Z</time>
</trkpt>
      <trkpt lat="10.61198795" lon="-75.14787579">
<time>2014-05-18T23:08:54Z</time>
</trkpt>
      <trkpt lat="10.61197746" lon="-75.14811313">
<time>2014-05-18T23:08:56Z</time>
</trkpt>
      <trkpt lat="10.61191046" lon="-75.14834261">
<time>2014-05-18T23:08:58Z</time>
</trkpt>
      <trkpt lat="10.61174107" lon="-75.14854228">
<time>2014-05-18T23:09:00Z</time>
</trkpt>
      <trkpt lat="10.61151576" lon="-75.14872622">
<time>2014-05-18T23:09:02Z</time>
</trkpt>
      <trkpt lat="10.61127579" lon="-75.14891565">
<time>2014-05-18T23:09:04Z</time>
</trkpt>
      <trkpt lat="10.61108661" lon="-75.14912879">
<time>2014-05-18T23:09:06Z</time>
</trkpt>
      <trkpt lat="10.61095297" lon="-75.14936125">
<time>2014-05-18T23:09:08Z</time>
</trkpt>
      <trkpt lat="10.61090326" lon="-75.14958549">
<time>2014-05-18T23:09:10Z</time>
</trkpt>
      <trkpt lat="10.61093915" lon="-75.14979041">
<time>2014-05-18T23:09:12Z</time>
</trkpt>
      <trkpt lat="10.61100090" lon="-75.14999664">
<time>2014-05-18T23:09:14Z</time>
</trkpt>
      <trkpt lat="10.61106229" lon="-75.15021098">
<time>2014-05-18T23:09:16Z</time>
</trkpt>
      <trkpt lat="10.61112022" lon="-75.15041578">
<time>2014-05-18T23:09:18Z</time>
</trkpt>
      <trkpt lat="10.61121297" lon="-75.15061629">
<time>2014-05-18T23:09:20Z</time>
</trkpt>
      <trkpt lat="10.61135626" lon="-75.15079272">
<time>2014-05-18T23:09:22Z</time>
</trkpt>
      <trkpt lat="10.61154807" lon="-75.15093017">
<time>2014-05-18T23:09:24Z</time>
</trkpt>
      <trkpt lat="10.61177683" lon="-75.15101457">
<time>2014-05-18T23:09:26Z</time>
</trkpt>
      <trkpt lat="10.61205530" lon="-75.15106308">
<time>2014-05-18T23:09:28Z</time>
</trkpt>
      <trkpt lat="10.61237907" lon="-75.15108991">
<time>2014-05-18T23:09:30Z</time>
</trkpt>
      <trkpt lat="10.61272800" lon="-75.15112746">
<time>2014-05-18T23:09:32Z</time>
</trkpt>
      <trkpt lat="10.61307681" lon="-75.15116990">
<time>2014-05-18T23:09:34Z</time>
</trkpt>
      <trkpt lat="10.61338544" lon="-75.15120912">
<time>2014-05-18T23:09:36Z</time>
</trkpt>
      <trkpt lat="10.61364532" lon="-75.15122128">
<time>2014-05-18T23:09:38Z</time>
</trkpt>
      <trkpt lat="10.61388242" lon="-75.15120316">
<time>2014-05-18T23:09:40Z</time>
</trkpt>
      <trkpt lat="10.61411428" lon="-75.15115666">
<time>2014-05-18T23:09:42Z</time>
</trkpt>
      <trkpt lat="10.61434090" lon="-75.15107608">
<time>2014-05-18T23:09:44Z</time>
</trkpt>
      <trkpt lat="10.61458063" lon="-75.15100181">
<time>2014-05-18T23:09:46Z</time>
</trkpt>
      <trkpt lat="10.61485827" lon="-75.15091157">
<time>2014-05-18T23:09:48Z</time>
</trkpt>
      <trkpt lat="10.61514008" lon="-75.15081179">
<time>2014-05-18T23:09:50Z</time>
</trkpt>
      <trkpt lat="10.61542344" lon="-75.15071213">
<time>2014-05-18T23:09:52Z</time>
</trkpt>
      <trkpt lat="10.61569464" lon="-75.15061283">
<time>2014-05-18T23:09:54Z</time>
</trkpt>
      <trkpt lat="10.61596763" lon="-75.15054166">
<time>2014-05-18T23:09:56Z</time>
</trkpt>
      <trkpt lat="10.61624026" lon="-75.15052843">
<time>2014-05-18T23:09:58Z</time>
</trkpt>
      <trkpt lat="10.61650133" lon="-75.15058613">
<time>2014-05-18T23:10:00Z</time>
</trkpt>
      <trkpt lat="10.61674774" lon="-75.15072227">
<time>2014-05-18T23:10:02Z</time>
</trkpt>
      <trkpt lat="10.61695564" lon="-75.15091062">
<time>2014-05-18T23:10:04Z</time>
</trkpt>
      <trkpt lat="10.61711788" lon="-75.15114939">
<time>2014-05-18T23:10:06Z</time>
</trkpt>
      <trkpt lat="10.61724246" lon="-75.15144873">
<time>2014-05-18T23:10:08Z</time>
</trkpt>
      <trkpt lat="10.61735582" lon="-75.15179098">
<time>2014-05-18T23:10:10Z</time>
</trkpt>
      <trkpt lat="10.61747241" lon="-75.15216148">
<time>2014-05-18T23:10:12Z</time>
</trkpt>
      <trkpt lat="10.61759305" lon="-75.15252030">
<time>2014-05-18T23:10:14Z</time>
</trkpt>
      <trkpt lat="10.61770129" lon="-75.15287817">
<time>2014-05-18T23:10:16Z</time>
</trkpt>
      <trkpt lat="10.61781645" lon="-75.15322256">
<time>2014-05-18T23:10:18Z</time>
</trkpt>
      <trkpt lat="10.61791956" lon="-75.15353322">
<time>2014-05-18T23:10:20Z</time>
</trkpt>
      <trkpt lat="10.61799216" lon="-75.15384591">
<time>2014-05-18T23:10:22Z</time>
</trkpt>
      <trkpt lat="10.61799955" lon="-75.15414894">
<time>2014-05-18T23:10:24Z</time>
</trkpt>
      <trkpt lat="10.61794198" lon="-75.15444279">
<time>2014-05-18T23:10:26Z</time>
</trkpt>
      <trkpt lat="10.61781609" lon="-75.15471983">
<time>2014-05-18T23:10:28Z</time>
</trkpt>
      <trkpt lat="10.61763358" lon="-75.15497744">
<time>2014-05-18T23:10:30Z</time>
</trkpt>
      <trkpt lat="10.61742890" lon="-75.15520990">
<time>2014-05-18T23:10:32Z</time>
</trkpt>
      <trkpt lat="10.61719072" lon="-75.15543783">
<time>2014-05-18T23:10:34Z</time>
</trkpt>
      <trkpt lat="10.61698759" lon="-75.15565455">
<time>2014-05-18T23:10:36Z</time>
</trkpt>
      <trkpt lat="10.61678040" lon="-75.15585697">
<time>2014-05-18T23:10:38Z</time>
</trkpt>
      <trkpt lat="10.61659288" lon="-75.15610027">
<time>2014-05-18T23:10:40Z</time>
</trkpt>
      <trkpt lat="10.61644661" lon="-75.15637672">
<time>2014-05-18T23:10:42Z</time>
</trkpt>
      <trkpt lat="10.61633980" lon="-75.15669191">
<time>2014-05-18T23:10:44Z</time>
</trkpt>
      <trkpt lat="10.61627400" lon="-75.15703928">
<time>2014-05-18T23:10:46Z</time>
</trkpt>
      <trkpt lat="10.61625040" lon="-75.15742898">
<time>2014-05-18T23:10:48Z</time>
</trkpt>
      <trkpt lat="10.61627829" lon="-75.15788710">
<time>2014-05-18T23:10:50Z</time>
</trkpt>
      <trkpt lat="10.61631143" lon="-75.15836596">
<time>2014-05-18T23:10:52Z</time>
</trkpt>
      <trkpt lat="10.61631858" lon="-75.15883625">
<time>2014-05-18T23:10:54Z</time>
</trkpt>
      <trkpt lat="10.61631930" lon="-75.15929532">
<time>2014-05-18T23:10:56Z</time>
</trkpt>
      <trkpt lat="10.61633372" lon="-75.15974975">
<time>2014-05-18T23:10:58Z</time>
</trkpt>
      <trkpt lat="10.61634994" lon="-75.16020012">
<time>2014-05-18T23:11:00Z</time>
</trkpt>
      <trkpt lat="10.61635578" lon="-75.16063046">
<time>2014-05-18T23:11:02Z</time>
</trkpt>
      <trkpt lat="10.61637330" lon="-75.16107297">
<time>2014-05-18T23:11:04Z</time>
</trkpt>
      <trkpt lat="10.61638105" lon="-75.16153145">
<time>2014-05-18T23:11:06Z</time>
</trkpt>
      <trkpt lat="10.61638892" lon="-75.16200864">
<time>2014-05-18T23:11:08Z</time>
</trkpt>
      <trkpt lat="10.61639965" lon="-75.16248930">
<time>2014-05-18T23:11:10Z</time>
</trkpt>
      <trkpt lat="10.61640656" lon="-75.16293406">
<time>2014-05-18T23:11:12Z</time>
</trkpt>
      <trkpt lat="10.61640239" lon="-75.16332829">
<time>2014-05-18T23:11:14Z</time>
</trkpt>
      <trkpt lat="10.61639810" lon="-75.16366875">
<time>2014-05-18T23:11:16Z</time>
</trkpt>
      <trkpt lat="10.61637557" lon="-75.16398799">
<time>2014-05-18T23:11:18Z</time>
</trkpt>
      <trkpt lat="10.61630297" lon="-75.16429293">
<time>2014-05-18T23:11:20Z</time>
</trkpt>
      <trkpt lat="10.61617911" lon="-75.16459525">
<time>2014-05-18T23:11:22Z</time>
</trkpt>
      <trkpt lat="10.61599791" lon="-75.16486514">
<time>2014-05-18T23:11:24Z</time>
</trkpt>
      <trkpt lat="10.61575091" lon="-75.16512775">
<time>2014-05-18T23:11:26Z</time>
</trkpt>
      <trkpt lat="10.61550093" lon="-75.16539943">
<time>2014-05-18T23:11:28Z</time>
</trkpt>
      <trkpt lat="10.61527407" lon="-75.16567063">
<time>2014-05-18T23:11:30Z</time>
</trkpt>
      <trkpt lat="10.61509776" lon="-75.16596663">
<time>2014-05-18T23:11:32Z</time>
</trkpt>
      <trkpt lat="10.61499083" lon="-75.16633916">
<time>2014-05-18T23:11:34Z</time>
</trkpt>
      <trkpt lat="10.61496973" lon="-75.16677094">
<time>2014-05-18T23:11:36Z</time>
</trkpt>
      <trkpt lat="10.61495674" lon="-75.16722965">
<time>2014-05-18T23:11:38Z</time>
</trkpt>
      <trkpt lat="10.61494899" lon="-75.16767681">
<time>2014-05-18T23:11:40Z</time>
</trkpt>
      <trkpt lat="10.61493623" lon="-75.16806710">
<time>2014-05-18T23:11:42Z</time>
</trkpt>
      <trkpt lat="10.61490440" lon="-75.16843796">
<time>2014-05-18T23:11:44Z</time>
</trkpt>
      <trkpt lat="10.61484146" lon="-75.16880083">
<time>2014-05-18T23:11:46Z</time>
</trkpt>
      <trkpt lat="10.61472130" lon="-75.16919029">
<time>2014-05-18T23:11:48Z</time>
</trkpt>
      <trkpt lat="10.61458576" lon="-75.16961241">
<time>2014-05-18T23:11:50Z</time>
</trkpt>
      <trkpt lat="10.61443627" lon="-75.17006159">
<time>2014-05-18T23:11:52Z</time>
</trkpt>
      <trkpt lat="10.61426055" lon="-75.17052448">
<time>2014-05-18T23:11:54Z</time>
</trkpt>
      <trkpt lat="10.61407948" lon="-75.17100060">
<time>2014-05-18T23:11:56Z</time>
</trkpt>
      <trkpt lat="10.61389410" lon="-75.17148864">
<time>2014-05-18T23:11:58Z</time>
</trkpt>
      <trkpt lat="10.61370850" lon="-75.17198062">
<time>2014-05-18T23:12:00Z</time>
</trkpt>
      <trkpt lat="10.61352408" lon="-75.17247331">
<time>2014-05-18T23:12:02Z</time>
</trkpt>
      <trkpt lat="10.61334407" lon="-75.17296422">
<time>2014-05-18T23:12:04Z</time>
</trkpt>
      <trkpt lat="10.61316311" lon="-75.17345846">
<time>2014-05-18T23:12:06Z</time>
</trkpt>
      <trkpt lat="10.61296797" lon="-75.17395449">
<time>2014-05-18T23:12:08Z</time>
</trkpt>
      <trkpt lat="10.61277974" lon="-75.17446399">
<time>2014-05-18T23:12:10Z</time>
</trkpt>
      <trkpt lat="10.61258650" lon="-75.17498922">
<time>2014-05-18T23:12:12Z</time>
</trkpt>
      <trkpt lat="10.61239195" lon="-75.17548931">
<time>2014-05-18T23:12:14Z</time>
</trkpt>
      <trkpt lat="10.61220026" lon="-75.17599094">
<time>2014-05-18T23:12:16Z</time>
</trkpt>
      <trkpt lat="10.61201394" lon="-75.17651677">
<time>2014-05-18T23:12:18Z</time>
</trkpt>
      <trkpt lat="10.61181450" lon="-75.17705595">
<time>2014-05-18T23:12:20Z</time>
</trkpt>
      <trkpt lat="10.61161542" lon="-75.17759943">
<time>2014-05-18T23:12:22Z</time>
</trkpt>
      <trkpt lat="10.61140740" lon="-75.17815256">
<time>2014-05-18T23:12:24Z</time>
</trkpt>
      <trkpt lat="10.61120522" lon="-75.17870677">
<time>2014-05-18T23:12:26Z</time>
</trkpt>
      <trkpt lat="10.61103165" lon="-75.17920816">
<time>2014-05-18T23:12:28Z</time>
</trkpt>
      <trkpt lat="10.61088729" lon="-75.17960846">
<time>2014-05-18T23:12:30Z</time>
</trkpt>
      <trkpt lat="10.61076832" lon="-75.17994559">
<time>2014-05-18T23:12:32Z</time>
</trkpt>
      <trkpt lat="10.61071026" lon="-75.18030715">
<time>2014-05-18T23:12:34Z</time>
</trkpt>
      <trkpt lat="10.61068428" lon="-75.18071508">
<time>2014-05-18T23:12:36Z</time>
</trkpt>
      <trkpt lat="10.61068797" lon="-75.18117511">
<time>2014-05-18T23:12:38Z</time>
</trkpt>
      <trkpt lat="10.61069560" lon="-75.18167388">
<time>2014-05-18T23:12:40Z</time>
</trkpt>
      <trkpt lat="10.61071098" lon="-75.18220639">
<time>2014-05-18T23:12:42Z</time>
</trkpt>
      <trkpt lat="10.61073494" lon="-75.18275642">
<time>2014-05-18T23:12:44Z</time>
</trkpt>
      <trkpt lat="10.61075163" lon="-75.18332016">
<time>2014-05-18T23:12:46Z</time>
</trkpt>
      <trkpt lat="10.61077023" lon="-75.18388975">
<time>2014-05-18T23:12:48Z</time>
</trkpt>
      <trkpt lat="10.61080098" lon="-75.18443763">
<time>2014-05-18T23:12:50Z</time>
</trkpt>
      <trkpt lat="10.61083293" lon="-75.18496072">
<time>2014-05-18T23:12:52Z</time>
</trkpt>
      <trkpt lat="10.61083841" lon="-75.18545294">
<time>2014-05-18T23:12:54Z</time>
</trkpt>
      <trkpt lat="10.61079729" lon="-75.18589532">
<time>2014-05-18T23:12:56Z</time>
</trkpt>
      <trkpt lat="10.61069047" lon="-75.18632066">
<time>2014-05-18T23:12:58Z</time>
</trkpt>
      <trkpt lat="10.61054265" lon="-75.18677139">
<time>2014-05-18T23:13:00Z</time>
</trkpt>
      <trkpt lat="10.61035800" lon="-75.18725228">
<time>2014-05-18T23:13:02Z</time>
</trkpt>
      <trkpt lat="10.61016846" lon="-75.18773639">
<time>2014-05-18T23:13:04Z</time>
</trkpt>
      <trkpt lat="10.61000812" lon="-75.18816209">
<time>2014-05-18T23:13:06Z</time>
</trkpt>
      <trkpt lat="10.60990226" lon="-75.18851948">
<time>2014-05-18T23:13:08Z</time>
</trkpt>
      <trkpt lat="10.60987198" lon="-75.18887079">
<time>2014-05-18T23:13:10Z</time>
</trkpt>
      <trkpt lat="10.60988259" lon="-75.18924809">
<time>2014-05-18T23:13:12Z</time>
</trkpt>
      <trkpt lat="10.60995710" lon="-75.18967593">
<time>2014-05-18T23:13:14Z</time>
</trkpt>
      <trkpt lat="10.61007345" lon="-75.19012713">
<time>2014-05-18T23:13:16Z</time>
</trkpt>
      <trkpt lat="10.61022460" lon="-75.19061005">
<time>2014-05-18T23:13:18Z</time>
</trkpt>
      <trkpt lat="10.61035395" lon="-75.19112277">
<time>2014-05-18T23:13:20Z</time>
</trkpt>
      <trkpt lat="10.61049712" lon="-75.19166362">
<time>2014-05-18T23:13:22Z</time>
</trkpt>
      <trkpt lat="10.61064923" lon="-75.19221997">
<time>2014-05-18T23:13:24Z</time>
</trkpt>
      <trkpt lat="10.61079276" lon="-75.19279933">
<time>2014-05-18T23:13:26Z</time>
</trkpt>
      <trkpt lat="10.61094105" lon="-75.19338655">
<time>2014-05-18T23:13:28Z</time>
</trkpt>
      <trkpt lat="10.61109662" lon="-75.19399810">
<time>2014-05-18T23:13:30Z</time>
</trkpt>
      <trkpt lat="10.61125898" lon="-75.19461405">
<time>2014-05-18T23:13:32Z</time>
</trkpt>
      <trkpt lat="10.61141896" lon="-75.19523716">
<time>2014-05-18T23:13:34Z</time>
</trkpt>
      <trkpt lat="10.61158180" lon="-75.19586790">
<time>2014-05-18T23:13:36Z</time>
</trkpt>
      <trkpt lat="10.61173892" lon="-75.19645882">
<time>2014-05-18T23:13:38Z</time>
</trkpt>
      <trkpt lat="10.61188090" lon="-75.19698215">
<time>2014-05-18T23:13:40Z</time>
</trkpt>
      <trkpt lat="10.61205542" lon="-75.19747710">
<time>2014-05-18T23:13:42Z</time>
</trkpt>
      <trkpt lat="10.61229813" lon="-75.19795060">
<time>2014-05-18T23:13:44Z</time>
</trkpt>
      <trkpt lat="10.61257076" lon="-75.19842064">
<time>2014-05-18T23:13:46Z</time>
</trkpt>
      <trkpt lat="10.61285377" lon="-75.19888413">
<time>2014-05-18T23:13:48Z</time>
</trkpt>
      <trkpt lat="10.61313176" lon="-75.19932246">
<time>2014-05-18T23:13:50Z</time>
</trkpt>
      <trkpt lat="10.61340976" lon="-75.19975996">
<time>2014-05-18T23:13:52Z</time>
</trkpt>
      <trkpt lat="10.61368680" lon="-75.20018995">
<time>2014-05-18T23:13:54Z</time>
</trkpt>
      <trkpt lat="10.61396194" lon="-75.20061028">
<time>2014-05-18T23:13:56Z</time>
</trkpt>
      <trkpt lat="10.61422873" lon="-75.20101810">
<time>2014-05-18T23:13:58Z</time>
</trkpt>
      <trkpt lat="10.61445689" lon="-75.20137191">
<time>2014-05-18T23:14:00Z</time>
</trkpt>
      <trkpt lat="10.61463594" lon="-75.20166147">
<time>2014-05-18T23:14:02Z</time>
</trkpt>
      <trkpt lat="10.61476743" lon="-75.20187628">
<time>2014-05-18T23:14:04Z</time>
</trkpt>
      <trkpt lat="10.61482811" lon="-75.20200622">
<time>2014-05-18T23:14:06Z</time>
</trkpt>
      <trkpt lat="10.61487782" lon="-75.20207942">
<time>2014-05-18T23:14:08Z</time>
</trkpt>
      <trkpt lat="10.61493826" lon="-75.20218623">
<time>2014-05-18T23:14:10Z</time>
</trkpt>
      <trkpt lat="10.61505532" lon="-75.20234966">
<time>2014-05-18T23:14:12Z</time>
</trkpt>
      <trkpt lat="10.61521983" lon="-75.20257127">
<time>2014-05-18T23:14:14Z</time>
</trkpt>
      <trkpt lat="10.61540461" lon="-75.20281529">
<time>2014-05-18T23:14:16Z</time>
</trkpt>
      <trkpt lat="10.61562705" lon="-75.20305145">
<time>2014-05-18T23:14:18Z</time>
</trkpt>
      <trkpt lat="10.61591506" lon="-75.20326197">
<time>2014-05-18T23:14:20Z</time>
</trkpt>
      <trkpt lat="10.61622632" lon="-75.20347726">
<time>2014-05-18T23:14:22Z</time>
</trkpt>
      <trkpt lat="10.61650360" lon="-75.20369399">
<time>2014-05-18T23:14:24Z</time>
</trkpt>
      <trkpt lat="10.61675596" lon="-75.20392859">
<time>2014-05-18T23:14:26Z</time>
</trkpt>
      <trkpt lat="10.61700046" lon="-75.20417476">
<time>2014-05-18T23:14:28Z</time>
</trkpt>
      <trkpt lat="10.61725080" lon="-75.20443642">
<time>2014-05-18T23:14:30Z</time>
</trkpt>
      <trkpt lat="10.61748195" lon="-75.20467925">
<time>2014-05-18T23:14:32Z</time>
</trkpt>
      <trkpt lat="10.61767280" lon="-75.20486963">
<time>2014-05-18T23:14:34Z</time>
</trkpt>
      <trkpt lat="10.61780345" lon="-75.20500267">
<time>2014-05-18T23:14:36Z</time>
</trkpt>
      <trkpt lat="10.61787343" lon="-75.20507228">
<time>2014-05-18T23:14:38Z</time>
</trkpt>
      <trkpt lat="10.61792839" lon="-75.20514357">
<time>2014-05-18T23:14:40Z</time>
</trkpt>
      <trkpt lat="10.61802816" lon="-75.20525956">
<time>2014-05-18T23:14:42Z</time>
</trkpt>
      <trkpt lat="10.61817908" lon="-75.20540130">
<time>2014-05-18T23:14:44Z</time>
</trkpt>
      <trkpt lat="10.61830807" lon="-75.20554006">
<time>2014-05-18T23:14:46Z</time>
</trkpt>
      <trkpt lat="10.61842299" lon="-75.20566642">
<time>2014-05-18T23:14:48Z</time>
</trkpt>
      <trkpt lat="10.61852729" lon="-75.20577610">
<time>2014-05-18T23:14:50Z</time>
</trkpt>
      <trkpt lat="10.61865115" lon="-75.20589864">
<time>2014-05-18T23:14:52Z</time>
</trkpt>
      <trkpt lat="10.61878562" lon="-75.20603931">
<time>2014-05-18T23:14:54Z</time>
</trkpt>
      <trkpt lat="10.61895978" lon="-75.20620942">
<time>2014-05-18T23:14:56Z</time>
</trkpt>
      <trkpt lat="10.61917329" lon="-75.20638227">
<time>2014-05-18T23:14:58Z</time>
</trkpt>
      <trkpt lat="10.61940396" lon="-75.20652640">
<time>2014-05-18T23:15:00Z</time>
</trkpt>
      <trkpt lat="10.61965597" lon="-75.20664525">
<time>2014-05-18T23:15:02Z</time>
</trkpt>
      <trkpt lat="10.61990166" lon="-75.20673692">
<time>2014-05-18T23:15:04Z</time>
</trkpt>
      <trkpt lat="10.62015593" lon="-75.20682359">
<time>2014-05-18T23:15:06Z</time>
</trkpt>
      <trkpt lat="10.62042296" lon="-75.20691323">
<time>2014-05-18T23:15:08Z</time>
</trkpt>
      <trkpt lat="10.62068772" lon="-75.20700133">
<time>2014-05-18T23:15:10Z</time>
</trkpt>
      <trkpt lat="10.62092650" lon="-75.20708179">
<time>2014-05-18T23:15:12Z</time>
</trkpt>
      <trkpt lat="10.62109458" lon="-75.20713866">
<time>2014-05-18T23:15:14Z</time>
</trkpt>
      <trkpt lat="10.62118959" lon="-75.20717144">
<time>2014-05-18T23:15:16Z</time>
</trkpt>
      <trkpt lat="10.62129664" lon="-75.20721805">
<time>2014-05-18T23:15:18Z</time>
</trkpt>
      <trkpt lat="10.62145412" lon="-75.20729208">
<time>2014-05-18T23:15:20Z</time>
</trkpt>
      <trkpt lat="10.62166107" lon="-75.20738256">
<time>2014-05-18T23:15:22Z</time>
</trkpt>
      <trkpt lat="10.62190878" lon="-75.20750999">
<time>2014-05-18T23:15:24Z</time>
</trkpt>
      <trkpt lat="10.62219262" lon="-75.20766246">
<time>2014-05-18T23:15:26Z</time>
</trkpt>
      <trkpt lat="10.62249529" lon="-75.20783746">
<time>2014-05-18T23:15:28Z</time>
</trkpt>
      <trkpt lat="10.62282133" lon="-75.20801675">
<time>2014-05-18T23:15:30Z</time>
</trkpt>
      <trkpt lat="10.62316108" lon="-75.20820272">
<time>2014-05-18T23:15:32Z</time>
</trkpt>
      <trkpt lat="10.62347579" lon="-75.20840931">
<time>2014-05-18T23:15:34Z</time>
</trkpt>
      <trkpt lat="10.62374783" lon="-75.20865190">
<time>2014-05-18T23:15:36Z</time>
</trkpt>
      <trkpt lat="10.62396109" lon="-75.20894408">
<time>2014-05-18T23:15:38Z</time>
</trkpt>
      <trkpt lat="10.62412572" lon="-75.20926464">
<time>2014-05-18T23:15:40Z</time>
</trkpt>
      <trkpt lat="10.62426758" lon="-75.20958447">
<time>2014-05-18T23:15:42Z</time>
</trkpt>
      <trkpt lat="10.62438798" lon="-75.20987463">
<time>2014-05-18T23:15:44Z</time>
</trkpt>
      <trkpt lat="10.62447095" lon="-75.21010780">
<time>2014-05-18T23:15:46Z</time>
</trkpt>
      <trkpt lat="10.62452126" lon="-75.21023190">
<time>2014-05-18T23:15:48Z</time>
</trkpt>
      <trkpt lat="10.62456632" lon="-75.21032107">
<time>2014-05-18T23:15:50Z</time>
</trkpt>
      <trkpt lat="10.62463355" lon="-75.21045625">
<time>2014-05-18T23:15:52Z</time>
</trkpt>
      <trkpt lat="10.62471938" lon="-75.21064329">
<time>2014-05-18T23:15:54Z</time>
</trkpt>
      <trkpt lat="10.62481093" lon="-75.21085465">
<time>2014-05-18T23:15:56Z</time>
</trkpt>
      <trkpt lat="10.62493289" lon="-75.21110713">
<time>2014-05-18T23:15:58Z</time>
</trkpt>
      <trkpt lat="10.62507606" lon="-75.21142197">
<time>2014-05-18T23:16:00Z</time>
</trkpt>
      <trkpt lat="10.62522662" lon="-75.21178722">
<time>2014-05-18T23:16:02Z</time>
</trkpt>
      <trkpt lat="10.62535596" lon="-75.21214509">
<time>2014-05-18T23:16:04Z</time>
</trkpt>
      <trkpt lat="10.62546813" lon="-75.21252310">
<time>2014-05-18T23:16:06Z</time>
</trkpt>
      <trkpt lat="10.62556362" lon="-75.21291757">
<time>2014-05-18T23:16:08Z</time>
</trkpt>
      <trkpt lat="10.62569082" lon="-75.21330822">
<time>2014-05-18T23:16:10Z</time>
</trkpt>
      <trkpt lat="10.62587893" lon="-75.21368062">
<time>2014-05-18T23:16:12Z</time>
</trkpt>
      <trkpt lat="10.62612808" lon="-75.21401930">
<time>2014-05-18T23:16:14Z</time>
</trkpt>
      <trkpt lat="10.62642515" lon="-75.21435392">
<time>2014-05-18T23:16:16Z</time>
</trkpt>
      <trkpt lat="10.62673175" lon="-75.21470690">
<time>2014-05-18T23:16:18Z</time>
</trkpt>
      <trkpt lat="10.62702382" lon="-75.21503341">
<time>2014-05-18T23:16:20Z</time>
</trkpt>
      <trkpt lat="10.62729466" lon="-75.21533763">
<time>2014-05-18T23:16:22Z</time>
</trkpt>
      <trkpt lat="10.62754607" lon="-75.21563077">
<time>2014-05-18T23:16:24Z</time>
</trkpt>
      <trkpt lat="10.62777841" lon="-75.21596014">
<time>2014-05-18T23:16:26Z</time>
</trkpt>
      <trkpt lat="10.62797177" lon="-75.21633124">
<time>2014-05-18T23:16:28Z</time>
</trkpt>
      <trkpt lat="10.62811315" lon="-75.21671343">
<time>2014-05-18T23:16:30Z</time>
</trkpt>
      <trkpt lat="10.62819707" lon="-75.21711814">
<time>2014-05-18T23:16:32Z</time>
</trkpt>
      <trkpt lat="10.62824214" lon="-75.21753943">
<time>2014-05-18T23:16:34Z</time>
</trkpt>
      <trkpt lat="10.62822998" lon="-75.21796489">
<time>2014-05-18T23:16:36Z</time>
</trkpt>
      <trkpt lat="10.62814963" lon="-75.21838892">
<time>2014-05-18T23:16:38Z</time>
</trkpt>
      <trkpt lat="10.62804794" lon="-75.21883690">
<time>2014-05-18T23:16:40Z</time>
</trkpt>
      <trkpt lat="10.62793660" lon="-75.21930826">
<time>2014-05-18T23:16:42Z</time>
</trkpt>
      <trkpt lat="10.62782216" lon="-75.21979475">
<time>2014-05-18T23:16:44Z</time>
</trkpt>
      <trkpt lat="10.62770879" lon="-75.22025359">
<time>2014-05-18T23:16:46Z</time>
</trkpt>
      <trkpt lat="10.62765813" lon="-75.22066557">
<time>2014-05-18T23:16:48Z</time>
</trkpt>
      <trkpt lat="10.62768161" lon="-75.22105575">
<time>2014-05-18T23:16:50Z</time>
</trkpt>
      <trkpt lat="10.62777758" lon="-75.22145689">
<time>2014-05-18T23:16:52Z</time>
</trkpt>
      <trkpt lat="10.62791979" lon="-75.22187626">
<time>2014-05-18T23:16:54Z</time>
</trkpt>
      <trkpt lat="10.62808478" lon="-75.22232723">
<time>2014-05-18T23:16:56Z</time>
</trkpt>
      <trkpt lat="10.62825811" lon="-75.22279739">
<time>2014-05-18T23:16:58Z</time>
</trkpt>
      <trkpt lat="10.62842894" lon="-75.22327447">
<time>2014-05-18T23:17:00Z</time>
</trkpt>
      <trkpt lat="10.62857544" lon="-75.22372115">
<time>2014-05-18T23:17:02Z</time>
</trkpt>
      <trkpt lat="10.62866294" lon="-75.22409594">
<time>2014-05-18T23:17:04Z</time>
</trkpt>
      <trkpt lat="10.62868130" lon="-75.22443283">
<time>2014-05-18T23:17:06Z</time>
</trkpt>
      <trkpt lat="10.62863660" lon="-75.22474444">
<time>2014-05-18T23:17:08Z</time>
</trkpt>
      <trkpt lat="10.62852490" lon="-75.22506666">
<time>2014-05-18T23:17:10Z</time>
</trkpt>
      <trkpt lat="10.62833631" lon="-75.22540593">
<time>2014-05-18T23:17:12Z</time>
</trkpt>
      <trkpt lat="10.62807572" lon="-75.22576392">
<time>2014-05-18T23:17:14Z</time>
</trkpt>
      <trkpt lat="10.62779725" lon="-75.22615027">
<time>2014-05-18T23:17:16Z</time>
</trkpt>
      <trkpt lat="10.62750328" lon="-75.22655582">
<time>2014-05-18T23:17:18Z</time>
</trkpt>
      <trkpt lat="10.62719738" lon="-75.22698128">
<time>2014-05-18T23:17:20Z</time>
</trkpt>
      <trkpt lat="10.62689376" lon="-75.22741616">
<time>2014-05-18T23:17:22Z</time>
</trkpt>
      <trkpt lat="10.62659311" lon="-75.22785389">
<time>2014-05-18T23:17:24Z</time>
</trkpt>
      <trkpt lat="10.62628973" lon="-75.22828412">
<time>2014-05-18T23:17:26Z</time>
</trkpt>
      <trkpt lat="10.62600088" lon="-75.22870278">
<time>2014-05-18T23:17:28Z</time>
</trkpt>
      <trkpt lat="10.62570322" lon="-75.22912073">
<time>2014-05-18T23:17:30Z</time>
</trkpt>
      <trkpt lat="10.62540877" lon="-75.22953355">
<time>2014-05-18T23:17:32Z</time>
</trkpt>
      <trkpt lat="10.62509489" lon="-75.22995913">
<time>2014-05-18T23:17:34Z</time>
</trkpt>
      <trkpt lat="10.62477708" lon="-75.23040533">
<time>2014-05-18T23:17:36Z</time>
</trkpt>
      <trkpt lat="10.62447107" lon="-75.23084295">
<time>2014-05-18T23:17:38Z</time>
</trkpt>
      <trkpt lat="10.62418044" lon="-75.23126233">
<time>2014-05-18T23:17:40Z</time>
</trkpt>
      <trkpt lat="10.62390614" lon="-75.23166800">
<time>2014-05-18T23:17:42Z</time>
</trkpt>
      <trkpt lat="10.62366545" lon="-75.23208690">
<time>2014-05-18T23:17:44Z</time>
</trkpt>
      <trkpt lat="10.62346625" lon="-75.23255646">
<time>2014-05-18T23:17:46Z</time>
</trkpt>
      <trkpt lat="10.62333393" lon="-75.23309040">
<time>2014-05-18T23:17:48Z</time>
</trkpt>
      <trkpt lat="10.62317216" lon="-75.23365974">
<time>2014-05-18T23:17:50Z</time>
</trkpt>
      <trkpt lat="10.62300599" lon="-75.23426330">
<time>2014-05-18T23:17:52Z</time>
</trkpt>
      <trkpt lat="10.62283325" lon="-75.23488688">
<time>2014-05-18T23:17:54Z</time>
</trkpt>
      <trkpt lat="10.62265074" lon="-75.23551857">
<time>2014-05-18T23:17:56Z</time>
</trkpt>
      <trkpt lat="10.62246847" lon="-75.23616064">
<time>2014-05-18T23:17:58Z</time>
</trkpt>
      <trkpt lat="10.62229311" lon="-75.23679829">
<time>2014-05-18T23:18:00Z</time>
</trkpt>
      <trkpt lat="10.62212026" lon="-75.23744309">
<time>2014-05-18T23:18:02Z</time>
</trkpt>
      <trkpt lat="10.62193811" lon="-75.23806810">
<time>2014-05-18T23:18:04Z</time>
</trkpt>
      <trkpt lat="10.62176645" lon="-75.23867857">
<time>2014-05-18T23:18:06Z</time>
</trkpt>
      <trkpt lat="10.62160122" lon="-75.23926795">
<time>2014-05-18T23:18:08Z</time>
</trkpt>
      <trkpt lat="10.62143743" lon="-75.23984647">
<time>2014-05-18T23:18:10Z</time>
</trkpt>
      <trkpt lat="10.62127066" lon="-75.24040163">
<time>2014-05-18T23:18:12Z</time>
</trkpt>
      <trkpt lat="10.62112093" lon="-75.24090445">
<time>2014-05-18T23:18:14Z</time>
</trkpt>
      <trkpt lat="10.62099874" lon="-75.24133444">
<time>2014-05-18T23:18:16Z</time>
</trkpt>
      <trkpt lat="10.62092698" lon="-75.24170816">
<time>2014-05-18T23:18:18Z</time>
</trkpt>
      <trkpt lat="10.62090957" lon="-75.24205029">
<time>2014-05-18T23:18:20Z</time>
</trkpt>
      <trkpt lat="10.62096643" lon="-75.24241209">
<time>2014-05-18T23:18:22Z</time>
</trkpt>
      <trkpt lat="10.62109792" lon="-75.24281049">
<time>2014-05-18T23:18:24Z</time>
</trkpt>
      <trkpt lat="10.62132406" lon="-75.24324381">
<time>2014-05-18T23:18:26Z</time>
</trkpt>
      <trkpt lat="10.62160456" lon="-75.24369979">
<time>2014-05-18T23:18:28Z</time>
</trkpt>
      <trkpt lat="10.62190557" lon="-75.24417162">
<time>2014-05-18T23:18:30Z</time>
</trkpt>
      <trkpt lat="10.62217557" lon="-75.24463439">
<time>2014-05-18T23:18:32Z</time>
</trkpt>
      <trkpt lat="10.62239575" lon="-75.24504316">
<time>2014-05-18T23:18:34Z</time>
</trkpt>
      <trkpt lat="10.62253666" lon="-75.24541831">
<time>2014-05-18T23:18:36Z</time>
</trkpt>
      <trkpt lat="10.62262464" lon="-75.24581981">
<time>2014-05-18T23:18:38Z</time>
</trkpt>
      <trkpt lat="10.62264490" lon="-75.24625182">
<time>2014-05-18T23:18:40Z</time>
</trkpt>
      <trkpt lat="10.62262607" lon="-75.24672258">
<time>2014-05-18T23:18:42Z</time>
</trkpt>
      <trkpt lat="10.62258840" lon="-75.24723530">
<time>2014-05-18T23:18:44Z</time>
</trkpt>
      <trkpt lat="10.62258065" lon="-75.24776912">
<time>2014-05-18T23:18:46Z</time>
</trkpt>
      <trkpt lat="10.62256122" lon="-75.24828660">
<time>2014-05-18T23:18:48Z</time>
</trkpt>
      <trkpt lat="10.62254763" lon="-75.24879491">
<time>2014-05-18T23:18:50Z</time>
</trkpt>
      <trkpt lat="10.62252676" lon="-75.24927330">
<time>2014-05-18T23:18:52Z</time>
</trkpt>
      <trkpt lat="10.62246692" lon="-75.24973178">
<time>2014-05-18T23:18:54Z</time>
</trkpt>
      <trkpt lat="10.62235355" lon="-75.25019491">
<time>2014-05-18T23:18:56Z</time>
</trkpt>
      <trkpt lat="10.62220979" lon="-75.25066745">
<time>2014-05-18T23:18:58Z</time>
</trkpt>
      <trkpt lat="10.62204707" lon="-75.25114763">
<time>2014-05-18T23:19:00Z</time>
</trkpt>
      <trkpt lat="10.62185943" lon="-75.25164008">
<time>2014-05-18T23:19:02Z</time>
</trkpt>
      <trkpt lat="10.62168097" lon="-75.25215495">
<time>2014-05-18T23:19:04Z</time>
</trkpt>
      <trkpt lat="10.62148547" lon="-75.25268066">
<time>2014-05-18T23:19:06Z</time>
</trkpt>
      <trkpt lat="10.62130189" lon="-75.25322330">
<time>2014-05-18T23:19:08Z</time>
</trkpt>
      <trkpt lat="10.62112355" lon="-75.25376940">
<time>2014-05-18T23:19:10Z</time>
</trkpt>
      <trkpt lat="10.62093449" lon="-75.25432360">
<time>2014-05-18T23:19:12Z</time>
</trkpt>
      <trkpt lat="10.62074924" lon="-75.25487947">
<time>2014-05-18T23:19:14Z</time>
</trkpt>
      <trkpt lat="10.62057006" lon="-75.25542581">
<time>2014-05-18T23:19:16Z</time>
</trkpt>
      <trkpt lat="10.62040210" lon="-75.25595331">
<time>2014-05-18T23:19:18Z</time>
</trkpt>
      <trkpt lat="10.62025917" lon="-75.25646281">
<time>2014-05-18T23:19:20Z</time>
</trkpt>
      <trkpt lat="10.62014878" lon="-75.25698972">
<time>2014-05-18T23:19:22Z</time>
</trkpt>
      <trkpt lat="10.62005448" lon="-75.25754297">
<time>2014-05-18T23:19:24Z</time>
</trkpt>
      <trkpt lat="10.61996162" lon="-75.25810480">
<time>2014-05-18T23:19:26Z</time>
</trkpt>
      <trkpt lat="10.61987925" lon="-75.25867391">
<time>2014-05-18T23:19:28Z</time>
</trkpt>
      <trkpt lat="10.61977649" lon="-75.25924313">
<time>2014-05-18T23:19:30Z</time>
</trkpt>
      <trkpt lat="10.61968148" lon="-75.25980723">
<time>2014-05-18T23:19:32Z</time>
</trkpt>
      <trkpt lat="10.61959016" lon="-75.26036990">
<time>2014-05-18T23:19:34Z</time>
</trkpt>
      <trkpt lat="10.61950099" lon="-75.26091576">
<time>2014-05-18T23:19:36Z</time>
</trkpt>
      <trkpt lat="10.61942673" lon="-75.26138961">
<time>2014-05-18T23:19:38Z</time>
</trkpt>
      <trkpt lat="10.61939764" lon="-75.26180327">
<time>2014-05-18T23:19:40Z</time>
</trkpt>
      <trkpt lat="10.61947131" lon="-75.26219797">
<time>2014-05-18T23:19:42Z</time>
</trkpt>
      <trkpt lat="10.61957729" lon="-75.26258194">
<time>2014-05-18T23:19:44Z</time>
</trkpt>
      <trkpt lat="10.61968696" lon="-75.26294649">
<time>2014-05-18T23:19:46Z</time>
</trkpt>
      <trkpt lat="10.61975694" lon="-75.26330090">
<time>2014-05-18T23:19:48Z</time>
</trkpt>
      <trkpt lat="10.61977863" lon="-75.26367140">
<time>2014-05-18T23:19:50Z</time>
</trkpt>
      <trkpt lat="10.61973250" lon="-75.26406395">
<time>2014-05-18T23:19:52Z</time>
</trkpt>
      <trkpt lat="10.61964500" lon="-75.26449156">
<time>2014-05-18T23:19:54Z</time>
</trkpt>
      <trkpt lat="10.61952329" lon="-75.26494312">
<time>2014-05-18T23:19:56Z</time>
</trkpt>
      <trkpt lat="10.61940193" lon="-75.26543081">
<time>2014-05-18T23:19:58Z</time>
</trkpt>
      <trkpt lat="10.61928248" lon="-75.26593828">
<time>2014-05-18T23:20:00Z</time>
</trkpt>
      <trkpt lat="10.61916029" lon="-75.26646280">
<time>2014-05-18T23:20:02Z</time>
</trkpt>
      <trkpt lat="10.61902845" lon="-75.26700342">
<time>2014-05-18T23:20:04Z</time>
</trkpt>
      <trkpt lat="10.61888862" lon="-75.26752782">
<time>2014-05-18T23:20:06Z</time>
</trkpt>
      <trkpt lat="10.61875665" lon="-75.26807129">
<time>2014-05-18T23:20:08Z</time>
</trkpt>
      <trkpt lat="10.61862695" lon="-75.26862013">
<time>2014-05-18T23:20:10Z</time>
</trkpt>
      <trkpt lat="10.61851132" lon="-75.26916814">
<time>2014-05-18T23:20:12Z</time>
</trkpt>
      <trkpt lat="10.61838591" lon="-75.26971662">
<time>2014-05-18T23:20:14Z</time>
</trkpt>
      <trkpt lat="10.61826277" lon="-75.27026558">
<time>2014-05-18T23:20:16Z</time>
</trkpt>
      <trkpt lat="10.61814129" lon="-75.27081680">
<time>2014-05-18T23:20:18Z</time>
</trkpt>
      <trkpt lat="10.61801159" lon="-75.27136540">
<time>2014-05-18T23:20:20Z</time>
</trkpt>
      <trkpt lat="10.61788845" lon="-75.27192175">
<time>2014-05-18T23:20:22Z</time>
</trkpt>
      <trkpt lat="10.61776423" lon="-75.27248323">
<time>2014-05-18T23:20:24Z</time>
</trkpt>
      <trkpt lat="10.61763692" lon="-75.27304161">
<time>2014-05-18T23:20:26Z</time>
</trkpt>
      <trkpt lat="10.61750591" lon="-75.27359593">
<time>2014-05-18T23:20:28Z</time>
</trkpt>
      <trkpt lat="10.61737990" lon="-75.27414823">
<time>2014-05-18T23:20:30Z</time>
</trkpt>
      <trkpt lat="10.61725473" lon="-75.27468872">
<time>2014-05-18T23:20:32Z</time>
</trkpt>
      <trkpt lat="10.61712563" lon="-75.27520990">
<time>2014-05-18T23:20:34Z</time>
</trkpt>
      <trkpt lat="10.61701822" lon="-75.27569997">
<time>2014-05-18T23:20:36Z</time>
</trkpt>
      <trkpt lat="10.61692059" lon="-75.27610064">
<time>2014-05-18T23:20:38Z</time>
</trkpt>
      <trkpt lat="10.61682642" lon="-75.27641082">
<time>2014-05-18T23:20:40Z</time>
</trkpt>
      <trkpt lat="10.61667609" lon="-75.27667773">
<time>2014-05-18T23:20:42Z</time>
</trkpt>
      <trkpt lat="10.61648607" lon="-75.27694309">
<time>2014-05-18T23:20:44Z</time>
</trkpt>
      <trkpt lat="10.61619925" lon="-75.27720177">
<time>2014-05-18T23:20:46Z</time>
</trkpt>
      <trkpt lat="10.61587572" lon="-75.27746916">
<time>2014-05-18T23:20:48Z</time>
</trkpt>
      <trkpt lat="10.61552429" lon="-75.27776730">
<time>2014-05-18T23:20:50Z</time>
</trkpt>
      <trkpt lat="10.61514211" lon="-75.27807117">
<time>2014-05-18T23:20:52Z</time>
</trkpt>
      <trkpt lat="10.61475146" lon="-75.27840078">
<time>2014-05-18T23:20:54Z</time>
</trkpt>
      <trkpt lat="10.61434710" lon="-75.27875912">
<time>2014-05-18T23:20:56Z</time>
</trkpt>
      <trkpt lat="10.61392140" lon="-75.27911949">
<time>2014-05-18T23:20:58Z</time>
</trkpt>
      <trkpt lat="10.61348331" lon="-75.27948844">
<time>2014-05-18T23:21:00Z</time>
</trkpt>
      <trkpt lat="10.61303341" lon="-75.27987075">
<time>2014-05-18T23:21:02Z</time>
</trkpt>
      <trkpt lat="10.61258423" lon="-75.28025913">
<time>2014-05-18T23:21:04Z</time>
</trkpt>
      <trkpt lat="10.61212111" lon="-75.28064930">
<time>2014-05-18T23:21:06Z</time>
</trkpt>
      <trkpt lat="10.61166573" lon="-75.28104663">
<time>2014-05-18T23:21:08Z</time>
</trkpt>
      <trkpt lat="10.61120522" lon="-75.28144705">
<time>2014-05-18T23:21:10Z</time>
</trkpt>
      <trkpt lat="10.61076641" lon="-75.28181279">
<time>2014-05-18T23:21:12Z</time>
</trkpt>
      <trkpt lat="10.61036813" lon="-75.28213966">
<time>2014-05-18T23:21:14Z</time>
</trkpt>
      <trkpt lat="10.61000347" lon="-75.28241575">
<time>2014-05-18T23:21:16Z</time>
</trkpt>
      <trkpt lat="10.60968292" lon="-75.28272796">
<time>2014-05-18T23:21:18Z</time>
</trkpt>
      <trkpt lat="10.60938227" lon="-75.28309298">
<time>2014-05-18T23:21:20Z</time>
</trkpt>
      <trkpt lat="10.60910273" lon="-75.28346324">
<time>2014-05-18T23:21:22Z</time>
</trkpt>
      <trkpt lat="10.60884297" lon="-75.28380239">
<time>2014-05-18T23:21:24Z</time>
</trkpt>
      <trkpt lat="10.60856748" lon="-75.28404808">
<time>2014-05-18T23:21:26Z</time>
</trkpt>
      <trkpt lat="10.60824192" lon="-75.28424489">
<time>2014-05-18T23:21:28Z</time>
</trkpt>
      <trkpt lat="10.60784447" lon="-75.28440499">
<time>2014-05-18T23:21:30Z</time>
</trkpt>
      <trkpt lat="10.60740924" lon="-75.28456807">
<time>2014-05-18T23:21:32Z</time>
</trkpt>
      <trkpt lat="10.60695672" lon="-75.28473294">
<time>2014-05-18T23:21:34Z</time>
</trkpt>
      <trkpt lat="10.60649991" lon="-75.28490663">
<time>2014-05-18T23:21:36Z</time>
</trkpt>
      <trkpt lat="10.60602188" lon="-75.28509557">
<time>2014-05-18T23:21:38Z</time>
</trkpt>
      <trkpt lat="10.60554743" lon="-75.28528988">
<time>2014-05-18T23:21:40Z</time>
</trkpt>
      <trkpt lat="10.60511065" lon="-75.28545928">
<time>2014-05-18T23:21:42Z</time>
</trkpt>
      <trkpt lat="10.60472274" lon="-75.28562081">
<time>2014-05-18T23:21:44Z</time>
</trkpt>
      <trkpt lat="10.60439575" lon="-75.28576362">
<time>2014-05-18T23:21:46Z</time>
</trkpt>
      <trkpt lat="10.60411823" lon="-75.28588796">
<time>2014-05-18T23:21:48Z</time>
</trkpt>
      <trkpt lat="10.60388255" lon="-75.28598595">
<time>2014-05-18T23:21:50Z</time>
</trkpt>
      <trkpt lat="10.60365725" lon="-75.28608596">
<time>2014-05-18T23:21:52Z</time>
</trkpt>
      <trkpt lat="10.60337639" lon="-75.28619814">
<time>2014-05-18T23:21:54Z</time>
</trkpt>
      <trkpt lat="10.60307050" lon="-75.28633857">
<time>2014-05-18T23:21:56Z</time>
</trkpt>
      <trkpt lat="10.60275567" lon="-75.28648627">
<time>2014-05-18T23:21:58Z</time>
</trkpt>
      <trkpt lat="10.60245740" lon="-75.28663898">
<time>2014-05-18T23:22:00Z</time>
</trkpt>
      <trkpt lat="10.60217798" lon="-75.28685296">
<time>2014-05-18T23:22:02Z</time>
</trkpt>
      <trkpt lat="10.60193026" lon="-75.28714478">
<time>2014-05-18T23:22:04Z</time>
</trkpt>
      <trkpt lat="10.60175300" lon="-75.28740680">
<time>2014-05-18T23:22:06Z</time>
</trkpt>
      <trkpt lat="10.60164297" lon="-75.28757846">
<time>2014-05-18T23:22:08Z</time>
</trkpt>
      <trkpt lat="10.60159755" lon="-75.28766966">
<time>2014-05-18T23:22:10Z</time>
</trkpt>
      <trkpt lat="10.60154498" lon="-75.28775632">
<time>2014-05-18T23:22:12Z</time>
</trkpt>
      <trkpt lat="10.60147309" lon="-75.28786695">
<time>2014-05-18T23:22:14Z</time>
</trkpt>
      <trkpt lat="10.60137582" lon="-75.28803480">
<time>2014-05-18T23:22:16Z</time>
</trkpt>
      <trkpt lat="10.60126495" lon="-75.28823495">
<time>2014-05-18T23:22:18Z</time>
</trkpt>
      <trkpt lat="10.60112512" lon="-75.28849423">
<time>2014-05-18T23:22:20Z</time>
</trkpt>
      <trkpt lat="10.60096574" lon="-75.28877246">
<time>2014-05-18T23:22:22Z</time>
</trkpt>
      <trkpt lat="10.60079956" lon="-75.28905189">
<time>2014-05-18T23:22:24Z</time>
</trkpt>
      <trkpt lat="10.60061812" lon="-75.28933489">
<time>2014-05-18T23:22:26Z</time>
</trkpt>
      <trkpt lat="10.60036945" lon="-75.28962409">
<time>2014-05-18T23:22:28Z</time>
</trkpt>
      <trkpt lat="10.60006440" lon="-75.28993106">
<time>2014-05-18T23:22:30Z</time>
</trkpt>
      <trkpt lat="10.59978700" lon="-75.29022408">
<time>2014-05-18T23:22:32Z</time>
</trkpt>
      <trkpt lat="10.59952962" lon="-75.29048264">
<time>2014-05-18T23:22:34Z</time>
</trkpt>
      <trkpt lat="10.59930694" lon="-75.29069459">
<time>2014-05-18T23:22:36Z</time>
</trkpt>
      <trkpt lat="10.59912491" lon="-75.29086590">
<time>2014-05-18T23:22:38Z</time>
</trkpt>
      <trkpt lat="10.59899628" lon="-75.29097795">
<time>2014-05-18T23:22:40Z</time>
</trkpt>
      <trkpt lat="10.59891188" lon="-75.29106295">
<time>2014-05-18T23:22:42Z</time>
</trkpt>
      <trkpt lat="10.59882390" lon="-75.29114640">
<time>2014-05-18T23:22:44Z</time>
</trkpt>
      <trkpt lat="10.59868574" lon="-75.29129446">
<time>2014-05-18T23:22:46Z</time>
</trkpt>
      <trkpt lat="10.59846580" lon="-75.29148531">
<time>2014-05-18T23:22:48Z</time>
</trkpt>
      <trkpt lat="10.59821713" lon="-75.29172730">
<time>2014-05-18T23:22:50Z</time>
</trkpt>
      <trkpt lat="10.59794056" lon="-75.29198849">
<time>2014-05-18T23:22:52Z</time>
</trkpt>
      <trkpt lat="10.59765828" lon="-75.29224443">
<time>2014-05-18T23:22:54Z</time>
</trkpt>
      <trkpt lat="10.59733725" lon="-75.29254782">
<time>2014-05-18T23:22:56Z</time>
</trkpt>
      <trkpt lat="10.59698105" lon="-75.29287815">
<time>2014-05-18T23:22:58Z</time>
</trkpt>
      <trkpt lat="10.59658539" lon="-75.29324174">
<time>2014-05-18T23:23:00Z</time>
</trkpt>
      <trkpt lat="10.59619248" lon="-75.29362464">
<time>2014-05-18T23:23:02Z</time>
</trkpt>
      <trkpt lat="10.59579659" lon="-75.29401779">
<time>2014-05-18T23:23:04Z</time>
</trkpt>
      <trkpt lat="10.59537590" lon="-75.29440212">
<time>2014-05-18T23:23:06Z</time>
</trkpt>
      <trkpt lat="10.59495223" lon="-75.29480314">
<time>2014-05-18T23:23:08Z</time>
</trkpt>
      <trkpt lat="10.59452713" lon="-75.29520798">
<time>2014-05-18T23:23:10Z</time>
</trkpt>
      <trkpt lat="10.59411657" lon="-75.29560363">
<time>2014-05-18T23:23:12Z</time>
</trkpt>
      <trkpt lat="10.59369981" lon="-75.29599595">
<time>2014-05-18T23:23:14Z</time>
</trkpt>
      <trkpt lat="10.59327805" lon="-75.29639411">
<time>2014-05-18T23:23:16Z</time>
</trkpt>
      <trkpt lat="10.59284949" lon="-75.29679978">
<time>2014-05-18T23:23:18Z</time>
</trkpt>
      <trkpt lat="10.59242141" lon="-75.29720664">
<time>2014-05-18T23:23:20Z</time>
</trkpt>
      <trkpt lat="10.59198844" lon="-75.29761076">
<time>2014-05-18T23:23:22Z</time>
</trkpt>
      <trkpt lat="10.59157276" lon="-75.29801297">
<time>2014-05-18T23:23:24Z</time>
</trkpt>
      <trkpt lat="10.59116924" lon="-75.29840112">
<time>2014-05-18T23:23:26Z</time>
</trkpt>
      <trkpt lat="10.59076250" lon="-75.29876542">
<time>2014-05-18T23:23:28Z</time>
</trkpt>
      <trkpt lat="10.59034264" lon="-75.29914665">
<time>2014-05-18T23:23:30Z</time>
</trkpt>
      <trkpt lat="10.58990788" lon="-75.29956281">
<time>2014-05-18T23:23:32Z</time>
</trkpt>
      <trkpt lat="10.58947730" lon="-75.29997706">
<time>2014-05-18T23:23:34Z</time>
</trkpt>
      <trkpt lat="10.58906162" lon="-75.30035961">
<time>2014-05-18T23:23:36Z</time>
</trkpt>
      <trkpt lat="10.58871174" lon="-75.30069447">
<time>2014-05-18T23:23:38Z</time>
</trkpt>
      <trkpt lat="10.58846200" lon="-75.30100775">
<time>2014-05-18T23:23:40Z</time>
</trkpt>
      <trkpt lat="10.58829224" lon="-75.30134344">
<time>2014-05-18T23:23:42Z</time>
</trkpt>
      <trkpt lat="10.58821750" lon="-75.30170012">
<time>2014-05-18T23:23:44Z</time>
</trkpt>
      <trkpt lat="10.58824611" lon="-75.30211174">
<time>2014-05-18T23:23:46Z</time>
</trkpt>
      <trkpt lat="10.58830726" lon="-75.30256772">
<time>2014-05-18T23:23:48Z</time>
</trkpt>
      <trkpt lat="10.58837032" lon="-75.30306613">
<time>2014-05-18T23:23:50Z</time>
</trkpt>
      <trkpt lat="10.58842695" lon="-75.30353796">
<time>2014-05-18T23:23:52Z</time>
</trkpt>
      <trkpt lat="10.58847594" lon="-75.30397308">
<time>2014-05-18T23:23:54Z</time>
</trkpt>
      <trkpt lat="10.58848047" lon="-75.30437744">
<time>2014-05-18T23:23:56Z</time>
</trkpt>
      <trkpt lat="10.58840716" lon="-75.30475378">
<time>2014-05-18T23:23:58Z</time>
</trkpt>
      <trkpt lat="10.58825696" lon="-75.30511928">
<time>2014-05-18T23:24:00Z</time>
</trkpt>
      <trkpt lat="10.58804572" lon="-75.30544388">
<time>2014-05-18T23:24:02Z</time>
</trkpt>
      <trkpt lat="10.58774316" lon="-75.30572081">
<time>2014-05-18T23:24:04Z</time>
</trkpt>
      <trkpt lat="10.58741117" lon="-75.30598915">
<time>2014-05-18T23:24:06Z</time>
</trkpt>
      <trkpt lat="10.58704114" lon="-75.30628908">
<time>2014-05-18T23:24:08Z</time>
</trkpt>
      <trkpt lat="10.58662629" lon="-75.30661714">
<time>2014-05-18T23:24:10Z</time>
</trkpt>
      <trkpt lat="10.58618796" lon="-75.30695379">
<time>2014-05-18T23:24:12Z</time>
</trkpt>
      <trkpt lat="10.58576429" lon="-75.30724096">
<time>2014-05-18T23:24:14Z</time>
</trkpt>
      <trkpt lat="10.58536339" lon="-75.30749297">
<time>2014-05-18T23:24:16Z</time>
</trkpt>
      <trkpt lat="10.58501732" lon="-75.30776155">
<time>2014-05-18T23:24:18Z</time>
</trkpt>
      <trkpt lat="10.58470464" lon="-75.30810058">
<time>2014-05-18T23:24:20Z</time>
</trkpt>
      <trkpt lat="10.58441794" lon="-75.30849862">
<time>2014-05-18T23:24:22Z</time>
</trkpt>
      <trkpt lat="10.58412147" lon="-75.30892563">
<time>2014-05-18T23:24:24Z</time>
</trkpt>
      <trkpt lat="10.58381593" lon="-75.30937564">
<time>2014-05-18T23:24:26Z</time>
</trkpt>
      <trkpt lat="10.58350074" lon="-75.30985856">
<time>2014-05-18T23:24:28Z</time>
</trkpt>
      <trkpt lat="10.58316648" lon="-75.31034088">
<time>2014-05-18T23:24:30Z</time>
</trkpt>
      <trkpt lat="10.58281147" lon="-75.31084514">
<time>2014-05-18T23:24:32Z</time>
</trkpt>
      <trkpt lat="10.58246255" lon="-75.31134892">
<time>2014-05-18T23:24:34Z</time>
</trkpt>
      <trkpt lat="10.58212006" lon="-75.31185162">
<time>2014-05-18T23:24:36Z</time>
</trkpt>
      <trkpt lat="10.58180106" lon="-75.31232846">
<time>2014-05-18T23:24:38Z</time>
</trkpt>
      <trkpt lat="10.58150113" lon="-75.31277514">
<time>2014-05-18T23:24:40Z</time>
</trkpt>
      <trkpt lat="10.58119559" lon="-75.31321239">
<time>2014-05-18T23:24:42Z</time>
</trkpt>
      <trkpt lat="10.58088326" lon="-75.31366849">
<time>2014-05-18T23:24:44Z</time>
</trkpt>
      <trkpt lat="10.58057082" lon="-75.31413865">
<time>2014-05-18T23:24:46Z</time>
</trkpt>
      <trkpt lat="10.58025193" lon="-75.31462741">
<time>2014-05-18T23:24:48Z</time>
</trkpt>
      <trkpt lat="10.57993758" lon="-75.31511211">
<time>2014-05-18T23:24:50Z</time>
</trkpt>
      <trkpt lat="10.57962823" lon="-75.31558359">
<time>2014-05-18T23:24:52Z</time>
</trkpt>
      <trkpt lat="10.57933390" lon="-75.31604350">
<time>2014-05-18T23:24:54Z</time>
</trkpt>
      <trkpt lat="10.57902610" lon="-75.31648815">
<time>2014-05-18T23:24:56Z</time>
</trkpt>
      <trkpt lat="10.57871175" lon="-75.31690907">
<time>2014-05-18T23:24:58Z</time>
</trkpt>
      <trkpt lat="10.57835031" lon="-75.31729710">
<time>2014-05-18T23:25:00Z</time>
</trkpt>
      <trkpt lat="10.57794356" lon="-75.31768143">
<time>2014-05-18T23:25:02Z</time>
</trkpt>
      <trkpt lat="10.57752824" lon="-75.31807876">
<time>2014-05-18T23:25:04Z</time>
</trkpt>
      <trkpt lat="10.57711172" lon="-75.31847894">
<time>2014-05-18T23:25:06Z</time>
</trkpt>
      <trkpt lat="10.57669199" lon="-75.31887031">
<time>2014-05-18T23:25:08Z</time>
</trkpt>
      <trkpt lat="10.57625425" lon="-75.31927013">
<time>2014-05-18T23:25:10Z</time>
</trkpt>
      <trkpt lat="10.57581627" lon="-75.31970489">
<time>2014-05-18T23:25:12Z</time>
</trkpt>
      <trkpt lat="10.57536280" lon="-75.32014191">
<time>2014-05-18T23:25:14Z</time>
</trkpt>
      <trkpt lat="10.57489395" lon="-75.32057476">
<time>2014-05-18T23:25:16Z</time>
</trkpt>
      <trkpt lat="10.57442641" lon="-75.32100260">
<time>2014-05-18T23:25:18Z</time>
</trkpt>
      <trkpt lat="10.57397449" lon="-75.32143044">
<time>2014-05-18T23:25:20Z</time>
</trkpt>
      <trkpt lat="10.57355022" lon="-75.32183743">
<time>2014-05-18T23:25:22Z</time>
</trkpt>
      <trkpt lat="10.57315063" lon="-75.32220292">
<time>2014-05-18T23:25:24Z</time>
</trkpt>
      <trkpt lat="10.57280481" lon="-75.32254910">
<time>2014-05-18T23:25:26Z</time>
</trkpt>
      <trkpt lat="10.57250857" lon="-75.32284331">
<time>2014-05-18T23:25:28Z</time>
</trkpt>
      <trkpt lat="10.57223129" lon="-75.32309282">
<time>2014-05-18T23:25:30Z</time>
</trkpt>
      <trkpt lat="10.57197440" lon="-75.32333982">
<time>2014-05-18T23:25:32Z</time>
</trkpt>
      <trkpt lat="10.57173061" lon="-75.32354343">
<time>2014-05-18T23:25:34Z</time>
</trkpt>
      <trkpt lat="10.57155430" lon="-75.32368290">
<time>2014-05-18T23:25:36Z</time>
</trkpt>
      <trkpt lat="10.57144558" lon="-75.32377529">
<time>2014-05-18T23:25:38Z</time>
</trkpt>
      <trkpt lat="10.57139492" lon="-75.32382596">
<time>2014-05-18T23:25:40Z</time>
</trkpt>
      <trkpt lat="10.57133782" lon="-75.32387006">
<time>2014-05-18T23:25:42Z</time>
</trkpt>
      <trkpt lat="10.57123983" lon="-75.32396078">
<time>2014-05-18T23:25:44Z</time>
</trkpt>
      <trkpt lat="10.57109773" lon="-75.32409489">
<time>2014-05-18T23:25:46Z</time>
</trkpt>
      <trkpt lat="10.57090342" lon="-75.32423294">
<time>2014-05-18T23:25:48Z</time>
</trkpt>
      <trkpt lat="10.57067132" lon="-75.32442272">
<time>2014-05-18T23:25:50Z</time>
</trkpt>
      <trkpt lat="10.57043207" lon="-75.32462049">
<time>2014-05-18T23:25:52Z</time>
</trkpt>
      <trkpt lat="10.57020044" lon="-75.32480860">
<time>2014-05-18T23:25:54Z</time>
</trkpt>
      <trkpt lat="10.56996107" lon="-75.32501590">
<time>2014-05-18T23:25:56Z</time>
</trkpt>
      <trkpt lat="10.56972015" lon="-75.32522178">
<time>2014-05-18T23:25:58Z</time>
</trkpt>
      <trkpt lat="10.56951928" lon="-75.32538843">
<time>2014-05-18T23:26:00Z</time>
</trkpt>
      <trkpt lat="10.56939995" lon="-75.32547128">
<time>2014-05-18T23:26:02Z</time>
</trkpt>
      <trkpt lat="10.56933510" lon="-75.32552814">
<time>2014-05-18T23:26:04Z</time>
</trkpt>
      <trkpt lat="10.56926692" lon="-75.32559109">
<time>2014-05-18T23:26:06Z</time>
</trkpt>
      <trkpt lat="10.56917048" lon="-75.32567859">
<time>2014-05-18T23:26:08Z</time>
</trkpt>
      <trkpt lat="10.56905580" lon="-75.32577288">
<time>2014-05-18T23:26:10Z</time>
</trkpt>
      <trkpt lat="10.56891465" lon="-75.32588828">
<time>2014-05-18T23:26:12Z</time>
</trkpt>
      <trkpt lat="10.56875432" lon="-75.32603323">
<time>2014-05-18T23:26:14Z</time>
</trkpt>
      <trkpt lat="10.56859326" lon="-75.32619524">
<time>2014-05-18T23:26:16Z</time>
</trkpt>
      <trkpt lat="10.56847155" lon="-75.32639432">
<time>2014-05-18T23:26:18Z</time>
</trkpt>
      <trkpt lat="10.56838131" lon="-75.32660949">
<time>2014-05-18T23:26:20Z</time>
</trkpt>
      <trkpt lat="10.56833076" lon="-75.32685983">
<time>2014-05-18T23:26:22Z</time>
</trkpt>
      <trkpt lat="10.56829989" lon="-75.32709229">
<time>2014-05-18T23:26:24Z</time>
</trkpt>
      <trkpt lat="10.56829143" lon="-75.32727110">
<time>2014-05-18T23:26:26Z</time>
</trkpt>
      <trkpt lat="10.56829345" lon="-75.32739460">
<time>2014-05-18T23:26:28Z</time>
</trkpt>
      <trkpt lat="10.56829691" lon="-75.32753789">
<time>2014-05-18T23:26:30Z</time>
</trkpt>
      <trkpt lat="10.56830490" lon="-75.32770813">
<time>2014-05-18T23:26:32Z</time>
</trkpt>
      <trkpt lat="10.56830490" lon="-75.32790291">
<time>2014-05-18T23:26:34Z</time>
</trkpt>
      <trkpt lat="10.56832409" lon="-75.32811105">
<time>2014-05-18T23:26:36Z</time>
</trkpt>
      <trkpt lat="10.56835377" lon="-75.32832778">
<time>2014-05-18T23:26:38Z</time>
</trkpt>
      <trkpt lat="10.56840110" lon="-75.32855141">
<time>2014-05-18T23:26:40Z</time>
</trkpt>
      <trkpt lat="10.56847322" lon="-75.32875764">
<time>2014-05-18T23:26:42Z</time>
</trkpt>
      <trkpt lat="10.56854463" lon="-75.32896447">
<time>2014-05-18T23:26:44Z</time>
</trkpt>
      <trkpt lat="10.56861591" lon="-75.32915890">
<time>2014-05-18T23:26:46Z</time>
</trkpt>
      <trkpt lat="10.56867659" lon="-75.32929862">
<time>2014-05-18T23:26:48Z</time>
</trkpt>
      <trkpt lat="10.56872606" lon="-75.32940400">
<time>2014-05-18T23:26:50Z</time>
</trkpt>
      <trkpt lat="10.56881416" lon="-75.32956898">
<time>2014-05-18T23:26:52Z</time>
</trkpt>
      <trkpt lat="10.56892622" lon="-75.32978976">
<time>2014-05-18T23:26:54Z</time>
</trkpt>
      <trkpt lat="10.56904542" lon="-75.33005083">
<time>2014-05-18T23:26:56Z</time>
</trkpt>
      <trkpt lat="10.56917024" lon="-75.33035207">
<time>2014-05-18T23:26:58Z</time>
</trkpt>
      <trkpt lat="10.56930661" lon="-75.33066916">
<time>2014-05-18T23:27:00Z</time>
</trkpt>
      <trkpt lat="10.56945014" lon="-75.33098531">
<time>2014-05-18T23:27:02Z</time>
</trkpt>
      <trkpt lat="10.56958425" lon="-75.33129656">
<time>2014-05-18T23:27:04Z</time>
</trkpt>
      <trkpt lat="10.56969380" lon="-75.33153975">
<time>2014-05-18T23:27:06Z</time>
</trkpt>
      <trkpt lat="10.56974459" lon="-75.33167028">
<time>2014-05-18T23:27:08Z</time>
</trkpt>
      <trkpt lat="10.56976938" lon="-75.33175457">
<time>2014-05-18T23:27:10Z</time>
</trkpt>
      <trkpt lat="10.56980896" lon="-75.33186841">
<time>2014-05-18T23:27:12Z</time>
</trkpt>
      <trkpt lat="10.56987631" lon="-75.33203793">
<time>2014-05-18T23:27:14Z</time>
</trkpt>
      <trkpt lat="10.56996560" lon="-75.33225477">
<time>2014-05-18T23:27:16Z</time>
</trkpt>
      <trkpt lat="10.57006991" lon="-75.33250391">
<time>2014-05-18T23:27:18Z</time>
</trkpt>
      <trkpt lat="10.57017696" lon="-75.33274305">
<time>2014-05-18T23:27:20Z</time>
</trkpt>
      <trkpt lat="10.57029080" lon="-75.33301640">
<time>2014-05-18T23:27:22Z</time>
</trkpt>
      <trkpt lat="10.57042325" lon="-75.33331561">
<time>2014-05-18T23:27:24Z</time>
</trkpt>
      <trkpt lat="10.57055962" lon="-75.33360362">
<time>2014-05-18T23:27:26Z</time>
</trkpt>
      <trkpt lat="10.57068491" lon="-75.33391511">
<time>2014-05-18T23:27:28Z</time>
</trkpt>
      <trkpt lat="10.57076991" lon="-75.33424890">
<time>2014-05-18T23:27:30Z</time>
</trkpt>
      <trkpt lat="10.57078946" lon="-75.33459032">
<time>2014-05-18T23:27:32Z</time>
</trkpt>
      <trkpt lat="10.57072532" lon="-75.33495057">
<time>2014-05-18T23:27:34Z</time>
</trkpt>
      <trkpt lat="10.57061231" lon="-75.33532298">
<time>2014-05-18T23:27:36Z</time>
</trkpt>
      <trkpt lat="10.57048333" lon="-75.33568680">
<time>2014-05-18T23:27:38Z</time>
</trkpt>
      <trkpt lat="10.57032943" lon="-75.33606029">
<time>2014-05-18T23:27:40Z</time>
</trkpt>
      <trkpt lat="10.57013428" lon="-75.33641946">
<time>2014-05-18T23:27:42Z</time>
</trkpt>
      <trkpt lat="10.56994689" lon="-75.33674014">
<time>2014-05-18T23:27:44Z</time>
</trkpt>
      <trkpt lat="10.56979382" lon="-75.33700609">
<time>2014-05-18T23:27:46Z</time>
</trkpt>
      <trkpt lat="10.56967831" lon="-75.33718157">
<time>2014-05-18T23:27:48Z</time>
</trkpt>
      <trkpt lat="10.56960773" lon="-75.33725727">
<time>2014-05-18T23:27:50Z</time>
</trkpt>
      <trkpt lat="10.56957126" lon="-75.33730090">
<time>2014-05-18T23:27:52Z</time>
</trkpt>
      <trkpt lat="10.56952024" lon="-75.33738124">
<time>2014-05-18T23:27:54Z</time>
</trkpt>
      <trkpt lat="10.56944430" lon="-75.33752227">
<time>2014-05-18T23:27:56Z</time>
</trkpt>
      <trkpt lat="10.56934059" lon="-75.33771324">
<time>2014-05-18T23:27:58Z</time>
</trkpt>
      <trkpt lat="10.56923556" lon="-75.33791816">
<time>2014-05-18T23:28:00Z</time>
</trkpt>
      <trkpt lat="10.56911790" lon="-75.33813143">
<time>2014-05-18T23:28:02Z</time>
</trkpt>
      <trkpt lat="10.56900179" lon="-75.33832538">
<time>2014-05-18T23:28:04Z</time>
</trkpt>
      <trkpt lat="10.56887960" lon="-75.33853030">
<time>2014-05-18T23:28:06Z</time>
</trkpt>
      <trkpt lat="10.56875944" lon="-75.33875322">
<time>2014-05-18T23:28:08Z</time>
</trkpt>
      <trkpt lat="10.56860709" lon="-75.33902109">
<time>2014-05-18T23:28:10Z</time>
</trkpt>
      <trkpt lat="10.56843293" lon="-75.33931279">
<time>2014-05-18T23:28:12Z</time>
</trkpt>
      <trkpt lat="10.56824791" lon="-75.33961499">
<time>2014-05-18T23:28:14Z</time>
</trkpt>
      <trkpt lat="10.56806242" lon="-75.33996606">
<time>2014-05-18T23:28:16Z</time>
</trkpt>
      <trkpt lat="10.56788564" lon="-75.34030998">
<time>2014-05-18T23:28:18Z</time>
</trkpt>
      <trkpt lat="10.56769633" lon="-75.34067225">
<time>2014-05-18T23:28:20Z</time>
</trkpt>
      <trkpt lat="10.56750679" lon="-75.34104824">
<time>2014-05-18T23:28:22Z</time>
</trkpt>
      <trkpt lat="10.56729388" lon="-75.34143150">
<time>2014-05-18T23:28:24Z</time>
</trkpt>
      <trkpt lat="10.56708527" lon="-75.34182262">
<time>2014-05-18T23:28:26Z</time>
</trkpt>
      <trkpt lat="10.56687260" lon="-75.34222376">
<time>2014-05-18T23:28:28Z</time>
</trkpt>
      <trkpt lat="10.56666422" lon="-75.34261394">
<time>2014-05-18T23:28:30Z</time>
</trkpt>
      <trkpt lat="10.56645560" lon="-75.34296060">
<time>2014-05-18T23:28:32Z</time>
</trkpt>
      <trkpt lat="10.56621766" lon="-75.34326029">
<time>2014-05-18T23:28:34Z</time>
</trkpt>
      <trkpt lat="10.56591892" lon="-75.34352756">
<time>2014-05-18T23:28:36Z</time>
</trkpt>
      <trkpt lat="10.56555855" lon="-75.34375906">
<time>2014-05-18T23:28:38Z</time>
</trkpt>
      <trkpt lat="10.56515205" lon="-75.34392893">
<time>2014-05-18T23:28:40Z</time>
</trkpt>
      <trkpt lat="10.56472957" lon="-75.34408009">
<time>2014-05-18T23:28:42Z</time>
</trkpt>
      <trkpt lat="10.56432116" lon="-75.34423923">
<time>2014-05-18T23:28:44Z</time>
</trkpt>
      <trkpt lat="10.56395090" lon="-75.34439790">
<time>2014-05-18T23:28:46Z</time>
</trkpt>
      <trkpt lat="10.56361794" lon="-75.34458005">
<time>2014-05-18T23:28:48Z</time>
</trkpt>
      <trkpt lat="10.56330407" lon="-75.34481597">
<time>2014-05-18T23:28:50Z</time>
</trkpt>
      <trkpt lat="10.56297982" lon="-75.34510565">
<time>2014-05-18T23:28:52Z</time>
</trkpt>
      <trkpt lat="10.56263316" lon="-75.34544277">
<time>2014-05-18T23:28:54Z</time>
</trkpt>
      <trkpt lat="10.56227446" lon="-75.34579098">
<time>2014-05-18T23:28:56Z</time>
</trkpt>
      <trkpt lat="10.56189990" lon="-75.34614205">
<time>2014-05-18T23:28:58Z</time>
</trkpt>
      <trkpt lat="10.56154573" lon="-75.34648931">
<time>2014-05-18T23:29:00Z</time>
</trkpt>
      <trkpt lat="10.56118774" lon="-75.34683275">
<time>2014-05-18T23:29:02Z</time>
</trkpt>
      <trkpt lat="10.56082857" lon="-75.34718406">
<time>2014-05-18T23:29:04Z</time>
</trkpt>
      <trkpt lat="10.56045544" lon="-75.34754062">
<time>2014-05-18T23:29:06Z</time>
</trkpt>
      <trkpt lat="10.56006241" lon="-75.34793174">
<time>2014-05-18T23:29:08Z</time>
</trkpt>
      <trkpt lat="10.55966330" lon="-75.34834015">
<time>2014-05-18T23:29:10Z</time>
</trkpt>
      <trkpt lat="10.55924559" lon="-75.34875023">
<time>2014-05-18T23:29:12Z</time>
</trkpt>
      <trkpt lat="10.55882645" lon="-75.34915626">
<time>2014-05-18T23:29:14Z</time>
</trkpt>
      <trkpt lat="10.55841243" lon="-75.34956062">
<time>2014-05-18T23:29:16Z</time>
</trkpt>
      <trkpt lat="10.55799627" lon="-75.34995091">
<time>2014-05-18T23:29:18Z</time>
</trkpt>
      <trkpt lat="10.55757749" lon="-75.35033357">
<time>2014-05-18T23:29:20Z</time>
</trkpt>
      <trkpt lat="10.55718243" lon="-75.35071111">
<time>2014-05-18T23:29:22Z</time>
</trkpt>
      <trkpt lat="10.55680346" lon="-75.35108697">
<time>2014-05-18T23:29:24Z</time>
</trkpt>
      <trkpt lat="10.55646455" lon="-75.35141110">
<time>2014-05-18T23:29:26Z</time>
</trkpt>
      <trkpt lat="10.55615711" lon="-75.35166359">
<time>2014-05-18T23:29:28Z</time>
</trkpt>
      <trkpt lat="10.55581689" lon="-75.35186327">
<time>2014-05-18T23:29:30Z</time>
</trkpt>
      <trkpt lat="10.55540812" lon="-75.35200274">
<time>2014-05-18T23:29:32Z</time>
</trkpt>
      <trkpt lat="10.55498350" lon="-75.35212100">
<time>2014-05-18T23:29:34Z</time>
</trkpt>
      <trkpt lat="10.55458307" lon="-75.35226393">
<time>2014-05-18T23:29:36Z</time>
</trkpt>
      <trkpt lat="10.55421889" lon="-75.35248995">
<time>2014-05-18T23:29:38Z</time>
</trkpt>
      <trkpt lat="10.55388343" lon="-75.35279715">
<time>2014-05-18T23:29:40Z</time>
</trkpt>
      <trkpt lat="10.55354941" lon="-75.35315299">
<time>2014-05-18T23:29:42Z</time>
</trkpt>
      <trkpt lat="10.55321217" lon="-75.35353696">
<time>2014-05-18T23:29:44Z</time>
</trkpt>
      <trkpt lat="10.55287695" lon="-75.35394490">
<time>2014-05-18T23:29:46Z</time>
</trkpt>
      <trkpt lat="10.55253458" lon="-75.35437155">
<time>2014-05-18T23:29:48Z</time>
</trkpt>
      <trkpt lat="10.55217743" lon="-75.35478795">
<time>2014-05-18T23:29:50Z</time>
</trkpt>
      <trkpt lat="10.55183315" lon="-75.35519862">
<time>2014-05-18T23:29:52Z</time>
</trkpt>
      <trkpt lat="10.55151129" lon="-75.35558558">
<time>2014-05-18T23:29:54Z</time>
</trkpt>
      <trkpt lat="10.55118465" lon="-75.35596347">
<time>2014-05-18T23:29:56Z</time>
</trkpt>
      <trkpt lat="10.55084574" lon="-75.35634494">
<time>2014-05-18T23:29:58Z</time>
</trkpt>
      <trkpt lat="10.55050039" lon="-75.35673666">
<time>2014-05-18T23:30:00Z</time>
</trkpt>
      <trkpt lat="10.55014610" lon="-75.35715246">
<time>2014-05-18T23:30:02Z</time>
</trkpt>
      <trkpt lat="10.54977691" lon="-75.35757208">
<time>2014-05-18T23:30:04Z</time>
</trkpt>
      <trkpt lat="10.54941940" lon="-75.35800910">
<time>2014-05-18T23:30:06Z</time>
</trkpt>
      <trkpt lat="10.54909241" lon="-75.35839307">
<time>2014-05-18T23:30:08Z</time>
</trkpt>
      <trkpt lat="10.54881155" lon="-75.35874593">
<time>2014-05-18T23:30:10Z</time>
</trkpt>
      <trkpt lat="10.54858708" lon="-75.35910022">
<time>2014-05-18T23:30:12Z</time>
</trkpt>
      <trkpt lat="10.54842532" lon="-75.35948861">
<time>2014-05-18T23:30:14Z</time>
</trkpt>
      <trkpt lat="10.54830313" lon="-75.35991931">
<time>2014-05-18T23:30:16Z</time>
</trkpt>
      <trkpt lat="10.54818332" lon="-75.36041272">
<time>2014-05-18T23:30:18Z</time>
</trkpt>
      <trkpt lat="10.54805541" lon="-75.36092579">
<time>2014-05-18T23:30:20Z</time>
</trkpt>
      <trkpt lat="10.54792297" lon="-75.36145091">
<time>2014-05-18T23:30:22Z</time>
</trkpt>
      <trkpt lat="10.54778600" lon="-75.36197674">
<time>2014-05-18T23:30:24Z</time>
</trkpt>
      <trkpt lat="10.54764223" lon="-75.36248899">
<time>2014-05-18T23:30:26Z</time>
</trkpt>
      <trkpt lat="10.54750323" lon="-75.36300611">
<time>2014-05-18T23:30:28Z</time>
</trkpt>
      <trkpt lat="10.54739606" lon="-75.36349881">
<time>2014-05-18T23:30:30Z</time>
</trkpt>
      <trkpt lat="10.54729748" lon="-75.36393559">
<time>2014-05-18T23:30:32Z</time>
</trkpt>
      <trkpt lat="10.54721975" lon="-75.36430812">
<time>2014-05-18T23:30:34Z</time>
</trkpt>
      <trkpt lat="10.54717481" lon="-75.36459649">
<time>2014-05-18T23:30:36Z</time>
</trkpt>
      <trkpt lat="10.54716492" lon="-75.36479175">
<time>2014-05-18T23:30:38Z</time>
</trkpt>
      <trkpt lat="10.54715776" lon="-75.36492872">
<time>2014-05-18T23:30:40Z</time>
</trkpt>
      <trkpt lat="10.54715323" lon="-75.36502659">
<time>2014-05-18T23:30:42Z</time>
</trkpt>
      <trkpt lat="10.54712808" lon="-75.36511862">
<time>2014-05-18T23:30:44Z</time>
</trkpt>
      <trkpt lat="10.54711294" lon="-75.36522973">
<time>2014-05-18T23:30:46Z</time>
</trkpt>
      <trkpt lat="10.54709733" lon="-75.36534560">
<time>2014-05-18T23:30:48Z</time>
</trkpt>
      <trkpt lat="10.54705095" lon="-75.36549246">
<time>2014-05-18T23:30:50Z</time>
</trkpt>
      <trkpt lat="10.54696214" lon="-75.36568677">
<time>2014-05-18T23:30:52Z</time>
</trkpt>
      <trkpt lat="10.54685366" lon="-75.36594462">
<time>2014-05-18T23:30:54Z</time>
</trkpt>
      <trkpt lat="10.54674816" lon="-75.36624324">
<time>2014-05-18T23:30:56Z</time>
</trkpt>
      <trkpt lat="10.54663789" lon="-75.36659598">
<time>2014-05-18T23:30:58Z</time>
</trkpt>
      <trkpt lat="10.54653215" lon="-75.36698925">
<time>2014-05-18T23:31:00Z</time>
</trkpt>
      <trkpt lat="10.54642606" lon="-75.36738145">
<time>2014-05-18T23:31:02Z</time>
</trkpt>
      <trkpt lat="10.54631746" lon="-75.36777365">
<time>2014-05-18T23:31:04Z</time>
</trkpt>
      <trkpt lat="10.54621840" lon="-75.36817622">
<time>2014-05-18T23:31:06Z</time>
</trkpt>
      <trkpt lat="10.54611278" lon="-75.36860240">
<time>2014-05-18T23:31:08Z</time>
</trkpt>
      <trkpt lat="10.54600227" lon="-75.36905897">
<time>2014-05-18T23:31:10Z</time>
</trkpt>
      <trkpt lat="10.54587460" lon="-75.36952412">
<time>2014-05-18T23:31:12Z</time>
</trkpt>
      <trkpt lat="10.54575908" lon="-75.37000513">
<time>2014-05-18T23:31:14Z</time>
</trkpt>
      <trkpt lat="10.54564226" lon="-75.37049174">
<time>2014-05-18T23:31:16Z</time>
</trkpt>
      <trkpt lat="10.54552150" lon="-75.37099373">
<time>2014-05-18T23:31:18Z</time>
</trkpt>
      <trkpt lat="10.54537976" lon="-75.37149632">
<time>2014-05-18T23:31:20Z</time>
</trkpt>
      <trkpt lat="10.54525399" lon="-75.37197900">
<time>2014-05-18T23:31:22Z</time>
</trkpt>
      <trkpt lat="10.54515398" lon="-75.37240946">
<time>2014-05-18T23:31:24Z</time>
</trkpt>
      <trkpt lat="10.54510462" lon="-75.37277377">
<time>2014-05-18T23:31:26Z</time>
</trkpt>
      <trkpt lat="10.54512489" lon="-75.37314892">
<time>2014-05-18T23:31:28Z</time>
</trkpt>
      <trkpt lat="10.54519093" lon="-75.37356663">
<time>2014-05-18T23:31:30Z</time>
</trkpt>
      <trkpt lat="10.54529464" lon="-75.37403345">
<time>2014-05-18T23:31:32Z</time>
</trkpt>
      <trkpt lat="10.54541874" lon="-75.37453866">
<time>2014-05-18T23:31:34Z</time>
</trkpt>
      <trkpt lat="10.54555225" lon="-75.37503493">
<time>2014-05-18T23:31:36Z</time>
</trkpt>
      <trkpt lat="10.54567814" lon="-75.37550509">
<time>2014-05-18T23:31:38Z</time>
</trkpt>
      <trkpt lat="10.54579794" lon="-75.37596738">
<time>2014-05-18T23:31:40Z</time>
</trkpt>
      <trkpt lat="10.54590225" lon="-75.37642109">
<time>2014-05-18T23:31:42Z</time>
</trkpt>
      <trkpt lat="10.54594612" lon="-75.37687123">
<time>2014-05-18T23:31:44Z</time>
</trkpt>
      <trkpt lat="10.54591906" lon="-75.37732327">
<time>2014-05-18T23:31:46Z</time>
</trkpt>
      <trkpt lat="10.54582059" lon="-75.37777460">
<time>2014-05-18T23:31:48Z</time>
</trkpt>
      <trkpt lat="10.54565072" lon="-75.37817955">
<time>2014-05-18T23:31:50Z</time>
</trkpt>
      <trkpt lat="10.54542112" lon="-75.37853956">
<time>2014-05-18T23:31:52Z</time>
</trkpt>
      <trkpt lat="10.54513812" lon="-75.37886810">
<time>2014-05-18T23:31:54Z</time>
</trkpt>
      <trkpt lat="10.54480505" lon="-75.37917531">
<time>2014-05-18T23:31:56Z</time>
</trkpt>
      <trkpt lat="10.54444349" lon="-75.37952697">
<time>2014-05-18T23:31:58Z</time>
</trkpt>
      <trkpt lat="10.54405439" lon="-75.37992573">
<time>2014-05-18T23:32:00Z</time>
</trkpt>
      <trkpt lat="10.54364848" lon="-75.38033462">
<time>2014-05-18T23:32:02Z</time>
</trkpt>
      <trkpt lat="10.54324079" lon="-75.38072991">
<time>2014-05-18T23:32:04Z</time>
</trkpt>
      <trkpt lat="10.54284298" lon="-75.38110650">
<time>2014-05-18T23:32:06Z</time>
</trkpt>
      <trkpt lat="10.54245222" lon="-75.38149214">
<time>2014-05-18T23:32:08Z</time>
</trkpt>
      <trkpt lat="10.54206443" lon="-75.38187194">
<time>2014-05-18T23:32:10Z</time>
</trkpt>
      <trkpt lat="10.54167891" lon="-75.38224709">
<time>2014-05-18T23:32:12Z</time>
</trkpt>
      <trkpt lat="10.54134560" lon="-75.38260972">
<time>2014-05-18T23:32:14Z</time>
</trkpt>
      <trkpt lat="10.54109156" lon="-75.38296175">
<time>2014-05-18T23:32:16Z</time>
</trkpt>
      <trkpt lat="10.54087174" lon="-75.38336992">
<time>2014-05-18T23:32:18Z</time>
</trkpt>
      <trkpt lat="10.54066408" lon="-75.38382590">
<time>2014-05-18T23:32:20Z</time>
</trkpt>
      <trkpt lat="10.54044306" lon="-75.38430822">
<time>2014-05-18T23:32:22Z</time>
</trkpt>
      <trkpt lat="10.54023612" lon="-75.38478899">
<time>2014-05-18T23:32:24Z</time>
</trkpt>
      <trkpt lat="10.54003644" lon="-75.38523638">
<time>2014-05-18T23:32:26Z</time>
</trkpt>
      <trkpt lat="10.53987157" lon="-75.38563359">
<time>2014-05-18T23:32:28Z</time>
</trkpt>
      <trkpt lat="10.53972375" lon="-75.38600147">
<time>2014-05-18T23:32:30Z</time>
</trkpt>
      <trkpt lat="10.53955889" lon="-75.38638008">
<time>2014-05-18T23:32:32Z</time>
</trkpt>
      <trkpt lat="10.53937149" lon="-75.38679326">
<time>2014-05-18T23:32:34Z</time>
</trkpt>
      <trkpt lat="10.53919399" lon="-75.38722694">
<time>2014-05-18T23:32:36Z</time>
</trkpt>
      <trkpt lat="10.53904176" lon="-75.38770139">
<time>2014-05-18T23:32:38Z</time>
</trkpt>
      <trkpt lat="10.53890431" lon="-75.38815498">
<time>2014-05-18T23:32:40Z</time>
</trkpt>
      <trkpt lat="10.53877592" lon="-75.38853621">
<time>2014-05-18T23:32:42Z</time>
</trkpt>
      <trkpt lat="10.53865159" lon="-75.38887358">
<time>2014-05-18T23:32:44Z</time>
</trkpt>
      <trkpt lat="10.53850639" lon="-75.38920033">
<time>2014-05-18T23:32:46Z</time>
</trkpt>
      <trkpt lat="10.53835225" lon="-75.38955641">
<time>2014-05-18T23:32:48Z</time>
</trkpt>
      <trkpt lat="10.53818429" lon="-75.38991594">
<time>2014-05-18T23:32:50Z</time>
</trkpt>
      <trkpt lat="10.53801239" lon="-75.39027989">
<time>2014-05-18T23:32:52Z</time>
</trkpt>
      <trkpt lat="10.53783906" lon="-75.39063179">
<time>2014-05-18T23:32:54Z</time>
</trkpt>
      <trkpt lat="10.53769529" lon="-75.39093125">
<time>2014-05-18T23:32:56Z</time>
</trkpt>
      <trkpt lat="10.53758478" lon="-75.39117539">
<time>2014-05-18T23:32:58Z</time>
</trkpt>
      <trkpt lat="10.53747606" lon="-75.39140761">
<time>2014-05-18T23:33:00Z</time>
</trkpt>
      <trkpt lat="10.53735840" lon="-75.39166427">
<time>2014-05-18T23:33:02Z</time>
</trkpt>
      <trkpt lat="10.53723645" lon="-75.39191628">
<time>2014-05-18T23:33:04Z</time>
</trkpt>
      <trkpt lat="10.53712475" lon="-75.39215076">
<time>2014-05-18T23:33:06Z</time>
</trkpt>
      <trkpt lat="10.53702176" lon="-75.39238298">
<time>2014-05-18T23:33:08Z</time>
</trkpt>
      <trkpt lat="10.53692627" lon="-75.39259756">
<time>2014-05-18T23:33:10Z</time>
</trkpt>
      <trkpt lat="10.53682458" lon="-75.39280748">
<time>2014-05-18T23:33:12Z</time>
</trkpt>
      <trkpt lat="10.53670645" lon="-75.39304805">
<time>2014-05-18T23:33:14Z</time>
</trkpt>
      <trkpt lat="10.53660572" lon="-75.39323592">
<time>2014-05-18T23:33:16Z</time>
</trkpt>
      <trkpt lat="10.53654361" lon="-75.39337730">
<time>2014-05-18T23:33:18Z</time>
</trkpt>
      <trkpt lat="10.53649998" lon="-75.39346433">
<time>2014-05-18T23:33:20Z</time>
</trkpt>
      <trkpt lat="10.53645539" lon="-75.39357090">
<time>2014-05-18T23:33:22Z</time>
</trkpt>
      <trkpt lat="10.53639507" lon="-75.39369440">
<time>2014-05-18T23:33:24Z</time>
</trkpt>
      <trkpt lat="10.53630066" lon="-75.39386141">
<time>2014-05-18T23:33:26Z</time>
</trkpt>
      <trkpt lat="10.53618944" lon="-75.39405549">
<time>2014-05-18T23:33:28Z</time>
</trkpt>
      <trkpt lat="10.53608596" lon="-75.39422631">
<time>2014-05-18T23:33:30Z</time>
</trkpt>
      <trkpt lat="10.53596699" lon="-75.39438760">
<time>2014-05-18T23:33:32Z</time>
</trkpt>
      <trkpt lat="10.53583241" lon="-75.39453530">
<time>2014-05-18T23:33:34Z</time>
</trkpt>
      <trkpt lat="10.53569365" lon="-75.39468873">
<time>2014-05-18T23:33:36Z</time>
</trkpt>
      <trkpt lat="10.53552461" lon="-75.39487398">
<time>2014-05-18T23:33:38Z</time>
</trkpt>
      <trkpt lat="10.53536439" lon="-75.39502859">
<time>2014-05-18T23:33:40Z</time>
</trkpt>
      <trkpt lat="10.53517973" lon="-75.39520180">
<time>2014-05-18T23:33:42Z</time>
</trkpt>
      <trkpt lat="10.53499782" lon="-75.39537907">
<time>2014-05-18T23:33:44Z</time>
</trkpt>
      <trkpt lat="10.53483415" lon="-75.39555216">
<time>2014-05-18T23:33:46Z</time>
</trkpt>
      <trkpt lat="10.53468573" lon="-75.39569581">
<time>2014-05-18T23:33:48Z</time>
</trkpt>
      <trkpt lat="10.53456247" lon="-75.39582348">
<time>2014-05-18T23:33:50Z</time>
</trkpt>
      <trkpt lat="10.53447461" lon="-75.39591610">
<time>2014-05-18T23:33:52Z</time>
</trkpt>
      <trkpt lat="10.53440857" lon="-75.39597857">
<time>2014-05-18T23:33:54Z</time>
</trkpt>
      <trkpt lat="10.53435147" lon="-75.39602423">
<time>2014-05-18T23:33:56Z</time>
</trkpt>
      <trkpt lat="10.53431141" lon="-75.39606714">
<time>2014-05-18T23:33:58Z</time>
</trkpt>
      <trkpt lat="10.53424776" lon="-75.39613366">
<time>2014-05-18T23:34:00Z</time>
</trkpt>
      <trkpt lat="10.53415561" lon="-75.39622724">
<time>2014-05-18T23:34:02Z</time>
</trkpt>
      <trkpt lat="10.53402126" lon="-75.39634728">
<time>2014-05-18T23:34:04Z</time>
</trkpt>
      <trkpt lat="10.53387547" lon="-75.39647174">
<time>2014-05-18T23:34:06Z</time>
</trkpt>
      <trkpt lat="10.53371143" lon="-75.39656138">
<time>2014-05-18T23:34:08Z</time>
</trkpt>
      <trkpt lat="10.53354192" lon="-75.39663243">
<time>2014-05-18T23:34:10Z</time>
</trkpt>
      <trkpt lat="10.53335476" lon="-75.39670932">
<time>2014-05-18T23:34:12Z</time>
</trkpt>
      <trkpt lat="10.53315306" lon="-75.39678407">
<time>2014-05-18T23:34:14Z</time>
</trkpt>
      <trkpt lat="10.53294408" lon="-75.39686489">
<time>2014-05-18T23:34:16Z</time>
</trkpt>
      <trkpt lat="10.53270805" lon="-75.39695406">
<time>2014-05-18T23:34:18Z</time>
</trkpt>
      <trkpt lat="10.53246856" lon="-75.39704347">
<time>2014-05-18T23:34:20Z</time>
</trkpt>
      <trkpt lat="10.53226840" lon="-75.39712632">
<time>2014-05-18T23:34:22Z</time>
</trkpt>
      <trkpt lat="10.53210866" lon="-75.39718866">
<time>2014-05-18T23:34:24Z</time>
</trkpt>
      <trkpt lat="10.53202057" lon="-75.39722645">
<time>2014-05-18T23:34:26Z</time>
</trkpt>
      <trkpt lat="10.53202212" lon="-75.39724290">
<time>2014-05-18T23:34:28Z</time>
</trkpt>
      <trkpt lat="10.53201306" lon="-75.39724612">
<time>2014-05-18T23:34:30Z</time>
</trkpt>
      <trkpt lat="10.53193974" lon="-75.39727414">
<time>2014-05-18T23:34:32Z</time>
</trkpt>
      <trkpt lat="10.53180575" lon="-75.39733064">
<time>2014-05-18T23:34:34Z</time>
</trkpt>
      <trkpt lat="10.53164661" lon="-75.39740789">
<time>2014-05-18T23:34:36Z</time>
</trkpt>
      <trkpt lat="10.53147125" lon="-75.39747655">
<time>2014-05-18T23:34:38Z</time>
</trkpt>
      <trkpt lat="10.53131890" lon="-75.39754879">
<time>2014-05-18T23:34:40Z</time>
</trkpt>
      <trkpt lat="10.53121400" lon="-75.39758945">
<time>2014-05-18T23:34:42Z</time>
</trkpt>
      <trkpt lat="10.53112257" lon="-75.39761829">
<time>2014-05-18T23:34:44Z</time>
</trkpt>
      <trkpt lat="10.53098345" lon="-75.39768481">
<time>2014-05-18T23:34:46Z</time>
</trkpt>
      <trkpt lat="10.53077507" lon="-75.39776814">
<time>2014-05-18T23:34:48Z</time>
</trkpt>
      <trkpt lat="10.53052723" lon="-75.39786839">
<time>2014-05-18T23:34:50Z</time>
</trkpt>
      <trkpt lat="10.53026748" lon="-75.39796174">
<time>2014-05-18T23:34:52Z</time>
</trkpt>
      <trkpt lat="10.53000128" lon="-75.39807272">
<time>2014-05-18T23:34:54Z</time>
</trkpt>
      <trkpt lat="10.52969491" lon="-75.39820194">
<time>2014-05-18T23:34:56Z</time>
</trkpt>
      <trkpt lat="10.52939522" lon="-75.39833581">
<time>2014-05-18T23:34:58Z</time>
</trkpt>
      <trkpt lat="10.52908623" lon="-75.39845645">
<time>2014-05-18T23:35:00Z</time>
</trkpt>
      <trkpt lat="10.52876627" lon="-75.39857161">
<time>2014-05-18T23:35:02Z</time>
</trkpt>
      <trkpt lat="10.52844572" lon="-75.39869630">
<time>2014-05-18T23:35:04Z</time>
</trkpt>
      <trkpt lat="10.52812862" lon="-75.39881527">
<time>2014-05-18T23:35:06Z</time>
</trkpt>
      <trkpt lat="10.52781355" lon="-75.39895678">
<time>2014-05-18T23:35:08Z</time>
</trkpt>
      <trkpt lat="10.52750373" lon="-75.39909625">
<time>2014-05-18T23:35:10Z</time>
</trkpt>
      <trkpt lat="10.52720630" lon="-75.39924610">
<time>2014-05-18T23:35:12Z</time>
</trkpt>
      <trkpt lat="10.52687013" lon="-75.39942098">
<time>2014-05-18T23:35:14Z</time>
</trkpt>
      <trkpt lat="10.52649271" lon="-75.39958811">
<time>2014-05-18T23:35:16Z</time>
</trkpt>
      <trkpt lat="10.52611876" lon="-75.39973974">
<time>2014-05-18T23:35:18Z</time>
</trkpt>
      <trkpt lat="10.52573681" lon="-75.39988947">
<time>2014-05-18T23:35:20Z</time>
</trkpt>
      <trkpt lat="10.52533865" lon="-75.40002513">
<time>2014-05-18T23:35:22Z</time>
</trkpt>
      <trkpt lat="10.52492428" lon="-75.40013266">
<time>2014-05-18T23:35:24Z</time>
</trkpt>
      <trkpt lat="10.52447748" lon="-75.40023494">
<time>2014-05-18T23:35:26Z</time>
</trkpt>
      <trkpt lat="10.52400327" lon="-75.40034115">
<time>2014-05-18T23:35:28Z</time>
</trkpt>
      <trkpt lat="10.52351010" lon="-75.40045059">
<time>2014-05-18T23:35:30Z</time>
</trkpt>
      <trkpt lat="10.52300847" lon="-75.40055823">
<time>2014-05-18T23:35:32Z</time>
</trkpt>
      <trkpt lat="10.52252829" lon="-75.40064764">
<time>2014-05-18T23:35:34Z</time>
</trkpt>
      <trkpt lat="10.52204573" lon="-75.40069377">
<time>2014-05-18T23:35:36Z</time>
</trkpt>
      <trkpt lat="10.52157938" lon="-75.40073359">
<time>2014-05-18T23:35:38Z</time>
</trkpt>
      <trkpt lat="10.52114224" lon="-75.40076113">
<time>2014-05-18T23:35:40Z</time>
</trkpt>
      <trkpt lat="10.52072108" lon="-75.40075624">
<time>2014-05-18T23:35:42Z</time>
</trkpt>
      <trkpt lat="10.52029490" lon="-75.40068889">
<time>2014-05-18T23:35:44Z</time>
</trkpt>
      <trkpt lat="10.51985610" lon="-75.40061009">
<time>2014-05-18T23:35:46Z</time>
</trkpt>
      <trkpt lat="10.51943374" lon="-75.40056443">
<time>2014-05-18T23:35:48Z</time>
</trkpt>
      <trkpt lat="10.51901460" lon="-75.40056491">
<time>2014-05-18T23:35:50Z</time>
</trkpt>
      <trkpt lat="10.51854539" lon="-75.40059090">
<time>2014-05-18T23:35:52Z</time>
</trkpt>
      <trkpt lat="10.51804876" lon="-75.40063047">
<time>2014-05-18T23:35:54Z</time>
</trkpt>
      <trkpt lat="10.51756930" lon="-75.40067589">
<time>2014-05-18T23:35:56Z</time>
</trkpt>
      <trkpt lat="10.51714563" lon="-75.40072381">
<time>2014-05-18T23:35:58Z</time>
</trkpt>
      <trkpt lat="10.51676059" lon="-75.40079880">
<time>2014-05-18T23:36:00Z</time>
</trkpt>
      <trkpt lat="10.51644039" lon="-75.40090990">
<time>2014-05-18T23:36:02Z</time>
</trkpt>
      <trkpt lat="10.51616859" lon="-75.40106475">
<time>2014-05-18T23:36:04Z</time>
</trkpt>
      <trkpt lat="10.51587892" lon="-75.40127361">
<time>2014-05-18T23:36:06Z</time>
</trkpt>
      <trkpt lat="10.51554894" lon="-75.40152228">
<time>2014-05-18T23:36:08Z</time>
</trkpt>
      <trkpt lat="10.51518500" lon="-75.40178967">
<time>2014-05-18T23:36:10Z</time>
</trkpt>
      <trkpt lat="10.51480079" lon="-75.40206933">
<time>2014-05-18T23:36:12Z</time>
</trkpt>
      <trkpt lat="10.51440227" lon="-75.40236175">
<time>2014-05-18T23:36:14Z</time>
</trkpt>
      <trkpt lat="10.51399040" lon="-75.40266311">
<time>2014-05-18T23:36:16Z</time>
</trkpt>
      <trkpt lat="10.51356959" lon="-75.40296757">
<time>2014-05-18T23:36:18Z</time>
</trkpt>
      <trkpt lat="10.51313865" lon="-75.40327442">
<time>2014-05-18T23:36:20Z</time>
</trkpt>
      <trkpt lat="10.51273072" lon="-75.40355146">
<time>2014-05-18T23:36:22Z</time>
</trkpt>
      <trkpt lat="10.51231396" lon="-75.40378761">
<time>2014-05-18T23:36:24Z</time>
</trkpt>
      <trkpt lat="10.51183307" lon="-75.40400028">
<time>2014-05-18T23:36:26Z</time>
</trkpt>
      <trkpt lat="10.51129377" lon="-75.40421164">
<time>2014-05-18T23:36:28Z</time>
</trkpt>
      <trkpt lat="10.51072407" lon="-75.40442646">
<time>2014-05-18T23:36:30Z</time>
</trkpt>
      <trkpt lat="10.51016688" lon="-75.40464962">
<time>2014-05-18T23:36:32Z</time>
</trkpt>
      <trkpt lat="10.50965714" lon="-75.40485561">
<time>2014-05-18T23:36:34Z</time>
</trkpt>
      <trkpt lat="10.50913882" lon="-75.40502214">
<time>2014-05-18T23:36:36Z</time>
</trkpt>
      <trkpt lat="10.50856197" lon="-75.40516090">
<time>2014-05-18T23:36:38Z</time>
</trkpt>
      <trkpt lat="10.50794542" lon="-75.40529323">
<time>2014-05-18T23:36:40Z</time>
</trkpt>
      <trkpt lat="10.50729215" lon="-75.40543211">
<time>2014-05-18T23:36:42Z</time>
</trkpt>
      <trkpt lat="10.50661349" lon="-75.40557206">
<time>2014-05-18T23:36:44Z</time>
</trkpt>
      <trkpt lat="10.50591755" lon="-75.40571666">
<time>2014-05-18T23:36:46Z</time>
</trkpt>
      <trkpt lat="10.50522339" lon="-75.40585661">
<time>2014-05-18T23:36:48Z</time>
</trkpt>
      <trkpt lat="10.50454044" lon="-75.40600991">
<time>2014-05-18T23:36:50Z</time>
</trkpt>
      <trkpt lat="10.50386167" lon="-75.40616572">
<time>2014-05-18T23:36:52Z</time>
</trkpt>
      <trkpt lat="10.50318015" lon="-75.40630198">
<time>2014-05-18T23:36:54Z</time>
</trkpt>
      <trkpt lat="10.50250578" lon="-75.40644777">
<time>2014-05-18T23:36:56Z</time>
</trkpt>
      <trkpt lat="10.50184214" lon="-75.40658998">
<time>2014-05-18T23:36:58Z</time>
</trkpt>
      <trkpt lat="10.50118482" lon="-75.40672266">
<time>2014-05-18T23:37:00Z</time>
</trkpt>
      <trkpt lat="10.50051880" lon="-75.40686417">
<time>2014-05-18T23:37:02Z</time>
</trkpt>
      <trkpt lat="10.49983013" lon="-75.40700805">
<time>2014-05-18T23:37:04Z</time>
</trkpt>
      <trkpt lat="10.49913776" lon="-75.40715444">
<time>2014-05-18T23:37:06Z</time>
</trkpt>
      <trkpt lat="10.49846447" lon="-75.40730274">
<time>2014-05-18T23:37:08Z</time>
</trkpt>
      <trkpt lat="10.49779797" lon="-75.40744555">
<time>2014-05-18T23:37:10Z</time>
</trkpt>
      <trkpt lat="10.49714088" lon="-75.40758622">
<time>2014-05-18T23:37:12Z</time>
</trkpt>
      <trkpt lat="10.49648106" lon="-75.40772080">
<time>2014-05-18T23:37:14Z</time>
</trkpt>
      <trkpt lat="10.49582040" lon="-75.40786040">
<time>2014-05-18T23:37:16Z</time>
</trkpt>
      <trkpt lat="10.49515033" lon="-75.40799165">
<time>2014-05-18T23:37:18Z</time>
</trkpt>
      <trkpt lat="10.49449277" lon="-75.40813839">
<time>2014-05-18T23:37:20Z</time>
</trkpt>
      <trkpt lat="10.49384296" lon="-75.40828192">
<time>2014-05-18T23:37:22Z</time>
</trkpt>
      <trkpt lat="10.49318290" lon="-75.40841472">
<time>2014-05-18T23:37:24Z</time>
</trkpt>
      <trkpt lat="10.49252164" lon="-75.40855396">
<time>2014-05-18T23:37:26Z</time>
</trkpt>
      <trkpt lat="10.49186015" lon="-75.40869510">
<time>2014-05-18T23:37:28Z</time>
</trkpt>
      <trkpt lat="10.49118090" lon="-75.40883565">
<time>2014-05-18T23:37:30Z</time>
</trkpt>
      <trkpt lat="10.49050689" lon="-75.40897894">
<time>2014-05-18T23:37:32Z</time>
</trkpt>
      <trkpt lat="10.48982882" lon="-75.40913773">
<time>2014-05-18T23:37:34Z</time>
</trkpt>
      <trkpt lat="10.48916876" lon="-75.40928113">
<time>2014-05-18T23:37:36Z</time>
</trkpt>
      <trkpt lat="10.48851812" lon="-75.40942061">
<time>2014-05-18T23:37:38Z</time>
</trkpt>
      <trkpt lat="10.48788548" lon="-75.40956116">
<time>2014-05-18T23:37:40Z</time>
</trkpt>
      <trkpt lat="10.48726511" lon="-75.40968966">
<time>2014-05-18T23:37:42Z</time>
</trkpt>
      <trkpt lat="10.48671412" lon="-75.40981996">
<time>2014-05-18T23:37:44Z</time>
</trkpt>
      <trkpt lat="10.48626363" lon="-75.40997076">
<time>2014-05-18T23:37:46Z</time>
</trkpt>
      <trkpt lat="10.48581564" lon="-75.41015732">
<time>2014-05-18T23:37:48Z</time>
</trkpt>
      <trkpt lat="10.48537648" lon="-75.41031229">
<time>2014-05-18T23:37:50Z</time>
</trkpt>
      <trkpt lat="10.48489428" lon="-75.41043699">
<time>2014-05-18T23:37:52Z</time>
</trkpt>
      <trkpt lat="10.48440278" lon="-75.41054022">
<time>2014-05-18T23:37:54Z</time>
</trkpt>
      <trkpt lat="10.48396564" lon="-75.41062856">
<time>2014-05-18T23:37:56Z</time>
</trkpt>
      <trkpt lat="10.48356998" lon="-75.41070139">
<time>2014-05-18T23:37:58Z</time>
</trkpt>
      <trkpt lat="10.48315465" lon="-75.41073215">
<time>2014-05-18T23:38:00Z</time>
</trkpt>
      <trkpt lat="10.48269773" lon="-75.41074324">
<time>2014-05-18T23:38:02Z</time>
</trkpt>
      <trkpt lat="10.48221624" lon="-75.41079307">
<time>2014-05-18T23:38:04Z</time>
</trkpt>
      <trkpt lat="10.48170698" lon="-75.41087663">
<time>2014-05-18T23:38:06Z</time>
</trkpt>
      <trkpt lat="10.48117411" lon="-75.41097999">
<time>2014-05-18T23:38:08Z</time>
</trkpt>
      <trkpt lat="10.48061740" lon="-75.41109741">
<time>2014-05-18T23:38:10Z</time>
</trkpt>
      <trkpt lat="10.48003697" lon="-75.41121912">
<time>2014-05-18T23:38:12Z</time>
</trkpt>
      <trkpt lat="10.47943175" lon="-75.41134846">
<time>2014-05-18T23:38:14Z</time>
</trkpt>
      <trkpt lat="10.47881210" lon="-75.41149366">
<time>2014-05-18T23:38:16Z</time>
</trkpt>
      <trkpt lat="10.47818244" lon="-75.41162443">
<time>2014-05-18T23:38:18Z</time>
</trkpt>
      <trkpt lat="10.47754490" lon="-75.41174757">
<time>2014-05-18T23:38:20Z</time>
</trkpt>
      <trkpt lat="10.47690189" lon="-75.41186905">
<time>2014-05-18T23:38:22Z</time>
</trkpt>
      <trkpt lat="10.47625756" lon="-75.41201329">
<time>2014-05-18T23:38:24Z</time>
</trkpt>
      <trkpt lat="10.47562444" lon="-75.41215706">
<time>2014-05-18T23:38:26Z</time>
</trkpt>
      <trkpt lat="10.47499609" lon="-75.41229391">
<time>2014-05-18T23:38:28Z</time>
</trkpt>
      <trkpt lat="10.47437465" lon="-75.41243243">
<time>2014-05-18T23:38:30Z</time>
</trkpt>
      <trkpt lat="10.47376597" lon="-75.41256845">
<time>2014-05-18T23:38:32Z</time>
</trkpt>
      <trkpt lat="10.47318506" lon="-75.41269588">
<time>2014-05-18T23:38:34Z</time>
</trkpt>
      <trkpt lat="10.47268307" lon="-75.41277695">
<time>2014-05-18T23:38:36Z</time>
</trkpt>
      <trkpt lat="10.47222567" lon="-75.41279829">
<time>2014-05-18T23:38:38Z</time>
</trkpt>
      <trkpt lat="10.47173738" lon="-75.41276729">
<time>2014-05-18T23:38:40Z</time>
</trkpt>
      <trkpt lat="10.47120512" lon="-75.41269028">
<time>2014-05-18T23:38:42Z</time>
</trkpt>
      <trkpt lat="10.47064042" lon="-75.41259623">
<time>2014-05-18T23:38:44Z</time>
</trkpt>
      <trkpt lat="10.47006130" lon="-75.41250730">
<time>2014-05-18T23:38:46Z</time>
</trkpt>
      <trkpt lat="10.46946430" lon="-75.41240549">
<time>2014-05-18T23:38:48Z</time>
</trkpt>
      <trkpt lat="10.46885908" lon="-75.41230416">
<time>2014-05-18T23:38:50Z</time>
</trkpt>
      <trkpt lat="10.46824431" lon="-75.41220582">
<time>2014-05-18T23:38:52Z</time>
</trkpt>
      <trkpt lat="10.46763206" lon="-75.41209626">
<time>2014-05-18T23:38:54Z</time>
</trkpt>
      <trkpt lat="10.46704614" lon="-75.41198683">
<time>2014-05-18T23:38:56Z</time>
</trkpt>
      <trkpt lat="10.46646178" lon="-75.41188860">
<time>2014-05-18T23:38:58Z</time>
</trkpt>
      <trkpt lat="10.46584845" lon="-75.41179478">
<time>2014-05-18T23:39:00Z</time>
</trkpt>
      <trkpt lat="10.46521008" lon="-75.41169083">
<time>2014-05-18T23:39:02Z</time>
</trkpt>
      <trkpt lat="10.46457207" lon="-75.41158974">
<time>2014-05-18T23:39:04Z</time>
</trkpt>
      <trkpt lat="10.46395445" lon="-75.41149890">
<time>2014-05-18T23:39:06Z</time>
</trkpt>
      <trkpt lat="10.46333325" lon="-75.41141045">
<time>2014-05-18T23:39:08Z</time>
</trkpt>
      <trkpt lat="10.46269679" lon="-75.41132307">
<time>2014-05-18T23:39:10Z</time>
</trkpt>
      <trkpt lat="10.46204793" lon="-75.41124165">
<time>2014-05-18T23:39:12Z</time>
</trkpt>
      <trkpt lat="10.46140230" lon="-75.41115642">
<time>2014-05-18T23:39:14Z</time>
</trkpt>
      <trkpt lat="10.46076906" lon="-75.41107059">
<time>2014-05-18T23:39:16Z</time>
</trkpt>
      <trkpt lat="10.46019208" lon="-75.41100824">
<time>2014-05-18T23:39:18Z</time>
</trkpt>
      <trkpt lat="10.45969665" lon="-75.41096640">
<time>2014-05-18T23:39:20Z</time>
</trkpt>
      <trkpt lat="10.45926416" lon="-75.41095638">
<time>2014-05-18T23:39:22Z</time>
</trkpt>
      <trkpt lat="10.45882607" lon="-75.41103840">
<time>2014-05-18T23:39:24Z</time>
</trkpt>
      <trkpt lat="10.45835924" lon="-75.41117358">
<time>2014-05-18T23:39:26Z</time>
</trkpt>
      <trkpt lat="10.45786726" lon="-75.41134191">
<time>2014-05-18T23:39:28Z</time>
</trkpt>
      <trkpt lat="10.45737314" lon="-75.41149783">
<time>2014-05-18T23:39:30Z</time>
</trkpt>
      <trkpt lat="10.45687544" lon="-75.41163325">
<time>2014-05-18T23:39:32Z</time>
</trkpt>
      <trkpt lat="10.45638180" lon="-75.41177130">
<time>2014-05-18T23:39:34Z</time>
</trkpt>
      <trkpt lat="10.45586848" lon="-75.41190529">
<time>2014-05-18T23:39:36Z</time>
</trkpt>
      <trkpt lat="10.45536327" lon="-75.41203547">
<time>2014-05-18T23:39:38Z</time>
</trkpt>
      <trkpt lat="10.45492375" lon="-75.41217744">
<time>2014-05-18T23:39:40Z</time>
</trkpt>
      <trkpt lat="10.45449328" lon="-75.41235530">
<time>2014-05-18T23:39:42Z</time>
</trkpt>
      <trkpt lat="10.45404565" lon="-75.41256726">
<time>2014-05-18T23:39:44Z</time>
</trkpt>
      <trkpt lat="10.45361543" lon="-75.41277528">
<time>2014-05-18T23:39:46Z</time>
</trkpt>
      <trkpt lat="10.45318699" lon="-75.41298509">
<time>2014-05-18T23:39:48Z</time>
</trkpt>
      <trkpt lat="10.45272696" lon="-75.41320229">
<time>2014-05-18T23:39:50Z</time>
</trkpt>
      <trkpt lat="10.45223999" lon="-75.41341412">
<time>2014-05-18T23:39:52Z</time>
</trkpt>
      <trkpt lat="10.45177162" lon="-75.41360879">
<time>2014-05-18T23:39:54Z</time>
</trkpt>
      <trkpt lat="10.45133710" lon="-75.41377115">
<time>2014-05-18T23:39:56Z</time>
</trkpt>
      <trkpt lat="10.45089614" lon="-75.41385782">
<time>2014-05-18T23:39:58Z</time>
</trkpt>
      <trkpt lat="10.45042598" lon="-75.41388476">
<time>2014-05-18T23:40:00Z</time>
</trkpt>
      <trkpt lat="10.44990897" lon="-75.41388106">
<time>2014-05-18T23:40:02Z</time>
</trkpt>
      <trkpt lat="10.44941163" lon="-75.41389608">
<time>2014-05-18T23:40:04Z</time>
</trkpt>
      <trkpt lat="10.44894457" lon="-75.41393459">
<time>2014-05-18T23:40:06Z</time>
</trkpt>
      <trkpt lat="10.44847894" lon="-75.41402090">
<time>2014-05-18T23:40:08Z</time>
</trkpt>
      <trkpt lat="10.44799626" lon="-75.41415048">
<time>2014-05-18T23:40:10Z</time>
</trkpt>
      <trkpt lat="10.44749475" lon="-75.41430032">
<time>2014-05-18T23:40:12Z</time>
</trkpt>
      <trkpt lat="10.44697416" lon="-75.41445327">
<time>2014-05-18T23:40:14Z</time>
</trkpt>
      <trkpt lat="10.44644797" lon="-75.41461539">
<time>2014-05-18T23:40:16Z</time>
</trkpt>
      <trkpt lat="10.44594765" lon="-75.41478765">
<time>2014-05-18T23:40:18Z</time>
</trkpt>
      <trkpt lat="10.44549513" lon="-75.41495681">
<time>2014-05-18T23:40:20Z</time>
</trkpt>
      <trkpt lat="10.44505608" lon="-75.41508961">
<time>2014-05-18T23:40:22Z</time>
</trkpt>
      <trkpt lat="10.44460440" lon="-75.41520631">
<time>2014-05-18T23:40:24Z</time>
</trkpt>
      <trkpt lat="10.44413626" lon="-75.41530108">
<time>2014-05-18T23:40:26Z</time>
</trkpt>
      <trkpt lat="10.44369209" lon="-75.41538024">
<time>2014-05-18T23:40:28Z</time>
</trkpt>
      <trkpt lat="10.44325006" lon="-75.41540539">
<time>2014-05-18T23:40:30Z</time>
</trkpt>
      <trkpt lat="10.44280112" lon="-75.41539133">
<time>2014-05-18T23:40:32Z</time>
</trkpt>
      <trkpt lat="10.44236207" lon="-75.41539872">
<time>2014-05-18T23:40:34Z</time>
</trkpt>
      <trkpt lat="10.44189763" lon="-75.41546249">
<time>2014-05-18T23:40:36Z</time>
</trkpt>
      <trkpt lat="10.44137800" lon="-75.41556299">
<time>2014-05-18T23:40:38Z</time>
</trkpt>
      <trkpt lat="10.44082022" lon="-75.41568327">
<time>2014-05-18T23:40:40Z</time>
</trkpt>
      <trkpt lat="10.44027174" lon="-75.41580176">
<time>2014-05-18T23:40:42Z</time>
</trkpt>
      <trkpt lat="10.43978345" lon="-75.41590393">
<time>2014-05-18T23:40:44Z</time>
</trkpt>
      <trkpt lat="10.43936658" lon="-75.41602409">
<time>2014-05-18T23:40:46Z</time>
</trkpt>
      <trkpt lat="10.43898141" lon="-75.41618192">
<time>2014-05-18T23:40:48Z</time>
</trkpt>
      <trkpt lat="10.43858862" lon="-75.41638911">
<time>2014-05-18T23:40:50Z</time>
</trkpt>
      <trkpt lat="10.43817639" lon="-75.41665196">
<time>2014-05-18T23:40:52Z</time>
</trkpt>
      <trkpt lat="10.43774676" lon="-75.41695189">
<time>2014-05-18T23:40:54Z</time>
</trkpt>
      <trkpt lat="10.43729627" lon="-75.41727233">
<time>2014-05-18T23:40:56Z</time>
</trkpt>
      <trkpt lat="10.43683064" lon="-75.41759312">
<time>2014-05-18T23:40:58Z</time>
</trkpt>
      <trkpt lat="10.43639445" lon="-75.41787422">
<time>2014-05-18T23:41:00Z</time>
</trkpt>
      <trkpt lat="10.43595612" lon="-75.41811931">
<time>2014-05-18T23:41:02Z</time>
</trkpt>
      <trkpt lat="10.43549764" lon="-75.41836107">
<time>2014-05-18T23:41:04Z</time>
</trkpt>
      <trkpt lat="10.43501890" lon="-75.41861141">
<time>2014-05-18T23:41:06Z</time>
</trkpt>
      <trkpt lat="10.43452394" lon="-75.41887724">
<time>2014-05-18T23:41:08Z</time>
</trkpt>
      <trkpt lat="10.43403482" lon="-75.41916943">
<time>2014-05-18T23:41:10Z</time>
</trkpt>
      <trkpt lat="10.43356156" lon="-75.41946840">
<time>2014-05-18T23:41:12Z</time>
</trkpt>
      <trkpt lat="10.43311346" lon="-75.41975296">
<time>2014-05-18T23:41:14Z</time>
</trkpt>
      <trkpt lat="10.43267524" lon="-75.42003214">
<time>2014-05-18T23:41:16Z</time>
</trkpt>
      <trkpt lat="10.43220842" lon="-75.42031932">
<time>2014-05-18T23:41:18Z</time>
</trkpt>
      <trkpt lat="10.43174124" lon="-75.42061865">
<time>2014-05-18T23:41:20Z</time>
</trkpt>
      <trkpt lat="10.43130147" lon="-75.42088914">
<time>2014-05-18T23:41:22Z</time>
</trkpt>
      <trkpt lat="10.43087649" lon="-75.42109990">
<time>2014-05-18T23:41:24Z</time>
</trkpt>
      <trkpt lat="10.43044746" lon="-75.42125165">
<time>2014-05-18T23:41:26Z</time>
</trkpt>
      <trkpt lat="10.43001330" lon="-75.42137790">
<time>2014-05-18T23:41:28Z</time>
</trkpt>
      <trkpt lat="10.42961979" lon="-75.42152607">
<time>2014-05-18T23:41:30Z</time>
</trkpt>
      <trkpt lat="10.42923260" lon="-75.42172062">
<time>2014-05-18T23:41:32Z</time>
</trkpt>
      <trkpt lat="10.42882144" lon="-75.42195857">
<time>2014-05-18T23:41:34Z</time>
</trkpt>
      <trkpt lat="10.42836845" lon="-75.42223012">
<time>2014-05-18T23:41:36Z</time>
</trkpt>
      <trkpt lat="10.42789459" lon="-75.42250526">
<time>2014-05-18T23:41:38Z</time>
</trkpt>
      <trkpt lat="10.42743778" lon="-75.42277539">
<time>2014-05-18T23:41:40Z</time>
</trkpt>
      <trkpt lat="10.42703831" lon="-75.42303681">
<time>2014-05-18T23:41:42Z</time>
</trkpt>
      <trkpt lat="10.42665827" lon="-75.42329597">
<time>2014-05-18T23:41:44Z</time>
</trkpt>
      <trkpt lat="10.42629695" lon="-75.42358911">
<time>2014-05-18T23:41:46Z</time>
</trkpt>
      <trkpt lat="10.42594838" lon="-75.42391539">
<time>2014-05-18T23:41:48Z</time>
</trkpt>
      <trkpt lat="10.42562413" lon="-75.42429197">
<time>2014-05-18T23:41:50Z</time>
</trkpt>
      <trkpt lat="10.42531490" lon="-75.42470610">
<time>2014-05-18T23:41:52Z</time>
</trkpt>
      <trkpt lat="10.42500329" lon="-75.42517197">
<time>2014-05-18T23:41:54Z</time>
</trkpt>
      <trkpt lat="10.42469478" lon="-75.42564332">
<time>2014-05-18T23:41:56Z</time>
</trkpt>
      <trkpt lat="10.42441356" lon="-75.42607760">
<time>2014-05-18T23:41:58Z</time>
</trkpt>
      <trkpt lat="10.42418265" lon="-75.42646575">
<time>2014-05-18T23:42:00Z</time>
</trkpt>
      <trkpt lat="10.42400873" lon="-75.42687166">
<time>2014-05-18T23:42:02Z</time>
</trkpt>
      <trkpt lat="10.42386413" lon="-75.42729998">
<time>2014-05-18T23:42:04Z</time>
</trkpt>
      <trkpt lat="10.42373359" lon="-75.42766762">
<time>2014-05-18T23:42:06Z</time>
</trkpt>
      <trkpt lat="10.42359340" lon="-75.42798960">
<time>2014-05-18T23:42:08Z</time>
</trkpt>
      <trkpt lat="10.42340410" lon="-75.42832088">
<time>2014-05-18T23:42:10Z</time>
</trkpt>
      <trkpt lat="10.42318058" lon="-75.42866600">
<time>2014-05-18T23:42:12Z</time>
</trkpt>
      <trkpt lat="10.42294014" lon="-75.42901862">
<time>2014-05-18T23:42:14Z</time>
</trkpt>
      <trkpt lat="10.42270660" lon="-75.42934692">
<time>2014-05-18T23:42:16Z</time>
</trkpt>
      <trkpt lat="10.42243493" lon="-75.42964673">
<time>2014-05-18T23:42:18Z</time>
</trkpt>
      <trkpt lat="10.42212248" lon="-75.42993116">
<time>2014-05-18T23:42:20Z</time>
</trkpt>
      <trkpt lat="10.42181075" lon="-75.43021655">
<time>2014-05-18T23:42:22Z</time>
</trkpt>
      <trkpt lat="10.42152691" lon="-75.43051922">
<time>2014-05-18T23:42:24Z</time>
</trkpt>
      <trkpt lat="10.42127073" lon="-75.43087327">
<time>2014-05-18T23:42:26Z</time>
</trkpt>
      <trkpt lat="10.42100298" lon="-75.43126190">
<time>2014-05-18T23:42:28Z</time>
</trkpt>
      <trkpt lat="10.42072630" lon="-75.43167591">
<time>2014-05-18T23:42:30Z</time>
</trkpt>
      <trkpt lat="10.42043257" lon="-75.43212295">
<time>2014-05-18T23:42:32Z</time>
</trkpt>
      <trkpt lat="10.42014611" lon="-75.43259275">
<time>2014-05-18T23:42:34Z</time>
</trkpt>
      <trkpt lat="10.41989481" lon="-75.43303359">
<time>2014-05-18T23:42:36Z</time>
</trkpt>
      <trkpt lat="10.41965199" lon="-75.43342710">
<time>2014-05-18T23:42:38Z</time>
</trkpt>
      <trkpt lat="10.41937613" lon="-75.43379962">
<time>2014-05-18T23:42:40Z</time>
</trkpt>
      <trkpt lat="10.41905296" lon="-75.43418312">
<time>2014-05-18T23:42:42Z</time>
</trkpt>
      <trkpt lat="10.41870666" lon="-75.43459749">
<time>2014-05-18T23:42:44Z</time>
</trkpt>
      <trkpt lat="10.41837490" lon="-75.43499732">
<time>2014-05-18T23:42:46Z</time>
</trkpt>
      <trkpt lat="10.41807747" lon="-75.43538356">
<time>2014-05-18T23:42:48Z</time>
</trkpt>
      <trkpt lat="10.41780031" lon="-75.43578780">
<time>2014-05-18T23:42:50Z</time>
</trkpt>
      <trkpt lat="10.41752529" lon="-75.43621624">
<time>2014-05-18T23:42:52Z</time>
</trkpt>
      <trkpt lat="10.41724312" lon="-75.43666577">
<time>2014-05-18T23:42:54Z</time>
</trkpt>
      <trkpt lat="10.41696596" lon="-75.43712866">
<time>2014-05-18T23:42:56Z</time>
</trkpt>
      <trkpt lat="10.41669905" lon="-75.43759108">
<time>2014-05-18T23:42:58Z</time>
</trkpt>
      <trkpt lat="10.41645157" lon="-75.43800223">
<time>2014-05-18T23:43:00Z</time>
</trkpt>
      <trkpt lat="10.41624761" lon="-75.43834281">
<time>2014-05-18T23:43:02Z</time>
</trkpt>
      <trkpt lat="10.41606510" lon="-75.43864882">
<time>2014-05-18T23:43:04Z</time>
</trkpt>
      <trkpt lat="10.41588306" lon="-75.43895876">
<time>2014-05-18T23:43:06Z</time>
</trkpt>
      <trkpt lat="10.41567743" lon="-75.43927860">
<time>2014-05-18T23:43:08Z</time>
</trkpt>
      <trkpt lat="10.41540074" lon="-75.43957293">
<time>2014-05-18T23:43:10Z</time>
</trkpt>
      <trkpt lat="10.41508949" lon="-75.43985581">
<time>2014-05-18T23:43:12Z</time>
</trkpt>
      <trkpt lat="10.41473794" lon="-75.44016516">
<time>2014-05-18T23:43:14Z</time>
</trkpt>
      <trkpt lat="10.41436207" lon="-75.44049382">
<time>2014-05-18T23:43:16Z</time>
</trkpt>
      <trkpt lat="10.41398239" lon="-75.44082475">
<time>2014-05-18T23:43:18Z</time>
</trkpt>
      <trkpt lat="10.41364980" lon="-75.44112515">
<time>2014-05-18T23:43:20Z</time>
</trkpt>
      <trkpt lat="10.41336405" lon="-75.44138324">
<time>2014-05-18T23:43:22Z</time>
</trkpt>
      <trkpt lat="10.41312683" lon="-75.44163358">
<time>2014-05-18T23:43:24Z</time>
</trkpt>
      <trkpt lat="10.41290212" lon="-75.44193447">
<time>2014-05-18T23:43:26Z</time>
</trkpt>
      <trkpt lat="10.41269076" lon="-75.44229007">
<time>2014-05-18T23:43:28Z</time>
</trkpt>
      <trkpt lat="10.41248059" lon="-75.44265747">
<time>2014-05-18T23:43:30Z</time>
</trkpt>
      <trkpt lat="10.41226161" lon="-75.44304049">
<time>2014-05-18T23:43:32Z</time>
</trkpt>
      <trkpt lat="10.41204476" lon="-75.44342196">
<time>2014-05-18T23:43:34Z</time>
</trkpt>
      <trkpt lat="10.41181576" lon="-75.44377899">
<time>2014-05-18T23:43:36Z</time>
</trkpt>
      <trkpt lat="10.41158915" lon="-75.44410789">
<time>2014-05-18T23:43:38Z</time>
</trkpt>
      <trkpt lat="10.41136599" lon="-75.44441509">
<time>2014-05-18T23:43:40Z</time>
</trkpt>
      <trkpt lat="10.41116607" lon="-75.44469059">
<time>2014-05-18T23:43:42Z</time>
</trkpt>
      <trkpt lat="10.41098559" lon="-75.44494116">
<time>2014-05-18T23:43:44Z</time>
</trkpt>
      <trkpt lat="10.41080546" lon="-75.44517422">
<time>2014-05-18T23:43:46Z</time>
</trkpt>
      <trkpt lat="10.41059494" lon="-75.44542325">
<time>2014-05-18T23:43:48Z</time>
</trkpt>
      <trkpt lat="10.41034091" lon="-75.44570863">
<time>2014-05-18T23:43:50Z</time>
</trkpt>
      <trkpt lat="10.41008377" lon="-75.44598532">
<time>2014-05-18T23:43:52Z</time>
</trkpt>
      <trkpt lat="10.40980327" lon="-75.44626725">
<time>2014-05-18T23:43:54Z</time>
</trkpt>
      <trkpt lat="10.40956283" lon="-75.44650960">
<time>2014-05-18T23:43:56Z</time>
</trkpt>
      <trkpt lat="10.40937114" lon="-75.44670916">
<time>2014-05-18T23:43:58Z</time>
</trkpt>
      <trkpt lat="10.40916240" lon="-75.44690180">
<time>2014-05-18T23:44:00Z</time>
</trkpt>
      <trkpt lat="10.40891850" lon="-75.44714022">
<time>2014-05-18T23:44:02Z</time>
</trkpt>
      <trkpt lat="10.40864074" lon="-75.44739974">
<time>2014-05-18T23:44:04Z</time>
</trkpt>
      <trkpt lat="10.40836215" lon="-75.44768262">
<time>2014-05-18T23:44:06Z</time>
</trkpt>
      <trkpt lat="10.40809524" lon="-75.44795442">
<time>2014-05-18T23:44:08Z</time>
</trkpt>
      <trkpt lat="10.40787232" lon="-75.44820774">
<time>2014-05-18T23:44:10Z</time>
</trkpt>
      <trkpt lat="10.40770161" lon="-75.44847095">
<time>2014-05-18T23:44:12Z</time>
</trkpt>
      <trkpt lat="10.40758729" lon="-75.44873822">
<time>2014-05-18T23:44:14Z</time>
</trkpt>
      <trkpt lat="10.40753508" lon="-75.44898760">
<time>2014-05-18T23:44:16Z</time>
</trkpt>
      <trkpt lat="10.40751362" lon="-75.44924462">
<time>2014-05-18T23:44:18Z</time>
</trkpt>
      <trkpt lat="10.40749228" lon="-75.44948411">
<time>2014-05-18T23:44:20Z</time>
</trkpt>
      <trkpt lat="10.40743876" lon="-75.44973314">
<time>2014-05-18T23:44:22Z</time>
</trkpt>
      <trkpt lat="10.40737748" lon="-75.44999957">
<time>2014-05-18T23:44:24Z</time>
</trkpt>
      <trkpt lat="10.40731990" lon="-75.45027113">
<time>2014-05-18T23:44:26Z</time>
</trkpt>
      <trkpt lat="10.40724826" lon="-75.45053363">
<time>2014-05-18T23:44:28Z</time>
</trkpt>
      <trkpt lat="10.40714610" lon="-75.45078325">
<time>2014-05-18T23:44:30Z</time>
</trkpt>
      <trkpt lat="10.40703511" lon="-75.45101357">
<time>2014-05-18T23:44:32Z</time>
</trkpt>
      <trkpt lat="10.40693545" lon="-75.45121622">
<time>2014-05-18T23:44:34Z</time>
</trkpt>
      <trkpt lat="10.40682244" lon="-75.45142293">
<time>2014-05-18T23:44:36Z</time>
</trkpt>
      <trkpt lat="10.40670025" lon="-75.45164073">
<time>2014-05-18T23:44:38Z</time>
</trkpt>
      <trkpt lat="10.40659750" lon="-75.45185149">
<time>2014-05-18T23:44:40Z</time>
</trkpt>
      <trkpt lat="10.40647066" lon="-75.45211649">
<time>2014-05-18T23:44:42Z</time>
</trkpt>
      <trkpt lat="10.40633023" lon="-75.45241392">
<time>2014-05-18T23:44:44Z</time>
</trkpt>
      <trkpt lat="10.40616179" lon="-75.45273030">
<time>2014-05-18T23:44:46Z</time>
</trkpt>
      <trkpt lat="10.40599215" lon="-75.45305490">
<time>2014-05-18T23:44:48Z</time>
</trkpt>
      <trkpt lat="10.40581846" lon="-75.45337605">
<time>2014-05-18T23:44:50Z</time>
</trkpt>
      <trkpt lat="10.40567076" lon="-75.45366478">
<time>2014-05-18T23:44:52Z</time>
</trkpt>
      <trkpt lat="10.40554214" lon="-75.45391059">
<time>2014-05-18T23:44:54Z</time>
</trkpt>
      <trkpt lat="10.40541506" lon="-75.45415664">
<time>2014-05-18T23:44:56Z</time>
</trkpt>
      <trkpt lat="10.40528214" lon="-75.45441711">
<time>2014-05-18T23:44:58Z</time>
</trkpt>
      <trkpt lat="10.40514779" lon="-75.45468497">
<time>2014-05-18T23:45:00Z</time>
</trkpt>
      <trkpt lat="10.40500462" lon="-75.45494878">
<time>2014-05-18T23:45:02Z</time>
</trkpt>
      <trkpt lat="10.40486991" lon="-75.45521939">
<time>2014-05-18T23:45:04Z</time>
</trkpt>
      <trkpt lat="10.40474212" lon="-75.45546341">
<time>2014-05-18T23:45:06Z</time>
</trkpt>
      <trkpt lat="10.40461528" lon="-75.45569861">
<time>2014-05-18T23:45:08Z</time>
</trkpt>
      <trkpt lat="10.40447628" lon="-75.45595682">
<time>2014-05-18T23:45:10Z</time>
</trkpt>
      <trkpt lat="10.40433383" lon="-75.45622849">
<time>2014-05-18T23:45:12Z</time>
</trkpt>
      <trkpt lat="10.40420830" lon="-75.45648277">
<time>2014-05-18T23:45:14Z</time>
</trkpt>
      <trkpt lat="10.40409541" lon="-75.45672214">
<time>2014-05-18T23:45:16Z</time>
</trkpt>
      <trkpt lat="10.40400100" lon="-75.45693481">
<time>2014-05-18T23:45:18Z</time>
</trkpt>
      <trkpt lat="10.40392816" lon="-75.45711458">
<time>2014-05-18T23:45:20Z</time>
</trkpt>
      <trkpt lat="10.40386438" lon="-75.45726943">
<time>2014-05-18T23:45:22Z</time>
</trkpt>
      <trkpt lat="10.40379465" lon="-75.45740306">
<time>2014-05-18T23:45:24Z</time>
</trkpt>
      <trkpt lat="10.40372455" lon="-75.45753276">
<time>2014-05-18T23:45:26Z</time>
</trkpt>
      <trkpt lat="10.40363562" lon="-75.45770597">
<time>2014-05-18T23:45:28Z</time>
</trkpt>
      <trkpt lat="10.40353811" lon="-75.45789444">
<time>2014-05-18T23:45:30Z</time>
</trkpt>
      <trkpt lat="10.40344965" lon="-75.45808494">
<time>2014-05-18T23:45:32Z</time>
</trkpt>
      <trkpt lat="10.40336645" lon="-75.45827091">
<time>2014-05-18T23:45:34Z</time>
</trkpt>
      <trkpt lat="10.40326357" lon="-75.45843947">
<time>2014-05-18T23:45:36Z</time>
</trkpt>
      <trkpt lat="10.40315759" lon="-75.45862722">
<time>2014-05-18T23:45:38Z</time>
</trkpt>
      <trkpt lat="10.40305030" lon="-75.45886528">
<time>2014-05-18T23:45:40Z</time>
</trkpt>
      <trkpt lat="10.40295112" lon="-75.45908856">
<time>2014-05-18T23:45:42Z</time>
</trkpt>
      <trkpt lat="10.40284264" lon="-75.45929158">
<time>2014-05-18T23:45:44Z</time>
</trkpt>
      <trkpt lat="10.40275609" lon="-75.45946729">
<time>2014-05-18T23:45:46Z</time>
</trkpt>
      <trkpt lat="10.40269792" lon="-75.45959616">
<time>2014-05-18T23:45:48Z</time>
</trkpt>
      <trkpt lat="10.40265000" lon="-75.45967412">
<time>2014-05-18T23:45:50Z</time>
</trkpt>
      <trkpt lat="10.40260947" lon="-75.45973182">
<time>2014-05-18T23:45:52Z</time>
</trkpt>
      <trkpt lat="10.40255976" lon="-75.45980358">
<time>2014-05-18T23:45:54Z</time>
</trkpt>
      <trkpt lat="10.40251338" lon="-75.45988989">
<time>2014-05-18T23:45:56Z</time>
</trkpt>
      <trkpt lat="10.40246832" lon="-75.45997643">
<time>2014-05-18T23:45:58Z</time>
</trkpt>
      <trkpt lat="10.40241063" lon="-75.46007657">
<time>2014-05-18T23:46:00Z</time>
</trkpt>
      <trkpt lat="10.40236366" lon="-75.46018291">
<time>2014-05-18T23:46:02Z</time>
</trkpt>
      <trkpt lat="10.40232599" lon="-75.46028960">
<time>2014-05-18T23:46:04Z</time>
</trkpt>
      <trkpt lat="10.40229380" lon="-75.46037805">
<time>2014-05-18T23:46:06Z</time>
</trkpt>
      <trkpt lat="10.40225530" lon="-75.46049964">
<time>2014-05-18T23:46:08Z</time>
</trkpt>
      <trkpt lat="10.40221429" lon="-75.46066844">
<time>2014-05-18T23:46:10Z</time>
</trkpt>
      <trkpt lat="10.40216339" lon="-75.46088123">
<time>2014-05-18T23:46:12Z</time>
</trkpt>
      <trkpt lat="10.40210962" lon="-75.46112597">
<time>2014-05-18T23:46:14Z</time>
</trkpt>
      <trkpt lat="10.40207076" lon="-75.46135914">
<time>2014-05-18T23:46:16Z</time>
</trkpt>
      <trkpt lat="10.40204191" lon="-75.46155059">
<time>2014-05-18T23:46:18Z</time>
</trkpt>
      <trkpt lat="10.40201342" lon="-75.46169591">
<time>2014-05-18T23:46:20Z</time>
</trkpt>
      <trkpt lat="10.40199733" lon="-75.46182609">
<time>2014-05-18T23:46:22Z</time>
</trkpt>
      <trkpt lat="10.40197647" lon="-75.46193695">
<time>2014-05-18T23:46:24Z</time>
</trkpt>
      <trkpt lat="10.40192831" lon="-75.46207714">
<time>2014-05-18T23:46:26Z</time>
</trkpt>
      <trkpt lat="10.40186644" lon="-75.46223545">
<time>2014-05-18T23:46:28Z</time>
</trkpt>
      <trkpt lat="10.40181494" lon="-75.46238756">
<time>2014-05-18T23:46:30Z</time>
</trkpt>
      <trkpt lat="10.40177345" lon="-75.46254432">
<time>2014-05-18T23:46:32Z</time>
</trkpt>
      <trkpt lat="10.40173781" lon="-75.46274364">
<time>2014-05-18T23:46:34Z</time>
</trkpt>
      <trkpt lat="10.40170872" lon="-75.46293283">
<time>2014-05-18T23:46:36Z</time>
</trkpt>
      <trkpt lat="10.40169346" lon="-75.46307743">
<time>2014-05-18T23:46:38Z</time>
</trkpt>
      <trkpt lat="10.40166795" lon="-75.46319449">
<time>2014-05-18T23:46:40Z</time>
</trkpt>
      <trkpt lat="10.40163481" lon="-75.46332812">
<time>2014-05-18T23:46:42Z</time>
</trkpt>
      <trkpt lat="10.40161765" lon="-75.46349347">
<time>2014-05-18T23:46:44Z</time>
</trkpt>
      <trkpt lat="10.40157723" lon="-75.46371627">
<time>2014-05-18T23:46:46Z</time>
</trkpt>
      <trkpt lat="10.40152359" lon="-75.46398175">
<time>2014-05-18T23:46:48Z</time>
</trkpt>
      <trkpt lat="10.40146315" lon="-75.46424544">
<time>2014-05-18T23:46:50Z</time>
</trkpt>
      <trkpt lat="10.40140414" lon="-75.46444809">
<time>2014-05-18T23:46:52Z</time>
</trkpt>
      <trkpt lat="10.40136194" lon="-75.46457994">
<time>2014-05-18T23:46:54Z</time>
</trkpt>
      <trkpt lat="10.40132880" lon="-75.46470428">
<time>2014-05-18T23:46:56Z</time>
</trkpt>
      <trkpt lat="10.40126908" lon="-75.46486700">
<time>2014-05-18T23:46:58Z</time>
</trkpt>
      <trkpt lat="10.40117013" lon="-75.46506214">
<time>2014-05-18T23:47:00Z</time>
</trkpt>
      <trkpt lat="10.40103149" lon="-75.46529174">
<time>2014-05-18T23:47:02Z</time>
</trkpt>
      <trkpt lat="10.40086472" lon="-75.46555281">
<time>2014-05-18T23:47:04Z</time>
</trkpt>
      <trkpt lat="10.40070963" lon="-75.46581507">
<time>2014-05-18T23:47:06Z</time>
</trkpt>
      <trkpt lat="10.40056944" lon="-75.46606660">
<time>2014-05-18T23:47:08Z</time>
</trkpt>
      <trkpt lat="10.40044105" lon="-75.46631825">
<time>2014-05-18T23:47:10Z</time>
</trkpt>
      <trkpt lat="10.40033507" lon="-75.46654344">
<time>2014-05-18T23:47:12Z</time>
</trkpt>
      <trkpt lat="10.40023875" lon="-75.46673179">
<time>2014-05-18T23:47:14Z</time>
</trkpt>
      <trkpt lat="10.40013444" lon="-75.46690345">
<time>2014-05-18T23:47:16Z</time>
</trkpt>
      <trkpt lat="10.40003896" lon="-75.46705043">
<time>2014-05-18T23:47:18Z</time>
</trkpt>
      <trkpt lat="10.39995539" lon="-75.46722376">
<time>2014-05-18T23:47:20Z</time>
</trkpt>
      <trkpt lat="10.39987576" lon="-75.46739030">
<time>2014-05-18T23:47:22Z</time>
</trkpt>
      <trkpt lat="10.39981508" lon="-75.46752965">
<time>2014-05-18T23:47:24Z</time>
</trkpt>
      <trkpt lat="10.39975333" lon="-75.46767831">
<time>2014-05-18T23:47:26Z</time>
</trkpt>
      <trkpt lat="10.39966524" lon="-75.46786642">
<time>2014-05-18T23:47:28Z</time>
</trkpt>
      <trkpt lat="10.39957941" lon="-75.46806872">
<time>2014-05-18T23:47:30Z</time>
</trkpt>
      <trkpt lat="10.39950180" lon="-75.46826482">
<time>2014-05-18T23:47:32Z</time>
</trkpt>
      <trkpt lat="10.39944756" lon="-75.46841633">
<time>2014-05-18T23:47:34Z</time>
</trkpt>
      <trkpt lat="10.39939976" lon="-75.46855295">
<time>2014-05-18T23:47:36Z</time>
</trkpt>
      <trkpt lat="10.39931440" lon="-75.46872699">
<time>2014-05-18T23:47:38Z</time>
</trkpt>
      <trkpt lat="10.39922249" lon="-75.46892858">
<time>2014-05-18T23:47:40Z</time>
</trkpt>
      <trkpt lat="10.39913428" lon="-75.46911800">
<time>2014-05-18T23:47:42Z</time>
</trkpt>
      <trkpt lat="10.39904642" lon="-75.46931732">
<time>2014-05-18T23:47:44Z</time>
</trkpt>
      <trkpt lat="10.39895761" lon="-75.46952665">
<time>2014-05-18T23:47:46Z</time>
</trkpt>
      <trkpt lat="10.39887214" lon="-75.46974027">
<time>2014-05-18T23:47:48Z</time>
</trkpt>
      <trkpt lat="10.39879382" lon="-75.46993244">
<time>2014-05-18T23:47:50Z</time>
</trkpt>
      <trkpt lat="10.39873230" lon="-75.47007132">
<time>2014-05-18T23:47:52Z</time>
</trkpt>
      <trkpt lat="10.39869130" lon="-75.47014976">
<time>2014-05-18T23:47:54Z</time>
</trkpt>
      <trkpt lat="10.39866841" lon="-75.47020650">
<time>2014-05-18T23:47:56Z</time>
</trkpt>
      <trkpt lat="10.39864075" lon="-75.47026443">
<time>2014-05-18T23:47:58Z</time>
</trkpt>
      <trkpt lat="10.39861310" lon="-75.47034156">
<time>2014-05-18T23:48:00Z</time>
</trkpt>
      <trkpt lat="10.39860594" lon="-75.47036123">
<time>2014-05-18T23:48:02Z</time>
</trkpt>
      <trkpt lat="10.39859915" lon="-75.47036397">
<time>2014-05-18T23:48:04Z</time>
</trkpt>
      <trkpt lat="10.39857972" lon="-75.47039509">
<time>2014-05-18T23:48:06Z</time>
</trkpt>
      <trkpt lat="10.39856339" lon="-75.47043705">
<time>2014-05-18T23:48:08Z</time>
</trkpt>
      <trkpt lat="10.39854074" lon="-75.47048640">
<time>2014-05-18T23:48:10Z</time>
</trkpt>
      <trkpt lat="10.39851010" lon="-75.47057557">
<time>2014-05-18T23:48:12Z</time>
</trkpt>
      <trkpt lat="10.39848208" lon="-75.47066677">
<time>2014-05-18T23:48:14Z</time>
</trkpt>
      <trkpt lat="10.39844608" lon="-75.47077799">
<time>2014-05-18T23:48:16Z</time>
</trkpt>
      <trkpt lat="10.39840579" lon="-75.47089612">
<time>2014-05-18T23:48:18Z</time>
</trkpt>
      <trkpt lat="10.39834499" lon="-75.47102344">
<time>2014-05-18T23:48:20Z</time>
</trkpt>
      <trkpt lat="10.39829040" lon="-75.47112608">
<time>2014-05-18T23:48:22Z</time>
</trkpt>
      <trkpt lat="10.39824963" lon="-75.47121274">
<time>2014-05-18T23:48:24Z</time>
</trkpt>
      <trkpt lat="10.39820325" lon="-75.47131979">
<time>2014-05-18T23:48:26Z</time>
</trkpt>
      <trkpt lat="10.39819098" lon="-75.47141814">
<time>2014-05-18T23:48:28Z</time>
</trkpt>
      <trkpt lat="10.39818108" lon="-75.47148514">
<time>2014-05-18T23:48:30Z</time>
</trkpt>
      <trkpt lat="10.39818859" lon="-75.47154522">
<time>2014-05-18T23:48:32Z</time>
</trkpt>
      <trkpt lat="10.39818680" lon="-75.47165895">
<time>2014-05-18T23:48:34Z</time>
</trkpt>
      <trkpt lat="10.39816260" lon="-75.47180259">
<time>2014-05-18T23:48:36Z</time>
</trkpt>
      <trkpt lat="10.39811146" lon="-75.47196460">
<time>2014-05-18T23:48:38Z</time>
</trkpt>
      <trkpt lat="10.39804244" lon="-75.47213829">
<time>2014-05-18T23:48:40Z</time>
</trkpt>
      <trkpt lat="10.39793158" lon="-75.47235525">
<time>2014-05-18T23:48:42Z</time>
</trkpt>
      <trkpt lat="10.39780664" lon="-75.47259140">
<time>2014-05-18T23:48:44Z</time>
</trkpt>
      <trkpt lat="10.39766788" lon="-75.47284889">
<time>2014-05-18T23:48:46Z</time>
</trkpt>
      <trkpt lat="10.39753330" lon="-75.47311795">
<time>2014-05-18T23:48:48Z</time>
</trkpt>
      <trkpt lat="10.39741540" lon="-75.47338414">
<time>2014-05-18T23:48:50Z</time>
</trkpt>
      <trkpt lat="10.39730763" lon="-75.47363496">
<time>2014-05-18T23:48:52Z</time>
</trkpt>
      <trkpt lat="10.39719427" lon="-75.47386646">
<time>2014-05-18T23:48:54Z</time>
</trkpt>
      <trkpt lat="10.39707839" lon="-75.47406971">
<time>2014-05-18T23:48:56Z</time>
</trkpt>
      <trkpt lat="10.39696455" lon="-75.47428644">
<time>2014-05-18T23:48:58Z</time>
</trkpt>
      <trkpt lat="10.39685345" lon="-75.47451699">
<time>2014-05-18T23:49:00Z</time>
</trkpt>
      <trkpt lat="10.39673805" lon="-75.47477627">
<time>2014-05-18T23:49:02Z</time>
</trkpt>
      <trkpt lat="10.39662993" lon="-75.47501647">
<time>2014-05-18T23:49:04Z</time>
</trkpt>
      <trkpt lat="10.39653015" lon="-75.47526193">
<time>2014-05-18T23:49:06Z</time>
</trkpt>
      <trkpt lat="10.39642632" lon="-75.47551548">
<time>2014-05-18T23:49:08Z</time>
</trkpt>
      <trkpt lat="10.39634299" lon="-75.47575223">
<time>2014-05-18T23:49:10Z</time>
</trkpt>
      <trkpt lat="10.39627993" lon="-75.47596109">
<time>2014-05-18T23:49:12Z</time>
</trkpt>
      <trkpt lat="10.39621711" lon="-75.47614741">
<time>2014-05-18T23:49:14Z</time>
</trkpt>
      <trkpt lat="10.39615715" lon="-75.47631979">
<time>2014-05-18T23:49:16Z</time>
</trkpt>
      <trkpt lat="10.39611173" lon="-75.47645855">
<time>2014-05-18T23:49:18Z</time>
</trkpt>
      <trkpt lat="10.39608395" lon="-75.47654879">
<time>2014-05-18T23:49:20Z</time>
</trkpt>
      <trkpt lat="10.39606178" lon="-75.47661912">
<time>2014-05-18T23:49:22Z</time>
</trkpt>
      <trkpt lat="10.39605081" lon="-75.47666466">
<time>2014-05-18T23:49:24Z</time>
</trkpt>
      <trkpt lat="10.39603996" lon="-75.47668481">
<time>2014-05-18T23:49:26Z</time>
</trkpt>
      <trkpt lat="10.39603579" lon="-75.47669280">
<time>2014-05-18T23:49:28Z</time>
</trkpt>
      <trkpt lat="10.39603209" lon="-75.47669256">
<time>2014-05-18T23:49:30Z</time>
</trkpt>
      <trkpt lat="10.39602566" lon="-75.47670949">
<time>2014-05-18T23:49:32Z</time>
</trkpt>
      <trkpt lat="10.39601898" lon="-75.47672856">
<time>2014-05-18T23:49:34Z</time>
</trkpt>
      <trkpt lat="10.39601016" lon="-75.47674072">
<time>2014-05-18T23:49:36Z</time>
</trkpt>
      <trkpt lat="10.39600539" lon="-75.47672880">
<time>2014-05-18T23:49:38Z</time>
</trkpt>
      <trkpt lat="10.39600146" lon="-75.47672975">
<time>2014-05-18T23:49:40Z</time>
</trkpt>
      <trkpt lat="10.39600098" lon="-75.47672975">
<time>2014-05-18T23:49:42Z</time>
</trkpt>
      <trkpt lat="10.39600158" lon="-75.47673094">
<time>2014-05-18T23:49:44Z</time>
</trkpt>
      <trkpt lat="10.39600122" lon="-75.47673392">
<time>2014-05-18T23:49:46Z</time>
</trkpt>
      <trkpt lat="10.39600182" lon="-75.47673559">
<time>2014-05-18T23:49:48Z</time>
</trkpt>
      <trkpt lat="10.39600182" lon="-75.47673607">
<time>2014-05-18T23:49:50Z</time>
</trkpt>
      <trkpt lat="10.39600098" lon="-75.47673643">
<time>2014-05-18T23:49:52Z</time>
</trkpt>
      <trkpt lat="10.39600039" lon="-75.47673666">
<time>2014-05-18T23:49:54Z</time>
</trkpt>
      <trkpt lat="10.39599824" lon="-75.47674382">
<time>2014-05-18T23:49:56Z</time>
</trkpt>
      <trkpt lat="10.39598632" lon="-75.47677314">
<time>2014-05-18T23:49:58Z</time>
</trkpt>
      <trkpt lat="10.39593446" lon="-75.47687411">
<time>2014-05-18T23:50:00Z</time>
</trkpt>
      <trkpt lat="10.39582539" lon="-75.47706115">
<time>2014-05-18T23:50:02Z</time>
</trkpt>
      <trkpt lat="10.39569044" lon="-75.47731531">
<time>2014-05-18T23:50:04Z</time>
</trkpt>
      <trkpt lat="10.39555860" lon="-75.47762883">
<time>2014-05-18T23:50:06Z</time>
</trkpt>
      <trkpt lat="10.39542830" lon="-75.47799098">
<time>2014-05-18T23:50:08Z</time>
</trkpt>
      <trkpt lat="10.39529467" lon="-75.47835279">
<time>2014-05-18T23:50:10Z</time>
</trkpt>
      <trkpt lat="10.39516461" lon="-75.47869074">
<time>2014-05-18T23:50:12Z</time>
</trkpt>
      <trkpt lat="10.39503372" lon="-75.47903574">
<time>2014-05-18T23:50:14Z</time>
</trkpt>
      <trkpt lat="10.39489675" lon="-75.47936547">
<time>2014-05-18T23:50:16Z</time>
</trkpt>
      <trkpt lat="10.39476871" lon="-75.47966909">
<time>2014-05-18T23:50:18Z</time>
</trkpt>
      <trkpt lat="10.39466655" lon="-75.47993040">
<time>2014-05-18T23:50:20Z</time>
</trkpt>
      <trkpt lat="10.39458477" lon="-75.48012841">
<time>2014-05-18T23:50:22Z</time>
</trkpt>
      <trkpt lat="10.39451396" lon="-75.48031092">
<time>2014-05-18T23:50:24Z</time>
</trkpt>
      <trkpt lat="10.39442348" lon="-75.48049390">
<time>2014-05-18T23:50:26Z</time>
</trkpt>
      <trkpt lat="10.39434123" lon="-75.48063648">
<time>2014-05-18T23:50:28Z</time>
</trkpt>
      <trkpt lat="10.39428377" lon="-75.48074448">
<time>2014-05-18T23:50:30Z</time>
</trkpt>
      <trkpt lat="10.39424527" lon="-75.48078179">
<time>2014-05-18T23:50:32Z</time>
</trkpt>
      <trkpt lat="10.39422548" lon="-75.48081839">
<time>2014-05-18T23:50:34Z</time>
</trkpt>
      <trkpt lat="10.39420724" lon="-75.48083663">
<time>2014-05-18T23:50:36Z</time>
</trkpt>
      <trkpt lat="10.39420223" lon="-75.48084259">
<time>2014-05-18T23:50:38Z</time>
</trkpt>
      <trkpt lat="10.39419198" lon="-75.48084533">
<time>2014-05-18T23:50:40Z</time>
</trkpt>
      <trkpt lat="10.39419246" lon="-75.48084509">
<time>2014-05-18T23:50:42Z</time>
</trkpt>
      <trkpt lat="10.39419127" lon="-75.48084474">
<time>2014-05-18T23:50:44Z</time>
</trkpt>
      <trkpt lat="10.39418960" lon="-75.48084390">
<time>2014-05-18T23:50:46Z</time>
</trkpt>
      <trkpt lat="10.39418828" lon="-75.48084283">
<time>2014-05-18T23:50:48Z</time>
</trkpt>
      <trkpt lat="10.39418876" lon="-75.48084211">
<time>2014-05-18T23:50:50Z</time>
</trkpt>
      <trkpt lat="10.39418948" lon="-75.48084092">
<time>2014-05-18T23:50:52Z</time>
</trkpt>
      <trkpt lat="10.39418888" lon="-75.48084033">
<time>2014-05-18T23:50:54Z</time>
</trkpt>
      <trkpt lat="10.39418817" lon="-75.48083973">
<time>2014-05-18T23:50:56Z</time>
</trkpt>
      <trkpt lat="10.39418757" lon="-75.48084033">
<time>2014-05-18T23:50:58Z</time>
</trkpt>
      <trkpt lat="10.39418650" lon="-75.48083973">
<time>2014-05-18T23:51:00Z</time>
</trkpt>
      <trkpt lat="10.39418590" lon="-75.48083842">
<time>2014-05-18T23:51:02Z</time>
</trkpt>
      <trkpt lat="10.39418530" lon="-75.48083627">
<time>2014-05-18T23:51:04Z</time>
</trkpt>
      <trkpt lat="10.39417958" lon="-75.48083949">
<time>2014-05-18T23:51:06Z</time>
</trkpt>
      <trkpt lat="10.39417231" lon="-75.48084581">
<time>2014-05-18T23:51:08Z</time>
</trkpt>
      <trkpt lat="10.39416981" lon="-75.48084891">
<time>2014-05-18T23:51:10Z</time>
</trkpt>
      <trkpt lat="10.39416993" lon="-75.48084998">
<time>2014-05-18T23:51:12Z</time>
</trkpt>
      <trkpt lat="10.39417064" lon="-75.48084998">
<time>2014-05-18T23:51:14Z</time>
</trkpt>
      <trkpt lat="10.39417148" lon="-75.48084974">
<time>2014-05-18T23:51:16Z</time>
</trkpt>
      <trkpt lat="10.39417195" lon="-75.48084855">
<time>2014-05-18T23:51:18Z</time>
</trkpt>
      <trkpt lat="10.39417231" lon="-75.48084676">
<time>2014-05-18T23:51:20Z</time>
</trkpt>
      <trkpt lat="10.39417255" lon="-75.48084497">
<time>2014-05-18T23:51:22Z</time>
</trkpt>
      <trkpt lat="10.39417291" lon="-75.48084342">
<time>2014-05-18T23:51:24Z</time>
</trkpt>
      <trkpt lat="10.39417338" lon="-75.48084140">
<time>2014-05-18T23:51:26Z</time>
</trkpt>
      <trkpt lat="10.39417410" lon="-75.48083889">
<time>2014-05-18T23:51:28Z</time>
</trkpt>
      <trkpt lat="10.39417458" lon="-75.48083580">
<time>2014-05-18T23:51:30Z</time>
</trkpt>
      <trkpt lat="10.39417410" lon="-75.48083425">
<time>2014-05-18T23:51:32Z</time>
</trkpt>
      <trkpt lat="10.39417362" lon="-75.48083365">
<time>2014-05-18T23:51:34Z</time>
</trkpt>
      <trkpt lat="10.39417338" lon="-75.48083293">
<time>2014-05-18T23:51:36Z</time>
</trkpt>
      <trkpt lat="10.39417398" lon="-75.48083138">
<time>2014-05-18T23:51:38Z</time>
</trkpt>
      <trkpt lat="10.39417422" lon="-75.48082960">
<time>2014-05-18T23:51:40Z</time>
</trkpt>
      <trkpt lat="10.39417422" lon="-75.48082817">
<time>2014-05-18T23:51:42Z</time>
</trkpt>
      <trkpt lat="10.39417398" lon="-75.48082697">
<time>2014-05-18T23:51:44Z</time>
</trkpt>
      <trkpt lat="10.39417338" lon="-75.48082566">
<time>2014-05-18T23:51:46Z</time>
</trkpt>
      <trkpt lat="10.39417362" lon="-75.48082626">
<time>2014-05-18T23:51:48Z</time>
</trkpt>
      <trkpt lat="10.39417398" lon="-75.48082697">
<time>2014-05-18T23:51:50Z</time>
</trkpt>
      <trkpt lat="10.39417374" lon="-75.48082709">
<time>2014-05-18T23:51:52Z</time>
</trkpt>
      <trkpt lat="10.39417207" lon="-75.48082793">
<time>2014-05-18T23:51:54Z</time>
</trkpt>
      <trkpt lat="10.39416933" lon="-75.48083043">
<time>2014-05-18T23:51:56Z</time>
</trkpt>
      <trkpt lat="10.39414799" lon="-75.48088241">
<time>2014-05-18T23:51:58Z</time>
</trkpt>
      <trkpt lat="10.39410126" lon="-75.48100924">
<time>2014-05-18T23:52:00Z</time>
</trkpt>
      <trkpt lat="10.39402509" lon="-75.48117316">
<time>2014-05-18T23:52:02Z</time>
</trkpt>
      <trkpt lat="10.39393508" lon="-75.48138213">
<time>2014-05-18T23:52:04Z</time>
</trkpt>
      <trkpt lat="10.39384425" lon="-75.48160398">
<time>2014-05-18T23:52:06Z</time>
</trkpt>
      <trkpt lat="10.39375675" lon="-75.48181856">
<time>2014-05-18T23:52:08Z</time>
</trkpt>
      <trkpt lat="10.39368343" lon="-75.48201323">
<time>2014-05-18T23:52:10Z</time>
</trkpt>
      <trkpt lat="10.39361465" lon="-75.48217595">
<time>2014-05-18T23:52:12Z</time>
</trkpt>
      <trkpt lat="10.39356422" lon="-75.48231149">
<time>2014-05-18T23:52:14Z</time>
</trkpt>
      <trkpt lat="10.39353955" lon="-75.48240888">
<time>2014-05-18T23:52:16Z</time>
</trkpt>
      <trkpt lat="10.39351928" lon="-75.48248160">
<time>2014-05-18T23:52:18Z</time>
</trkpt>
      <trkpt lat="10.39350879" lon="-75.48252964">
<time>2014-05-18T23:52:20Z</time>
</trkpt>
      <trkpt lat="10.39350200" lon="-75.48255825">
<time>2014-05-18T23:52:22Z</time>
</trkpt>
      <trkpt lat="10.39348876" lon="-75.48261344">
<time>2014-05-18T23:52:24Z</time>
</trkpt>
      <trkpt lat="10.39345527" lon="-75.48270500">
<time>2014-05-18T23:52:26Z</time>
</trkpt>
      <trkpt lat="10.39342129" lon="-75.48280191">
<time>2014-05-18T23:52:28Z</time>
</trkpt>
      <trkpt lat="10.39337623" lon="-75.48287642">
<time>2014-05-18T23:52:30Z</time>
</trkpt>
      <trkpt lat="10.39331138" lon="-75.48291099">
<time>2014-05-18T23:52:32Z</time>
</trkpt>
      <trkpt lat="10.39321709" lon="-75.48291326">
<time>2014-05-18T23:52:34Z</time>
</trkpt>
      <trkpt lat="10.39311731" lon="-75.48285210">
<time>2014-05-18T23:52:36Z</time>
</trkpt>
      <trkpt lat="10.39301729" lon="-75.48274565">
<time>2014-05-18T23:52:38Z</time>
</trkpt>
      <trkpt lat="10.39291382" lon="-75.48257923">
<time>2014-05-18T23:52:40Z</time>
</trkpt>
      <trkpt lat="10.39282298" lon="-75.48243082">
<time>2014-05-18T23:52:42Z</time>
</trkpt>
      <trkpt lat="10.39273763" lon="-75.48229730">
<time>2014-05-18T23:52:44Z</time>
</trkpt>
      <trkpt lat="10.39265966" lon="-75.48216283">
<time>2014-05-18T23:52:46Z</time>
</trkpt>
      <trkpt lat="10.39255929" lon="-75.48201740">
<time>2014-05-18T23:52:48Z</time>
</trkpt>
      <trkpt lat="10.39245379" lon="-75.48184049">
<time>2014-05-18T23:52:50Z</time>
</trkpt>
      <trkpt lat="10.39234447" lon="-75.48166323">
<time>2014-05-18T23:52:52Z</time>
</trkpt>
      <trkpt lat="10.39224088" lon="-75.48149490">
<time>2014-05-18T23:52:54Z</time>
</trkpt>
      <trkpt lat="10.39213443" lon="-75.48133492">
<time>2014-05-18T23:52:56Z</time>
</trkpt>
      <trkpt lat="10.39204943" lon="-75.48121095">
<time>2014-05-18T23:52:58Z</time>
</trkpt>
      <trkpt lat="10.39198625" lon="-75.48113430">
<time>2014-05-18T23:53:00Z</time>
</trkpt>
      <trkpt lat="10.39194000" lon="-75.48106015">
<time>2014-05-18T23:53:02Z</time>
</trkpt>
      <trkpt lat="10.39189744" lon="-75.48100507">
<time>2014-05-18T23:53:04Z</time>
</trkpt>
      <trkpt lat="10.39187324" lon="-75.48096728">
<time>2014-05-18T23:53:06Z</time>
</trkpt>
      <trkpt lat="10.39186132" lon="-75.48094511">
<time>2014-05-18T23:53:08Z</time>
</trkpt>
      <trkpt lat="10.39186323" lon="-75.48093379">
<time>2014-05-18T23:53:10Z</time>
</trkpt>
      <trkpt lat="10.39187276" lon="-75.48090589">
<time>2014-05-18T23:53:12Z</time>
</trkpt>
      <trkpt lat="10.39187109" lon="-75.48086715">
<time>2014-05-18T23:53:14Z</time>
</trkpt>
      <trkpt lat="10.39186049" lon="-75.48083663">
<time>2014-05-18T23:53:16Z</time>
</trkpt>
      <trkpt lat="10.39184499" lon="-75.48082495">
<time>2014-05-18T23:53:18Z</time>
</trkpt>
      <trkpt lat="10.39181566" lon="-75.48079908">
<time>2014-05-18T23:53:20Z</time>
</trkpt>
      <trkpt lat="10.39177847" lon="-75.48074245">
<time>2014-05-18T23:53:22Z</time>
</trkpt>
      <trkpt lat="10.39173865" lon="-75.48068190">
<time>2014-05-18T23:53:24Z</time>
</trkpt>
      <trkpt lat="10.39169681" lon="-75.48063481">
<time>2014-05-18T23:53:26Z</time>
</trkpt>
      <trkpt lat="10.39167190" lon="-75.48060393">
<time>2014-05-18T23:53:28Z</time>
</trkpt>
      <trkpt lat="10.39164662" lon="-75.48055279">
<time>2014-05-18T23:53:30Z</time>
</trkpt>
      <trkpt lat="10.39160407" lon="-75.48048675">
<time>2014-05-18T23:53:32Z</time>
</trkpt>
      <trkpt lat="10.39158499" lon="-75.48045564">
<time>2014-05-18T23:53:34Z</time>
</trkpt>
      <trkpt lat="10.39156616" lon="-75.48042083">
<time>2014-05-18T23:53:36Z</time>
</trkpt>
      <trkpt lat="10.39153683" lon="-75.48036826">
<time>2014-05-18T23:53:38Z</time>
</trkpt>
      <trkpt lat="10.39151466" lon="-75.48033345">
<time>2014-05-18T23:53:40Z</time>
</trkpt>
      <trkpt lat="10.39148426" lon="-75.48027706">
<time>2014-05-18T23:53:42Z</time>
</trkpt>
      <trkpt lat="10.39144063" lon="-75.48020649">
<time>2014-05-18T23:53:44Z</time>
</trkpt>
      <trkpt lat="10.39139998" lon="-75.48014390">
<time>2014-05-18T23:53:46Z</time>
</trkpt>
      <trkpt lat="10.39136910" lon="-75.48008382">
<time>2014-05-18T23:53:48Z</time>
</trkpt>
      <trkpt lat="10.39134490" lon="-75.48004198">
<time>2014-05-18T23:53:50Z</time>
</trkpt>
      <trkpt lat="10.39131856" lon="-75.48000431">
<time>2014-05-18T23:53:52Z</time>
</trkpt>
      <trkpt lat="10.39130259" lon="-75.47997427">
<time>2014-05-18T23:53:54Z</time>
</trkpt>
      <trkpt lat="10.39128923" lon="-75.47994328">
<time>2014-05-18T23:53:56Z</time>
</trkpt>
      <trkpt lat="10.39127195" lon="-75.47989976">
<time>2014-05-18T23:53:58Z</time>
</trkpt>
      <trkpt lat="10.39123380" lon="-75.47983944">
<time>2014-05-18T23:54:00Z</time>
</trkpt>
      <trkpt lat="10.39119089" lon="-75.47978175">
<time>2014-05-18T23:54:02Z</time>
</trkpt>
      <trkpt lat="10.39116406" lon="-75.47973096">
<time>2014-05-18T23:54:04Z</time>
</trkpt>
      <trkpt lat="10.39113963" lon="-75.47968531">
<time>2014-05-18T23:54:06Z</time>
</trkpt>
      <trkpt lat="10.39113426" lon="-75.47966313">
<time>2014-05-18T23:54:08Z</time>
</trkpt>
      <trkpt lat="10.39112628" lon="-75.47964716">
<time>2014-05-18T23:54:10Z</time>
</trkpt>
      <trkpt lat="10.39110398" lon="-75.47961283">
<time>2014-05-18T23:54:12Z</time>
</trkpt>
      <trkpt lat="10.39105380" lon="-75.47960877">
<time>2014-05-18T23:54:14Z</time>
</trkpt>
      <trkpt lat="10.39097428" lon="-75.47964323">
<time>2014-05-18T23:54:16Z</time>
</trkpt>
      <trkpt lat="10.39088023" lon="-75.47973430">
<time>2014-05-18T23:54:18Z</time>
</trkpt>
      <trkpt lat="10.39076591" lon="-75.47986591">
<time>2014-05-18T23:54:20Z</time>
</trkpt>
      <trkpt lat="10.39062262" lon="-75.48001444">
<time>2014-05-18T23:54:22Z</time>
</trkpt>
      <trkpt lat="10.39047313" lon="-75.48016810">
<time>2014-05-18T23:54:24Z</time>
</trkpt>
      <trkpt lat="10.39031792" lon="-75.48032141">
<time>2014-05-18T23:54:26Z</time>
</trkpt>
      <trkpt lat="10.39016545" lon="-75.48050106">
<time>2014-05-18T23:54:28Z</time>
</trkpt>
      <trkpt lat="10.39000881" lon="-75.48065472">
<time>2014-05-18T23:54:30Z</time>
</trkpt>
      <trkpt lat="10.38989544" lon="-75.48075676">
<time>2014-05-18T23:54:32Z</time>
</trkpt>
      <trkpt lat="10.38982642" lon="-75.48079157">
<time>2014-05-18T23:54:34Z</time>
</trkpt>
      <trkpt lat="10.38982093" lon="-75.48081625">
<time>2014-05-18T23:54:36Z</time>
</trkpt>
      <trkpt lat="10.38983262" lon="-75.48081827">
<time>2014-05-18T23:54:38Z</time>
</trkpt>
      <trkpt lat="10.38983214" lon="-75.48081696">
<time>2014-05-18T23:54:40Z</time>
</trkpt>
      <trkpt lat="10.38983250" lon="-75.48081648">
<time>2014-05-18T23:54:42Z</time>
</trkpt>
      <trkpt lat="10.38983178" lon="-75.48081577">
<time>2014-05-18T23:54:44Z</time>
</trkpt>
      <trkpt lat="10.38983166" lon="-75.48081577">
<time>2014-05-18T23:54:46Z</time>
</trkpt>
      <trkpt lat="10.38983142" lon="-75.48081541">
<time>2014-05-18T23:54:48Z</time>
</trkpt>
      <trkpt lat="10.38983166" lon="-75.48081481">
<time>2014-05-18T23:54:50Z</time>
</trkpt>
      <trkpt lat="10.38983226" lon="-75.48081529">
<time>2014-05-18T23:54:52Z</time>
</trkpt>
      <trkpt lat="10.38983297" lon="-75.48081565">
<time>2014-05-18T23:54:54Z</time>
</trkpt>
      <trkpt lat="10.38983309" lon="-75.48081577">
<time>2014-05-18T23:54:56Z</time>
</trkpt>
      <trkpt lat="10.38983262" lon="-75.48081493">
<time>2014-05-18T23:54:58Z</time>
</trkpt>
      <trkpt lat="10.38983262" lon="-75.48081410">
<time>2014-05-18T23:55:00Z</time>
</trkpt>
      <trkpt lat="10.38983274" lon="-75.48081410">
<time>2014-05-18T23:55:02Z</time>
</trkpt>
      <trkpt lat="10.38983357" lon="-75.48081398">
<time>2014-05-18T23:55:04Z</time>
</trkpt>
      <trkpt lat="10.38983440" lon="-75.48081458">
<time>2014-05-18T23:55:06Z</time>
</trkpt>
      <trkpt lat="10.38983417" lon="-75.48081422">
<time>2014-05-18T23:55:08Z</time>
</trkpt>
      <trkpt lat="10.38983357" lon="-75.48081422">
<time>2014-05-18T23:55:10Z</time>
</trkpt>
      <trkpt lat="10.38983345" lon="-75.48081291">
<time>2014-05-18T23:55:12Z</time>
</trkpt>
      <trkpt lat="10.38983381" lon="-75.48081279">
<time>2014-05-18T23:55:14Z</time>
</trkpt>
      <trkpt lat="10.38983393" lon="-75.48081279">
<time>2014-05-18T23:55:16Z</time>
</trkpt>
      <trkpt lat="10.38983393" lon="-75.48081279">
<time>2014-05-18T23:55:18Z</time>
</trkpt>
      <trkpt lat="10.38983417" lon="-75.48081255">
<time>2014-05-18T23:55:20Z</time>
</trkpt>
      <trkpt lat="10.38983417" lon="-75.48081243">
<time>2014-05-18T23:55:22Z</time>
</trkpt>
      <trkpt lat="10.38983417" lon="-75.48081243">
<time>2014-05-18T23:55:24Z</time>
</trkpt>
      <trkpt lat="10.38983428" lon="-75.48081243">
<time>2014-05-18T23:55:26Z</time>
</trkpt>
      <trkpt lat="10.38983428" lon="-75.48081243">
<time>2014-05-18T23:55:28Z</time>
</trkpt>
      <trkpt lat="10.38983440" lon="-75.48081243">
<time>2014-05-18T23:55:30Z</time>
</trkpt>
      <trkpt lat="10.38983440" lon="-75.48081243">
<time>2014-05-18T23:55:32Z</time>
</trkpt>
      <trkpt lat="10.38983464" lon="-75.48081243">
<time>2014-05-18T23:55:34Z</time>
</trkpt>
      <trkpt lat="10.38983464" lon="-75.48081243">
<time>2014-05-18T23:55:36Z</time>
</trkpt>
      <trkpt lat="10.38983464" lon="-75.48081255">
<time>2014-05-18T23:55:38Z</time>
</trkpt>
      <trkpt lat="10.38983464" lon="-75.48081279">
<time>2014-05-18T23:55:40Z</time>
</trkpt>
      <trkpt lat="10.38983476" lon="-75.48081279">
<time>2014-05-18T23:55:42Z</time>
</trkpt>
      <trkpt lat="10.38983476" lon="-75.48081291">
<time>2014-05-18T23:55:44Z</time>
</trkpt>
      <trkpt lat="10.38983476" lon="-75.48081291">
<time>2014-05-18T23:55:46Z</time>
</trkpt>
      <trkpt lat="10.38983464" lon="-75.48081279">
<time>2014-05-18T23:55:48Z</time>
</trkpt>
      <trkpt lat="10.38980842" lon="-75.48083472">
<time>2014-05-18T23:55:50Z</time>
</trkpt>
      <trkpt lat="10.38973510" lon="-75.48089767">
<time>2014-05-18T23:55:52Z</time>
</trkpt>
      <trkpt lat="10.38964915" lon="-75.48097372">
<time>2014-05-18T23:55:54Z</time>
</trkpt>
      <trkpt lat="10.38955998" lon="-75.48105311">
<time>2014-05-18T23:55:56Z</time>
</trkpt>
      <trkpt lat="10.38945496" lon="-75.48111212">
<time>2014-05-18T23:55:58Z</time>
</trkpt>
      <trkpt lat="10.38933992" lon="-75.48115981">
<time>2014-05-18T23:56:00Z</time>
</trkpt>
      <trkpt lat="10.38922429" lon="-75.48119473">
<time>2014-05-18T23:56:02Z</time>
</trkpt>
      <trkpt lat="10.38911843" lon="-75.48121345">
<time>2014-05-18T23:56:04Z</time>
</trkpt>
      <trkpt lat="10.38905644" lon="-75.48124480">
<time>2014-05-18T23:56:06Z</time>
</trkpt>
      <trkpt lat="10.38900077" lon="-75.48125255">
<time>2014-05-18T23:56:08Z</time>
</trkpt>
      <trkpt lat="10.38896382" lon="-75.48125613">
<time>2014-05-18T23:56:10Z</time>
</trkpt>
      <trkpt lat="10.38893497" lon="-75.48126197">
<time>2014-05-18T23:56:12Z</time>
</trkpt>
      <trkpt lat="10.38890707" lon="-75.48126578">
<time>2014-05-18T23:56:14Z</time>
</trkpt>
      <trkpt lat="10.38886714" lon="-75.48127115">
<time>2014-05-18T23:56:16Z</time>
</trkpt>
      <trkpt lat="10.38882673" lon="-75.48128176">
<time>2014-05-18T23:56:18Z</time>
</trkpt>
      <trkpt lat="10.38874316" lon="-75.48129916">
<time>2014-05-18T23:56:20Z</time>
</trkpt>
      <trkpt lat="10.38867629" lon="-75.48131478">
<time>2014-05-18T23:56:22Z</time>
</trkpt>
      <trkpt lat="10.38862443" lon="-75.48132765">
<time>2014-05-18T23:56:24Z</time>
</trkpt>
      <trkpt lat="10.38855922" lon="-75.48135626">
<time>2014-05-18T23:56:26Z</time>
</trkpt>
      <trkpt lat="10.38848042" lon="-75.48138094">
<time>2014-05-18T23:56:28Z</time>
</trkpt>
      <trkpt lat="10.38840747" lon="-75.48142278">
<time>2014-05-18T23:56:30Z</time>
</trkpt>
      <trkpt lat="10.38832808" lon="-75.48145759">
<time>2014-05-18T23:56:32Z</time>
</trkpt>
      <trkpt lat="10.38823450" lon="-75.48149550">
<time>2014-05-18T23:56:34Z</time>
</trkpt>
      <trkpt lat="10.38813758" lon="-75.48152530">
<time>2014-05-18T23:56:36Z</time>
</trkpt>
      <trkpt lat="10.38803148" lon="-75.48155761">
<time>2014-05-18T23:56:38Z</time>
</trkpt>
      <trkpt lat="10.38791180" lon="-75.48160422">
<time>2014-05-18T23:56:40Z</time>
</trkpt>
      <trkpt lat="10.38777864" lon="-75.48165166">
<time>2014-05-18T23:56:42Z</time>
</trkpt>
      <trkpt lat="10.38765693" lon="-75.48169482">
<time>2014-05-18T23:56:44Z</time>
</trkpt>
      <trkpt lat="10.38752949" lon="-75.48173797">
<time>2014-05-18T23:56:46Z</time>
</trkpt>
      <trkpt lat="10.38740492" lon="-75.48178065">
<time>2014-05-18T23:56:48Z</time>
</trkpt>
      <trkpt lat="10.38727677" lon="-75.48182726">
<time>2014-05-18T23:56:50Z</time>
</trkpt>
      <trkpt lat="10.38716376" lon="-75.48187077">
<time>2014-05-18T23:56:52Z</time>
</trkpt>
      <trkpt lat="10.38708127" lon="-75.48192012">
<time>2014-05-18T23:56:54Z</time>
</trkpt>
      <trkpt lat="10.38701582" lon="-75.48194647">
<time>2014-05-18T23:56:56Z</time>
</trkpt>
      <trkpt lat="10.38697755" lon="-75.48195899">
<time>2014-05-18T23:56:58Z</time>
</trkpt>
      <trkpt lat="10.38695300" lon="-75.48196757">
<time>2014-05-18T23:57:00Z</time>
</trkpt>
      <trkpt lat="10.38694692" lon="-75.48197412">
<time>2014-05-18T23:57:02Z</time>
</trkpt>
      <trkpt lat="10.38693643" lon="-75.48197556">
<time>2014-05-18T23:57:04Z</time>
</trkpt>
      <trkpt lat="10.38692832" lon="-75.48197830">
<time>2014-05-18T23:57:06Z</time>
</trkpt>
      <trkpt lat="10.38692391" lon="-75.48197865">
<time>2014-05-18T23:57:08Z</time>
</trkpt>
      <trkpt lat="10.38692307" lon="-75.48197842">
<time>2014-05-18T23:57:10Z</time>
</trkpt>
      <trkpt lat="10.38692307" lon="-75.48197830">
<time>2014-05-18T23:57:12Z</time>
</trkpt>
      <trkpt lat="10.38692331" lon="-75.48197758">
<time>2014-05-18T23:57:14Z</time>
</trkpt>
      <trkpt lat="10.38692379" lon="-75.48197699">
<time>2014-05-18T23:57:16Z</time>
</trkpt>
      <trkpt lat="10.38692415" lon="-75.48197639">
<time>2014-05-18T23:57:18Z</time>
</trkpt>
      <trkpt lat="10.38692355" lon="-75.48197699">
<time>2014-05-18T23:57:20Z</time>
</trkpt>
      <trkpt lat="10.38692296" lon="-75.48197782">
<time>2014-05-18T23:57:22Z</time>
</trkpt>
      <trkpt lat="10.38692296" lon="-75.48197782">
<time>2014-05-18T23:57:24Z</time>
</trkpt>
      <trkpt lat="10.38692296" lon="-75.48197782">
<time>2014-05-18T23:57:26Z</time>
</trkpt>
      <trkpt lat="10.38692307" lon="-75.48197782">
<time>2014-05-18T23:57:28Z</time>
</trkpt>
      <trkpt lat="10.38692331" lon="-75.48197758">
<time>2014-05-18T23:57:30Z</time>
</trkpt>
      <trkpt lat="10.38692343" lon="-75.48197758">
<time>2014-05-18T23:57:32Z</time>
</trkpt>
      <trkpt lat="10.38692343" lon="-75.48197758">
<time>2014-05-18T23:57:34Z</time>
</trkpt>
      <trkpt lat="10.38692331" lon="-75.48197746">
<time>2014-05-18T23:57:36Z</time>
</trkpt>
      <trkpt lat="10.38692343" lon="-75.48197746">
<time>2014-05-18T23:57:38Z</time>
</trkpt>
      <trkpt lat="10.38692343" lon="-75.48197746">
<time>2014-05-18T23:57:40Z</time>
</trkpt>
      <trkpt lat="10.38692343" lon="-75.48197746">
<time>2014-05-18T23:57:42Z</time>
</trkpt>
      <trkpt lat="10.38692355" lon="-75.48197746">
<time>2014-05-18T23:57:44Z</time>
</trkpt>
      <trkpt lat="10.38692379" lon="-75.48197746">
<time>2014-05-18T23:57:46Z</time>
</trkpt>
      <trkpt lat="10.38692391" lon="-75.48197746">
<time>2014-05-18T23:57:48Z</time>
</trkpt>
      <trkpt lat="10.38692415" lon="-75.48197746">
<time>2014-05-18T23:57:50Z</time>
</trkpt>
      <trkpt lat="10.38692427" lon="-75.48197722">
<time>2014-05-18T23:57:52Z</time>
</trkpt>
      <trkpt lat="10.38692439" lon="-75.48197711">
<time>2014-05-18T23:57:54Z</time>
</trkpt>
      <trkpt lat="10.38692462" lon="-75.48197699">
<time>2014-05-18T23:57:56Z</time>
</trkpt>
      <trkpt lat="10.38692462" lon="-75.48197699">
<time>2014-05-18T23:57:58Z</time>
</trkpt>
      <trkpt lat="10.38692474" lon="-75.48197699">
<time>2014-05-18T23:58:00Z</time>
</trkpt>
      <trkpt lat="10.38692474" lon="-75.48197699">
<time>2014-05-18T23:58:02Z</time>
</trkpt>
      <trkpt lat="10.38692498" lon="-75.48197699">
<time>2014-05-18T23:58:04Z</time>
</trkpt>
      <trkpt lat="10.38692498" lon="-75.48197699">
<time>2014-05-18T23:58:06Z</time>
</trkpt>
      <trkpt lat="10.38692510" lon="-75.48197699">
<time>2014-05-18T23:58:08Z</time>
</trkpt>
      <trkpt lat="10.38692498" lon="-75.48197699">
<time>2014-05-18T23:58:10Z</time>
</trkpt>
      <trkpt lat="10.38690209" lon="-75.48198831">
<time>2014-05-18T23:58:12Z</time>
</trkpt>
      <trkpt lat="10.38682663" lon="-75.48201847">
<time>2014-05-18T23:58:14Z</time>
</trkpt>
      <trkpt lat="10.38672948" lon="-75.48204911">
<time>2014-05-18T23:58:16Z</time>
</trkpt>
      <trkpt lat="10.38659739" lon="-75.48208547">
<time>2014-05-18T23:58:18Z</time>
</trkpt>
      <trkpt lat="10.38641906" lon="-75.48213995">
<time>2014-05-18T23:58:20Z</time>
</trkpt>
      <trkpt lat="10.38624227" lon="-75.48218775">
<time>2014-05-18T23:58:22Z</time>
</trkpt>
      <trkpt lat="10.38604665" lon="-75.48223495">
<time>2014-05-18T23:58:24Z</time>
</trkpt>
      <trkpt lat="10.38587248" lon="-75.48229575">
<time>2014-05-18T23:58:26Z</time>
</trkpt>
      <trkpt lat="10.38569272" lon="-75.48235810">
<time>2014-05-18T23:58:28Z</time>
</trkpt>
      <trkpt lat="10.38551855" lon="-75.48241007">
<time>2014-05-18T23:58:30Z</time>
</trkpt>
      <trkpt lat="10.38536346" lon="-75.48246098">
<time>2014-05-18T23:58:32Z</time>
</trkpt>
      <trkpt lat="10.38520622" lon="-75.48249829">
<time>2014-05-18T23:58:34Z</time>
</trkpt>
      <trkpt lat="10.38507998" lon="-75.48253930">
<time>2014-05-18T23:58:36Z</time>
</trkpt>
      <trkpt lat="10.38496614" lon="-75.48258245">
<time>2014-05-18T23:58:38Z</time>
</trkpt>
      <trkpt lat="10.38484800" lon="-75.48261845">
<time>2014-05-18T23:58:40Z</time>
</trkpt>
      <trkpt lat="10.38471889" lon="-75.48265612">
<time>2014-05-18T23:58:42Z</time>
</trkpt>
      <trkpt lat="10.38458228" lon="-75.48270977">
<time>2014-05-18T23:58:44Z</time>
</trkpt>
      <trkpt lat="10.38445783" lon="-75.48274815">
<time>2014-05-18T23:58:46Z</time>
</trkpt>
      <trkpt lat="10.38432825" lon="-75.48279905">
<time>2014-05-18T23:58:48Z</time>
</trkpt>
      <trkpt lat="10.38418472" lon="-75.48284173">
<time>2014-05-18T23:58:50Z</time>
</trkpt>
      <trkpt lat="10.38406265" lon="-75.48288774">
<time>2014-05-18T23:58:52Z</time>
</trkpt>
      <trkpt lat="10.38392043" lon="-75.48292828">
<time>2014-05-18T23:58:54Z</time>
</trkpt>
      <trkpt lat="10.38379014" lon="-75.48297822">
<time>2014-05-18T23:58:56Z</time>
</trkpt>
      <trkpt lat="10.38366139" lon="-75.48301661">
<time>2014-05-18T23:58:58Z</time>
</trkpt>
      <trkpt lat="10.38355207" lon="-75.48305380">
<time>2014-05-18T23:59:00Z</time>
</trkpt>
      <trkpt lat="10.38344514" lon="-75.48308742">
<time>2014-05-18T23:59:02Z</time>
</trkpt>
      <trkpt lat="10.38334572" lon="-75.48311925">
<time>2014-05-18T23:59:04Z</time>
</trkpt>
      <trkpt lat="10.38330162" lon="-75.48317289">
<time>2014-05-18T23:59:06Z</time>
</trkpt>
      <trkpt lat="10.38328183" lon="-75.48324049">
<time>2014-05-18T23:59:08Z</time>
</trkpt>
      <trkpt lat="10.38329411" lon="-75.48332059">
<time>2014-05-18T23:59:10Z</time>
</trkpt>
      <trkpt lat="10.38333166" lon="-75.48341632">
<time>2014-05-18T23:59:12Z</time>
</trkpt>
      <trkpt lat="10.38336897" lon="-75.48355138">
<time>2014-05-18T23:59:14Z</time>
</trkpt>
      <trkpt lat="10.38341641" lon="-75.48370659">
<time>2014-05-18T23:59:16Z</time>
</trkpt>
      <trkpt lat="10.38346481" lon="-75.48386192">
<time>2014-05-18T23:59:18Z</time>
</trkpt>
      <trkpt lat="10.38352478" lon="-75.48402524">
<time>2014-05-18T23:59:20Z</time>
</trkpt>
      <trkpt lat="10.38357842" lon="-75.48419046">
<time>2014-05-18T23:59:22Z</time>
</trkpt>
      <trkpt lat="10.38363409" lon="-75.48435390">
<time>2014-05-18T23:59:24Z</time>
</trkpt>
      <trkpt lat="10.38367116" lon="-75.48451293">
<time>2014-05-18T23:59:26Z</time>
</trkpt>
      <trkpt lat="10.38369393" lon="-75.48468912">
<time>2014-05-18T23:59:28Z</time>
</trkpt>
      <trkpt lat="10.38368273" lon="-75.48487258">
<time>2014-05-18T23:59:30Z</time>
</trkpt>
      <trkpt lat="10.38367760" lon="-75.48506165">
<time>2014-05-18T23:59:32Z</time>
</trkpt>
      <trkpt lat="10.38368714" lon="-75.48524606">
<time>2014-05-18T23:59:34Z</time>
</trkpt>
      <trkpt lat="10.38369858" lon="-75.48540831">
<time>2014-05-18T23:59:36Z</time>
</trkpt>
      <trkpt lat="10.38371956" lon="-75.48555076">
<time>2014-05-18T23:59:38Z</time>
</trkpt>
      <trkpt lat="10.38375807" lon="-75.48567557">
<time>2014-05-18T23:59:40Z</time>
</trkpt>
      <trkpt lat="10.38379574" lon="-75.48578143">
<time>2014-05-18T23:59:42Z</time>
</trkpt>
      <trkpt lat="10.38382912" lon="-75.48586214">
<time>2014-05-18T23:59:44Z</time>
</trkpt>
      <trkpt lat="10.38384855" lon="-75.48592627">
<time>2014-05-18T23:59:46Z</time>
</trkpt>
      <trkpt lat="10.38385475" lon="-75.48595679">
<time>2014-05-18T23:59:48Z</time>
</trkpt>
      <trkpt lat="10.38383508" lon="-75.48601389">
<time>2014-05-18T23:59:50Z</time>
</trkpt>
      <trkpt lat="10.38377726" lon="-75.48607838">
<time>2014-05-18T23:59:52Z</time>
</trkpt>
      <trkpt lat="10.38368082" lon="-75.48612177">
<time>2014-05-18T23:59:54Z</time>
</trkpt>
      <trkpt lat="10.38356197" lon="-75.48615730">
<time>2014-05-18T23:59:56Z</time>
</trkpt>
      <trkpt lat="10.38343465" lon="-75.48622811">
<time>2014-05-18T23:59:58Z</time>
</trkpt>
      <trkpt lat="10.38330317" lon="-75.48632681">
<time>2014-05-19T00:00:00Z</time>
</trkpt>
      <trkpt lat="10.38318098" lon="-75.48640692">
<time>2014-05-19T00:00:02Z</time>
</trkpt>
      <trkpt lat="10.38307691" lon="-75.48648810">
<time>2014-05-19T00:00:04Z</time>
</trkpt>
      <trkpt lat="10.38301313" lon="-75.48655307">
<time>2014-05-19T00:00:06Z</time>
</trkpt>
      <trkpt lat="10.38297796" lon="-75.48656046">
<time>2014-05-19T00:00:08Z</time>
</trkpt>
      <trkpt lat="10.38296056" lon="-75.48653841">
<time>2014-05-19T00:00:10Z</time>
</trkpt>
      <trkpt lat="10.38294578" lon="-75.48650873">
<time>2014-05-19T00:00:12Z</time>
</trkpt>
      <trkpt lat="10.38294172" lon="-75.48647106">
<time>2014-05-19T00:00:14Z</time>
</trkpt>
      <trkpt lat="10.38294148" lon="-75.48642600">
<time>2014-05-19T00:00:16Z</time>
</trkpt>
      <trkpt lat="10.38295877" lon="-75.48638225">
<time>2014-05-19T00:00:18Z</time>
</trkpt>
      <trkpt lat="10.38296115" lon="-75.48633206">
<time>2014-05-19T00:00:20Z</time>
</trkpt>
      <trkpt lat="10.38296366" lon="-75.48627794">
<time>2014-05-19T00:00:22Z</time>
</trkpt>
      <trkpt lat="10.38296247" lon="-75.48624063">
<time>2014-05-19T00:00:24Z</time>
</trkpt>
      <trkpt lat="10.38296592" lon="-75.48620057">
<time>2014-05-19T00:00:26Z</time>
</trkpt>
      <trkpt lat="10.38297141" lon="-75.48616457">
<time>2014-05-19T00:00:28Z</time>
</trkpt>
      <trkpt lat="10.38297939" lon="-75.48614073">
<time>2014-05-19T00:00:30Z</time>
</trkpt>
      <trkpt lat="10.38299644" lon="-75.48612666">
<time>2014-05-19T00:00:32Z</time>
</trkpt>
      <trkpt lat="10.38299644" lon="-75.48610556">
<time>2014-05-19T00:00:34Z</time>
</trkpt>
      <trkpt lat="10.38300359" lon="-75.48609114">
<time>2014-05-19T00:00:36Z</time>
</trkpt>
      <trkpt lat="10.38300729" lon="-75.48609209">
<time>2014-05-19T00:00:38Z</time>
</trkpt>
      <trkpt lat="10.38300872" lon="-75.48609006">
<time>2014-05-19T00:00:40Z</time>
</trkpt>
      <trkpt lat="10.38301194" lon="-75.48608673">
<time>2014-05-19T00:00:42Z</time>
</trkpt>
      <trkpt lat="10.38301373" lon="-75.48608422">
<time>2014-05-19T00:00:44Z</time>
</trkpt>
      <trkpt lat="10.38301480" lon="-75.48608315">
<time>2014-05-19T00:00:46Z</time>
</trkpt>
      <trkpt lat="10.38301492" lon="-75.48608315">
<time>2014-05-19T00:00:48Z</time>
</trkpt>
      <trkpt lat="10.38301599" lon="-75.48608208">
<time>2014-05-19T00:00:50Z</time>
</trkpt>
      <trkpt lat="10.38301539" lon="-75.48608243">
<time>2014-05-19T00:00:52Z</time>
</trkpt>
      <trkpt lat="10.38301289" lon="-75.48608482">
<time>2014-05-19T00:00:54Z</time>
</trkpt>
      <trkpt lat="10.38300943" lon="-75.48608816">
<time>2014-05-19T00:00:56Z</time>
</trkpt>
      <trkpt lat="10.38300562" lon="-75.48609114">
<time>2014-05-19T00:00:58Z</time>
</trkpt>
      <trkpt lat="10.38300133" lon="-75.48609447">
<time>2014-05-19T00:01:00Z</time>
</trkpt>
      <trkpt lat="10.38299966" lon="-75.48610115">
<time>2014-05-19T00:01:02Z</time>
</trkpt>
      <trkpt lat="10.38300109" lon="-75.48610282">
<time>2014-05-19T00:01:04Z</time>
</trkpt>
      <trkpt lat="10.38300359" lon="-75.48610389">
<time>2014-05-19T00:01:06Z</time>
</trkpt>
      <trkpt lat="10.38300490" lon="-75.48610377">
<time>2014-05-19T00:01:08Z</time>
</trkpt>
      <trkpt lat="10.38300514" lon="-75.48610389">
<time>2014-05-19T00:01:10Z</time>
</trkpt>
      <trkpt lat="10.38300574" lon="-75.48610294">
<time>2014-05-19T00:01:12Z</time>
</trkpt>
      <trkpt lat="10.38300657" lon="-75.48610163">
<time>2014-05-19T00:01:14Z</time>
</trkpt>
      <trkpt lat="10.38300908" lon="-75.48609912">
<time>2014-05-19T00:01:16Z</time>
</trkpt>
      <trkpt lat="10.38301075" lon="-75.48609543">
<time>2014-05-19T00:01:18Z</time>
</trkpt>
      <trkpt lat="10.38301229" lon="-75.48609328">
<time>2014-05-19T00:01:20Z</time>
</trkpt>
      <trkpt lat="10.38301325" lon="-75.48609090">
<time>2014-05-19T00:01:22Z</time>
</trkpt>
      <trkpt lat="10.38301277" lon="-75.48609197">
<time>2014-05-19T00:01:24Z</time>
</trkpt>
      <trkpt lat="10.38300979" lon="-75.48609543">
<time>2014-05-19T00:01:26Z</time>
</trkpt>
      <trkpt lat="10.38300776" lon="-75.48609924">
<time>2014-05-19T00:01:28Z</time>
</trkpt>
      <trkpt lat="10.38300610" lon="-75.48610532">
<time>2014-05-19T00:01:30Z</time>
</trkpt>
      <trkpt lat="10.38300550" lon="-75.48610878">
<time>2014-05-19T00:01:32Z</time>
</trkpt>
      <trkpt lat="10.38300574" lon="-75.48610830">
<time>2014-05-19T00:01:34Z</time>
</trkpt>
      <trkpt lat="10.38300765" lon="-75.48610580">
<time>2014-05-19T00:01:36Z</time>
</trkpt>
      <trkpt lat="10.38300860" lon="-75.48610258">
<time>2014-05-19T00:01:38Z</time>
</trkpt>
      <trkpt lat="10.38301027" lon="-75.48609662">
<time>2014-05-19T00:01:40Z</time>
</trkpt>
      <trkpt lat="10.38301158" lon="-75.48609042">
<time>2014-05-19T00:01:42Z</time>
</trkpt>
      <trkpt lat="10.38301289" lon="-75.48608327">
<time>2014-05-19T00:01:44Z</time>
</trkpt>
      <trkpt lat="10.38301599" lon="-75.48607659">
<time>2014-05-19T00:01:46Z</time>
</trkpt>
      <trkpt lat="10.38301814" lon="-75.48607111">
<time>2014-05-19T00:01:48Z</time>
</trkpt>
      <trkpt lat="10.38301992" lon="-75.48606491">
<time>2014-05-19T00:01:50Z</time>
</trkpt>
      <trkpt lat="10.38302267" lon="-75.48605740">
<time>2014-05-19T00:01:52Z</time>
</trkpt>
      <trkpt lat="10.38302624" lon="-75.48605192">
<time>2014-05-19T00:01:54Z</time>
</trkpt>
      <trkpt lat="10.38303041" lon="-75.48604739">
<time>2014-05-19T00:01:56Z</time>
</trkpt>
      <trkpt lat="10.38303411" lon="-75.48604321">
<time>2014-05-19T00:01:58Z</time>
</trkpt>
      <trkpt lat="10.38303816" lon="-75.48603916">
<time>2014-05-19T00:02:00Z</time>
</trkpt>
      <trkpt lat="10.38304281" lon="-75.48603392">
<time>2014-05-19T00:02:02Z</time>
</trkpt>
      <trkpt lat="10.38304722" lon="-75.48602879">
<time>2014-05-19T00:02:04Z</time>
</trkpt>
      <trkpt lat="10.38305163" lon="-75.48602331">
<time>2014-05-19T00:02:06Z</time>
</trkpt>
      <trkpt lat="10.38305557" lon="-75.48601711">
<time>2014-05-19T00:02:08Z</time>
</trkpt>
      <trkpt lat="10.38305926" lon="-75.48601115">
<time>2014-05-19T00:02:10Z</time>
</trkpt>
    </trkseg>
  </trk>
</gpx>
